# Wetter Temperatur Luftdruck Luftfeuchtigkeit Sichtweite Windgeschwindigkeit Windrichtung Zeit
1 Clouds 2 1010 80 10000 2.6 200 09:58 29.01.2020
2 Clouds 2 1010 80 10000 2.6 200 09:39 29.01.2020
3 Clouds 2 1010 80 10000 2.6 200 09:20 29.01.2020
4 Clouds 2 1010 74 10000 2.6 220 08:56 29.01.2020
5 Clouds 2 1009 74 10000 2.1 220 08:37 29.01.2020
6 Clouds 2 1009 74 10000 2.1 220 08:18 29.01.2020
7 Clouds 2 1009 80 10000 4.6 260 07:43 29.01.2020
8 Clouds 2 1008 80 10000 6.7 260 07:21 29.01.2020
9 Snow 2 1008 74 10000 9.3 260 06:38 29.01.2020
10 Snow 2 1008 74 10000 9.3 260 06:19 29.01.2020
11 Snow 2 1007 83 10000 8.2 260 05:52 29.01.2020
12 Snow 2 1007 83 10000 6.2 240 05:33 29.01.2020
13 Clouds 2 1005 83 10000 9.3 270 04:39 29.01.2020
14 Clouds 2 1005 83 10000 9.3 270 03:59 29.01.2020
15 Snow 1 1003 100 6000 2.6 210 02:38 29.01.2020
16 Snow 2 1003 87 8000 4.6 220 01:27 29.01.2020
17 Clouds 2 1004 86 10000 1.5 110 00:39 29.01.2020
18 Clouds 2 1004 86 10000 1.5 110 00:21 29.01.2020
19 Clouds 2 1005 80 10000 2.1 210 23:40 28.01.2020
20 Clouds 2 1005 80 10000 2.1 210 23:20 28.01.2020
21 Clouds 2 1005 80 10000 3.1 200 22:56 28.01.2020
22 Clouds 2 1006 80 10000 3.1 180 22:36 28.01.2020
23 Clouds 2 1006 80 10000 3.1 180 22:18 28.01.2020
24 Clouds 2 1006 80 10000 3.1 180 22:18 28.01.2020
25 Clouds 2 1006 74 10000 1.5 180 21:39 28.01.2020
26 Clouds 2 1006 74 10000 1.5 180 21:20 28.01.2020
27 Clouds 2 1006 80 10000 2.6 220 20:46 28.01.2020
28 Clouds 2 1006 80 10000 2.6 220 20:28 28.01.2020
29 Clouds 2 1005 73 10000 3.6 250 19:58 28.01.2020
30 Clouds 2 1004 73 10000 7.2 240 19:38 28.01.2020
31 Clouds 2 1004 73 10000 7.2 240 19:19 28.01.2020
32 Snow 3 1004 74 10000 4.1 220 18:57 28.01.2020
33 Clouds 3 1004 74 10000 5.1 230 18:38 28.01.2020
34 Clouds 3 1004 74 10000 5.1 230 18:20 28.01.2020
35 Clouds 4 1004 73 10000 6.7 240 17:55 28.01.2020
36 Clouds 4 1003 69 10000 7.2 240 17:36 28.01.2020
37 Clouds 4 1003 69 10000 7.2 240 17:18 28.01.2020
38 Clouds 4 1002 69 10000 7.7 250 16:44 28.01.2020
39 Clouds 5 1002 64 10000 8.2 250 16:26 28.01.2020
40 Rain 4 1002 64 10000 7.7 240 15:59 28.01.2020
41 Rain 4 1002 64 10000 7.7 240 15:40 28.01.2020
42 Rain 4 1001 69 10000 11.3 250 15:18 28.01.2020
43 Snow 4 1001 64 3500 15.4 250 14:44 28.01.2020
44 Snow 4 1001 58 3500 15.4 250 14:20 28.01.2020
45 Rain 5 1001 69 10000 9.3 240 13:45 28.01.2020
46 Rain 6 1001 70 10000 9.3 260 13:25 28.01.2020
47 Rain 5 1000 80 10000 10.8 270 12:58 28.01.2020
48 Rain 5 1000 75 10000 6.7 240 12:40 28.01.2020
49 Rain 6 1000 75 10000 6.7 240 12:22 28.01.2020
50 Clouds 5 1000 70 10000 7.2 250 11:43 28.01.2020
51 Clouds 5 999 80 10000 8.2 270 11:23 28.01.2020
52 Rain 5 999 75 10000 9.8 230 10:56 28.01.2020
53 Rain 5 999 75 10000 9.8 230 10:56 28.01.2020
54 Rain 5 998 87 10000 5.1 220 10:38 28.01.2020
55 Rain 5 998 87 10000 5.1 220 10:18 28.01.2020
56 Clouds 6 998 81 10000 4.6 210 09:42 28.01.2020
57 Clouds 6 998 81 10000 4.6 210 09:21 28.01.2020
58 Rain 6 999 81 10000 5.1 210 08:57 28.01.2020
59 Clouds 6 999 81 10000 5.1 190 08:39 28.01.2020
60 Clouds 6 999 81 10000 5.1 190 08:18 28.01.2020
61 Clouds 6 1000 81 10000 5.1 190 07:37 28.01.2020
62 Clouds 6 1000 81 10000 5.1 190 07:37 28.01.2020
63 Clouds 5 1000 81 10000 4.6 200 06:50 28.01.2020
64 Clouds 6 1001 81 10000 4.1 200 06:26 28.01.2020
65 Clouds 5 1001 81 10000 3.6 220 05:54 28.01.2020
66 Clouds 5 1001 86 10000 3.1 210 05:26 28.01.2020
67 Clouds 6 1002 81 10000 6.2 210 04:28 28.01.2020
68 Rain 6 1002 81 10000 6.2 200 02:58 28.01.2020
69 Rain 6 1002 75 10000 5.7 200 02:25 28.01.2020
70 Clouds 6 1003 75 10000 4.1 200 01:57 28.01.2020
71 Clouds 6 1003 75 10000 4.1 200 01:57 28.01.2020
72 Clouds 6 1004 75 10000 5.1 190 01:26 28.01.2020
73 Rain 6 1004 81 10000 5.1 200 00:51 28.01.2020
74 Rain 6 1005 81 10000 5.1 200 00:29 28.01.2020
75 Rain 6 1005 81 10000 5.7 200 23:51 27.01.2020
76 Rain 6 1006 81 10000 3.1 200 23:30 27.01.2020
77 Rain 6 1006 81 10000 4.1 200 22:56 27.01.2020
78 Rain 6 1006 81 10000 4.1 210 22:38 27.01.2020
79 Rain 6 1006 81 10000 4.1 210 22:19 27.01.2020
80 Rain 6 1007 75 10000 3.1 220 21:55 27.01.2020
81 Rain 6 1007 70 10000 3.6 210 21:37 27.01.2020
82 Rain 6 1007 70 10000 3.6 210 21:18 27.01.2020
83 Clouds 6 1008 70 10000 3.1 200 20:43 27.01.2020
84 Clouds 6 1008 70 10000 3.1 200 20:22 27.01.2020
85 Clouds 6 1008 70 10000 3.1 200 19:59 27.01.2020
86 Rain 6 1008 65 10000 3.1 220 19:41 27.01.2020
87 Rain 6 1008 87 10000 2.6 200 19:22 27.01.2020
88 Clouds 6 1009 75 10000 1.5 170 18:56 27.01.2020
89 Clouds 6 1009 75 10000 2.1 160 18:38 27.01.2020
90 Clouds 6 1009 75 10000 2.1 160 18:19 27.01.2020
91 Clouds 7 1009 75 10000 3.1 170 17:39 27.01.2020
92 Clouds 7 1010 70 10000 3.6 170 17:21 27.01.2020
93 Clouds 7 1010 70 10000 3.6 170 16:59 27.01.2020
94 Rain 8 1010 66 10000 3.6 180 16:41 27.01.2020
95 Rain 8 1010 66 10000 3.6 180 16:23 27.01.2020
96 Clouds 8 1010 61 10000 3.6 200 15:55 27.01.2020
97 Clouds 8 1011 61 10000 3.1 210 15:37 27.01.2020
98 Clouds 9 1011 57 10000 2.6 220 15:19 27.01.2020
99 Clouds 9 1011 61 10000 3.1 210 15:19 27.01.2020
100 Clouds 9 1011 57 10000 2.6 220 14:54 27.01.2020
101 Clouds 9 1011 61 10000 4.1 200 14:36 27.01.2020
102 Clouds 9 1011 61 10000 4.1 200 14:18 27.01.2020
103 Clouds 9 1012 61 10000 2.6 180 13:41 27.01.2020
104 Clouds 9 1012 61 10000 2.6 180 13:20 27.01.2020
105 Clouds 9 1013 66 10000 2.6 140 12:56 27.01.2020
106 Clouds 9 1014 70 10000 2.6 140 12:37 27.01.2020
107 Clouds 8 1014 70 10000 2.6 140 12:19 27.01.2020
108 Clouds 7 1014 70 10000 3.1 180 11:41 27.01.2020
109 Clouds 7 1014 70 10000 3.1 180 11:21 27.01.2020
110 Clouds 6 1015 80 10000 2.1 170 10:43 27.01.2020
111 Clouds 5 1015 80 10000 2.1 170 10:25 27.01.2020
112 Clouds 5 1015 86 10000 2.6 190 09:57 27.01.2020
113 Clouds 4 1016 86 10000 1 0 09:38 27.01.2020
114 Clouds 4 1016 86 10000 1 0 09:18 27.01.2020
115 Clouds 3 1016 86 10000 1 0 08:46 27.01.2020
116 Clouds 3 1016 86 10000 1 0 08:22 27.01.2020
117 Clouds 3 1016 93 10000 1.5 200 07:55 27.01.2020
118 Clouds 3 1016 86 10000 1 0 07:35 27.01.2020
119 Clouds 2 1016 90 10000 0.5 0 06:55 27.01.2020
120 Clouds 2 1016 90 10000 1 0 06:27 27.01.2020
121 Clouds 2 1016 93 10000 1 0 05:37 27.01.2020
122 Clouds 2 1016 93 10000 1 0 05:37 27.01.2020
123 Clouds 2 1017 93 10000 0.5 0 04:20 27.01.2020
124 Clouds 1 1017 91 10000 1.93 194 03:27 27.01.2020
125 Clouds 1 1018 90 10000 1 0 01:32 27.01.2020
126 Clouds 1 1018 90 10000 0.5 0 00:59 27.01.2020
127 Clouds 1 1018 100 10000 0.5 0 00:38 27.01.2020
128 Clouds 1 1018 100 10000 0.5 0 00:19 27.01.2020
129 Clouds 1 1018 90 10000 0.5 0 23:42 26.01.2020
130 Clouds 1 1018 88 10000 0.5 0 23:20 26.01.2020
131 Clouds 1 1018 88 10000 0.5 160 22:57 26.01.2020
132 Clouds 1 1018 88 10000 1 280 22:37 26.01.2020
133 Clouds 1 1018 88 10000 1 280 22:19 26.01.2020
134 Clouds 1 1018 88 10000 0.5 0 21:57 26.01.2020
135 Clouds 1 1018 88 10000 1 290 21:38 26.01.2020
136 Clouds 1 1018 88 10000 1 290 21:20 26.01.2020
137 Clouds 2 1018 88 10000 1.5 270 20:57 26.01.2020
138 Clouds 2 1018 88 10000 1.5 280 20:38 26.01.2020
139 Clouds 1 1018 84 10000 1.5 280 20:18 26.01.2020
140 Clouds 2 1017 84 10000 2.1 290 19:57 26.01.2020
141 Clouds 2 1017 86 10000 0.5 0 19:37 26.01.2020
142 Clouds 2 1017 86 10000 0.5 0 19:18 26.01.2020
143 Clouds 3 1017 84 10000 1 0 18:54 26.01.2020
144 Clouds 3 1017 81 10000 2.6 320 18:36 26.01.2020
145 Clouds 4 1017 81 10000 2.6 320 18:18 26.01.2020
146 Clouds 4 1017 75 10000 1 320 17:54 26.01.2020
147 Clouds 5 1017 75 10000 1 0 17:36 26.01.2020
148 Clouds 6 1017 75 10000 1 0 17:18 26.01.2020
149 Clouds 6 1017 75 10000 1 0 16:54 26.01.2020
150 Clouds 7 1017 75 10000 1.5 50 16:36 26.01.2020
151 Clouds 7 1017 75 10000 1.5 50 16:18 26.01.2020
152 Clouds 7 1026 90 0 0.45 114 15:41 26.01.2020
153 Clouds 7 1026 90 0 0.45 114 15:19 26.01.2020
154 Clouds 7 1017 87 0 1.08 105 14:41 26.01.2020
155 Clouds 6 1026 90 0 0.45 114 14:23 26.01.2020
156 Clouds 6 1017 88 0 0.65 120 13:59 26.01.2020
157 Clouds 6 1026 90 0 0.45 114 13:59 26.01.2020
158 Clouds 6 1026 90 0 0.45 114 13:38 26.01.2020
159 Clouds 6 1026 90 0 0.45 114 13:18 26.01.2020
160 Clouds 5 1019 83 0 0.73 116 13:18 26.01.2020
161 Clouds 5 1026 90 0 0.45 114 12:43 26.01.2020
162 Clouds 5 1026 90 0 0.45 114 12:43 26.01.2020
163 Clouds 5 1026 90 0 0.45 114 12:25 26.01.2020
164 Clouds 4 1026 90 0 0.45 114 11:59 26.01.2020
165 Clouds 3 1026 90 0 0.45 114 11:40 26.01.2020
166 Clouds 2 1019 100 6000 0.5 0 11:19 26.01.2020
167 Clouds 2 1019 100 6000 0.5 0 10:59 26.01.2020
168 Clouds 1 1019 100 6000 0.5 0 10:39 26.01.2020
169 Clouds 0 1019 100 6000 0.5 0 10:21 26.01.2020
170 Mist 0 1019 92 5000 0.5 0 09:59 26.01.2020
171 Mist 0 1019 92 5000 0.5 0 09:41 26.01.2020
172 Mist 0 1019 100 4000 0.5 0 09:22 26.01.2020
173 Mist -1 1019 100 2000 0.5 330 08:57 26.01.2020
174 Fog -1 1019 100 700 1 330 08:38 26.01.2020
175 Fog -1 1019 100 700 1 330 08:20 26.01.2020
176 Fog -1 1019 100 500 1 310 07:47 26.01.2020
177 Fog -1 1019 100 250 1 0 07:22 26.01.2020
178 Fog -1 1019 100 6000 0.5 40 06:38 26.01.2020
179 Fog -1 1019 100 6000 0.5 40 06:18 26.01.2020
180 Mist -1 1019 100 5000 0.5 0 05:26 26.01.2020
181 Mist 0 1019 100 4000 1 310 03:23 26.01.2020
182 Clouds 0 1019 100 9000 0.5 0 02:24 26.01.2020
183 Clouds 0 1020 100 10000 0.5 0 01:40 26.01.2020
184 Clouds 0 1020 100 10000 0.5 0 01:21 26.01.2020
185 Clouds 0 1020 92 10000 0.5 0 00:41 26.01.2020
186 Clouds 0 1020 100 10000 0.5 0 00:20 26.01.2020
187 Clouds 0 1020 93 0 0.81 148 23:39 25.01.2020
188 Clouds 0 1020 93 0 1.18 143 23:20 25.01.2020
189 Clouds 1 1020 93 0 1.18 143 22:56 25.01.2020
190 Clouds 1 1020 93 0 1.18 143 22:36 25.01.2020
191 Clouds 1 1021 84 0 1.18 143 22:18 25.01.2020
192 Clouds 1 1022 87 0 1.18 143 21:41 25.01.2020
193 Clouds 1 1020 92 0 1.18 143 21:23 25.01.2020
194 Clouds 1 1020 92 0 1.18 143 21:23 25.01.2020
195 Clouds 1 1022 87 0 1.18 143 20:56 25.01.2020
196 Clouds 1 1020 91 0 1.18 143 20:38 25.01.2020
197 Clouds 1 1022 87 0 0.76 169 20:20 25.01.2020
198 Clouds 1 1020 90 0 0.72 163 19:44 25.01.2020
199 Clouds 2 1020 99 0 0.72 163 19:20 25.01.2020
200 Clouds 2 1026 90 0 0.45 114 18:59 25.01.2020
201 Clouds 3 1026 90 0 0.45 114 18:41 25.01.2020
202 Clouds 3 1026 90 0 0.45 114 18:20 25.01.2020
203 Clouds 3 1026 90 0 0.45 114 17:54 25.01.2020
204 Clouds 5 1026 90 0 0.45 114 17:36 25.01.2020
205 Clouds 5 1026 90 0 0.45 114 17:18 25.01.2020
206 Clouds 7 1026 90 0 0.45 114 16:42 25.01.2020
207 Clouds 7 1026 90 0 0.45 114 16:22 25.01.2020
208 Clouds 7 1026 90 0 0.45 114 15:56 25.01.2020
209 Clouds 7 1026 90 0 0.45 114 15:37 25.01.2020
210 Clouds 7 1026 90 0 0.45 114 15:19 25.01.2020
211 Clouds 7 1026 90 0 0.45 114 14:41 25.01.2020
212 Clouds 7 1026 90 0 0.45 114 14:19 25.01.2020
213 Clouds 6 1022 78 0 0.96 32 13:44 25.01.2020
214 Clouds 6 1026 90 0 0.45 114 13:25 25.01.2020
215 Clouds 6 1022 86 7000 1 0 12:50 25.01.2020
216 Clouds 5 1022 86 7000 1 0 12:30 25.01.2020
217 Clouds 4 1022 73 8000 0.5 0 11:57 25.01.2020
218 Clouds 3 1022 73 8000 1 0 11:38 25.01.2020
219 Clouds 2 1022 85 8000 1 0 11:19 25.01.2020
220 Clouds 1 1022 85 8000 1 0 10:42 25.01.2020
221 Clouds 0 1022 92 8000 0.5 0 10:21 25.01.2020
222 Clouds 0 1022 92 8000 0.5 0 09:59 25.01.2020
223 Clouds -1 1022 92 9000 0.5 140 09:38 25.01.2020
224 Clouds -1 1022 92 9000 0.5 340 09:19 25.01.2020
225 Clouds -1 1021 92 9000 0.5 0 08:42 25.01.2020
226 Clouds -1 1022 92 9000 0.5 340 08:42 25.01.2020
227 Clouds -2 1021 100 10000 0.5 0 07:54 25.01.2020
228 Clouds -2 1021 92 10000 0.5 210 07:28 25.01.2020
229 Clouds -2 1021 100 10000 0.5 0 06:31 25.01.2020
230 Clouds -2 1021 100 10000 1 0 05:57 25.01.2020
231 Clouds -2 1021 100 10000 1 0 05:38 25.01.2020
232 Clouds -2 1021 100 10000 1 0 05:38 25.01.2020
233 Clouds -2 1021 92 10000 0.5 0 03:58 25.01.2020
234 Clouds -2 1021 100 10000 1.5 280 03:39 25.01.2020
235 Clouds -2 1021 92 10000 1.5 60 02:37 25.01.2020
236 Clouds -2 1021 92 10000 1 0 01:57 25.01.2020
237 Clear -1 1021 92 10000 1 300 01:23 25.01.2020
238 Clear -1 1022 92 10000 1 0 00:39 25.01.2020
239 Clear -1 1022 92 10000 1 0 00:18 25.01.2020
240 Clear -1 1022 92 10000 1 0 23:42 24.01.2020
241 Clouds -1 1022 82 10000 1 0 23:24 24.01.2020
242 Clouds -1 1022 82 10000 1 190 22:47 24.01.2020
243 Clouds -1 1022 92 10000 1 0 22:28 24.01.2020
244 Clouds -1 1022 82 10000 1 0 21:59 24.01.2020
245 Clouds -1 1022 92 10000 1 0 21:40 24.01.2020
246 Clouds -1 1022 92 10000 1 0 21:19 24.01.2020
247 Clouds 0 1022 82 10000 1 0 20:44 24.01.2020
248 Clear 0 1022 80 10000 2.1 300 20:23 24.01.2020
249 Clear 0 1022 86 10000 1.5 280 19:59 24.01.2020
250 Clear 0 1022 86 10000 2.6 310 19:41 24.01.2020
251 Clear 1 1022 86 10000 2.6 310 19:22 24.01.2020
252 Clear 1 1022 80 10000 1 0 18:58 24.01.2020
253 Clear 1 1022 80 10000 1 0 18:40 24.01.2020
254 Clear 2 1022 80 10000 1 0 18:21 24.01.2020
255 Clear 3 1021 74 10000 2.1 360 17:44 24.01.2020
256 Clear 4 1021 74 10000 2.1 360 17:22 24.01.2020
257 Clear 4 1022 69 10000 2.6 10 16:57 24.01.2020
258 Clear 5 1022 60 10000 2.1 70 16:38 24.01.2020
259 Clear 6 1022 60 10000 2.1 70 16:19 24.01.2020
260 Clear 6 1022 70 10000 1 90 15:41 24.01.2020
261 Clear 6 1022 70 10000 1 90 15:21 24.01.2020
262 Clear 7 1022 60 10000 1.5 80 14:55 24.01.2020
263 Clear 6 1022 60 10000 1.5 80 14:36 24.01.2020
264 Clear 6 1022 46 10000 1.5 80 14:18 24.01.2020
265 Clear 5 1023 74 10000 1 0 13:41 24.01.2020
266 Clear 5 1023 74 10000 1 0 13:21 24.01.2020
267 Clear 4 1023 74 10000 1.5 130 12:43 24.01.2020
268 Clear 3 1024 74 10000 1.5 0 12:21 24.01.2020
269 Clear 2 1024 47 10000 1.5 110 11:45 24.01.2020
270 Clear 1 1024 80 9000 2.1 130 11:19 24.01.2020
271 Clear 0 1024 80 9000 2.1 130 10:58 24.01.2020
272 Clear 0 1024 80 9000 2.1 130 10:40 24.01.2020
273 Clear -1 1024 92 8000 1.5 110 10:19 24.01.2020
274 Clouds -2 1024 86 7000 1 0 09:41 24.01.2020
275 Clouds -2 1024 100 6000 0.5 0 09:23 24.01.2020
276 Mist -3 1024 100 5000 0.5 120 08:41 24.01.2020
277 Mist -3 1024 100 5000 0.5 120 08:21 24.01.2020
278 Clouds -3 1024 100 6000 0.5 90 08:00 24.01.2020
279 Clouds -3 1024 100 8000 0.5 0 07:41 24.01.2020
280 Clouds -3 1024 100 8000 0.5 0 07:18 24.01.2020
281 Clouds -2 1024 92 9000 0.5 0 06:42 24.01.2020
282 Clouds -2 1024 92 9000 0.5 210 06:18 24.01.2020
283 Clouds -2 1024 92 9000 1 0 05:21 24.01.2020
284 Clouds -1 1025 86 10000 1 0 03:29 24.01.2020
285 Clouds -1 1025 86 10000 1.5 210 02:39 24.01.2020
286 Clouds -1 1025 86 10000 2.1 190 02:19 24.01.2020
287 Clouds -1 1025 86 10000 2.1 190 01:38 24.01.2020
288 Clouds -1 1026 80 9000 2.6 180 00:42 24.01.2020
289 Clouds -1 1026 80 9000 2.6 180 00:19 24.01.2020
290 Clouds -1 1026 80 9000 2.6 190 23:41 23.01.2020
291 Clouds -1 1026 80 9000 2.1 190 23:21 23.01.2020
292 Clouds 0 1026 92 9000 1 0 22:58 23.01.2020
293 Clouds 0 1026 86 9000 1 180 22:37 23.01.2020
294 Clouds 0 1026 86 9000 1 180 22:37 23.01.2020
295 Clouds 0 1026 86 9000 1 180 22:18 23.01.2020
296 Clouds 0 1026 86 9000 1 140 21:55 23.01.2020
297 Clouds 0 1026 92 9000 1 140 21:37 23.01.2020
298 Clouds 0 1026 92 9000 1 140 21:19 23.01.2020
299 Clouds 0 1026 92 7000 1.5 100 20:54 23.01.2020
300 Clouds 0 1026 92 7000 1 80 20:36 23.01.2020
301 Clouds 0 1026 92 7000 1 80 20:18 23.01.2020
302 Clouds 0 1026 86 7000 1.5 70 19:42 23.01.2020
303 Clouds 0 1026 92 7000 1.5 90 19:23 23.01.2020
304 Clouds 0 1026 86 8000 3.6 60 18:57 23.01.2020
305 Clouds 0 1026 86 8000 3.1 60 18:38 23.01.2020
306 Clouds -1 1026 86 8000 3.1 60 18:19 23.01.2020
307 Clouds 0 1026 86 8000 2.6 80 17:55 23.01.2020
308 Clouds 0 1026 78 9000 3.6 80 17:37 23.01.2020
309 Clouds 0 1026 64 9000 3.6 80 17:18 23.01.2020
310 Clouds 0 1026 80 10000 3.6 80 16:39 23.01.2020
311 Clouds 1 1027 86 10000 2.6 100 16:20 23.01.2020
312 Clouds 1 1027 86 10000 2.6 100 16:20 23.01.2020
313 Clouds 1 1027 86 10000 2.6 100 15:58 23.01.2020
314 Clouds 1 1027 86 8000 1.5 30 15:39 23.01.2020
315 Clouds 1 1027 86 8000 1.5 30 15:19 23.01.2020
316 Clouds 1 1028 86 8000 2.1 350 14:59 23.01.2020
317 Clouds 1 1028 64 9000 2.1 10 14:41 23.01.2020
318 Clouds 1 1028 61 9000 2.1 10 14:22 23.01.2020
319 Clouds 1 1029 61 9000 1.5 90 13:59 23.01.2020
320 Clouds 1 1030 60 7000 1 0 13:37 23.01.2020
321 Clouds 1 1030 60 7000 1 0 13:19 23.01.2020
322 Mist 2 1030 86 4500 0.5 0 12:44 23.01.2020
323 Mist 1 1030 86 4500 0.5 0 12:24 23.01.2020
324 Mist 0 1031 92 3800 0.5 0 11:56 23.01.2020
325 Mist 0 1031 92 3800 1 0 11:37 23.01.2020
326 Mist 0 1031 92 3800 1 0 11:37 23.01.2020
327 Mist -1 1031 92 3800 1 0 11:18 23.01.2020
328 Mist -1 1031 92 4300 0.5 0 10:44 23.01.2020
329 Mist -1 1031 92 5000 0.5 0 10:22 23.01.2020
330 Mist -1 1031 92 5000 0.5 0 09:43 23.01.2020
331 Mist -2 1031 92 5000 0.5 0 09:25 23.01.2020
332 Mist -2 1031 92 4000 1 0 08:59 23.01.2020
333 Mist -2 1031 92 4000 1 0 08:40 23.01.2020
334 Fog -3 1031 92 3200 1.5 200 08:22 23.01.2020
335 Fog -2 1031 92 4000 1 0 07:45 23.01.2020
336 Fog -2 1031 92 4500 0.5 0 07:26 23.01.2020
337 Fog -2 1031 92 4500 0.5 0 06:51 23.01.2020
338 Fog -3 1032 92 3000 0.5 0 06:22 23.01.2020
339 Fog -3 1032 92 1700 1 0 05:57 23.01.2020
340 Fog -3 1033 100 2500 1 0 04:24 23.01.2020
341 Fog -4 1034 100 400 0.5 0 02:34 23.01.2020
342 Fog -4 1034 100 600 1 220 01:33 23.01.2020
343 Fog -4 1034 100 1200 1 0 00:27 23.01.2020
344 Fog -4 1034 100 1500 1 0 23:48 22.01.2020
345 Mist -4 1034 92 4000 1 0 23:30 22.01.2020
346 Mist -4 1034 92 5000 1 0 22:59 22.01.2020
347 Clouds -3 1034 92 6000 2.1 330 22:41 22.01.2020
348 Mist -3 1034 92 5000 1 0 22:41 22.01.2020
349 Clouds -4 1034 92 6000 2.1 330 22:22 22.01.2020
350 Clouds -3 1034 92 6000 1.5 240 21:40 22.01.2020
351 Clouds -3 1034 92 6000 1.5 240 21:22 22.01.2020
352 Mist -3 1034 92 4500 1 0 20:57 22.01.2020
353 Mist -3 1034 92 4500 2.1 360 20:39 22.01.2020
354 Mist -3 1034 92 4500 2.1 360 20:21 22.01.2020
355 Mist -3 1033 92 5000 2.6 350 19:57 22.01.2020
356 Mist -3 1033 92 5000 2.6 350 19:38 22.01.2020
357 Clear -3 1033 86 6000 2.6 350 19:19 22.01.2020
358 Clear -2 1033 86 6000 2.1 340 18:57 22.01.2020
359 Clear -2 1033 92 6000 2.6 310 18:38 22.01.2020
360 Clear -2 1033 92 6000 2.6 310 18:19 22.01.2020
361 Mist -2 1033 92 4500 2.1 250 17:54 22.01.2020
362 Mist -1 1033 92 4500 1 0 17:36 22.01.2020
363 Mist -1 1033 92 4500 1 0 17:18 22.01.2020
364 Mist 0 1033 86 3500 4.6 350 16:43 22.01.2020
365 Mist 0 1033 86 3500 4.6 350 16:23 22.01.2020
366 Clouds 0 1033 86 6000 4.6 350 15:58 22.01.2020
367 Clear 0 1033 60 8000 4.1 360 15:40 22.01.2020
368 Clear 0 1033 60 8000 4.1 360 15:40 22.01.2020
369 Clear 1 1033 60 8000 4.1 360 15:22 22.01.2020
370 Clear 1 1033 74 10000 1.5 70 14:57 22.01.2020
371 Clouds 1 1033 74 10000 1.5 100 14:37 22.01.2020
372 Clouds 1 1033 74 10000 1.5 100 14:18 22.01.2020
373 Clouds 0 1033 48 10000 1.5 20 13:54 22.01.2020
374 Clouds 0 1033 49 9000 1 0 13:36 22.01.2020
375 Clouds 0 1033 49 9000 1 0 13:18 22.01.2020
376 Clouds 1 1033 86 7000 1 0 12:55 22.01.2020
377 Mist 1 1034 92 5000 1.5 140 12:37 22.01.2020
378 Mist 0 1034 92 5000 1.5 140 12:18 22.01.2020
379 Mist -1 1034 86 4000 1 0 11:56 22.01.2020
380 Mist -1 1034 92 4000 1 0 11:37 22.01.2020
381 Mist -2 1034 92 4000 1 0 11:18 22.01.2020
382 Mist -3 1034 92 4500 1.5 50 10:44 22.01.2020
383 Mist -3 1034 92 4500 1.5 50 10:20 22.01.2020
384 Mist -3 1034 92 4000 1 0 09:44 22.01.2020
385 Mist -3 1034 92 4000 1 0 09:25 22.01.2020
386 Mist -3 1034 85 4000 1 0 08:58 22.01.2020
387 Clouds -4 1034 92 6000 1 260 08:40 22.01.2020
388 Clouds -4 1034 92 6000 1 260 08:21 22.01.2020
389 Clouds -4 1034 92 7000 0.5 0 07:58 22.01.2020
390 Clouds -4 1034 92 8000 0.5 220 07:40 22.01.2020
391 Clouds -4 1034 92 8000 0.5 220 07:21 22.01.2020
392 Clouds -4 1033 92 8000 2.6 290 06:31 22.01.2020
393 Clouds -4 1034 92 8000 0.5 0 05:42 22.01.2020
394 Clear -4 1034 92 9000 1 0 04:20 22.01.2020
395 Clear -4 1034 92 9000 0.5 0 03:23 22.01.2020
396 Clear -4 1034 92 9000 0.5 0 03:23 22.01.2020
397 Clouds -3 1035 92 8000 0.5 160 02:32 22.01.2020
398 Clouds -3 1036 92 7000 0.5 90 00:46 22.01.2020
399 Clouds -3 1036 92 7000 0.5 90 00:27 22.01.2020
400 Clear -3 1036 92 8000 1.5 40 23:55 21.01.2020
401 Clouds -3 1036 92 8000 1 20 23:36 21.01.2020
402 Clouds -3 1036 92 8000 1 20 23:18 21.01.2020
403 Clouds -2 1036 92 9000 0.5 0 22:39 21.01.2020
404 Clouds -2 1036 92 9000 0.5 0 22:20 21.01.2020
405 Clouds -2 1036 92 9000 0.5 0 22:20 21.01.2020
406 Clouds -2 1037 92 9000 1.5 80 21:57 21.01.2020
407 Clouds -2 1037 92 9000 2.1 60 21:38 21.01.2020
408 Clouds -2 1037 92 9000 2.1 60 21:20 21.01.2020
409 Clouds -2 1037 92 9000 2.1 80 20:56 21.01.2020
410 Clouds -2 1037 86 10000 2.6 60 20:37 21.01.2020
411 Clouds -2 1037 86 10000 2.6 60 20:18 21.01.2020
412 Clouds -2 1037 92 10000 2.1 90 19:56 21.01.2020
413 Clouds -1 1037 86 10000 3.1 80 19:37 21.01.2020
414 Clouds -1 1037 86 10000 2.1 90 19:19 21.01.2020
415 Clouds -1 1037 86 10000 2.1 90 18:55 21.01.2020
416 Clouds -1 1037 86 10000 2.6 90 18:37 21.01.2020
417 Clouds -1 1037 86 10000 2.6 90 18:18 21.01.2020
418 Clouds 0 1038 80 10000 2.1 60 17:44 21.01.2020
419 Clouds 0 1038 80 10000 2.1 60 17:20 21.01.2020
420 Clouds 1 1038 74 10000 2.1 50 16:59 21.01.2020
421 Clouds 1 1038 69 10000 1.5 30 16:37 21.01.2020
422 Clouds 1 1038 69 10000 1.5 30 16:19 21.01.2020
423 Clouds 2 1038 64 10000 1 0 15:54 21.01.2020
424 Clouds 2 1038 69 10000 1 0 15:36 21.01.2020
425 Clouds 2 1038 69 10000 1 0 15:18 21.01.2020
426 Clouds 2 1039 69 10000 1.5 0 14:38 21.01.2020
427 Clouds 2 1039 69 10000 1.5 0 14:20 21.01.2020
428 Clouds 2 1040 69 10000 1.5 170 13:40 21.01.2020
429 Clouds 1 1040 69 10000 1.5 170 13:19 21.01.2020
430 Clouds 1 1040 74 10000 1 0 12:45 21.01.2020
431 Clouds 1 1040 74 10000 2.1 170 12:27 21.01.2020
432 Clouds 0 1040 66 10000 2.1 150 11:58 21.01.2020
433 Clouds 0 1040 66 10000 2.1 150 11:40 21.01.2020
434 Clouds 0 1040 81 10000 1 0 11:21 21.01.2020
435 Clouds -1 1040 86 10000 0.5 0 10:55 21.01.2020
436 Clouds -1 1041 92 10000 0.5 0 10:37 21.01.2020
437 Clouds -1 1041 92 10000 0.5 0 10:18 21.01.2020
438 Clouds -2 1040 92 10000 0.5 0 09:41 21.01.2020
439 Clouds -2 1040 92 10000 0.5 0 09:22 21.01.2020
440 Clouds -2 1040 92 10000 1 330 08:50 21.01.2020
441 Clouds -3 1040 92 10000 1 340 08:30 21.01.2020
442 Clouds -3 1040 92 10000 0.5 0 07:59 21.01.2020
443 Clouds -3 1040 92 10000 0.5 0 07:40 21.01.2020
444 Clouds -3 1040 92 10000 0.5 0 07:22 21.01.2020
445 Clouds -3 1040 92 10000 1 0 06:49 21.01.2020
446 Clouds -3 1040 92 10000 1 0 06:49 21.01.2020
447 Clouds -3 1040 100 10000 0.5 0 06:29 21.01.2020
448 Clear -3 1040 92 10000 1 0 05:43 21.01.2020
449 Clear -2 1041 100 10000 0.5 0 04:40 21.01.2020
450 Clear -2 1041 92 10000 0.5 0 02:57 21.01.2020
451 Clouds -2 1041 86 10000 1 0 01:56 21.01.2020
452 Clouds -2 1041 86 10000 2.1 40 01:26 21.01.2020
453 Clouds -1 1042 86 10000 3.1 360 00:37 21.01.2020
454 Clouds -1 1042 86 10000 2.6 40 23:59 20.01.2020
455 Clouds -1 1042 86 10000 2.6 40 23:41 20.01.2020
456 Clouds -1 1042 86 10000 2.6 40 23:19 20.01.2020
457 Clouds -1 1042 87 10000 3.6 10 22:58 20.01.2020
458 Clouds -1 1042 87 10000 3.6 30 22:38 20.01.2020
459 Clouds 0 1042 87 10000 3.6 30 22:20 20.01.2020
460 Clouds 0 1042 87 10000 3.6 30 22:20 20.01.2020
461 Clouds 0 1042 80 10000 3.1 30 21:58 20.01.2020
462 Clouds 0 1042 87 10000 3.6 50 21:37 20.01.2020
463 Clouds 0 1042 87 10000 3.6 50 21:19 20.01.2020
464 Clouds 0 1042 87 10000 4.1 40 20:57 20.01.2020
465 Clouds 0 1042 87 10000 4.1 40 20:38 20.01.2020
466 Clouds 0 1043 85 10000 3.1 50 20:18 20.01.2020
467 Clouds 1 1043 85 10000 2.6 80 19:56 20.01.2020
468 Clouds 1 1043 85 10000 3.1 60 19:38 20.01.2020
469 Clouds 1 1043 85 10000 3.1 60 19:18 20.01.2020
470 Clouds 1 1042 74 10000 3.1 30 18:44 20.01.2020
471 Clouds 1 1042 69 10000 3.1 30 18:23 20.01.2020
472 Clouds 2 1042 69 10000 4.1 30 17:58 20.01.2020
473 Clouds 3 1042 64 10000 4.1 40 17:36 20.01.2020
474 Clouds 3 1042 64 10000 4.1 40 17:36 20.01.2020
475 Clouds 3 1042 64 10000 4.1 40 17:18 20.01.2020
476 Clouds 4 1043 64 10000 5.1 50 16:43 20.01.2020
477 Clouds 4 1043 64 10000 5.1 50 16:25 20.01.2020
478 Clouds 4 1043 56 10000 5.1 60 15:58 20.01.2020
479 Clouds 4 1043 60 10000 4.6 70 15:39 20.01.2020
480 Clouds 4 1043 60 10000 4.6 70 15:21 20.01.2020
481 Clouds 4 1043 69 10000 4.1 50 14:44 20.01.2020
482 Clouds 5 1043 64 10000 5.1 60 14:25 20.01.2020
483 Clouds 5 1044 64 10000 5.1 70 13:59 20.01.2020
484 Clouds 5 1044 64 10000 5.1 70 13:40 20.01.2020
485 Clouds 4 1044 69 10000 5.1 70 13:22 20.01.2020
486 Clouds 4 1044 64 10000 4.1 70 12:56 20.01.2020
487 Clouds 4 1044 64 10000 4.1 70 12:38 20.01.2020
488 Clouds 4 1044 64 10000 4.1 70 12:19 20.01.2020
489 Clouds 3 1044 64 10000 1.5 80 11:43 20.01.2020
490 Clouds 3 1044 64 10000 1.5 80 11:24 20.01.2020
491 Clouds 2 1044 85 10000 0.5 0 10:57 20.01.2020
492 Clouds 1 1044 85 10000 1 0 10:39 20.01.2020
493 Clouds 1 1044 85 10000 1 0 10:19 20.01.2020
494 Clouds 0 1044 85 10000 0.5 0 09:41 20.01.2020
495 Clouds 0 1044 85 10000 0.5 0 09:41 20.01.2020
496 Clouds 0 1044 85 10000 0.5 0 09:22 20.01.2020
497 Clear 0 1044 100 9000 0.5 0 08:51 20.01.2020
498 Clear 0 1043 100 9000 1 110 08:31 20.01.2020
499 Clear 0 1043 92 10000 0.5 90 07:55 20.01.2020
500 Clear 0 1043 92 10000 0.5 0 07:31 20.01.2020
501 Clear -1 1043 92 10000 1.38 73 06:59 20.01.2020
502 Clear -1 1043 92 10000 1.38 73 06:59 20.01.2020
503 Clouds -1 1042 92 10000 0.5 0 06:34 20.01.2020
504 Clouds 0 1042 92 10000 0.5 0 05:56 20.01.2020
505 Clouds 0 1042 100 10000 1 0 05:37 20.01.2020
506 Clouds 0 1042 100 10000 1 0 05:18 20.01.2020
507 Clear 0 1042 100 10000 1 260 03:46 20.01.2020
508 Clouds 0 1042 100 10000 3.1 340 01:58 20.01.2020
509 Clouds 0 1042 92 10000 1 300 01:38 20.01.2020
510 Clouds 0 1042 92 10000 1.5 330 00:46 20.01.2020
511 Clouds 0 1042 92 10000 1.5 310 00:27 20.01.2020
512 Clouds 1 1041 92 10000 1 0 23:56 19.01.2020
513 Clouds 1 1041 92 10000 1.5 360 23:37 19.01.2020
514 Clouds 1 1041 91 10000 1.5 360 23:18 19.01.2020
515 Clouds 1 1041 91 10000 1.5 360 23:18 19.01.2020
516 Clouds 1 1041 91 10000 1.5 360 22:55 19.01.2020
517 Clouds 1 1040 91 10000 2.1 350 22:36 19.01.2020
518 Clouds 1 1040 91 10000 2.1 350 22:18 19.01.2020
519 Clouds 1 1040 91 10000 2.6 340 21:55 19.01.2020
520 Clouds 1 1040 91 10000 2.6 340 21:55 19.01.2020
521 Clouds 1 1040 91 10000 2.1 340 21:37 19.01.2020
522 Clouds 1 1040 91 10000 2.1 340 21:19 19.01.2020
523 Clouds 1 1039 91 10000 1 350 20:56 19.01.2020
524 Clouds 2 1039 82 10000 1 320 20:37 19.01.2020
525 Clouds 2 1039 89 10000 1 320 20:19 19.01.2020
526 Clouds 1 1039 89 10000 1.5 310 19:55 19.01.2020
527 Clouds 1 1038 89 10000 1 0 19:37 19.01.2020
528 Clouds 1 1038 89 10000 1 0 19:19 19.01.2020
529 Clouds 1 1038 89 10000 1 20 18:55 19.01.2020
530 Clouds 1 1038 89 10000 1 0 18:37 19.01.2020
531 Clouds 2 1038 89 10000 1 0 18:18 19.01.2020
532 Clouds 2 1037 89 10000 1 0 17:57 19.01.2020
533 Clouds 2 1037 89 10000 1.5 10 17:38 19.01.2020
534 Clouds 2 1037 85 10000 1.5 10 17:19 19.01.2020
535 Clouds 3 1036 85 10000 2.6 360 16:57 19.01.2020
536 Rain 3 1036 85 10000 3.1 10 16:37 19.01.2020
537 Rain 3 1036 85 10000 3.1 10 16:19 19.01.2020
538 Clouds 3 1036 85 10000 3.1 360 15:56 19.01.2020
539 Rain 3 1035 86 10000 3.6 360 15:37 19.01.2020
540 Rain 3 1035 86 10000 3.6 360 15:18 19.01.2020
541 Snow 3 1035 85 10000 3.1 350 14:56 19.01.2020
542 Rain 3 1035 85 10000 3.1 350 14:37 19.01.2020
543 Rain 3 1035 88 10000 3.1 350 14:18 19.01.2020
544 Rain 3 1035 88 10000 3.1 350 14:18 19.01.2020
545 Rain 3 1035 93 10000 3.6 350 13:54 19.01.2020
546 Snow 3 1035 93 10000 3.1 320 13:36 19.01.2020
547 Snow 2 1035 93 10000 3.1 320 13:18 19.01.2020
548 Snow 2 1034 79 10000 3.1 350 12:42 19.01.2020
549 Snow 2 1034 79 10000 2.6 350 12:23 19.01.2020
550 Clouds 2 1034 79 10000 3.1 320 11:57 19.01.2020
551 Clouds 2 1034 79 10000 3.1 320 11:39 19.01.2020
552 Clouds 2 1034 94 10000 3.1 320 11:19 19.01.2020
553 Clouds 1 1033 94 10000 2.6 310 10:55 19.01.2020
554 Snow 1 1033 94 2000 3.1 320 10:37 19.01.2020
555 Snow 1 1033 94 2000 3.1 320 10:18 19.01.2020
556 Snow 1 1032 94 4800 4.1 330 09:41 19.01.2020
557 Snow 1 1032 94 10000 3.6 320 09:23 19.01.2020
558 Clouds 1 1032 94 10000 2.6 330 08:58 19.01.2020
559 Clouds 1 1031 94 10000 3.1 310 08:39 19.01.2020
560 Clouds 1 1031 96 10000 3.1 310 08:20 19.01.2020
561 Clouds 1 1031 96 10000 1.5 310 07:42 19.01.2020
562 Clouds 1 1031 96 10000 1.5 310 07:21 19.01.2020
563 Snow 1 1030 96 8000 2.6 320 06:50 19.01.2020
564 Snow 1 1030 80 10000 1 270 05:21 19.01.2020
565 Clouds 1 1029 94 10000 1.5 260 02:43 19.01.2020
566 Clouds 1 1029 80 10000 1 0 02:21 19.01.2020
567 Clouds 2 1028 80 10000 3.1 290 01:25 19.01.2020
568 Clouds 2 1028 92 10000 4.1 300 00:46 19.01.2020
569 Clouds 2 1028 92 10000 4.6 290 00:28 19.01.2020
570 Clouds 2 1028 92 10000 4.6 290 23:56 18.01.2020
571 Clouds 2 1028 92 10000 3.1 290 23:38 18.01.2020
572 Clouds 2 1028 92 10000 3.1 290 23:38 18.01.2020
573 Clouds 2 1028 93 10000 3.1 290 23:19 18.01.2020
574 Clouds 2 1028 93 10000 2.6 280 22:55 18.01.2020
575 Clouds 2 1028 93 10000 2.1 260 22:37 18.01.2020
576 Clouds 2 1028 93 10000 2.1 260 22:19 18.01.2020
577 Clouds 2 1028 93 10000 3.1 270 21:57 18.01.2020
578 Clouds 2 1027 93 10000 2.6 270 21:37 18.01.2020
579 Clouds 2 1027 93 10000 2.6 270 21:19 18.01.2020
580 Clouds 3 1027 93 10000 1 0 20:43 18.01.2020
581 Clouds 2 1027 93 10000 2.1 290 20:21 18.01.2020
582 Rain 3 1027 86 10000 0.5 0 19:58 18.01.2020
583 Rain 3 1027 92 10000 4.1 300 19:40 18.01.2020
584 Rain 3 1027 92 10000 4.1 300 19:22 18.01.2020
585 Clouds 3 1027 92 10000 1.5 240 18:42 18.01.2020
586 Clouds 3 1027 92 10000 4.6 270 18:22 18.01.2020
587 Rain 3 1026 92 10000 6.2 290 17:56 18.01.2020
588 Rain 3 1026 92 10000 1 0 17:37 18.01.2020
589 Rain 4 1026 88 10000 1 0 17:19 18.01.2020
590 Clouds 4 1026 75 10000 1.5 350 16:55 18.01.2020
591 Clouds 4 1026 75 10000 1.5 350 16:55 18.01.2020
592 Rain 4 1026 75 10000 2.1 280 16:36 18.01.2020
593 Rain 4 1026 75 10000 2.1 280 16:18 18.01.2020
594 Rain 4 1026 75 10000 2.1 280 16:18 18.01.2020
595 Rain 4 1025 60 10000 5.1 270 15:41 18.01.2020
596 Rain 4 1025 60 10000 5.1 270 15:23 18.01.2020
597 Rain 4 1025 60 10000 3.6 230 14:57 18.01.2020
598 Rain 5 1025 60 10000 4.1 230 14:39 18.01.2020
599 Rain 5 1025 60 10000 4.1 230 14:18 18.01.2020
600 Rain 5 1026 72 10000 4.6 230 13:44 18.01.2020
601 Rain 5 1026 70 10000 3.6 230 13:26 18.01.2020
602 Clouds 6 1026 73 10000 4.1 240 12:59 18.01.2020
603 Clouds 6 1026 73 10000 4.1 240 12:40 18.01.2020
604 Clouds 6 1026 70 10000 3.6 230 12:20 18.01.2020
605 Clouds 5 1026 70 10000 2.6 210 11:44 18.01.2020
606 Clouds 5 1027 75 10000 3.1 200 11:24 18.01.2020
607 Clouds 5 1026 86 10000 2.6 200 10:57 18.01.2020
608 Clouds 4 1026 80 10000 0.5 0 10:38 18.01.2020
609 Clouds 4 1026 80 10000 0.5 0 10:20 18.01.2020
610 Clouds 4 1026 84 10000 1.5 270 09:48 18.01.2020
611 Clouds 4 1026 86 10000 0.5 0 09:30 18.01.2020
612 Clouds 3 1026 86 10000 0.5 0 08:57 18.01.2020
613 Clouds 3 1026 86 10000 0.5 0 08:39 18.01.2020
614 Clouds 4 1026 86 10000 0.5 0 08:19 18.01.2020
615 Clouds 4 1026 86 10000 1.5 230 07:50 18.01.2020
616 Rain 4 1026 86 10000 2.6 260 07:31 18.01.2020
617 Rain 4 1025 86 10000 3.1 240 06:48 18.01.2020
618 Clouds 4 1025 93 10000 1 0 05:59 18.01.2020
619 Clouds 5 1025 80 10000 1.5 220 05:24 18.01.2020
620 Clouds 5 1024 86 10000 1 0 03:25 18.01.2020
621 Clouds 6 1023 93 10000 1.5 260 01:56 18.01.2020
622 Clouds 6 1022 93 10000 2.1 290 01:35 18.01.2020
623 Clouds 6 1022 87 10000 1 0 00:38 18.01.2020
624 Clouds 6 1022 87 10000 1 0 00:19 18.01.2020
625 Clouds 6 1022 87 10000 1.5 240 23:44 17.01.2020
626 Clouds 6 1022 93 10000 1 0 23:20 17.01.2020
627 Clouds 7 1022 93 10000 1 0 23:20 17.01.2020
628 Clouds 7 1021 87 10000 2.1 230 22:59 17.01.2020
629 Clouds 7 1021 87 10000 2.1 230 22:40 17.01.2020
630 Clouds 7 1021 87 10000 2.1 240 22:19 17.01.2020
631 Rain 7 1021 87 10000 2.1 220 21:42 17.01.2020
632 Clouds 7 1021 87 10000 2.1 230 21:24 17.01.2020
633 Clouds 7 1020 87 10000 2.1 210 20:59 17.01.2020
634 Clouds 7 1020 87 10000 2.6 210 20:40 17.01.2020
635 Clouds 7 1020 87 10000 2.6 210 20:20 17.01.2020
636 Rain 7 1020 87 10000 2.1 220 19:57 17.01.2020
637 Rain 7 1020 87 10000 2.1 210 19:38 17.01.2020
638 Rain 7 1020 87 10000 2.1 210 19:19 17.01.2020
639 Rain 7 1020 81 10000 2.1 230 18:57 17.01.2020
640 Rain 7 1019 81 10000 3.1 240 18:37 17.01.2020
641 Rain 7 1019 81 10000 3.1 240 18:19 17.01.2020
642 Rain 8 1019 70 10000 3.6 240 17:40 17.01.2020
643 Rain 8 1019 70 10000 2.6 240 17:40 17.01.2020
644 Rain 8 1019 70 10000 2.6 240 17:21 17.01.2020
645 Rain 8 1019 81 10000 1 0 16:55 17.01.2020
646 Clouds 9 1018 75 10000 1 0 16:36 17.01.2020
647 Clouds 9 1018 75 10000 1 0 16:18 17.01.2020
648 Clouds 9 1018 75 10000 1 0 15:43 17.01.2020
649 Clouds 9 1018 81 10000 0.5 0 15:25 17.01.2020
650 Clouds 9 1018 70 10000 1 0 14:44 17.01.2020
651 Clouds 9 1019 66 10000 1 0 14:25 17.01.2020
652 Clouds 9 1019 81 10000 0.5 0 13:56 17.01.2020
653 Clouds 9 1019 81 10000 1.5 80 13:37 17.01.2020
654 Clouds 9 1019 81 10000 1.5 80 13:18 17.01.2020
655 Clouds 8 1020 86 10000 1 0 12:42 17.01.2020
656 Clouds 7 1020 86 10000 1 0 12:21 17.01.2020
657 Clouds 6 1020 86 10000 1 0 11:38 17.01.2020
658 Clear 5 1020 80 10000 0.5 90 11:18 17.01.2020
659 Clear 3 1020 80 10000 1 100 10:43 17.01.2020
660 Clear 3 1020 80 10000 0.5 0 10:23 17.01.2020
661 Clear 2 1020 100 10000 0.5 0 09:58 17.01.2020
662 Clear 2 1020 92 10000 0.5 0 09:39 17.01.2020
663 Clear 2 1020 92 10000 0.5 0 09:19 17.01.2020
664 Fog 2 1020 100 10000 1 60 08:43 17.01.2020
665 Fog 1 1020 100 10000 1.5 80 08:24 17.01.2020
666 Clear 0 1021 100 10000 1.5 60 07:54 17.01.2020
667 Clear 1 1021 100 10000 1.5 80 07:31 17.01.2020
668 Clear 0 1021 100 10000 1 100 06:58 17.01.2020
669 Clear 0 1021 100 10000 1 100 06:40 17.01.2020
670 Clear 1 1021 91 10000 0.5 0 05:53 17.01.2020
671 Clear 1 1026 90 0 0.45 114 03:39 17.01.2020
672 Clear 2 1026 90 0 0.45 114 02:52 17.01.2020
673 Clear 3 1026 90 0 0.45 114 01:47 17.01.2020
674 Clear 3 1026 90 0 0.45 114 01:29 17.01.2020
675 Clear 3 1026 90 0 0.45 114 00:50 17.01.2020
676 Clear 3 1023 84 0 1.96 132 00:26 17.01.2020
677 Clear 4 1024 80 10000 1 80 23:44 16.01.2020
678 Clear 4 1024 80 10000 1 80 23:26 16.01.2020
679 Clear 4 1024 86 10000 0.5 0 22:58 16.01.2020
680 Clear 5 1024 86 10000 0.5 0 22:40 16.01.2020
681 Clear 5 1025 86 10000 0.5 260 22:20 16.01.2020
682 Clear 5 1025 86 10000 1.5 80 21:55 16.01.2020
683 Clear 5 1025 80 10000 0.5 0 21:37 16.01.2020
684 Clear 6 1025 80 10000 0.5 0 21:18 16.01.2020
685 Clear 6 1025 86 10000 1 0 20:56 16.01.2020
686 Clear 6 1026 86 10000 2.1 100 20:36 16.01.2020
687 Clear 6 1026 86 10000 2.1 100 20:18 16.01.2020
688 Clear 6 1026 86 10000 2.1 100 20:18 16.01.2020
689 Clear 7 1026 81 10000 1.5 110 19:41 16.01.2020
690 Clear 7 1026 81 10000 1.5 110 19:23 16.01.2020
691 Clear 7 1026 81 10000 1.5 90 18:58 16.01.2020
692 Clear 8 1026 81 10000 1.5 90 18:40 16.01.2020
693 Clear 8 1026 75 10000 2.1 80 18:21 16.01.2020
694 Clear 8 1026 81 10000 2.6 90 17:59 16.01.2020
695 Clear 8 1026 71 10000 2.6 80 17:41 16.01.2020
696 Clear 10 1026 71 10000 2.6 80 17:21 16.01.2020
697 Clear 11 1026 66 10000 3.1 60 16:56 16.01.2020
698 Clear 11 1026 58 10000 2.6 60 16:37 16.01.2020
699 Clear 11 1026 58 10000 2.6 60 16:19 16.01.2020
700 Clear 11 1026 58 10000 1.5 50 15:44 16.01.2020
701 Clouds 11 1026 58 10000 1.5 70 15:22 16.01.2020
702 Clouds 12 1026 54 10000 2.1 80 14:56 16.01.2020
703 Clouds 12 1026 58 10000 1.5 70 14:37 16.01.2020
704 Clouds 12 1026 58 10000 1.5 70 14:19 16.01.2020
705 Clouds 12 1027 58 10000 1.5 70 13:44 16.01.2020
706 Clouds 12 1027 62 10000 1.5 80 13:25 16.01.2020
707 Clouds 12 1028 62 10000 1 0 12:46 16.01.2020
708 Clouds 11 1028 66 10000 1 0 12:28 16.01.2020
709 Clouds 10 1028 70 10000 1 80 11:57 16.01.2020
710 Clouds 10 1029 76 10000 0.5 90 11:39 16.01.2020
711 Clouds 9 1029 76 10000 0.5 90 11:21 16.01.2020
712 Clouds 8 1029 81 10000 1 0 10:39 16.01.2020
713 Clouds 8 1029 81 10000 1 0 10:21 16.01.2020
714 Clouds 7 1028 81 10000 0.5 0 09:58 16.01.2020
715 Clouds 7 1028 81 10000 1 70 09:40 16.01.2020
716 Clouds 7 1028 81 10000 1 70 09:22 16.01.2020
717 Clouds 7 1028 75 10000 1 90 08:53 16.01.2020
718 Clouds 7 1028 81 10000 1.23 159 08:35 16.01.2020
719 Clouds 7 1028 75 10000 1 70 07:59 16.01.2020
720 Clouds 7 1028 70 10000 1 90 07:39 16.01.2020
721 Clouds 7 1028 70 10000 1 90 07:21 16.01.2020
722 Clouds 7 1028 87 10000 0.95 156 06:43 16.01.2020
723 Clouds 7 1027 87 10000 0.5 0 06:22 16.01.2020
724 Clouds 7 1027 81 10000 1 0 05:46 16.01.2020
725 Clouds 7 1027 81 10000 1 80 04:40 16.01.2020
726 Clouds 7 1027 81 10000 2.1 60 03:28 16.01.2020
727 Clouds 7 1026 75 10000 1.5 200 02:44 16.01.2020
728 Clouds 8 1025 70 10000 1.5 220 01:24 16.01.2020
729 Clouds 8 1025 65 10000 3.1 200 00:41 16.01.2020
730 Clouds 8 1025 65 10000 3.1 200 00:19 16.01.2020
731 Clouds 8 1024 65 10000 2.1 190 23:40 15.01.2020
732 -273 0 0 0 0 0 23:20 15.01.2020
733 Clouds 7 1024 65 10000 2.6 190 23:19 15.01.2020
734 Clouds 7 1024 65 10000 2.6 180 22:56 15.01.2020
735 Clouds 7 1023 65 10000 3.1 200 22:36 15.01.2020
736 Clouds 7 1023 65 10000 3.1 200 22:18 15.01.2020
737 Clouds 7 1023 70 10000 2.1 210 21:55 15.01.2020
738 Clouds 7 1023 65 10000 3.1 200 21:36 15.01.2020
739 Clouds 7 1023 65 10000 3.1 200 21:18 15.01.2020
740 Clouds 7 1023 65 10000 1.5 190 20:54 15.01.2020
741 Clouds 7 1022 70 10000 2.1 170 20:36 15.01.2020
742 Clear 6 1022 70 10000 2.1 170 20:18 15.01.2020
743 Clear 7 1022 65 10000 2.1 150 19:54 15.01.2020
744 Clear 7 1022 61 10000 1.5 200 19:36 15.01.2020
745 Clear 7 1022 61 10000 1.5 200 19:36 15.01.2020
746 Clear 7 1022 61 10000 1.5 200 19:18 15.01.2020
747 Clear 8 1021 61 10000 1.5 240 18:55 15.01.2020
748 Clear 7 1021 61 10000 1.5 240 18:55 15.01.2020
749 Clear 8 1021 65 10000 2.1 230 18:36 15.01.2020
750 Clear 8 1021 65 10000 2.1 230 18:18 15.01.2020
751 Clear 8 1021 65 10000 2.1 230 18:18 15.01.2020
752 Clear 9 1020 57 10000 2.6 210 17:40 15.01.2020
753 Clear 10 1020 57 10000 2.6 210 17:22 15.01.2020
754 Clear 10 1020 57 10000 2.6 210 17:22 15.01.2020
755 Clouds 10 1020 50 10000 3.6 220 16:57 15.01.2020
756 Clouds 10 1019 50 10000 3.6 220 16:38 15.01.2020
757 Clear 11 1019 47 10000 4.1 220 16:20 15.01.2020
758 Clouds 11 1019 50 10000 3.6 220 16:20 15.01.2020
759 Clouds 11 1019 50 10000 3.6 220 16:20 15.01.2020
760 Clouds 11 1019 50 10000 3.6 220 16:20 15.01.2020
761 Clouds 11 1019 50 10000 3.6 220 16:20 15.01.2020
762 Clear 11 1019 47 10000 4.1 220 15:43 15.01.2020
763 Clear 12 1018 47 10000 4.6 230 15:21 15.01.2020
764 Clear 12 1018 47 10000 4.1 220 14:58 15.01.2020
765 Clear 12 1018 47 10000 3.6 220 14:39 15.01.2020
766 Clear 12 1018 47 10000 3.6 220 14:18 15.01.2020
767 Clear 12 1018 47 10000 3.6 220 14:18 15.01.2020
768 Clear 12 1018 47 10000 2.6 220 13:45 15.01.2020
769 Clear 12 1018 47 10000 3.1 210 13:24 15.01.2020
770 Clear 11 1019 50 10000 2.6 190 12:58 15.01.2020
771 Clear 11 1019 53 10000 1.5 100 12:39 15.01.2020
772 Clear 11 1019 53 10000 1.5 100 12:19 15.01.2020
773 Clear 10 1019 70 10000 2.1 90 11:56 15.01.2020
774 Clear 8 1019 70 10000 1.5 90 11:36 15.01.2020
775 Clear 7 1019 70 10000 1.5 90 11:18 15.01.2020
776 Clear 7 1019 65 10000 1.5 100 10:42 15.01.2020
777 Clear 5 1019 65 10000 1.5 100 10:24 15.01.2020
778 Clear 3 1019 65 10000 1 0 09:42 15.01.2020
779 Clear 3 1018 80 10000 1.5 120 09:23 15.01.2020
780 Clear 2 1018 80 10000 1 0 08:56 15.01.2020
781 Clear 2 1018 86 10000 1 0 08:38 15.01.2020
782 Clouds 2 1018 86 10000 1 0 08:19 15.01.2020
783 Clouds 3 1018 68 10000 1.5 260 07:51 15.01.2020
784 Clouds 3 1018 68 10000 1 0 07:31 15.01.2020
785 Clouds 2 1018 68 10000 1 0 06:45 15.01.2020
786 Clouds 3 1018 65 10000 2.1 220 06:19 15.01.2020
787 Clouds 3 1017 67 10000 0.5 0 04:36 15.01.2020
788 Clouds 4 1017 67 10000 0.5 0 02:38 15.01.2020
789 Clouds 5 1017 66 10000 2.1 250 01:28 15.01.2020
790 Clouds 6 1017 65 10000 1 0 00:46 15.01.2020
791 Clouds 6 1018 65 10000 2.1 240 00:27 15.01.2020
792 Clouds 6 1017 65 10000 1.5 200 23:56 14.01.2020
793 Clouds 6 1017 65 10000 0.5 0 23:38 14.01.2020
794 Clouds 7 1017 61 10000 0.5 0 23:19 14.01.2020
795 Clouds 7 1017 61 10000 3.1 200 22:41 14.01.2020
796 Clouds 7 1017 61 10000 3.1 200 22:19 14.01.2020
797 Clouds 7 1017 61 10000 2.6 190 21:59 14.01.2020
798 Clouds 6 1017 61 10000 3.1 200 21:40 14.01.2020
799 Clouds 6 1017 61 10000 3.1 200 21:22 14.01.2020
800 Clouds 7 1017 61 10000 2.1 210 20:59 14.01.2020
801 Clouds 7 1017 65 10000 2.6 180 20:40 14.01.2020
802 Clouds 7 1017 61 10000 2.1 210 20:40 14.01.2020
803 Clouds 7 1017 65 10000 2.6 180 20:20 14.01.2020
804 Clouds 7 1017 65 10000 2.6 180 19:56 14.01.2020
805 Clouds 7 1017 65 10000 3.1 170 19:38 14.01.2020
806 Clouds 8 1017 65 10000 3.1 170 19:19 14.01.2020
807 Clouds 8 1017 65 10000 2.6 180 18:56 14.01.2020
808 Clouds 8 1017 61 10000 2.6 170 18:37 14.01.2020
809 Clouds 8 1017 61 10000 2.6 170 18:19 14.01.2020
810 Clouds 8 1016 65 10000 2.6 170 17:39 14.01.2020
811 Clouds 8 1016 65 10000 2.6 170 17:19 14.01.2020
812 Clouds 8 1016 70 10000 1.5 140 16:56 14.01.2020
813 Clouds 8 1016 70 10000 1.5 140 16:38 14.01.2020
814 Clouds 9 1016 61 10000 1.5 160 16:19 14.01.2020
815 Clouds 9 1016 57 10000 3.1 180 15:43 14.01.2020
816 Clouds 9 1016 57 10000 3.1 180 15:19 14.01.2020
817 Clouds 9 1016 53 10000 2.6 170 14:59 14.01.2020
818 Clouds 9 1016 62 10000 3.1 160 14:41 14.01.2020
819 Clouds 10 1016 55 10000 3.1 160 14:19 14.01.2020
820 Clouds 10 1015 43 10000 2.6 150 13:42 14.01.2020
821 Clouds 10 1016 43 10000 3.1 130 13:20 14.01.2020
822 Clouds 10 1016 57 10000 4.1 140 12:57 14.01.2020
823 Clouds 10 1016 55 10000 3.1 160 12:39 14.01.2020
824 Clouds 9 1016 55 10000 3.1 160 12:20 14.01.2020
825 Clouds 9 1016 55 10000 3.1 160 12:20 14.01.2020
826 Clouds 8 1016 55 10000 2.6 150 11:42 14.01.2020
827 Clouds 6 1016 56 10000 1.5 170 11:22 14.01.2020
828 Clouds 5 1016 60 10000 3.1 170 10:57 14.01.2020
829 Clouds 5 1016 65 10000 1.5 130 10:38 14.01.2020
830 Clouds 4 1016 65 10000 1.5 130 10:19 14.01.2020
831 Clouds 4 1016 64 10000 1.5 210 09:56 14.01.2020
832 Clouds 4 1016 64 10000 1.5 220 09:38 14.01.2020
833 Clouds 4 1016 64 10000 1.5 220 09:20 14.01.2020
834 Clouds 3 1015 80 10000 2.1 180 08:42 14.01.2020
835 Clouds 2 1015 80 10000 2.1 180 08:23 14.01.2020
836 Clouds 2 1015 86 10000 1.5 90 07:53 14.01.2020
837 Clouds 2 1015 74 10000 1 0 07:31 14.01.2020
838 Clouds 2 1015 74 10000 1.5 0 06:51 14.01.2020
839 Clouds 2 1015 74 10000 1 0 06:23 14.01.2020
840 Clouds 2 1015 74 10000 1 0 05:21 14.01.2020
841 Clouds 2 1015 70 8000 1.5 310 03:51 14.01.2020
842 Clouds 2 1015 70 8000 1.5 310 03:51 14.01.2020
843 Fog 2 1016 70 8000 1 0 02:42 14.01.2020
844 Fog 2 1016 78 8000 1 0 01:53 14.01.2020
845 Clouds 3 1017 76 10000 1 0 00:49 14.01.2020
846 Clouds 3 1017 100 10000 1.5 300 00:28 14.01.2020
847 Fog 3 1017 100 8000 0.5 0 23:54 13.01.2020
848 Clouds 3 1017 100 8000 0.5 0 23:36 13.01.2020
849 Clouds 3 1017 100 8000 0.5 0 23:18 13.01.2020
850 Fog 3 1017 100 7000 0.5 140 22:41 13.01.2020
851 Fog 3 1017 100 3000 1 280 22:21 13.01.2020
852 Fog 3 1017 100 1500 0.5 40 21:56 13.01.2020
853 Fog 3 1017 100 8000 0.5 0 21:38 13.01.2020
854 Fog 3 1017 100 8000 0.5 0 21:19 13.01.2020
855 Fog 3 1018 100 10000 0.5 0 20:58 13.01.2020
856 Clouds 4 1019 100 10000 0.5 0 20:40 13.01.2020
857 Clouds 4 1019 100 10000 0.5 0 20:22 13.01.2020
858 Clouds 4 1018 100 10000 1 0 19:59 13.01.2020
859 Clouds 4 1019 100 10000 1 0 19:39 13.01.2020
860 Clouds 4 1019 100 10000 1 0 19:20 13.01.2020
861 Clouds 4 1019 100 10000 1 0 19:20 13.01.2020
862 Fog 5 1019 100 10000 2.1 130 18:56 13.01.2020
863 Clouds 5 1019 100 10000 1 0 18:37 13.01.2020
864 Clouds 5 1019 100 10000 1 0 18:19 13.01.2020
865 Clouds 6 1019 100 10000 1 0 17:43 13.01.2020
866 Rain 6 1019 93 10000 0.5 0 17:25 13.01.2020
867 Rain 6 1019 93 10000 0.5 0 16:58 13.01.2020
868 Clouds 6 1026 90 0 0.45 114 16:38 13.01.2020
869 Clouds 6 1026 90 0 0.45 114 16:20 13.01.2020
870 Clouds 6 1019 84 0 1.14 281 15:54 13.01.2020
871 Clouds 7 1026 90 0 0.45 114 15:36 13.01.2020
872 Clouds 7 1026 90 0 0.45 114 15:18 13.01.2020
873 Clouds 7 1026 90 0 0.45 114 14:40 13.01.2020
874 Clouds 7 1026 90 0 0.45 114 14:22 13.01.2020
875 Clouds 7 1026 90 0 0.45 114 13:56 13.01.2020
876 Clouds 7 1026 90 0 0.45 114 13:56 13.01.2020
877 Clouds 7 1026 90 0 0.45 114 13:37 13.01.2020
878 Clouds 6 1026 90 0 0.45 114 13:19 13.01.2020
879 Clouds 6 1022 80 10000 1.5 240 12:43 13.01.2020
880 Clouds 6 1022 80 10000 1.5 240 12:23 13.01.2020
881 Clouds 5 1022 80 10000 1.5 240 11:59 13.01.2020
882 Clouds 5 1022 80 10000 1.5 240 11:38 13.01.2020
883 Clouds 5 1022 80 10000 1 0 11:19 13.01.2020
884 Clouds 4 1022 86 10000 1 270 10:56 13.01.2020
885 Clouds 4 1023 86 10000 0.5 0 10:38 13.01.2020
886 Clouds 4 1023 86 10000 0.5 0 10:20 13.01.2020
887 Clouds 3 1023 93 10000 1 0 09:55 13.01.2020
888 Clouds 3 1023 76 10000 0.5 0 09:37 13.01.2020
889 Clouds 3 1023 76 10000 0.5 0 09:19 13.01.2020
890 Clouds 3 1023 76 10000 0.5 0 08:39 13.01.2020
891 Clouds 3 1023 76 10000 0.5 0 08:20 13.01.2020
892 Clouds 3 1023 100 10000 1 0 07:46 13.01.2020
893 Clouds 3 1024 100 10000 1 0 07:27 13.01.2020
894 Clouds 3 1024 93 10000 1 70 06:39 13.01.2020
895 Clouds 3 1024 93 10000 1 70 06:18 13.01.2020
896 Rain 3 1025 100 10000 1 80 05:20 13.01.2020
897 Drizzle 3 1026 93 10000 1 0 03:47 13.01.2020
898 Drizzle 3 1026 80 10000 1 90 03:22 13.01.2020
899 Clouds 3 1026 86 10000 1 0 02:38 13.01.2020
900 Clouds 3 1026 80 10000 1 0 02:18 13.01.2020
901 Clouds 3 1027 93 10000 0.5 0 00:59 13.01.2020
902 Clouds 3 1027 93 10000 0.5 0 00:40 13.01.2020
903 Clouds 3 1027 93 10000 0.5 0 00:21 13.01.2020
904 Rain 3 1027 86 10000 1.28 175 23:41 12.01.2020
905 Rain 3 1027 86 10000 0.45 203 23:23 12.01.2020
906 Rain 3 1027 78 10000 1 0 22:57 12.01.2020
907 Clouds 3 1027 78 10000 0.5 0 22:39 12.01.2020
908 Clouds 3 1027 78 10000 0.5 0 22:21 12.01.2020
909 Clouds 3 1027 78 10000 0.5 0 21:55 12.01.2020
910 Clouds 3 1027 78 10000 0.5 0 21:55 12.01.2020
911 Clouds 3 1027 78 10000 1 0 21:37 12.01.2020
912 Clouds 3 1027 78 10000 1 0 21:19 12.01.2020
913 Clouds 3 1027 78 10000 1 0 20:56 12.01.2020
914 Clouds 2 1027 80 10000 1.5 190 20:37 12.01.2020
915 Clouds 2 1027 80 10000 1.5 190 20:19 12.01.2020
916 Clouds 2 1027 80 10000 1.5 190 19:55 12.01.2020
917 Clouds 2 1027 86 10000 1 150 19:37 12.01.2020
918 Clouds 2 1027 86 10000 1 150 19:18 12.01.2020
919 Clouds 2 1027 86 10000 1 150 19:18 12.01.2020
920 Clouds 2 1027 86 10000 1.5 150 18:57 12.01.2020
921 Clouds 2 1027 80 10000 1 0 18:38 12.01.2020
922 Clouds 2 1027 80 10000 1 0 18:20 12.01.2020
923 Clouds 2 1027 80 10000 2.6 200 17:42 12.01.2020
924 Clouds 2 1027 86 10000 2.1 190 17:23 12.01.2020
925 Clouds 2 1027 82 10000 2.1 200 16:59 12.01.2020
926 Clouds 3 1026 82 10000 2.1 190 16:39 12.01.2020
927 Clouds 3 1026 82 10000 2.1 190 16:20 12.01.2020
928 Clouds 3 1026 82 10000 2.6 240 15:58 12.01.2020
929 Clouds 2 1026 82 10000 2.1 210 15:39 12.01.2020
930 Clouds 2 1026 82 10000 2.1 210 15:21 12.01.2020
931 Clouds 3 1026 82 10000 2.1 220 14:43 12.01.2020
932 Clouds 3 1026 75 10000 2.6 210 14:25 12.01.2020
933 Clouds 3 1026 75 10000 3.6 190 13:57 12.01.2020
934 Clouds 3 1027 75 10000 2.1 170 13:39 12.01.2020
935 Clouds 3 1027 75 10000 2.1 170 13:20 12.01.2020
936 Clouds 3 1027 86 9000 2.6 180 12:57 12.01.2020
937 Clouds 3 1028 86 8000 1 0 12:38 12.01.2020
938 Clouds 3 1028 86 8000 1 0 12:19 12.01.2020
939 Clouds 2 1028 72 7000 1.5 180 11:43 12.01.2020
940 Mist 0 1028 81 5000 1.5 200 11:23 12.01.2020
941 Mist 0 1028 100 5000 1.5 190 10:59 12.01.2020
942 Mist 0 1028 100 5000 0.5 0 10:40 12.01.2020
943 Mist -1 1028 100 5000 0.5 0 10:21 12.01.2020
944 Clouds -1 1027 92 10000 0.5 0 09:55 12.01.2020
945 Clouds -2 1027 92 10000 0.5 0 09:37 12.01.2020
946 Clouds -2 1027 92 10000 0.5 0 09:18 12.01.2020
947 Clouds -2 1027 92 10000 0.5 0 08:42 12.01.2020
948 Fog -2 1027 100 9000 0.5 0 08:19 12.01.2020
949 Fog -3 1027 100 9000 0.5 0 07:39 12.01.2020
950 Fog -3 1027 100 9000 1 0 07:21 12.01.2020
951 Fog -3 1027 92 6000 1 0 06:42 12.01.2020
952 Fog -3 1027 100 8000 0.5 0 06:19 12.01.2020
953 Fog -2 1027 92 10000 0.5 0 05:22 12.01.2020
954 Clouds -2 1028 100 10000 0.5 360 03:47 12.01.2020
955 Fog -2 1029 100 10000 0.5 0 03:22 12.01.2020
956 Fog -2 1029 100 10000 0.91 197 02:30 12.01.2020
957 Clouds -2 1029 100 10000 1.29 185 01:42 12.01.2020
958 Clouds -1 1029 100 10000 0.5 0 01:22 12.01.2020
959 Clouds -1 1029 92 10000 0.5 0 00:40 12.01.2020
960 Clouds -1 1030 100 10000 0.5 0 00:20 12.01.2020
961 Clouds -1 1030 86 10000 1 0 23:42 11.01.2020
962 Clouds -1 1030 86 10000 1 0 23:19 11.01.2020
963 Clouds -1 1030 92 10000 0.5 0 22:58 11.01.2020
964 Clouds 0 1030 92 10000 0.5 0 22:39 11.01.2020
965 Clouds -1 1030 92 10000 1.49 175 22:20 11.01.2020
966 Clouds -1 1030 92 10000 1 0 21:58 11.01.2020
967 Clouds 0 1031 92 10000 1 0 21:40 11.01.2020
968 Clouds 0 1031 92 10000 1 0 21:40 11.01.2020
969 Clouds 0 1031 92 10000 1 0 21:18 11.01.2020
970 Clouds 0 1031 85 10000 0.5 170 20:41 11.01.2020
971 Clouds 0 1031 92 10000 2.1 300 20:22 11.01.2020
972 Clouds 0 1031 92 10000 2.1 300 20:22 11.01.2020
973 Clouds 1 1031 77 10000 0.5 0 19:59 11.01.2020
974 Clouds 1 1031 77 10000 0.5 0 19:39 11.01.2020
975 Clouds 1 1031 80 10000 1 270 19:39 11.01.2020
976 Clouds 1 1031 80 10000 1 270 19:21 11.01.2020
977 Clouds 1 1031 77 10000 1.5 310 18:59 11.01.2020
978 Clouds 1 1031 77 10000 0.5 320 18:39 11.01.2020
979 Clouds 2 1031 77 10000 0.5 320 18:20 11.01.2020
980 Clouds 3 1031 77 10000 0.5 90 17:58 11.01.2020
981 Clouds 3 1031 77 10000 0.5 0 17:40 11.01.2020
982 Clouds 4 1031 73 10000 0.5 0 17:20 11.01.2020
983 Clouds 5 1031 73 10000 2.1 150 16:55 11.01.2020
984 Clouds 5 1031 73 10000 2.1 150 16:55 11.01.2020
985 Clouds 5 1032 70 10000 0.5 340 16:36 11.01.2020
986 Clouds 5 1032 70 10000 0.5 340 16:18 11.01.2020
987 Clouds 6 1032 75 10000 1 0 15:41 11.01.2020
988 Clouds 6 1032 75 10000 1 0 15:23 11.01.2020
989 Clouds 6 1032 75 10000 0.5 40 14:58 11.01.2020
990 Clouds 6 1032 80 10000 1 0 14:40 11.01.2020
991 Clouds 6 1032 80 10000 1 0 14:21 11.01.2020
992 Clouds 6 1032 86 10000 2.1 50 13:55 11.01.2020
993 Clouds 6 1032 81 10000 1.5 40 13:36 11.01.2020
994 Clouds 6 1032 81 10000 1.5 40 13:18 11.01.2020
995 Clouds 6 1033 86 10000 1 0 12:42 11.01.2020
996 Clouds 6 1033 86 10000 1 0 12:24 11.01.2020
997 Clouds 6 1033 86 10000 1.5 80 11:54 11.01.2020
998 Clouds 5 1034 86 10000 0.5 0 11:36 11.01.2020
999 Clouds 5 1034 86 10000 0.5 0 11:18 11.01.2020
1000 Clouds 5 1034 86 10000 0.5 0 11:18 11.01.2020
1001 Clouds 5 1033 86 10000 1 0 10:42 11.01.2020
1002 Clouds 4 1033 86 10000 1 0 10:23 11.01.2020
1003 Clouds 4 1033 93 10000 0.5 0 09:39 11.01.2020
1004 Clouds 4 1033 93 10000 0.5 0 09:21 11.01.2020
1005 Clouds 4 1033 93 10000 0.5 0 09:21 11.01.2020
1006 Clouds 4 1033 86 10000 1 0 08:43 11.01.2020
1007 Clouds 4 1033 86 10000 1 0 08:43 11.01.2020
1008 Clouds 4 1033 86 10000 2.6 300 08:23 11.01.2020
1009 Clouds 4 1033 86 10000 2.1 290 07:45 11.01.2020
1010 Clouds 4 1033 86 10000 2.1 290 07:26 11.01.2020
1011 Clouds 4 1033 86 10000 2.1 290 07:26 11.01.2020
1012 Clouds 4 1032 93 10000 0.5 0 06:56 11.01.2020
1013 Clouds 4 1032 93 10000 0.5 210 06:28 11.01.2020
1014 Rain 4 1031 86 10000 2.6 10 04:49 11.01.2020
1015 Rain 4 1031 86 10000 1 0 04:30 11.01.2020
1016 Clouds 4 1031 86 10000 2.6 280 03:58 11.01.2020
1017 Clouds 5 1030 86 10000 3.1 260 02:43 11.01.2020
1018 Clouds 5 1030 86 10000 3.1 260 01:44 11.01.2020
1019 Clouds 6 1030 86 10000 3.1 250 01:21 11.01.2020
1020 Clouds 6 1030 86 10000 3.1 250 01:21 11.01.2020
1021 Clouds 5 1030 86 10000 3.1 260 00:47 11.01.2020
1022 Clouds 6 1029 86 10000 3.1 250 00:21 11.01.2020
1023 Clouds 6 1029 86 10000 2.6 250 23:56 10.01.2020
1024 Clouds 6 1029 86 10000 3.1 250 23:38 10.01.2020
1025 Clouds 6 1029 86 10000 3.1 250 23:20 10.01.2020
1026 Clouds 6 1029 87 10000 3.1 250 22:41 10.01.2020
1027 Clouds 6 1028 87 10000 3.1 260 22:22 10.01.2020
1028 Clouds 6 1028 87 10000 4.6 260 21:58 10.01.2020
1029 Clouds 6 1027 87 10000 4.6 270 21:40 10.01.2020
1030 Clouds 6 1027 87 10000 4.6 270 21:20 10.01.2020
1031 Clouds 6 1027 87 10000 5.1 280 20:57 10.01.2020
1032 Clouds 6 1026 87 10000 6.7 280 20:38 10.01.2020
1033 Clouds 7 1026 87 10000 6.7 280 20:19 10.01.2020
1034 Rain 7 1026 87 10000 4.1 260 19:40 10.01.2020
1035 Rain 7 1025 81 10000 4.6 250 19:21 10.01.2020
1036 Clouds 8 1024 81 10000 4.6 230 18:56 10.01.2020
1037 Clouds 8 1024 76 10000 2.6 220 18:37 10.01.2020
1038 Clouds 8 1024 76 10000 2.6 220 18:18 10.01.2020
1039 Clouds 8 1023 70 10000 4.6 240 17:56 10.01.2020
1040 Rain 8 1023 76 10000 4.6 250 17:38 10.01.2020
1041 Rain 9 1023 76 10000 4.6 250 17:19 10.01.2020
1042 Rain 9 1022 76 10000 5.7 260 17:19 10.01.2020
1043 Rain 9 1022 76 10000 5.7 260 16:43 10.01.2020
1044 Rain 9 1022 66 10000 4.6 240 16:22 10.01.2020
1045 Clouds 10 1021 62 10000 4.6 240 15:58 10.01.2020
1046 Clouds 10 1020 66 10000 5.7 230 15:39 10.01.2020
1047 Clouds 10 1020 66 10000 5.7 230 15:20 10.01.2020
1048 Clouds 10 1020 62 10000 4.1 230 14:59 10.01.2020
1049 Clouds 10 1020 62 10000 4.1 230 14:41 10.01.2020
1050 Clouds 10 1020 57 10000 4.6 230 14:20 10.01.2020
1051 Clouds 10 1020 57 10000 5.7 240 13:58 10.01.2020
1052 Clouds 10 1020 57 10000 5.7 240 13:58 10.01.2020
1053 Clouds 10 1020 57 10000 5.7 240 13:40 10.01.2020
1054 Clouds 10 1020 62 10000 6.2 240 13:22 10.01.2020
1055 Clouds 11 1019 62 10000 4.6 230 12:57 10.01.2020
1056 Clouds 11 1020 66 10000 3.6 220 12:38 10.01.2020
1057 Clouds 10 1020 66 10000 3.6 220 12:18 10.01.2020
1058 Clouds 10 1020 66 10000 3.6 220 11:54 10.01.2020
1059 Clouds 10 1019 66 10000 3.6 200 11:36 10.01.2020
1060 Clouds 10 1019 66 10000 3.6 200 11:18 10.01.2020
1061 Clouds 9 1019 75 10000 2.1 180 10:42 10.01.2020
1062 Clouds 8 1019 75 10000 2.1 180 10:24 10.01.2020
1063 Clouds 8 1019 81 10000 1 0 09:56 10.01.2020
1064 Clouds 7 1019 75 10000 1.5 70 09:37 10.01.2020
1065 Clouds 7 1019 75 10000 1.5 70 09:19 10.01.2020
1066 Clouds 7 1018 81 10000 2.1 140 08:41 10.01.2020
1067 Clouds 7 1018 75 10000 2.1 160 08:23 10.01.2020
1068 Clouds 7 1018 75 10000 2.6 200 07:45 10.01.2020
1069 Clouds 7 1018 75 10000 2.1 220 07:26 10.01.2020
1070 Clouds 7 1018 75 10000 2.6 210 06:46 10.01.2020
1071 Clouds 7 1018 75 10000 2.6 220 06:26 10.01.2020
1072 Clouds 7 1018 75 10000 4.1 220 05:51 10.01.2020
1073 Rain 7 1017 66 10000 4.1 220 03:45 10.01.2020
1074 Rain 7 1017 66 10000 3.1 220 03:22 10.01.2020
1075 Rain 7 1017 66 10000 3.6 230 02:50 10.01.2020
1076 Rain 8 1016 65 10000 2.6 220 01:47 10.01.2020
1077 Rain 8 1016 57 10000 2.1 240 01:28 10.01.2020
1078 Rain 8 1016 57 10000 0.5 0 00:44 10.01.2020
1079 Rain 8 1015 57 10000 0.5 0 00:19 10.01.2020
1080 Rain 9 1015 75 10000 1.5 170 23:39 09.01.2020
1081 Rain 9 1015 75 10000 1.5 170 23:39 09.01.2020
1082 Rain 9 1015 75 10000 1.5 170 23:39 09.01.2020
1083 Rain 9 1015 75 10000 1.5 160 23:20 09.01.2020
1084 Clouds 9 1016 70 10000 1 0 22:58 09.01.2020
1085 Clouds 9 1016 70 10000 1 0 22:58 09.01.2020
1086 Clouds 9 1016 76 10000 2.1 190 22:39 09.01.2020
1087 Clouds 9 1016 76 10000 2.1 190 22:19 09.01.2020
1088 Clouds 9 1016 76 10000 2.6 200 21:57 09.01.2020
1089 Clouds 9 1016 71 10000 2.1 170 21:38 09.01.2020
1090 Clouds 9 1016 71 10000 2.1 170 21:20 09.01.2020
1091 Clouds 9 1016 71 10000 1.5 190 20:58 09.01.2020
1092 Clouds 9 1016 71 10000 1.5 190 20:39 09.01.2020
1093 Clouds 9 1016 71 10000 1.5 210 20:20 09.01.2020
1094 Clouds 9 1016 71 10000 1.5 210 20:20 09.01.2020
1095 Clouds 9 1016 71 10000 1.5 210 19:59 09.01.2020
1096 Clouds 9 1016 71 10000 2.1 190 19:39 09.01.2020
1097 Clouds 9 1017 71 10000 2.1 190 19:20 09.01.2020
1098 Clouds 8 1017 71 10000 2.1 190 18:56 09.01.2020
1099 Clouds 8 1017 76 10000 2.1 170 18:38 09.01.2020
1100 Clouds 9 1017 71 10000 1.5 180 18:20 09.01.2020
1101 Clouds 9 1017 71 10000 2.1 160 17:41 09.01.2020
1102 Clouds 11 1017 62 10000 2.1 200 17:19 09.01.2020
1103 Clouds 11 1017 62 10000 2.1 200 16:56 09.01.2020
1104 Clouds 11 1017 81 10000 1 0 16:38 09.01.2020
1105 Clouds 11 1018 81 10000 1.5 230 16:20 09.01.2020
1106 Clouds 12 1018 58 10000 2.6 220 15:42 09.01.2020
1107 Clouds 12 1018 76 10000 3.1 220 15:22 09.01.2020
1108 Clouds 12 1018 62 10000 4.1 200 14:57 09.01.2020
1109 Clouds 12 1018 62 10000 4.1 200 14:38 09.01.2020
1110 Clouds 13 1018 67 10000 3.1 210 14:19 09.01.2020
1111 Clouds 13 1019 67 10000 3.6 210 13:55 09.01.2020
1112 Clouds 12 1019 67 10000 3.6 210 13:37 09.01.2020
1113 Clouds 12 1019 71 10000 3.1 210 13:18 09.01.2020
1114 Clouds 11 1020 76 10000 2.6 210 12:42 09.01.2020
1115 Clouds 11 1020 76 10000 2.6 210 12:24 09.01.2020
1116 Clouds 11 1021 76 10000 2.6 190 11:59 09.01.2020
1117 Clouds 10 1021 76 10000 2.6 190 11:41 09.01.2020
1118 Clouds 9 1021 81 10000 0.5 0 11:23 09.01.2020
1119 Clouds 9 1021 81 10000 0.5 0 10:57 09.01.2020
1120 Clouds 8 1021 87 10000 1 80 10:39 09.01.2020
1121 Clouds 8 1021 93 10000 1.5 70 10:20 09.01.2020
1122 Clouds 7 1021 87 10000 1.5 90 09:45 09.01.2020
1123 Clouds 7 1022 87 10000 0.5 0 09:23 09.01.2020
1124 Clouds 7 1022 87 10000 0.5 0 08:57 09.01.2020
1125 Clouds 7 1022 93 10000 1 0 08:38 09.01.2020
1126 Clouds 7 1022 87 10000 1 0 08:20 09.01.2020
1127 Clouds 7 1022 87 10000 2.1 160 07:46 09.01.2020
1128 Clouds 6 1022 87 10000 2.1 160 07:28 09.01.2020
1129 Clouds 6 1023 87 10000 1.5 120 06:40 09.01.2020
1130 Clouds 7 1024 87 10000 1.5 150 06:22 09.01.2020
1131 Clouds 6 1024 87 10000 2.6 170 05:51 09.01.2020
1132 Clouds 6 1024 87 10000 2.6 170 05:18 09.01.2020
1133 Rain 6 1024 93 10000 2.1 160 04:38 09.01.2020
1134 Clouds 6 1025 93 10000 1 0 03:27 09.01.2020
1135 Clouds 6 1025 87 10000 0.62 164 02:46 09.01.2020
1136 Clouds 6 1026 87 10000 0.5 0 01:42 09.01.2020
1137 Clouds 6 1026 87 10000 0.5 0 00:59 09.01.2020
1138 Clouds 6 1026 87 10000 1 0 00:37 09.01.2020
1139 Clouds 6 1026 87 10000 1.5 120 00:19 09.01.2020
1140 Clouds 6 1027 87 10000 1.5 120 23:39 08.01.2020
1141 Clouds 6 1027 81 10000 1 0 23:20 08.01.2020
1142 Clouds 6 1027 75 10000 1 0 22:41 08.01.2020
1143 Clouds 6 1027 87 10000 1 0 22:23 08.01.2020
1144 Clouds 6 1027 87 10000 1 0 21:59 08.01.2020
1145 Clouds 6 1027 75 10000 1 0 21:40 08.01.2020
1146 Clouds 6 1027 81 10000 1.5 140 21:22 08.01.2020
1147 Clouds 6 1027 81 10000 1.5 140 20:59 08.01.2020
1148 Clouds 6 1027 87 10000 1 110 20:41 08.01.2020
1149 Clouds 6 1027 87 10000 1 130 20:21 08.01.2020
1150 Clouds 6 1027 87 10000 1 130 19:58 08.01.2020
1151 Clouds 6 1027 93 10000 1 340 19:38 08.01.2020
1152 Clouds 6 1027 87 10000 0.5 0 19:20 08.01.2020
1153 Clouds 6 1027 87 10000 0.5 0 18:58 08.01.2020
1154 Rain 6 1027 87 10000 0.5 0 18:39 08.01.2020
1155 Clouds 6 1027 87 10000 1 0 18:19 08.01.2020
1156 Clouds 6 1027 87 10000 1 0 17:57 08.01.2020
1157 Clouds 6 1027 93 10000 1 60 17:38 08.01.2020
1158 Clouds 6 1027 93 10000 1.5 60 17:19 08.01.2020
1159 Clouds 6 1027 93 10000 1.5 60 17:19 08.01.2020
1160 Clouds 6 1027 93 10000 1.5 60 16:56 08.01.2020
1161 Rain 6 1027 93 10000 1.5 60 16:38 08.01.2020
1162 Rain 6 1027 93 10000 1.5 90 16:19 08.01.2020
1163 Rain 6 1028 81 10000 1.5 70 15:45 08.01.2020
1164 Clouds 6 1027 81 10000 1.5 90 15:22 08.01.2020
1165 Rain 6 1028 81 10000 1.5 70 15:22 08.01.2020
1166 Clouds 6 1027 80 10000 1 0 14:59 08.01.2020
1167 Clouds 6 1027 80 10000 1 0 14:40 08.01.2020
1168 Clouds 6 1027 80 10000 1 70 14:21 08.01.2020
1169 Clouds 5 1028 86 10000 1 0 13:42 08.01.2020
1170 Clouds 5 1028 80 10000 1.5 80 13:22 08.01.2020
1171 Clouds 5 1028 80 10000 1.5 80 12:55 08.01.2020
1172 Rain 5 1028 86 10000 1 0 12:37 08.01.2020
1173 Rain 4 1029 86 10000 1 0 12:18 08.01.2020
1174 Rain 4 1029 93 10000 1.5 130 11:48 08.01.2020
1175 Clouds 3 1029 72 10000 1.5 130 11:20 08.01.2020
1176 Clouds 3 1029 72 10000 1.5 130 10:59 08.01.2020
1177 Clouds 2 1029 72 10000 1 0 10:41 08.01.2020
1178 Clouds 2 1029 72 10000 1 0 10:22 08.01.2020
1179 Clouds 2 1029 72 10000 1 0 09:58 08.01.2020
1180 Clouds 2 1029 72 10000 1 0 09:38 08.01.2020
1181 Clouds 1 1029 72 10000 1 0 09:18 08.01.2020
1182 Clouds 1 1028 72 10000 1 0 08:42 08.01.2020
1183 Clouds 1 1028 82 10000 1 0 08:23 08.01.2020
1184 Clouds 1 1028 82 10000 1 0 07:59 08.01.2020
1185 Clouds 1 1028 82 10000 1 0 07:41 08.01.2020
1186 Clouds 1 1028 100 10000 1.5 80 07:20 08.01.2020
1187 Clouds 0 1028 92 10000 1 0 06:42 08.01.2020
1188 Clouds 0 1028 92 10000 0.5 0 05:57 08.01.2020
1189 Clouds 0 1028 100 10000 0.5 0 05:27 08.01.2020
1190 Clouds 0 1028 100 10000 0.5 0 04:37 08.01.2020
1191 Clouds 0 1028 100 10000 1 0 03:31 08.01.2020
1192 Clouds 0 1029 92 10000 1 0 02:36 08.01.2020
1193 Clouds 0 1029 92 10000 3.6 270 02:18 08.01.2020
1194 Clouds 0 1029 92 10000 3.6 270 02:18 08.01.2020
1195 Clouds 0 1028 88 10000 1.5 230 01:39 08.01.2020
1196 Clear 0 1029 92 10000 1 0 00:53 08.01.2020
1197 Clear 0 1029 92 10000 1 0 00:26 08.01.2020
1198 Clear 1 1029 80 10000 1.5 180 23:46 07.01.2020
1199 Clear 1 1029 89 10000 1.5 180 23:22 07.01.2020
1200 Clear 1 1029 89 10000 1.5 180 22:58 07.01.2020
1201 Clear 2 1029 89 10000 1.5 200 22:38 07.01.2020
1202 Clouds 2 1030 89 10000 1 110 22:19 07.01.2020
1203 Clouds 2 1030 89 10000 1 110 21:54 07.01.2020
1204 Clouds 2 1030 89 10000 1 0 21:36 07.01.2020
1205 Clouds 2 1030 86 10000 1.5 100 21:18 07.01.2020
1206 Clouds 3 1030 93 10000 0.5 0 20:41 07.01.2020
1207 Clouds 3 1031 93 10000 1 90 20:23 07.01.2020
1208 Clouds 3 1031 93 10000 1 90 19:59 07.01.2020
1209 Clouds 3 1031 86 10000 0.5 0 19:38 07.01.2020
1210 Clouds 4 1031 80 10000 1 0 19:19 07.01.2020
1211 Clouds 4 1031 80 10000 1 0 19:19 07.01.2020
1212 Clouds 4 1031 80 10000 1 0 18:57 07.01.2020
1213 Clouds 4 1031 86 10000 1 0 18:38 07.01.2020
1214 Clouds 4 1031 80 10000 1 0 18:18 07.01.2020
1215 Clouds 4 1031 80 10000 1 0 17:58 07.01.2020
1216 Clouds 4 1030 70 10000 1.5 280 17:38 07.01.2020
1217 Clouds 5 1030 70 10000 1.5 290 17:20 07.01.2020
1218 Clouds 5 1030 70 10000 1.5 290 16:55 07.01.2020
1219 Clouds 5 1030 75 10000 0.5 0 16:37 07.01.2020
1220 Clouds 5 1030 75 10000 1.5 240 16:18 07.01.2020
1221 Clouds 5 1030 75 10000 2.6 250 15:55 07.01.2020
1222 Clouds 5 1030 75 10000 2.6 250 15:36 07.01.2020
1223 Clouds 5 1030 70 10000 4.6 280 15:18 07.01.2020
1224 Clouds 6 1029 75 10000 4.1 280 14:41 07.01.2020
1225 Clouds 6 1029 75 10000 2.1 250 14:22 07.01.2020
1226 Clouds 5 1029 75 10000 2.1 250 13:56 07.01.2020
1227 Clouds 5 1029 75 10000 1.5 230 13:37 07.01.2020
1228 Clouds 5 1029 81 10000 2.6 290 13:18 07.01.2020
1229 Clouds 5 1030 81 10000 4.1 260 12:40 07.01.2020
1230 Clouds 5 1030 81 10000 4.1 260 12:40 07.01.2020
1231 Clouds 4 1030 86 10000 2.6 240 12:19 07.01.2020
1232 Clouds 4 1030 86 10000 1.5 220 11:44 07.01.2020
1233 Clouds 4 1029 86 10000 2.6 240 11:23 07.01.2020
1234 Clouds 4 1029 86 10000 2.6 240 10:59 07.01.2020
1235 Fog 3 1029 93 10000 3.1 240 10:40 07.01.2020
1236 Fog 3 1029 86 10000 1.5 80 10:22 07.01.2020
1237 Fog 3 1029 86 10000 1.5 80 09:56 07.01.2020
1238 Fog 3 1029 100 10000 1 0 09:38 07.01.2020
1239 Rain 3 1028 93 10000 1 0 09:19 07.01.2020
1240 Clouds 3 1027 100 10000 1 0 08:42 07.01.2020
1241 Rain 2 1027 88 10000 0.5 0 08:22 07.01.2020
1242 Rain 2 1027 88 10000 0.5 0 07:54 07.01.2020
1243 Rain 2 1026 88 10000 0.5 200 07:26 07.01.2020
1244 Drizzle 2 1026 88 10000 1 0 06:53 07.01.2020
1245 Drizzle 2 1026 88 10000 1 0 06:32 07.01.2020
1246 Rain 2 1025 86 10000 1.5 290 05:49 07.01.2020
1247 Clear 0 1025 92 10000 2.6 310 04:33 07.01.2020
1248 Clear 0 1025 86 10000 0.5 110 03:26 07.01.2020
1249 Clouds -1 1024 100 10000 1 0 02:22 07.01.2020
1250 Clouds -1 1024 92 10000 1.5 310 01:51 07.01.2020
1251 Clouds -1 1024 92 10000 1.5 310 01:28 07.01.2020
1252 Clouds -1 1024 100 10000 0.5 0 00:37 07.01.2020
1253 Clouds -1 1024 92 10000 0.5 0 00:18 07.01.2020
1254 Clouds -1 1024 100 10000 1.5 80 23:39 06.01.2020
1255 Clear -1 1025 92 10000 1.5 50 23:21 06.01.2020
1256 Clear -1 1024 92 10000 1 0 22:58 06.01.2020
1257 Clear -1 1024 92 10000 1 0 22:39 06.01.2020
1258 Clear -1 1024 100 10000 1 70 22:21 06.01.2020
1259 Clear -1 1025 92 10000 1 0 21:56 06.01.2020
1260 Clear -1 1025 92 10000 1 0 21:38 06.01.2020
1261 Clear -1 1025 100 10000 0.5 0 21:19 06.01.2020
1262 Clear 0 1025 100 10000 0.5 0 20:56 06.01.2020
1263 Clear 0 1025 100 10000 1.5 100 20:37 06.01.2020
1264 Clear 0 1025 92 10000 0.5 0 20:19 06.01.2020
1265 Clear 0 1025 92 10000 0.5 0 19:56 06.01.2020
1266 Clear 0 1025 79 10000 0.24 199 19:37 06.01.2020
1267 Clear 0 1025 79 10000 1 320 19:19 06.01.2020
1268 Clear 0 1025 79 10000 1 320 19:19 06.01.2020
1269 Clear 0 1025 79 10000 0.5 0 18:46 06.01.2020
1270 Clear 1 1025 79 10000 0.5 0 18:21 06.01.2020
1271 Clear 1 1025 79 10000 0.5 0 17:57 06.01.2020
1272 Clear 1 1025 79 10000 0.5 50 17:37 06.01.2020
1273 Clear 2 1025 72 10000 1 80 17:18 06.01.2020
1274 Clear 3 1025 80 10000 1 100 16:44 06.01.2020
1275 Clear 3 1025 80 10000 1 0 16:24 06.01.2020
1276 Clear 3 1026 75 10000 2.1 70 15:59 06.01.2020
1277 Clear 3 1026 75 10000 2.1 70 15:38 06.01.2020
1278 Clear 4 1026 75 10000 1.5 80 15:18 06.01.2020
1279 Clear 4 1026 75 10000 1.5 80 14:56 06.01.2020
1280 Clear 4 1026 75 10000 1.5 70 14:37 06.01.2020
1281 Clouds 4 1026 75 10000 1.5 80 14:18 06.01.2020
1282 Clouds 4 1026 75 10000 1.5 80 14:18 06.01.2020
1283 Clouds 4 1026 80 10000 1.5 70 13:41 06.01.2020
1284 Clear 3 1027 80 10000 1 0 13:22 06.01.2020
1285 Clear 4 1027 80 10000 1 0 12:59 06.01.2020
1286 Clear 3 1027 86 10000 1 0 12:41 06.01.2020
1287 Clear 3 1028 62 10000 1.5 90 12:20 06.01.2020
1288 Clear 2 1028 62 10000 1 80 11:56 06.01.2020
1289 Clear 2 1028 62 10000 1 80 11:38 06.01.2020
1290 Clear 1 1029 77 9000 1 0 11:20 06.01.2020
1291 Clear 1 1029 77 9000 1 0 11:20 06.01.2020
1292 Clear 0 1029 92 9000 1 0 10:43 06.01.2020
1293 Clear 0 1029 92 9000 1 0 10:43 06.01.2020
1294 Fog -1 1029 100 3500 0.5 0 10:24 06.01.2020
1295 Fog -2 1030 100 1400 1 0 09:57 06.01.2020
1296 Fog -2 1030 100 1400 1 0 09:37 06.01.2020
1297 Fog -2 1030 100 900 0.5 80 09:19 06.01.2020
1298 Fog -2 1029 100 300 1 80 08:42 06.01.2020
1299 Fog -2 1029 100 300 1 80 08:23 06.01.2020
1300 Fog -2 1030 100 4000 0.5 0 07:48 06.01.2020
1301 Fog -2 1030 100 3000 0.5 100 07:23 06.01.2020
1302 Fog -2 1030 92 3000 0.5 0 06:44 06.01.2020
1303 Fog -2 1030 92 3000 1 280 06:18 06.01.2020
1304 Fog -2 1030 100 1000 0.5 0 05:40 06.01.2020
1305 Fog -1 1031 100 3000 1 280 04:30 06.01.2020
1306 Fog -1 1031 100 3000 1 280 03:58 06.01.2020
1307 Fog -1 1031 100 1500 0.5 0 02:46 06.01.2020
1308 Fog -1 1031 100 700 1.5 270 02:22 06.01.2020
1309 Fog -1 1032 100 900 1 250 01:43 06.01.2020
1310 Fog -1 1032 100 900 1.5 300 01:21 06.01.2020
1311 Fog 0 1032 100 500 0.5 300 00:41 06.01.2020
1312 Fog 0 1033 100 900 0.5 0 00:19 06.01.2020
1313 Fog 0 1033 100 900 1 0 23:41 05.01.2020
1314 Fog 0 1033 100 1500 0.5 0 23:22 05.01.2020
1315 Fog 0 1033 90 6000 0.5 100 22:55 05.01.2020
1316 Fog 0 1033 90 6000 0.5 100 22:37 05.01.2020
1317 Fog 0 1034 90 6000 1.45 137 22:19 05.01.2020
1318 Fog 1 1034 90 7000 0.5 0 21:54 05.01.2020
1319 Fog 1 1034 90 7000 0.5 0 21:36 05.01.2020
1320 Clear 1 1034 100 10000 1 70 21:18 05.01.2020
1321 Clear 1 1034 100 10000 1 70 20:54 05.01.2020
1322 Clear 2 1034 100 10000 1 90 20:36 05.01.2020
1323 Clouds 2 1034 100 10000 1.5 80 20:18 05.01.2020
1324 Clouds 2 1034 93 10000 1 70 19:41 05.01.2020
1325 Clouds 2 1034 93 10000 0.5 0 19:21 05.01.2020
1326 Clouds 3 1034 93 10000 0.5 0 18:56 05.01.2020
1327 Clouds 3 1034 86 10000 1 150 18:38 05.01.2020
1328 Clouds 4 1035 93 10000 1.6 136 18:19 05.01.2020
1329 Clouds 4 1035 93 10000 0.5 0 17:59 05.01.2020
1330 Clouds 4 1035 93 10000 1.6 136 17:59 05.01.2020
1331 Clouds 4 1035 93 10000 0.5 0 17:39 05.01.2020
1332 Clouds 4 1035 93 10000 2.1 170 17:20 05.01.2020
1333 Clouds 5 1035 93 10000 2.1 170 16:57 05.01.2020
1334 Clouds 5 1035 86 10000 1 130 16:39 05.01.2020
1335 Clouds 5 1035 86 10000 0.5 0 16:20 05.01.2020
1336 Clouds 5 1035 86 10000 0.5 0 15:40 05.01.2020
1337 Clouds 5 1035 86 10000 1 0 15:22 05.01.2020
1338 Clouds 6 1035 86 10000 1 0 14:58 05.01.2020
1339 Clouds 6 1035 86 10000 1 0 14:40 05.01.2020
1340 Clouds 6 1034 86 10000 1 0 14:22 05.01.2020
1341 Clouds 5 1035 86 10000 1 80 13:59 05.01.2020
1342 Clouds 5 1035 86 10000 1 80 13:39 05.01.2020
1343 Rain 5 1035 86 10000 1 0 13:20 05.01.2020
1344 Rain 5 1035 86 10000 1 0 12:57 05.01.2020
1345 Rain 5 1035 86 10000 1 0 12:57 05.01.2020
1346 Rain 5 1035 93 10000 1.5 150 12:38 05.01.2020
1347 Rain 5 1035 93 10000 1.5 210 12:20 05.01.2020
1348 Rain 5 1035 86 10000 1 0 11:55 05.01.2020
1349 Rain 5 1035 86 10000 1 0 11:37 05.01.2020
1350 Rain 5 1035 86 10000 1 0 11:37 05.01.2020
1351 Rain 5 1035 86 10000 1 0 11:37 05.01.2020
1352 Rain 5 1035 86 10000 1 0 11:37 05.01.2020
1353 Rain 4 1036 86 10000 1 0 11:18 05.01.2020
1354 Clouds 4 1036 86 10000 0.5 0 10:41 05.01.2020
1355 Clouds 4 1035 80 10000 1 240 10:20 05.01.2020
1356 Clouds 4 1035 80 10000 1 240 09:59 05.01.2020
1357 Clouds 3 1035 93 10000 1.5 240 09:41 05.01.2020
1358 Clouds 3 1035 86 10000 1 200 09:21 05.01.2020
1359 Clouds 4 1035 86 10000 1 0 08:45 05.01.2020
1360 Clouds 3 1035 86 10000 1 0 08:25 05.01.2020
1361 Clouds 4 1035 93 10000 1 0 07:50 05.01.2020
1362 Clouds 4 1035 93 10000 1 0 07:29 05.01.2020
1363 Drizzle 4 1035 93 10000 1.5 240 06:57 05.01.2020
1364 Drizzle 4 1034 93 10000 1 0 05:53 05.01.2020
1365 Drizzle 4 1034 93 10000 1 0 05:28 05.01.2020
1366 Rain 4 1034 86 10000 2.1 250 04:24 05.01.2020
1367 Rain 4 1034 86 10000 3.1 250 03:47 05.01.2020
1368 Clouds 4 1034 86 10000 2.1 220 02:43 05.01.2020
1369 Clouds 4 1034 86 10000 2.6 210 02:20 05.01.2020
1370 Clouds 4 1034 86 10000 2.6 190 01:40 05.01.2020
1371 Clouds 4 1034 80 10000 1.5 210 01:18 05.01.2020
1372 Clouds 4 1033 90 10000 1.5 210 00:41 05.01.2020
1373 Clouds 4 1033 90 10000 4.1 230 00:22 05.01.2020
1374 Clouds 4 1033 90 10000 5.1 240 23:59 04.01.2020
1375 Clouds 4 1033 90 10000 5.1 240 23:39 04.01.2020
1376 Clouds 4 1033 93 10000 4.1 250 23:19 04.01.2020
1377 Clouds 5 1033 93 10000 4.6 250 22:39 04.01.2020
1378 Clouds 4 1033 80 10000 3.6 230 22:21 04.01.2020
1379 Clouds 4 1033 80 10000 3.6 230 21:57 04.01.2020
1380 Clouds 4 1033 93 10000 3.6 230 21:38 04.01.2020
1381 Clouds 4 1033 93 10000 4.1 240 21:19 04.01.2020
1382 Clouds 4 1032 93 10000 2.6 230 20:57 04.01.2020
1383 Clouds 4 1032 93 10000 2.6 230 20:38 04.01.2020
1384 Clouds 4 1032 85 10000 3.6 240 20:20 04.01.2020
1385 Clouds 4 1032 85 10000 4.1 240 19:42 04.01.2020
1386 Clouds 4 1032 85 10000 4.1 240 19:42 04.01.2020
1387 Clouds 4 1032 85 10000 4.6 240 19:24 04.01.2020
1388 Clouds 4 1032 85 10000 4.6 240 18:59 04.01.2020
1389 Clouds 4 1032 85 10000 5.7 250 18:40 04.01.2020
1390 Clouds 4 1031 85 10000 5.1 250 18:22 04.01.2020
1391 Clouds 4 1031 85 10000 4.1 260 17:59 04.01.2020
1392 Clouds 4 1031 85 10000 4.1 260 17:40 04.01.2020
1393 Clouds 4 1031 79 10000 5.7 260 17:22 04.01.2020
1394 Clouds 4 1031 79 10000 5.7 260 16:55 04.01.2020
1395 Clouds 4 1030 79 10000 9.3 260 16:36 04.01.2020
1396 Clouds 4 1030 79 10000 6.7 260 16:18 04.01.2020
1397 Clouds 4 1030 79 10000 6.2 260 15:42 04.01.2020
1398 Clouds 4 1030 79 10000 5.1 260 15:20 04.01.2020
1399 Clouds 4 1030 79 10000 5.1 260 14:59 04.01.2020
1400 Clouds 5 1030 79 10000 6.2 260 14:41 04.01.2020
1401 Clouds 5 1030 77 10000 8.7 260 14:20 04.01.2020
1402 Clouds 5 1030 77 10000 8.7 260 13:58 04.01.2020
1403 Clouds 5 1030 77 10000 5.7 260 13:37 04.01.2020
1404 Clouds 5 1030 75 10000 5.1 260 13:19 04.01.2020
1405 Clouds 5 1030 75 10000 5.1 260 12:57 04.01.2020
1406 Clouds 5 1031 75 10000 5.1 250 12:38 04.01.2020
1407 Clouds 5 1031 75 10000 4.6 240 12:18 04.01.2020
1408 Clouds 5 1031 80 10000 3.1 230 11:55 04.01.2020
1409 Clouds 4 1031 80 10000 3.1 230 11:36 04.01.2020
1410 Clouds 4 1031 86 10000 2.6 250 11:18 04.01.2020
1411 Clouds 4 1031 86 10000 2.6 250 10:40 04.01.2020
1412 Clouds 4 1031 93 10000 3.1 280 10:21 04.01.2020
1413 Clouds 3 1030 86 10000 3.1 270 09:47 04.01.2020
1414 Clouds 3 1030 86 10000 3.6 280 09:26 04.01.2020
1415 Clouds 3 1030 86 10000 3.1 270 08:49 04.01.2020
1416 Clouds 3 1030 86 10000 3.1 270 08:29 04.01.2020
1417 Clouds 3 1030 86 10000 2.6 270 07:57 04.01.2020
1418 Clouds 3 1030 86 10000 2.6 270 07:39 04.01.2020
1419 Clouds 4 1029 93 10000 3.6 300 06:44 04.01.2020
1420 Drizzle 4 1028 93 10000 4.1 290 05:59 04.01.2020
1421 Rain 5 1028 93 10000 4.6 290 04:53 04.01.2020
1422 Rain 5 1028 93 10000 4.6 290 04:32 04.01.2020
1423 Drizzle 6 1027 93 10000 5.1 330 03:37 04.01.2020
1424 Drizzle 6 1027 100 10000 3.1 230 03:18 04.01.2020
1425 Drizzle 7 1026 87 9000 3.6 250 02:18 04.01.2020
1426 Rain 7 1026 87 10000 4.1 240 01:51 04.01.2020
1427 Clouds 7 1026 87 10000 4.6 240 01:30 04.01.2020
1428 Clouds 7 1026 87 10000 4.6 230 00:30 04.01.2020
1429 Drizzle 7 1026 87 10000 4.1 230 23:59 03.01.2020
1430 Rain 7 1026 87 10000 5.7 230 23:38 03.01.2020
1431 Rain 7 1026 87 10000 4.6 230 23:20 03.01.2020
1432 Clouds 7 1026 81 10000 4.1 220 22:41 03.01.2020
1433 Clouds 7 1025 81 10000 4.1 230 22:20 03.01.2020
1434 Clouds 7 1025 81 10000 4.6 230 21:58 03.01.2020
1435 Clouds 7 1025 81 10000 4.6 230 21:38 03.01.2020
1436 Clouds 7 1025 81 10000 3.6 230 21:19 03.01.2020
1437 Clouds 7 1025 81 10000 4.1 230 20:58 03.01.2020
1438 Clouds 7 1025 81 10000 4.1 230 20:40 03.01.2020
1439 Clouds 7 1025 81 10000 3.6 220 20:18 03.01.2020
1440 Clouds 7 1025 87 10000 3.1 200 19:56 03.01.2020
1441 Clouds 7 1025 87 10000 3.1 200 19:37 03.01.2020
1442 Rain 7 1025 93 10000 4.1 240 19:19 03.01.2020
1443 Rain 7 1025 81 10000 4.6 240 18:43 03.01.2020
1444 Clouds 7 1025 81 10000 4.1 230 18:24 03.01.2020
1445 Clouds 7 1025 81 10000 4.1 230 17:55 03.01.2020
1446 Clouds 7 1025 75 10000 3.6 220 17:37 03.01.2020
1447 Clouds 7 1025 75 10000 3.6 220 17:37 03.01.2020
1448 Clouds 7 1024 75 10000 4.1 230 17:18 03.01.2020
1449 Clouds 7 1024 75 10000 4.1 230 17:18 03.01.2020
1450 Rain 7 1024 75 10000 5.1 240 16:42 03.01.2020
1451 Rain 7 1024 75 10000 5.1 240 16:23 03.01.2020
1452 Clouds 7 1023 70 10000 1.5 220 15:57 03.01.2020
1453 Clouds 7 1023 70 10000 1.5 220 15:38 03.01.2020
1454 Clouds 7 1023 65 10000 0.5 0 15:18 03.01.2020
1455 Clouds 7 1023 75 10000 1.5 160 14:38 03.01.2020
1456 Clouds 7 1023 75 10000 1.5 160 14:38 03.01.2020
1457 Clouds 7 1023 75 10000 1.5 170 14:19 03.01.2020
1458 Clouds 7 1023 75 10000 2.1 180 13:44 03.01.2020
1459 Clouds 7 1023 75 10000 2.1 180 13:44 03.01.2020
1460 Clouds 7 1023 75 10000 2.1 180 13:44 03.01.2020
1461 Clouds 6 1023 75 10000 2.1 180 13:24 03.01.2020
1462 Clouds 6 1023 75 10000 2.1 180 12:59 03.01.2020
1463 Clouds 6 1023 70 10000 2.1 170 12:39 03.01.2020
1464 Clouds 6 1024 80 10000 2.6 190 12:21 03.01.2020
1465 Clouds 5 1024 79 10000 1.5 190 11:47 03.01.2020
1466 Clouds 4 1024 84 10000 1 0 11:23 03.01.2020
1467 Clouds 3 1024 80 10000 2.1 190 10:47 03.01.2020
1468 Clouds 3 1024 80 10000 2.6 190 10:27 03.01.2020
1469 Clouds 2 1024 80 10000 2.6 190 09:59 03.01.2020
1470 Clouds 2 1024 80 10000 1.5 0 09:40 03.01.2020
1471 Clouds 2 1024 86 10000 1 0 09:22 03.01.2020
1472 Clouds 2 1024 86 10000 1 0 08:57 03.01.2020
1473 Clouds 2 1024 84 10000 1 0 08:38 03.01.2020
1474 Clouds 1 1024 86 10000 0.5 0 08:20 03.01.2020
1475 Clouds 1 1024 86 10000 1 0 07:41 03.01.2020
1476 Clouds 1 1024 92 10000 1 0 07:19 03.01.2020
1477 Clouds 1 1024 92 10000 1 0 06:54 03.01.2020
1478 Clouds 1 1024 92 10000 1 110 06:35 03.01.2020
1479 Clouds 1 1025 100 10000 1.5 70 05:48 03.01.2020
1480 Clouds 1 1025 82 10000 1 0 04:31 03.01.2020
1481 Clouds 1 1025 92 10000 0.5 0 03:34 03.01.2020
1482 Clouds 1 1026 92 10000 1.5 330 02:47 03.01.2020
1483 Clouds 0 1026 100 10000 1.5 60 01:47 03.01.2020
1484 Clouds 0 1026 100 10000 1 0 00:57 03.01.2020
1485 Clouds 0 1027 92 10000 1.5 70 00:33 03.01.2020
1486 Clouds 0 1027 92 10000 1.5 100 23:58 02.01.2020
1487 Clouds 0 1027 92 10000 1.5 100 23:39 02.01.2020
1488 Clouds 0 1027 92 10000 0.5 0 23:20 02.01.2020
1489 Clouds -1 1027 92 10000 0.5 0 22:58 02.01.2020
1490 Clouds -1 1027 92 10000 1 0 22:39 02.01.2020
1491 Clouds -1 1027 92 10000 1.5 130 22:19 02.01.2020
1492 Clouds -1 1027 100 10000 1 0 21:55 02.01.2020
1493 Clouds -1 1027 100 10000 1 0 21:36 02.01.2020
1494 Clear 0 1027 81 10000 1 0 21:18 02.01.2020
1495 Clear 0 1027 92 10000 0.5 110 20:54 02.01.2020
1496 Clear -1 1027 92 10000 0.5 110 20:36 02.01.2020
1497 Clouds 0 1027 82 10000 1 0 20:18 02.01.2020
1498 Clouds 0 1027 82 10000 0.5 0 19:54 02.01.2020
1499 Clouds 0 1027 82 10000 0.5 0 19:36 02.01.2020
1500 Clouds 0 1027 92 10000 1.5 270 19:18 02.01.2020
1501 Clouds 0 1027 86 10000 1 260 18:42 02.01.2020
1502 Clouds 0 1027 82 10000 1 280 18:23 02.01.2020
1503 Clouds 0 1027 82 10000 0.5 0 17:58 02.01.2020
1504 Clouds 0 1027 82 10000 0.5 0 17:38 02.01.2020
1505 Clear 0 1027 80 10000 0.5 0 17:19 02.01.2020
1506 Clear 1 1027 86 10000 1 60 16:58 02.01.2020
1507 Clear 1 1027 86 10000 1 60 16:40 02.01.2020
1508 Clear 2 1027 74 10000 1.5 60 16:20 02.01.2020
1509 Clear 2 1027 74 10000 1 150 15:57 02.01.2020
1510 Clear 2 1027 74 10000 1 150 15:39 02.01.2020
1511 Clear 2 1027 74 10000 1 0 15:19 02.01.2020
1512 Clear 2 1028 80 10000 1 0 14:56 02.01.2020
1513 Clear 2 1028 80 10000 1 0 14:36 02.01.2020
1514 Clear 2 1028 80 10000 1.5 130 14:18 02.01.2020
1515 Clear 2 1028 86 10000 1.5 110 13:48 02.01.2020
1516 Clear 2 1028 86 10000 1.5 110 13:30 02.01.2020
1517 Fog 1 1029 92 10000 1 0 12:46 02.01.2020
1518 Fog 1 1030 92 9000 0.5 0 12:26 02.01.2020
1519 Fog 0 1030 92 9000 0.5 0 11:59 02.01.2020
1520 Fog -1 1030 92 9000 0.5 0 11:40 02.01.2020
1521 Fog -1 1030 100 1400 0.5 0 11:20 02.01.2020
1522 Fog -2 1030 100 200 0.5 190 10:44 02.01.2020
1523 Fog -2 1030 100 200 0.5 0 10:26 02.01.2020
1524 Fog -3 1030 100 150 1 0 09:51 02.01.2020
1525 Fog -3 1030 100 150 1 0 09:33 02.01.2020
1526 Fog -3 1029 100 100 1 0 08:47 02.01.2020
1527 Fog -3 1029 100 100 1 0 08:27 02.01.2020
1528 Fog -3 1029 100 150 1 90 07:54 02.01.2020
1529 Fog -3 1029 100 150 1 90 07:30 02.01.2020
1530 Fog -3 1029 100 8000 1 0 06:55 02.01.2020
1531 Fog -3 1029 100 8000 1 0 06:36 02.01.2020
1532 Clear -3 1029 100 8000 0.5 0 05:36 02.01.2020
1533 Clear -3 1029 92 8000 0.5 0 04:33 02.01.2020
1534 Clear -2 1029 100 8000 0.72 253 02:55 02.01.2020
1535 Clear -2 1029 92 8000 0.5 0 02:20 02.01.2020
1536 Clear -2 1029 100 8000 0.5 0 01:47 02.01.2020
1537 Fog -2 1029 92 8000 1.5 230 01:19 02.01.2020
1538 Fog -2 1029 92 8000 2.1 300 00:36 02.01.2020
1539 Clear -2 1029 100 8000 2.1 270 00:18 02.01.2020
1540 Clear -1 1030 100 8000 1.5 270 23:40 01.01.2020
1541 Clear -2 1030 92 8000 0.5 260 23:20 01.01.2020
1542 Clear -1 1030 100 8000 0.5 0 22:38 01.01.2020
1543 Clear -1 1031 92 8000 1 280 22:20 01.01.2020
1544 Clear -1 1031 92 8000 1 280 21:57 01.01.2020
1545 Clear -1 1031 92 8000 1 0 21:38 01.01.2020
1546 Clear -1 1031 100 8000 1.09 116 21:20 01.01.2020
1547 Clear -1 1031 92 9000 1.09 116 20:56 01.01.2020
1548 Clear -1 1031 92 9000 1.09 116 20:38 01.01.2020
1549 Clear 0 1031 88 10000 0.5 0 20:19 01.01.2020
1550 Clear 0 1031 100 10000 0.5 0 19:55 01.01.2020
1551 Clear 0 1031 100 10000 0.5 0 19:37 01.01.2020
1552 Clear 0 1031 86 10000 1 0 19:19 01.01.2020
1553 Clear 0 1031 86 10000 1 0 18:56 01.01.2020
1554 Clear 0 1031 88 10000 0.5 0 18:36 01.01.2020
1555 Clear 1 1031 86 10000 1 280 18:18 01.01.2020
1556 Clear 1 1031 86 10000 1 280 17:56 01.01.2020
1557 Clear 1 1031 86 10000 1.5 290 17:38 01.01.2020
1558 Clear 2 1031 85 10000 0.5 280 17:19 01.01.2020
1559 Clear 2 1031 85 10000 0.5 260 16:55 01.01.2020
1560 Clear 2 1031 85 10000 0.5 260 16:36 01.01.2020
1561 Clear 3 1031 75 10000 0.5 0 16:18 01.01.2020
1562 Clear 3 1031 75 10000 0.5 0 15:54 01.01.2020
1563 Clear 4 1031 75 10000 0.5 0 15:36 01.01.2020
1564 Clear 3 1031 75 10000 1 0 15:18 01.01.2020
1565 Clear 4 1031 75 10000 1.5 60 14:41 01.01.2020
1566 Clear 4 1031 75 10000 1 0 14:22 01.01.2020
1567 Clear 4 1031 75 10000 1 0 13:56 01.01.2020
1568 Clear 4 1031 75 10000 1 0 13:56 01.01.2020
1569 Clear 4 1031 75 10000 1 80 13:37 01.01.2020
1570 Clear 4 1031 70 10000 0.5 0 13:19 01.01.2020
1571 Clear 5 1032 74 10000 0.5 0 12:57 01.01.2020
1572 Clear 4 1032 74 10000 0.5 0 12:39 01.01.2020
1573 Fog 4 1032 74 10000 1 0 12:19 01.01.2020
1574 Fog 3 1032 74 10000 1 0 11:56 01.01.2020
1575 Fog 2 1032 74 6000 0.5 0 11:37 01.01.2020
1576 Fog 1 1033 86 4500 1 0 11:18 01.01.2020
1577 Fog 1 1033 92 1800 0.5 0 10:54 01.01.2020
1578 Fog 1 1033 92 1800 0.5 0 10:36 01.01.2020
1579 Fog 0 1032 100 5000 1 0 10:18 01.01.2020
1580 Fog 0 1032 100 1800 0.5 0 09:38 01.01.2020
1581 Fog -1 1032 92 1500 1 0 09:19 01.01.2020
1582 Fog -1 1032 92 1500 1 0 09:19 01.01.2020
1583 Clear -1 1033 92 2200 2.1 90 08:56 01.01.2020
1584 Clear -1 1033 92 2200 2.1 90 08:37 01.01.2020
1585 Clear -1 1033 100 2200 2.1 110 08:19 01.01.2020
1586 Clear -1 1033 100 2200 2.1 110 07:56 01.01.2020
1587 Fog -1 1032 100 9000 1 0 07:38 01.01.2020
1588 Clouds -1 1032 92 10000 1 0 06:50 01.01.2020
1589 Clouds -1 1032 92 10000 1 0 06:32 01.01.2020
1590 Clouds 0 1032 92 9000 1 230 05:46 01.01.2020
1591 Clouds 0 1033 100 9000 0.5 0 04:20 01.01.2020
1592 Clouds 0 1033 100 10000 1 60 03:39 01.01.2020
1593 Clouds 0 1033 100 10000 1 80 03:21 01.01.2020
1594 Clouds 0 1033 89 10000 1 120 02:41 01.01.2020
1595 Clouds 0 1033 86 10000 0.5 0 02:22 01.01.2020
1596 Clouds 0 1033 80 10000 0.5 0 01:41 01.01.2020
1597 Clouds 0 1033 80 10000 0.5 0 01:22 01.01.2020
1598 Clouds 1 1033 80 8000 1 0 00:45 01.01.2020
1599 Clouds 1 1033 80 8000 1 0 00:26 01.01.2020
1600 Clouds 1 1034 80 10000 0.5 0 23:56 31.12.2019
1601 Clouds 1 1034 86 10000 0.5 0 23:36 31.12.2019
1602 Clouds 1 1034 71 10000 0.5 0 23:18 31.12.2019
1603 Clouds 1 1034 80 10000 0.5 0 22:55 31.12.2019
1604 Clouds 1 1034 80 10000 0.5 0 22:36 31.12.2019
1605 Clouds 1 1034 86 10000 1.5 220 22:18 31.12.2019
1606 Clouds 1 1034 86 10000 1 250 21:42 31.12.2019
1607 Clouds 1 1034 80 10000 1 240 21:24 31.12.2019
1608 Clouds 0 1034 71 10000 1 310 20:57 31.12.2019
1609 Clouds 1 1034 80 10000 1 240 20:57 31.12.2019
1610 Clouds 0 1034 71 10000 1 310 20:38 31.12.2019
1611 Clouds 0 1034 71 10000 1 310 20:38 31.12.2019
1612 Clouds 1 1034 67 10000 1.5 270 20:20 31.12.2019
1613 Clouds 1 1033 67 10000 1 0 19:57 31.12.2019
1614 Clouds 1 1033 67 10000 1 0 19:39 31.12.2019
1615 Clouds 1 1033 67 10000 2.1 300 19:20 31.12.2019
1616 Clouds 1 1033 67 10000 2.1 300 18:56 31.12.2019
1617 Clouds 1 1033 80 10000 2.1 290 18:38 31.12.2019
1618 Clouds 1 1033 74 10000 0.5 0 18:19 31.12.2019
1619 Clouds 2 1033 80 10000 1.5 20 17:55 31.12.2019
1620 Clouds 2 1033 80 10000 1.5 20 17:36 31.12.2019
1621 Clouds 3 1033 74 10000 1.5 30 17:18 31.12.2019
1622 Clouds 3 1032 64 10000 1 0 16:56 31.12.2019
1623 Clouds 4 1032 64 10000 1 0 16:37 31.12.2019
1624 Clouds 4 1032 64 10000 1 0 16:37 31.12.2019
1625 Clouds 4 1033 64 10000 2.1 10 16:18 31.12.2019
1626 Clouds 4 1032 56 10000 1.5 30 15:56 31.12.2019
1627 Clouds 5 1032 56 10000 1.5 30 15:38 31.12.2019
1628 Clouds 5 1032 52 10000 1.5 30 15:19 31.12.2019
1629 Clouds 5 1032 52 10000 1.5 30 14:55 31.12.2019
1630 Clouds 5 1032 56 10000 1 0 14:37 31.12.2019
1631 Clouds 5 1032 53 10000 0.5 0 14:18 31.12.2019
1632 Clouds 5 1032 53 10000 1 0 13:56 31.12.2019
1633 Clouds 4 1032 53 10000 1 0 13:38 31.12.2019
1634 Clouds 4 1032 55 10000 0.5 0 13:19 31.12.2019
1635 Clouds 5 1033 55 10000 0.5 0 12:55 31.12.2019
1636 Clouds 5 1033 55 10000 0.5 0 12:55 31.12.2019
1637 Clouds 5 1033 55 10000 0.5 0 12:37 31.12.2019
1638 Clouds 4 1033 55 10000 0.5 0 12:37 31.12.2019
1639 Clouds 4 1033 69 10000 1 0 12:18 31.12.2019
1640 Clouds 4 1033 69 10000 1 0 11:55 31.12.2019
1641 Clouds 3 1033 64 10000 0.5 0 11:37 31.12.2019
1642 Clouds 1 1033 80 10000 0.5 0 11:19 31.12.2019
1643 Clouds 1 1033 80 10000 0.5 0 11:19 31.12.2019
1644 Clouds 1 1033 80 10000 0.5 0 10:56 31.12.2019
1645 Clouds 1 1033 65 10000 0.5 0 10:37 31.12.2019
1646 Clouds 0 1032 86 10000 1.5 130 10:19 31.12.2019
1647 Clouds -1 1032 86 10000 1.5 130 09:57 31.12.2019
1648 Clouds 0 1032 86 10000 1.5 130 09:57 31.12.2019
1649 Clouds -1 1032 86 10000 1 0 09:38 31.12.2019
1650 Clouds -2 1031 92 10000 0.5 0 09:19 31.12.2019
1651 Clouds -2 1030 92 10000 1 0 08:43 31.12.2019
1652 Clear -2 1030 92 10000 1 0 08:23 31.12.2019
1653 Clear -2 1030 100 10000 0.5 0 07:59 31.12.2019
1654 Clear -2 1030 100 10000 0.5 0 07:41 31.12.2019
1655 Clear -2 1030 92 10000 1 0 07:19 31.12.2019
1656 Clear -2 1030 92 10000 1.5 280 06:42 31.12.2019
1657 Clear -2 1030 100 10000 0.5 0 05:54 31.12.2019
1658 Clear -2 1031 92 10000 1 0 04:27 31.12.2019
1659 Clear -2 1030 100 10000 1 180 03:27 31.12.2019
1660 Clear -1 1030 92 10000 1 0 02:43 31.12.2019
1661 Clouds -1 1030 92 10000 0.5 0 01:53 31.12.2019
1662 Clouds -1 1030 92 10000 0.5 0 01:34 31.12.2019
1663 Clouds 0 1030 92 10000 0.5 10 00:57 31.12.2019
1664 Clouds 0 1030 92 10000 0.5 10 00:38 31.12.2019
1665 Clouds 0 1030 92 10000 1 10 00:18 31.12.2019
1666 Clouds 0 1030 92 10000 1 10 23:56 30.12.2019
1667 Clouds 0 1030 92 10000 0.5 0 23:37 30.12.2019
1668 Clouds 0 1031 56 10000 1 0 23:19 30.12.2019
1669 Clouds 0 1031 56 10000 0.5 0 22:56 30.12.2019
1670 Clouds 0 1031 56 10000 0.5 0 22:56 30.12.2019
1671 Clouds 0 1031 56 10000 0.5 0 22:37 30.12.2019
1672 Clouds 0 1031 56 10000 0.5 0 22:18 30.12.2019
1673 Clouds 0 1031 56 10000 0.5 0 21:55 30.12.2019
1674 Clouds 0 1031 56 10000 1 0 21:37 30.12.2019
1675 Clouds 0 1031 56 10000 0.5 0 21:18 30.12.2019
1676 Clouds 0 1031 56 10000 0.5 0 20:56 30.12.2019
1677 Clouds 0 1031 56 10000 1 0 20:37 30.12.2019
1678 Clear 0 1031 80 10000 0.5 0 20:19 30.12.2019
1679 Clear 0 1031 80 10000 0.5 0 19:55 30.12.2019
1680 Clear 0 1031 86 10000 1 0 19:37 30.12.2019
1681 Clear 0 1031 86 10000 1.5 310 19:18 30.12.2019
1682 Clear 1 1031 86 10000 1.5 310 18:56 30.12.2019
1683 Clear 0 1031 57 10000 2.1 330 18:37 30.12.2019
1684 Clear 1 1031 74 10000 1 0 18:19 30.12.2019
1685 Clear 1 1031 74 10000 0.5 0 17:54 30.12.2019
1686 Clear 1 1031 74 10000 0.5 0 17:36 30.12.2019
1687 Clear 2 1031 64 10000 1.5 300 17:18 30.12.2019
1688 Clear 3 1031 64 10000 1.5 300 16:54 30.12.2019
1689 Clear 3 1031 65 10000 1 190 16:36 30.12.2019
1690 Clear 3 1031 60 10000 1 0 16:18 30.12.2019
1691 Clear 4 1031 48 10000 1.5 150 15:54 30.12.2019
1692 Clear 4 1031 48 10000 1.5 150 15:36 30.12.2019
1693 Clear 4 1032 48 10000 0.5 0 15:18 30.12.2019
1694 Clear 4 1032 65 10000 1 0 14:42 30.12.2019
1695 Clear 5 1032 65 10000 0.5 0 14:19 30.12.2019
1696 Clear 4 1032 65 10000 0.5 0 13:54 30.12.2019
1697 Clear 5 1032 74 10000 1 0 13:36 30.12.2019
1698 Clear 5 1033 69 10000 1 0 13:18 30.12.2019
1699 Clear 4 1033 80 10000 1 0 12:42 30.12.2019
1700 Clear 3 1033 39 10000 1 0 12:20 30.12.2019
1701 Clear 3 1034 39 10000 1 0 11:58 30.12.2019
1702 Clear 3 1034 39 10000 1 0 11:39 30.12.2019
1703 Clear 1 1034 86 10000 1 0 11:19 30.12.2019
1704 Clear 0 1034 86 10000 1 0 10:43 30.12.2019
1705 Clear -1 1034 92 10000 1 0 10:21 30.12.2019
1706 Clear -2 1034 92 10000 1 0 09:57 30.12.2019
1707 Clear -2 1034 86 10000 0.5 0 09:39 30.12.2019
1708 Clear -3 1034 92 10000 0.5 250 09:19 30.12.2019
1709 Clear -4 1034 92 10000 1.76 131 08:50 30.12.2019
1710 Clear -4 1034 92 10000 1.76 131 08:50 30.12.2019
1711 Clear -4 1034 92 10000 0.5 0 08:23 30.12.2019
1712 Clear -4 1034 100 10000 0.5 0 07:56 30.12.2019
1713 Clear -4 1034 100 10000 0.5 0 07:37 30.12.2019
1714 Clear -4 1034 100 10000 0.5 0 06:52 30.12.2019
1715 Clear -4 1035 92 10000 1 140 04:58 30.12.2019
1716 Clear -4 1035 92 10000 0.5 0 03:57 30.12.2019
1717 Clear -4 1035 92 10000 1 0 03:19 30.12.2019
1718 Clear -3 1035 92 10000 1 0 02:40 30.12.2019
1719 Clear -3 1036 85 10000 0.5 0 01:55 30.12.2019
1720 Clear -3 1036 92 10000 0.5 0 01:23 30.12.2019
1721 Clear -3 1036 92 10000 1 360 00:45 30.12.2019
1722 Clear -3 1036 85 10000 1 260 00:19 30.12.2019
1723 Clear -3 1036 92 10000 0.5 0 23:39 29.12.2019
1724 Clear -3 1036 92 10000 1 0 23:21 29.12.2019
1725 Clear -3 1036 92 10000 0.5 0 22:55 29.12.2019
1726 Clear -3 1036 92 10000 0.5 0 22:37 29.12.2019
1727 Clear -3 1036 100 10000 1 100 22:18 29.12.2019
1728 Clear -2 1036 86 10000 0.5 0 21:43 29.12.2019
1729 Clear -2 1036 86 10000 1 0 21:21 29.12.2019
1730 Clear -2 1036 86 10000 1 0 20:58 29.12.2019
1731 Clear -2 1036 86 10000 0.5 70 20:39 29.12.2019
1732 Clouds -2 1036 86 10000 0.5 0 20:21 29.12.2019
1733 Clouds -1 1036 86 10000 0.5 0 19:59 29.12.2019
1734 Clouds -1 1036 80 10000 2.6 80 19:40 29.12.2019
1735 Clouds -1 1036 68 10000 1.5 60 19:21 29.12.2019
1736 Clouds -1 1036 68 10000 1.5 60 18:58 29.12.2019
1737 Clouds -1 1036 86 10000 0.5 0 18:39 29.12.2019
1738 Clouds -1 1036 68 10000 1 0 18:20 29.12.2019
1739 Clouds -1 1036 68 10000 1 0 17:58 29.12.2019
1740 Clouds 0 1036 68 10000 0.5 0 17:39 29.12.2019
1741 Clouds 0 1036 63 10000 1 210 17:20 29.12.2019
1742 Clouds 1 1036 74 10000 1.54 105 16:57 29.12.2019
1743 Clouds 1 1036 74 10000 1.54 105 16:39 29.12.2019
1744 Clouds 2 1036 64 10000 0.5 0 16:21 29.12.2019
1745 Clouds 2 1036 64 10000 0.5 0 15:58 29.12.2019
1746 Clouds 2 1036 64 10000 0.5 0 15:39 29.12.2019
1747 Clouds 3 1036 64 10000 0.5 0 15:20 29.12.2019
1748 Clouds 3 1036 64 10000 0.5 0 15:20 29.12.2019
1749 Clouds 3 1036 64 10000 0.5 0 14:58 29.12.2019
1750 Clouds 3 1036 64 10000 1.5 80 14:39 29.12.2019
1751 Clear 3 1036 69 10000 0.5 0 14:18 29.12.2019
1752 Clear 3 1036 69 10000 0.5 0 13:58 29.12.2019
1753 Clear 3 1036 69 10000 1 0 13:39 29.12.2019
1754 Clear 2 1037 69 10000 1 0 13:21 29.12.2019
1755 Clear 2 1037 57 10000 1 0 12:56 29.12.2019
1756 Clear 2 1037 57 10000 1 0 12:38 29.12.2019
1757 Clear 1 1037 57 10000 1 0 12:20 29.12.2019
1758 Clear 1 1038 80 10000 1 0 11:41 29.12.2019
1759 Clear -1 1038 86 10000 1.5 70 11:21 29.12.2019
1760 Clear -1 1038 86 10000 1.5 70 10:57 29.12.2019
1761 Clear -2 1038 80 10000 1 0 10:38 29.12.2019
1762 Clear -2 1038 86 10000 0.5 0 10:18 29.12.2019
1763 Clear -3 1038 92 10000 0.5 0 09:45 29.12.2019
1764 Clear -4 1038 85 10000 1 0 09:27 29.12.2019
1765 Clear -4 1037 92 10000 1.5 320 08:56 29.12.2019
1766 Clear -4 1037 92 10000 1.5 320 08:38 29.12.2019
1767 Clouds -4 1037 92 10000 1.5 280 08:20 29.12.2019
1768 Clouds -4 1037 85 10000 1 0 07:44 29.12.2019
1769 Clouds -4 1037 92 10000 1 0 07:25 29.12.2019
1770 Clouds -4 1037 92 10000 1 0 06:38 29.12.2019
1771 Clouds -4 1037 92 10000 1 280 06:18 29.12.2019
1772 Clouds -4 1038 92 10000 1 320 05:44 29.12.2019
1773 Clouds -3 1038 92 10000 1.86 82 04:32 29.12.2019
1774 Clouds -3 1038 85 10000 2.1 300 03:36 29.12.2019
1775 Clouds -3 1038 92 10000 2.1 300 02:30 29.12.2019
1776 Clouds -3 1038 92 10000 2.1 300 02:30 29.12.2019
1777 Clouds -2 1038 92 10000 0.5 0 01:52 29.12.2019
1778 Clouds -2 1038 92 10000 0.5 0 01:29 29.12.2019
1779 Clouds -3 1039 92 10000 1 280 00:47 29.12.2019
1780 Clouds -3 1039 92 10000 1 280 00:25 29.12.2019
1781 Clouds -2 1039 86 10000 0.5 0 23:55 28.12.2019
1782 Clouds -2 1039 86 10000 1 0 23:37 28.12.2019
1783 Clouds -2 1039 92 10000 1.5 320 23:18 28.12.2019
1784 Clouds -2 1039 92 10000 1.5 320 23:18 28.12.2019
1785 Clouds -2 1039 92 10000 0.5 0 22:38 28.12.2019
1786 Clouds -2 1039 92 10000 1 90 22:19 28.12.2019
1787 Clouds -2 1039 92 10000 1 90 21:57 28.12.2019
1788 Clouds -2 1039 92 10000 1.5 80 21:38 28.12.2019
1789 Clouds -1 1039 92 10000 1 70 21:19 28.12.2019
1790 Clouds -1 1039 86 10000 0.5 0 20:55 28.12.2019
1791 Clouds -1 1039 86 10000 0.5 0 20:36 28.12.2019
1792 Clouds -1 1039 86 10000 1 80 20:18 28.12.2019
1793 Clouds -1 1039 86 10000 1 0 19:54 28.12.2019
1794 Clouds -1 1039 86 10000 1 0 19:36 28.12.2019
1795 Clouds -1 1039 86 10000 2.1 90 19:18 28.12.2019
1796 Clouds -1 1039 92 10000 2.1 90 18:42 28.12.2019
1797 Clouds -1 1039 79 10000 1.5 80 18:20 28.12.2019
1798 Clouds -1 1039 79 10000 1.5 80 17:59 28.12.2019
1799 Clouds 0 1039 79 10000 1.5 100 17:41 28.12.2019
1800 Clear 0 1038 76 10000 2.1 90 17:21 28.12.2019
1801 Clear 1 1038 80 10000 2.6 90 16:55 28.12.2019
1802 Clear 1 1038 80 10000 2.6 90 16:36 28.12.2019
1803 Clear 1 1038 80 10000 2.6 90 16:36 28.12.2019
1804 Clouds 1 1038 74 10000 3.6 90 16:18 28.12.2019
1805 Clouds 2 1038 69 10000 2.6 100 15:43 28.12.2019
1806 Clouds 3 1038 69 10000 2.1 70 15:21 28.12.2019
1807 Clouds 3 1038 69 10000 2.1 50 14:48 28.12.2019
1808 Clouds 3 1038 69 10000 2.1 40 14:26 28.12.2019
1809 Clouds 3 1038 69 10000 2.1 40 13:58 28.12.2019
1810 Clouds 3 1038 69 10000 3.1 70 13:40 28.12.2019
1811 Clouds 3 1038 74 10000 2.6 80 13:21 28.12.2019
1812 Clouds 3 1038 74 10000 2.6 80 12:58 28.12.2019
1813 Clouds 3 1038 74 10000 2.6 100 12:40 28.12.2019
1814 Clouds 2 1038 80 10000 2.6 70 12:21 28.12.2019
1815 Clouds 2 1038 80 10000 2.1 80 11:40 28.12.2019
1816 Clouds 2 1038 86 10000 1.5 110 11:21 28.12.2019
1817 Clouds 1 1038 86 10000 0.5 120 10:56 28.12.2019
1818 Clouds 0 1038 86 10000 0.5 120 10:38 28.12.2019
1819 Clouds 1 1038 84 10000 0.5 0 10:19 28.12.2019
1820 Clouds 0 1038 84 10000 0.5 0 09:54 28.12.2019
1821 Clouds -1 1038 84 10000 0.5 0 09:36 28.12.2019
1822 Clouds -1 1037 84 8000 0.5 0 09:18 28.12.2019
1823 Clouds -1 1037 84 8000 0.5 130 08:43 28.12.2019
1824 Clouds -1 1037 83 8000 0.5 130 08:24 28.12.2019
1825 Clouds -1 1037 89 10000 0.5 0 07:48 28.12.2019
1826 Clouds -1 1036 89 10000 0.5 0 07:23 28.12.2019
1827 Clouds -1 1036 89 10000 2.1 320 05:52 28.12.2019
1828 Clouds 0 1035 89 10000 1.5 50 03:49 28.12.2019
1829 Clouds 1 1035 89 10000 1.5 60 02:52 28.12.2019
1830 Clouds 1 1035 89 10000 1.5 60 02:31 28.12.2019
1831 Clouds 2 1035 90 10000 3.6 50 01:56 28.12.2019
1832 Clouds 1 1035 90 10000 1.5 0 01:56 28.12.2019
1833 Clouds 2 1035 89 10000 3.6 50 01:24 28.12.2019
1834 Clouds 2 1035 86 10000 3.6 40 00:51 28.12.2019
1835 Clouds 2 1035 86 10000 3.6 40 00:32 28.12.2019
1836 Clouds 2 1035 86 10000 3.6 40 00:32 28.12.2019
1837 Clouds 3 1034 86 10000 2.1 40 23:59 27.12.2019
1838 Clouds 3 1034 86 10000 2.6 50 23:41 27.12.2019
1839 Clouds 3 1034 86 10000 2.6 40 23:19 27.12.2019
1840 Clouds 3 1034 86 10000 2.6 40 22:57 27.12.2019
1841 Clouds 3 1034 86 10000 2.6 40 22:57 27.12.2019
1842 Clouds 3 1033 86 10000 2.6 50 22:38 27.12.2019
1843 Clouds 3 1033 86 10000 3.1 40 22:20 27.12.2019
1844 Clouds 3 1033 86 10000 3.1 40 21:54 27.12.2019
1845 Clouds 4 1033 86 10000 2.6 30 21:36 27.12.2019
1846 Clouds 4 1032 86 10000 3.6 60 21:18 27.12.2019
1847 Clouds 4 1032 86 10000 2.6 40 20:40 27.12.2019
1848 Clouds 4 1031 86 10000 2.6 50 20:21 27.12.2019
1849 Clouds 4 1031 93 10000 2.6 50 19:42 27.12.2019
1850 Clouds 4 1031 93 10000 2.6 40 19:20 27.12.2019
1851 Clouds 4 1031 93 10000 2.6 40 18:59 27.12.2019
1852 Clouds 4 1030 93 10000 3.1 40 18:39 27.12.2019
1853 Clouds 5 1029 93 10000 2.6 30 18:20 27.12.2019
1854 Clouds 5 1029 93 10000 2.6 30 17:57 27.12.2019
1855 Clouds 5 1029 100 8000 3.1 10 17:39 27.12.2019
1856 Clouds 5 1028 100 7000 3.6 360 17:19 27.12.2019
1857 Clouds 5 1028 100 7000 3.6 360 16:58 27.12.2019
1858 Mist 6 1028 93 5000 2.6 360 16:38 27.12.2019
1859 Mist 6 1027 93 4000 3.1 350 16:19 27.12.2019
1860 Mist 6 1027 93 4000 2.6 350 15:44 27.12.2019
1861 Fog 6 1027 93 4000 2.6 360 15:22 27.12.2019
1862 Fog 6 1026 100 3000 3.6 360 14:57 27.12.2019
1863 Fog 6 1026 100 3000 3.6 360 14:39 27.12.2019
1864 Drizzle 6 1026 100 2500 4.1 360 14:20 27.12.2019
1865 Clouds 6 1025 93 10000 1 0 13:55 27.12.2019
1866 Clouds 6 1025 93 10000 1 0 13:37 27.12.2019
1867 Clouds 6 1025 93 8000 1 0 13:18 27.12.2019
1868 Drizzle 6 1024 93 4000 1 0 12:40 27.12.2019
1869 Drizzle 6 1024 93 2500 1 0 12:22 27.12.2019
1870 Rain 6 1024 100 3500 1 80 11:46 27.12.2019
1871 Rain 5 1023 100 3500 1 0 11:26 27.12.2019
1872 Rain 5 1023 100 3500 1 0 11:26 27.12.2019
1873 Fog 5 1023 93 8000 1 70 10:59 27.12.2019
1874 Fog 5 1023 93 8000 1 70 10:40 27.12.2019
1875 Fog 5 1022 93 10000 1 0 10:22 27.12.2019
1876 Rain 5 1022 100 10000 0.5 0 09:46 27.12.2019
1877 Rain 4 1022 100 10000 1.5 70 09:22 27.12.2019
1878 Rain 4 1021 100 10000 1 60 08:59 27.12.2019
1879 Rain 4 1021 100 10000 1 60 08:59 27.12.2019
1880 Rain 5 1021 100 10000 1 60 08:38 27.12.2019
1881 Rain 4 1021 100 10000 2.1 70 07:57 27.12.2019
1882 Rain 4 1021 100 10000 2.1 70 07:38 27.12.2019
1883 Clouds 4 1020 93 10000 1 0 06:39 27.12.2019
1884 Rain 4 1020 93 10000 1 260 06:18 27.12.2019
1885 Rain 4 1021 93 10000 0.5 0 04:32 27.12.2019
1886 Clouds 4 1022 86 10000 0.5 0 02:27 27.12.2019
1887 Clouds 4 1022 86 10000 1 0 01:42 27.12.2019
1888 Clouds 4 1022 86 10000 1 0 01:20 27.12.2019
1889 Rain 3 1023 86 10000 1 0 00:46 27.12.2019
1890 Rain 3 1023 80 10000 1.5 190 00:25 27.12.2019
1891 Clouds 3 1023 80 10000 1.5 210 23:54 26.12.2019
1892 Clouds 3 1023 80 10000 1.5 210 23:36 26.12.2019
1893 Clouds 3 1023 80 10000 2.1 220 23:18 26.12.2019
1894 Clouds 3 1023 80 10000 1.5 210 22:38 26.12.2019
1895 Clouds 4 1023 80 10000 1 0 22:18 26.12.2019
1896 Clouds 3 1024 80 10000 2.1 210 21:40 26.12.2019
1897 Clouds 3 1024 80 10000 2.1 250 21:21 26.12.2019
1898 Clouds 3 1024 80 10000 2.1 250 20:58 26.12.2019
1899 Clouds 3 1023 80 10000 2.1 200 20:38 26.12.2019
1900 Clouds 3 1023 80 10000 2.1 200 20:38 26.12.2019
1901 Clouds 3 1024 80 10000 2.1 190 20:20 26.12.2019
1902 Clouds 3 1024 86 10000 2.1 200 19:56 26.12.2019
1903 Clouds 3 1024 86 10000 2.1 200 19:38 26.12.2019
1904 Clouds 3 1024 86 10000 1 0 19:19 26.12.2019
1905 Clouds 3 1024 86 10000 1 0 18:57 26.12.2019
1906 Clouds 3 1023 86 10000 0.5 0 18:36 26.12.2019
1907 Clouds 3 1023 93 10000 0.5 0 18:18 26.12.2019
1908 Clouds 3 1023 93 10000 1 280 17:42 26.12.2019
1909 Clouds 4 1023 100 10000 1.5 0 17:22 26.12.2019
1910 Clouds 4 1022 100 10000 1 0 16:51 26.12.2019
1911 Clouds 4 1022 100 10000 1.5 90 16:29 26.12.2019
1912 Clouds 4 1022 100 10000 1.5 90 15:59 26.12.2019
1913 Clouds 4 1023 100 10000 1 90 15:40 26.12.2019
1914 Fog 5 1023 100 8000 1 0 15:19 26.12.2019
1915 Fog 5 1023 100 8000 1 0 14:43 26.12.2019
1916 Fog 5 1023 100 6000 2.1 70 14:24 26.12.2019
1917 Fog 5 1023 100 6000 2.1 70 14:24 26.12.2019
1918 Fog 5 1023 100 6000 2.1 70 14:24 26.12.2019
1919 Fog 4 1023 100 6000 2.1 70 13:58 26.12.2019
1920 Fog 4 1023 93 6000 2.6 70 13:40 26.12.2019
1921 Fog 4 1024 100 6000 1.5 80 13:19 26.12.2019
1922 Fog 4 1024 100 500 0.5 0 12:56 26.12.2019
1923 Fog 4 1024 100 500 0.5 0 12:37 26.12.2019
1924 Fog 3 1024 100 300 0.5 0 12:18 26.12.2019
1925 Fog 3 1024 100 300 0.5 0 11:56 26.12.2019
1926 Fog 3 1025 100 300 1 0 11:37 26.12.2019
1927 Fog 3 1025 89 300 1 0 11:19 26.12.2019
1928 Fog 3 1025 89 300 0.5 0 10:41 26.12.2019
1929 Fog 2 1025 89 400 1 80 10:18 26.12.2019
1930 Fog 1 1024 89 2600 1 0 09:43 26.12.2019
1931 Clouds 1 1025 89 10000 1 0 09:25 26.12.2019
1932 Clouds 1 1025 100 10000 0.5 0 08:42 26.12.2019
1933 Clouds 1 1025 100 10000 0.5 0 08:24 26.12.2019
1934 Clouds 2 1025 100 10000 1 0 07:53 26.12.2019
1935 Clouds 2 1025 100 10000 1 0 07:26 26.12.2019
1936 Clouds 2 1025 93 10000 2.1 290 06:53 26.12.2019
1937 Clouds 2 1025 93 10000 2.1 290 06:32 26.12.2019
1938 Clouds 3 1025 100 10000 1.5 290 05:45 26.12.2019
1939 Clouds 3 1025 93 10000 0.5 0 04:57 26.12.2019
1940 Clouds 3 1025 93 10000 0.5 0 04:30 26.12.2019
1941 Clouds 3 1025 93 10000 1.5 290 02:56 26.12.2019
1942 Clouds 3 1025 93 10000 1.5 320 02:34 26.12.2019
1943 Clouds 3 1025 93 10000 1.5 320 02:34 26.12.2019
1944 Clouds 3 1025 93 10000 1 300 01:50 26.12.2019
1945 Clouds 3 1025 93 10000 1 300 01:32 26.12.2019
1946 Clouds 4 1025 93 10000 1 210 00:50 26.12.2019
1947 Clouds 4 1025 93 10000 1 210 00:27 26.12.2019
1948 Clouds 4 1025 93 10000 0.5 0 23:59 25.12.2019
1949 Clouds 4 1025 93 10000 3.1 260 23:40 25.12.2019
1950 Clouds 4 1025 86 10000 2.1 250 23:21 25.12.2019
1951 Clouds 4 1025 86 10000 2.1 250 22:59 25.12.2019
1952 Clouds 4 1025 93 10000 1.5 220 22:39 25.12.2019
1953 Clouds 4 1025 86 10000 1.5 230 22:21 25.12.2019
1954 Clouds 4 1025 86 10000 1.5 230 21:59 25.12.2019
1955 Clouds 4 1025 86 10000 2.1 260 21:39 25.12.2019
1956 Rain 4 1025 86 10000 1 330 21:20 25.12.2019
1957 Rain 5 1025 86 10000 1 330 20:57 25.12.2019
1958 Rain 4 1025 86 10000 3.6 290 20:39 25.12.2019
1959 Rain 5 1024 86 10000 5.1 270 20:18 25.12.2019
1960 Rain 5 1024 86 10000 5.1 270 20:18 25.12.2019
1961 Rain 5 1024 86 10000 4.1 280 19:43 25.12.2019
1962 Rain 5 1024 86 10000 4.1 280 19:25 25.12.2019
1963 Clouds 5 1024 86 10000 5.1 270 18:59 25.12.2019
1964 Clouds 5 1023 86 10000 4.6 260 18:38 25.12.2019
1965 Clouds 5 1023 86 10000 4.6 260 18:38 25.12.2019
1966 Rain 5 1023 86 10000 3.6 250 18:19 25.12.2019
1967 Rain 6 1023 81 10000 4.1 250 17:42 25.12.2019
1968 Rain 5 1023 81 10000 4.1 250 17:20 25.12.2019
1969 Rain 6 1023 81 10000 4.1 250 16:59 25.12.2019
1970 Clouds 6 1022 81 10000 6.7 270 16:39 25.12.2019
1971 Clouds 6 1022 75 10000 6.7 270 16:19 25.12.2019
1972 Clouds 6 1021 75 10000 7.2 270 15:57 25.12.2019
1973 Clouds 6 1022 75 10000 6.7 270 15:57 25.12.2019
1974 Clouds 6 1021 75 10000 7.2 270 15:39 25.12.2019
1975 Clouds 6 1021 75 10000 8.2 280 15:20 25.12.2019
1976 Clouds 7 1020 81 10000 7.7 280 14:58 25.12.2019
1977 Clouds 7 1020 81 10000 7.7 280 14:40 25.12.2019
1978 Clouds 7 1020 81 10000 7.2 280 14:21 25.12.2019
1979 Rain 7 1019 87 10000 8.2 280 13:57 25.12.2019
1980 Rain 7 1019 87 10000 8.2 280 13:38 25.12.2019
1981 Rain 7 1019 87 7000 9.8 300 13:19 25.12.2019
1982 Rain 7 1018 87 10000 5.7 280 12:40 25.12.2019
1983 Clouds 6 1018 87 10000 6.7 290 12:20 25.12.2019
1984 Clouds 6 1018 87 10000 6.7 290 11:56 25.12.2019
1985 Rain 6 1018 87 4000 9.8 300 11:38 25.12.2019
1986 Rain 6 1017 93 10000 6.7 260 11:18 25.12.2019
1987 Rain 6 1017 93 10000 4.6 250 10:38 25.12.2019
1988 Rain 6 1016 87 10000 5.1 240 10:20 25.12.2019
1989 Rain 7 1016 87 10000 5.1 230 09:51 25.12.2019
1990 Rain 6 1016 87 10000 5.1 230 09:32 25.12.2019
1991 Rain 7 1016 93 10000 3.1 200 08:51 25.12.2019
1992 Rain 7 1016 93 10000 3.1 200 08:51 25.12.2019
1993 Rain 7 1016 93 10000 2.6 210 08:31 25.12.2019
1994 Clouds 7 1016 93 10000 2.1 200 07:52 25.12.2019
1995 Clouds 7 1016 93 10000 2.1 200 07:34 25.12.2019
1996 Rain 7 1015 93 10000 3.1 220 06:52 25.12.2019
1997 Rain 7 1015 93 10000 4.1 200 06:23 25.12.2019
1998 Rain 7 1016 93 10000 3.6 220 05:31 25.12.2019
1999 Rain 6 1015 93 10000 2.6 210 04:39 25.12.2019
2000 Rain 6 1015 81 10000 2.6 210 04:20 25.12.2019
2001 Rain 6 1015 87 10000 3.6 210 03:43 25.12.2019
2002 Rain 6 1015 81 0 3.6 210 02:56 25.12.2019
2003 Clouds 7 1015 87 10000 3.6 190 02:28 25.12.2019
2004 Clouds 7 1015 81 10000 3.1 200 01:26 25.12.2019
2005 Clouds 6 1015 87 10000 2.6 210 00:56 25.12.2019
2006 Rain 7 1016 87 10000 2.1 240 00:33 25.12.2019
2007 Rain 7 1015 81 10000 2.6 210 23:59 24.12.2019
2008 Rain 7 1015 81 10000 2.6 210 23:39 24.12.2019
2009 Rain 7 1015 81 10000 2.6 210 23:39 24.12.2019
2010 Rain 7 1015 81 10000 3.1 200 23:20 24.12.2019
2011 Rain 7 1015 81 10000 3.1 200 23:20 24.12.2019
2012 Rain 7 1015 75 10000 2.1 220 22:42 24.12.2019
2013 Rain 7 1015 81 10000 3.6 190 22:23 24.12.2019
2014 Rain 7 1015 81 10000 3.6 190 21:57 24.12.2019
2015 Rain 7 1015 81 10000 2.6 190 21:37 24.12.2019
2016 Clouds 7 1015 81 10000 3.1 180 21:19 24.12.2019
2017 Clouds 7 1015 81 10000 3.1 190 20:41 24.12.2019
2018 Clouds 7 1015 81 10000 2.6 210 20:20 24.12.2019
2019 Clouds 7 1015 81 10000 3.6 230 19:47 24.12.2019
2020 Rain 7 1015 75 10000 2.6 210 19:22 24.12.2019
2021 Rain 7 1015 75 10000 2.6 210 18:59 24.12.2019
2022 Rain 7 1014 75 10000 2.6 220 18:40 24.12.2019
2023 Clouds 7 1015 75 10000 3.1 200 18:18 24.12.2019
2024 Clouds 7 1014 87 10000 2.6 190 17:43 24.12.2019
2025 Clouds 7 1014 81 10000 2.1 260 17:22 24.12.2019
2026 Clouds 7 1014 81 10000 2.1 260 16:58 24.12.2019
2027 Clouds 7 1013 81 10000 5.1 280 16:39 24.12.2019
2028 Clouds 7 1013 87 10000 5.7 270 16:20 24.12.2019
2029 Clouds 7 1013 87 10000 5.7 270 15:57 24.12.2019
2030 Clouds 7 1012 87 10000 3.6 240 15:37 24.12.2019
2031 Clouds 7 1011 93 10000 3.1 210 15:19 24.12.2019
2032 Clouds 7 1011 93 10000 3.1 210 14:58 24.12.2019
2033 Rain 7 1012 100 10000 3.6 240 14:39 24.12.2019
2034 Rain 6 1012 93 10000 4.1 230 14:21 24.12.2019
2035 Rain 6 1011 93 10000 3.6 220 13:56 24.12.2019
2036 Rain 6 1011 93 10000 3.6 220 13:38 24.12.2019
2037 Rain 5 1011 87 10000 3.1 190 13:19 24.12.2019
2038 Rain 5 1011 87 10000 3.1 190 12:56 24.12.2019
2039 Rain 5 1012 87 10000 3.1 190 12:37 24.12.2019
2040 Rain 5 1012 93 10000 2.1 150 12:19 24.12.2019
2041 Rain 5 1012 93 10000 2.1 150 11:56 24.12.2019
2042 Rain 5 1013 86 10000 1.5 150 11:37 24.12.2019
2043 Rain 5 1013 80 10000 1.5 170 11:19 24.12.2019
2044 Rain 5 1013 80 10000 1.5 170 10:56 24.12.2019
2045 Rain 5 1013 80 10000 1.5 170 10:56 24.12.2019
2046 Clouds 5 1014 75 10000 2.6 160 10:56 24.12.2019
2047 Clouds 5 1014 75 10000 2.6 160 10:38 24.12.2019
2048 Clouds 5 1014 75 10000 2.6 160 10:38 24.12.2019
2049 Clouds 5 1015 75 10000 2.1 170 10:19 24.12.2019
2050 Clouds 5 1015 75 10000 2.1 170 09:55 24.12.2019
2051 Rain 5 1015 80 10000 2.1 180 09:37 24.12.2019
2052 Clouds 4 1016 80 10000 1 0 09:19 24.12.2019
2053 Clouds 4 1016 80 10000 1 0 08:46 24.12.2019
2054 Clouds 4 1016 80 10000 1 0 08:24 24.12.2019
2055 Clouds 4 1017 86 10000 1.5 150 07:54 24.12.2019
2056 Clouds 4 1017 86 10000 1.5 150 07:36 24.12.2019
2057 Clouds 4 1017 86 10000 1.5 150 07:18 24.12.2019
2058 Clouds 4 1018 86 10000 1 0 06:39 24.12.2019
2059 Clouds 5 1018 86 10000 1.5 190 06:19 24.12.2019
2060 Clouds 5 1018 80 10000 2.1 200 05:50 24.12.2019
2061 Clouds 5 1019 86 10000 3.1 200 05:19 24.12.2019
2062 Clouds 5 1019 93 10000 2.6 190 04:21 24.12.2019
2063 Clouds 5 1019 86 10000 3.1 200 03:45 24.12.2019
2064 Clouds 5 1019 86 10000 2.6 210 02:28 24.12.2019
2065 Clouds 5 1019 93 10000 3.1 220 01:54 24.12.2019
2066 Clouds 5 1019 86 10000 2.6 210 01:54 24.12.2019
2067 Rain 5 1019 93 10000 4.1 220 01:26 24.12.2019
2068 Rain 5 1019 93 10000 4.1 220 00:58 24.12.2019
2069 Clouds 5 1018 87 10000 3.1 220 00:39 24.12.2019
2070 Clouds 5 1018 93 10000 2.6 230 00:19 24.12.2019
2071 Rain 6 1018 93 10000 2.6 220 23:42 23.12.2019
2072 Rain 6 1018 93 10000 2.6 220 23:42 23.12.2019
2073 Rain 6 1018 87 10000 2.1 200 23:24 23.12.2019
2074 Rain 6 1017 93 10000 1.5 250 22:57 23.12.2019
2075 Rain 6 1017 93 10000 1.5 250 22:38 23.12.2019
2076 Rain 6 1017 93 10000 1.5 250 22:38 23.12.2019
2077 Rain 6 1017 87 10000 2.6 230 22:20 23.12.2019
2078 Rain 6 1017 87 10000 2.6 230 22:20 23.12.2019
2079 Rain 6 1017 87 10000 4.6 230 21:56 23.12.2019
2080 Rain 6 1017 87 10000 4.6 230 21:37 23.12.2019
2081 Clouds 6 1016 87 10000 2.1 230 21:19 23.12.2019
2082 Clouds 6 1016 87 10000 4.1 260 20:58 23.12.2019
2083 Clouds 6 1016 87 10000 4.1 260 20:40 23.12.2019
2084 Clouds 6 1016 86 10000 3.6 260 20:19 23.12.2019
2085 Clouds 6 1016 86 10000 3.6 260 19:58 23.12.2019
2086 Rain 6 1015 87 10000 3.6 250 19:40 23.12.2019
2087 Rain 6 1015 87 10000 4.1 250 19:21 23.12.2019
2088 Clouds 6 1015 87 10000 4.6 250 18:58 23.12.2019
2089 Clouds 6 1015 87 10000 4.6 250 18:39 23.12.2019
2090 Clouds 6 1014 93 10000 3.6 250 18:20 23.12.2019
2091 Rain 6 1014 93 10000 3.1 240 17:59 23.12.2019
2092 Rain 6 1014 93 10000 3.1 240 17:40 23.12.2019
2093 Rain 6 1013 93 10000 3.1 240 17:19 23.12.2019
2094 Rain 6 1013 81 10000 4.1 250 16:57 23.12.2019
2095 Rain 6 1013 81 10000 4.1 250 16:39 23.12.2019
2096 Rain 6 1012 81 10000 4.6 250 16:19 23.12.2019
2097 Rain 6 1012 81 10000 4.6 250 16:19 23.12.2019
2098 Rain 6 1012 81 10000 4.6 250 15:58 23.12.2019
2099 Clouds 6 1012 81 10000 4.6 260 15:37 23.12.2019
2100 Rain 7 1011 87 10000 3.6 250 15:19 23.12.2019
2101 Rain 7 1011 87 10000 3.6 230 14:56 23.12.2019
2102 Rain 7 1011 87 10000 3.6 230 14:38 23.12.2019
2103 Rain 6 1010 87 10000 2.1 220 14:19 23.12.2019
2104 Rain 7 1010 87 10000 2.1 220 14:19 23.12.2019
2105 Rain 6 1010 87 10000 2.1 220 13:57 23.12.2019
2106 Rain 6 1010 87 10000 2.1 210 13:39 23.12.2019
2107 Rain 6 1010 87 10000 3.1 230 13:20 23.12.2019
2108 Rain 6 1009 87 10000 4.1 220 12:55 23.12.2019
2109 Rain 6 1009 87 10000 4.1 220 12:36 23.12.2019
2110 Rain 6 1009 81 10000 4.6 240 12:18 23.12.2019
2111 Rain 6 1009 81 10000 5.1 240 11:42 23.12.2019
2112 Rain 6 1009 81 10000 5.1 240 11:42 23.12.2019
2113 Clouds 6 1008 81 10000 3.1 230 11:24 23.12.2019
2114 Clouds 6 1008 81 10000 2.6 220 10:56 23.12.2019
2115 Clouds 6 1008 81 10000 2.6 220 10:38 23.12.2019
2116 Rain 6 1008 87 10000 3.1 220 10:20 23.12.2019
2117 Rain 5 1008 87 10000 3.1 220 09:58 23.12.2019
2118 Rain 5 1007 93 10000 2.6 210 09:39 23.12.2019
2119 Rain 5 1007 93 10000 2.6 210 09:39 23.12.2019
2120 Rain 5 1007 93 10000 3.6 220 09:20 23.12.2019
2121 Rain 5 1007 93 10000 3.6 220 08:55 23.12.2019
2122 Rain 5 1006 86 10000 4.1 230 08:37 23.12.2019
2123 Rain 5 1006 86 10000 3.6 220 08:18 23.12.2019
2124 Rain 6 1005 86 10000 4.1 220 07:43 23.12.2019
2125 Rain 6 1005 86 10000 2.1 210 07:19 23.12.2019
2126 Clouds 5 1004 86 10000 2.1 210 06:50 23.12.2019
2127 Rain 6 1004 93 10000 3.6 250 06:23 23.12.2019
2128 Clouds 6 1004 86 10000 2.1 230 05:49 23.12.2019
2129 Clouds 6 1003 93 10000 3.1 250 05:19 23.12.2019
2130 Rain 5 1003 93 10000 3.6 230 04:19 23.12.2019
2131 Clouds 6 1000 93 10000 5.1 240 02:49 23.12.2019
2132 Clouds 6 1000 93 10000 5.1 240 02:25 23.12.2019
2133 Rain 6 1000 93 10000 5.1 240 01:55 23.12.2019
2134 Rain 5 999 86 10000 4.1 240 01:36 23.12.2019
2135 Rain 6 999 86 10000 3.6 230 01:18 23.12.2019
2136 Clouds 5 999 86 10000 3.6 220 00:35 23.12.2019
2137 Rain 6 998 86 10000 3.6 230 23:57 22.12.2019
2138 Rain 6 998 86 10000 3.1 220 23:39 22.12.2019
2139 Rain 6 998 93 10000 3.1 200 23:20 22.12.2019
2140 Rain 6 998 93 10000 3.1 200 22:58 22.12.2019
2141 Clouds 6 997 93 10000 1.5 230 22:38 22.12.2019
2142 Rain 6 997 93 10000 4.1 250 22:19 22.12.2019
2143 Rain 6 997 93 10000 4.1 250 21:57 22.12.2019
2144 Rain 6 996 81 10000 5.1 240 21:39 22.12.2019
2145 Rain 6 996 87 10000 4.1 240 21:20 22.12.2019
2146 Rain 6 996 87 10000 4.6 250 20:56 22.12.2019
2147 Rain 6 996 87 10000 4.6 250 20:38 22.12.2019
2148 Rain 6 995 81 10000 4.6 240 20:18 22.12.2019
2149 Rain 6 995 81 10000 4.6 240 19:54 22.12.2019
2150 Clouds 6 995 87 10000 4.1 230 19:36 22.12.2019
2151 Clouds 7 994 87 10000 3.6 210 19:18 22.12.2019
2152 Clouds 7 994 81 10000 3.1 210 18:39 22.12.2019
2153 Clouds 7 994 81 10000 3.1 210 18:39 22.12.2019
2154 Rain 7 993 81 10000 2.6 220 18:21 22.12.2019
2155 Rain 7 993 81 10000 3.6 240 17:55 22.12.2019
2156 Rain 7 993 81 10000 3.6 240 17:37 22.12.2019
2157 Rain 7 993 81 10000 5.1 240 17:18 22.12.2019
2158 Rain 7 992 93 10000 3.1 230 16:56 22.12.2019
2159 Rain 7 992 93 10000 3.1 230 16:37 22.12.2019
2160 Rain 7 991 87 10000 3.1 230 16:19 22.12.2019
2161 Rain 7 991 87 10000 3.6 220 15:55 22.12.2019
2162 Rain 8 991 87 10000 3.6 220 15:36 22.12.2019
2163 Rain 8 990 87 10000 3.6 220 15:18 22.12.2019
2164 Rain 8 989 87 10000 4.1 230 14:54 22.12.2019
2165 Rain 8 989 87 10000 4.1 230 14:36 22.12.2019
2166 Rain 8 989 87 10000 4.6 0 14:18 22.12.2019
2167 Rain 8 989 76 10000 4.1 230 13:54 22.12.2019
2168 Rain 8 989 76 10000 4.1 230 13:36 22.12.2019
2169 Clouds 8 988 76 10000 3.6 200 13:18 22.12.2019
2170 Clouds 8 988 76 10000 3.6 200 12:54 22.12.2019
2171 Clouds 8 988 76 10000 3.6 200 12:36 22.12.2019
2172 Clouds 8 988 81 10000 2.6 190 12:18 22.12.2019
2173 Clouds 7 988 81 10000 2.1 190 11:39 22.12.2019
2174 Clouds 7 988 81 10000 2.1 180 11:20 22.12.2019
2175 Clouds 7 988 81 10000 2.1 180 10:58 22.12.2019
2176 Clouds 6 988 81 10000 1.5 190 10:40 22.12.2019
2177 Clouds 6 988 87 10000 2.1 200 10:21 22.12.2019
2178 Clouds 5 988 81 10000 2.6 200 09:58 22.12.2019
2179 Clouds 5 988 81 10000 2.6 200 09:40 22.12.2019
2180 Clouds 5 987 86 10000 2.6 200 09:21 22.12.2019
2181 Clouds 5 987 86 10000 2.6 200 08:59 22.12.2019
2182 Clouds 5 987 86 10000 1.5 210 08:37 22.12.2019
2183 Clouds 5 987 86 10000 1.5 200 08:18 22.12.2019
2184 Clouds 5 987 86 10000 1.5 200 08:18 22.12.2019
2185 Clouds 5 987 93 10000 0.5 0 07:38 22.12.2019
2186 Clouds 5 987 93 10000 0.5 0 07:19 22.12.2019
2187 Clouds 5 987 93 10000 1 0 06:40 22.12.2019
2188 Clouds 5 987 100 10000 1 0 05:54 22.12.2019
2189 Clouds 5 987 100 10000 1 200 05:21 22.12.2019
2190 Clouds 5 987 93 10000 1.5 190 04:29 22.12.2019
2191 Clouds 5 987 93 10000 1 0 03:53 22.12.2019
2192 Rain 4 988 93 10000 3.6 170 02:40 22.12.2019
2193 Rain 4 988 93 10000 3.6 170 02:40 22.12.2019
2194 Rain 4 988 93 10000 1.5 120 01:47 22.12.2019
2195 Rain 4 989 93 10000 2.6 170 01:28 22.12.2019
2196 Rain 4 989 86 10000 2.1 200 00:47 22.12.2019
2197 Rain 3 988 93 10000 1 0 00:23 22.12.2019
2198 Rain 4 988 93 10000 1 0 23:56 21.12.2019
2199 Rain 3 989 93 10000 0.5 0 23:38 21.12.2019
2200 Clouds 3 989 93 10000 1 0 23:19 21.12.2019
2201 Clouds 3 989 93 10000 1 0 22:41 21.12.2019
2202 Clouds 3 989 93 10000 1 0 22:41 21.12.2019
2203 Clouds 3 989 93 10000 1 0 22:19 21.12.2019
2204 Clouds 3 989 93 10000 1 0 21:57 21.12.2019
2205 Clouds 3 989 93 10000 1 0 21:38 21.12.2019
2206 Clouds 3 990 86 10000 1 0 21:20 21.12.2019
2207 Clouds 4 990 86 10000 1 140 20:59 21.12.2019
2208 Clouds 4 990 86 10000 1 140 20:39 21.12.2019
2209 Clouds 4 991 93 10000 1.5 110 20:21 21.12.2019
2210 Clouds 4 991 93 10000 1.5 110 19:58 21.12.2019
2211 Clouds 5 991 86 10000 1.5 160 19:40 21.12.2019
2212 Clouds 5 992 81 10000 1.5 150 19:19 21.12.2019
2213 Clouds 5 992 81 10000 1.5 150 19:19 21.12.2019
2214 Clouds 5 992 87 10000 1.5 190 18:55 21.12.2019
2215 Clouds 5 992 87 10000 1.5 190 18:37 21.12.2019
2216 Clouds 5 993 81 10000 1.5 200 18:19 21.12.2019
2217 Clouds 5 993 81 10000 1.5 200 17:55 21.12.2019
2218 Clouds 5 993 75 10000 2.6 220 17:36 21.12.2019
2219 Clouds 6 993 75 10000 2.6 200 17:18 21.12.2019
2220 Clouds 6 993 75 10000 2.6 200 17:18 21.12.2019
2221 Clouds 6 993 75 10000 1.5 180 16:41 21.12.2019
2222 Clouds 7 993 75 10000 1 0 16:19 21.12.2019
2223 Clouds 8 994 70 10000 2.1 210 15:58 21.12.2019
2224 Clouds 8 994 70 10000 2.1 210 15:39 21.12.2019
2225 Clouds 8 994 66 10000 3.6 240 15:20 21.12.2019
2226 Clouds 8 994 66 10000 3.6 240 14:59 21.12.2019
2227 Clouds 8 994 70 10000 4.1 230 14:40 21.12.2019
2228 Clouds 8 994 70 10000 3.6 230 14:22 21.12.2019
2229 Clouds 8 994 76 10000 3.6 210 13:57 21.12.2019
2230 Clouds 8 994 76 10000 3.6 210 13:38 21.12.2019
2231 Clouds 7 995 75 10000 1.5 0 13:18 21.12.2019
2232 Clouds 7 995 75 10000 1 0 12:55 21.12.2019
2233 Clouds 6 995 75 10000 1 0 12:37 21.12.2019
2234 Clouds 6 995 87 10000 0.5 0 12:19 21.12.2019
2235 Clouds 6 996 93 10000 0.5 0 11:45 21.12.2019
2236 Clouds 4 996 93 10000 0.5 0 11:26 21.12.2019
2237 Clouds 4 996 93 10000 0.5 0 10:57 21.12.2019
2238 Clouds 3 996 93 10000 0.5 0 10:39 21.12.2019
2239 Clouds 3 996 93 10000 2.1 260 10:21 21.12.2019
2240 Clouds 3 995 93 10000 2.1 250 09:56 21.12.2019
2241 Clouds 3 995 93 10000 2.1 250 09:38 21.12.2019
2242 Clouds 2 995 100 10000 1 0 09:19 21.12.2019
2243 Clouds 2 995 100 10000 0.5 0 08:46 21.12.2019
2244 Clear 2 995 100 10000 1 280 08:26 21.12.2019
2245 Clouds 2 995 100 10000 0.5 0 07:46 21.12.2019
2246 Clouds 2 995 93 10000 1 0 07:22 21.12.2019
2247 Clouds 3 995 93 10000 1 0 06:46 21.12.2019
2248 Clouds 3 996 100 10000 0.5 0 06:28 21.12.2019
2249 Clouds 3 996 100 10000 1 0 05:55 21.12.2019
2250 Clouds 4 996 86 10000 3.1 150 04:58 21.12.2019
2251 Clouds 4 997 93 10000 1.5 110 04:19 21.12.2019
2252 Clouds 4 997 93 10000 1.5 80 03:56 21.12.2019
2253 Clouds 6 997 87 10000 2.1 210 02:19 21.12.2019
2254 Clouds 6 997 87 10000 2.6 180 01:42 21.12.2019
2255 Clouds 6 997 86 10000 2.6 150 01:23 21.12.2019
2256 Clouds 6 996 81 10000 1 0 00:39 21.12.2019
2257 Clouds 7 996 87 10000 1.5 170 00:20 21.12.2019
2258 Clouds 7 996 87 10000 1.5 210 23:38 20.12.2019
2259 Rain 7 995 87 10000 2.1 210 23:20 20.12.2019
2260 Rain 7 995 87 10000 2.1 210 22:57 20.12.2019
2261 Rain 7 995 87 10000 1.5 220 22:38 20.12.2019
2262 Rain 7 995 93 10000 1.5 220 22:18 20.12.2019
2263 Rain 7 995 87 10000 1.5 200 21:41 20.12.2019
2264 Rain 7 995 87 10000 1.5 200 21:21 20.12.2019
2265 Rain 8 995 81 10000 2.1 230 20:59 20.12.2019
2266 Rain 8 995 81 10000 2.1 230 20:38 20.12.2019
2267 Rain 8 994 76 10000 3.6 240 20:19 20.12.2019
2268 Rain 8 994 76 10000 5.1 250 19:56 20.12.2019
2269 Rain 8 994 76 10000 5.1 250 19:38 20.12.2019
2270 Clouds 8 993 76 10000 3.6 240 19:18 20.12.2019
2271 Rain 8 993 76 10000 2.6 210 18:41 20.12.2019
2272 Rain 8 992 71 10000 3.6 230 18:22 20.12.2019
2273 Rain 7 992 87 10000 1.5 210 17:57 20.12.2019
2274 Rain 7 992 75 10000 1.5 200 17:57 20.12.2019
2275 Rain 7 992 75 10000 1.5 200 17:39 20.12.2019
2276 Rain 7 992 75 10000 1.5 200 17:20 20.12.2019
2277 Clouds 7 991 75 10000 2.1 240 16:57 20.12.2019
2278 Clouds 7 990 81 10000 2.1 0 16:38 20.12.2019
2279 Clouds 7 990 81 10000 2.1 0 16:38 20.12.2019
2280 Clouds 8 990 81 10000 2.1 0 16:19 20.12.2019
2281 Rain 8 991 81 10000 2.1 290 15:55 20.12.2019
2282 Rain 8 990 75 10000 2.1 290 15:37 20.12.2019
2283 Rain 8 990 75 10000 2.1 290 15:37 20.12.2019
2284 Rain 7 991 81 10000 1.5 280 15:19 20.12.2019
2285 Rain 8 991 81 10000 1.5 280 14:43 20.12.2019
2286 Clouds 7 991 87 10000 2.1 0 14:24 20.12.2019
2287 Rain 7 992 87 10000 1.5 0 13:57 20.12.2019
2288 Rain 7 993 81 10000 1.5 0 13:38 20.12.2019
2289 Rain 7 993 81 10000 1.5 0 13:19 20.12.2019
2290 Rain 7 993 75 10000 1.5 0 12:57 20.12.2019
2291 Rain 7 994 70 10000 2.1 260 12:37 20.12.2019
2292 Rain 7 994 70 10000 2.1 260 12:18 20.12.2019
2293 Clouds 7 994 75 10000 4.1 240 11:57 20.12.2019
2294 Clouds 8 994 75 10000 1 0 11:39 20.12.2019
2295 Clouds 6 994 75 10000 1 0 11:18 20.12.2019
2296 Clouds 5 993 86 10000 1.5 280 10:56 20.12.2019
2297 Clouds 5 993 86 10000 2.6 280 10:38 20.12.2019
2298 Clouds 5 993 86 10000 2.6 280 10:20 20.12.2019
2299 Clouds 5 993 86 10000 2.6 280 10:20 20.12.2019
2300 Clouds 5 994 93 10000 1.5 260 09:43 20.12.2019
2301 Clouds 5 994 76 10000 1 260 09:22 20.12.2019
2302 Clouds 5 994 76 10000 1 260 09:22 20.12.2019
2303 Clouds 4 994 76 10000 1.5 270 08:59 20.12.2019
2304 Clouds 4 995 100 10000 0.5 0 08:41 20.12.2019
2305 Clouds 3 995 100 10000 0.5 0 08:21 20.12.2019
2306 Clouds 3 995 80 10000 1.5 330 07:57 20.12.2019
2307 Clouds 2 996 80 10000 2.6 270 07:39 20.12.2019
2308 Clouds 2 996 80 10000 2.6 270 07:18 20.12.2019
2309 Clouds 3 997 80 10000 1.5 290 06:48 20.12.2019
2310 Clouds 3 997 100 10000 1.5 290 06:30 20.12.2019
2311 Clouds 2 998 80 10000 1 0 05:49 20.12.2019
2312 Clear 3 999 83 10000 4.1 270 05:25 20.12.2019
2313 Fog 2 1001 83 8000 0.5 0 03:50 20.12.2019
2314 Clear 2 1002 83 10000 1 0 03:29 20.12.2019
2315 Clear 3 1003 100 10000 1 0 02:38 20.12.2019
2316 Clouds 3 1003 93 10000 1 290 01:44 20.12.2019
2317 Clouds 3 1004 93 10000 1 0 01:18 20.12.2019
2318 Clouds 3 1005 93 10000 1 0 00:41 20.12.2019
2319 Clouds 4 1005 93 10000 1 0 00:19 20.12.2019
2320 Clouds 5 1005 93 10000 4.1 280 23:42 19.12.2019
2321 Clouds 5 1005 93 10000 1.5 0 23:23 19.12.2019
2322 Clouds 5 1005 93 10000 1 0 22:56 19.12.2019
2323 Clouds 4 1006 93 10000 1 290 22:36 19.12.2019
2324 Clouds 4 1007 100 10000 2.6 280 22:18 19.12.2019
2325 Clouds 4 1007 100 10000 2.6 280 22:18 19.12.2019
2326 Clouds 4 1007 100 10000 2.6 280 21:55 19.12.2019
2327 Clouds 4 1007 93 10000 0.5 0 21:37 19.12.2019
2328 Clouds 5 1007 93 10000 0.5 0 21:18 19.12.2019
2329 Clouds 5 1008 93 10000 1.5 290 20:55 19.12.2019
2330 Clouds 5 1009 93 10000 0.5 0 20:36 19.12.2019
2331 Clouds 6 1009 93 10000 0.5 0 20:18 19.12.2019
2332 Clouds 5 1009 86 10000 0.5 0 19:54 19.12.2019
2333 Clouds 5 1009 93 10000 0.5 180 19:36 19.12.2019
2334 Clouds 6 1009 93 10000 0.5 180 19:18 19.12.2019
2335 Clouds 6 1010 87 10000 0.5 0 18:41 19.12.2019
2336 Clouds 6 1010 87 10000 2.1 320 18:21 19.12.2019
2337 Clouds 6 1010 87 10000 0.5 0 17:57 19.12.2019
2338 Clouds 6 1010 87 10000 1 100 17:39 19.12.2019
2339 Clouds 7 1010 87 10000 1 100 17:19 19.12.2019
2340 Clouds 8 1010 93 10000 1 0 16:57 19.12.2019
2341 Clouds 8 1011 76 10000 1 0 16:39 19.12.2019
2342 Clouds 8 1011 76 10000 1 0 16:21 19.12.2019
2343 Clouds 9 1011 71 10000 0.5 0 15:58 19.12.2019
2344 Clouds 9 1011 76 10000 1 0 15:39 19.12.2019
2345 Clouds 9 1011 76 10000 1 0 15:20 19.12.2019
2346 Clouds 9 1011 71 10000 1 0 14:59 19.12.2019
2347 Clouds 10 1011 81 10000 2.1 140 14:40 19.12.2019
2348 Clouds 10 1011 81 10000 2.1 140 14:19 19.12.2019
2349 Clouds 9 1012 87 10000 2.1 90 13:57 19.12.2019
2350 Clouds 9 1012 87 10000 1.5 100 13:37 19.12.2019
2351 Clouds 9 1012 87 10000 1.5 100 13:18 19.12.2019
2352 Clouds 9 1013 93 10000 0.5 0 12:55 19.12.2019
2353 Clouds 8 1013 87 10000 1 0 12:36 19.12.2019
2354 Clouds 8 1013 87 10000 1 0 12:18 19.12.2019
2355 Clouds 8 1014 93 10000 0.5 0 12:18 19.12.2019
2356 Clouds 8 1013 87 10000 1 0 12:18 19.12.2019
2357 Clouds 8 1014 93 10000 0.5 0 12:18 19.12.2019
2358 Clouds 7 1014 93 10000 0.5 0 11:57 19.12.2019
2359 Clouds 7 1014 90 0 1.47 124 11:38 19.12.2019
2360 Clouds 6 1014 100 10000 0.5 0 11:18 19.12.2019
2361 Clouds 5 1015 100 10000 1 0 10:55 19.12.2019
2362 Clouds 4 1015 100 10000 1.5 310 10:36 19.12.2019
2363 Fog 4 1015 100 10000 1 0 10:18 19.12.2019
2364 Fog 4 1015 100 10000 1 0 10:18 19.12.2019
2365 Fog 4 1015 100 10000 1 0 10:18 19.12.2019
2366 Fog 3 1015 87 10000 0.5 0 09:38 19.12.2019
2367 Fog 3 1015 87 10000 0.5 0 09:20 19.12.2019
2368 Fog 3 1015 87 10000 1.5 100 08:58 19.12.2019
2369 Fog 3 1015 100 10000 0.5 90 08:39 19.12.2019
2370 Fog 3 1015 100 10000 0.5 90 08:19 19.12.2019
2371 Clear 3 1015 100 10000 0.5 0 07:56 19.12.2019
2372 Clear 2 1015 100 10000 1.98 143 07:38 19.12.2019
2373 Clear 3 1015 100 10000 1.98 143 07:19 19.12.2019
2374 Clear 3 1015 100 10000 0.5 0 06:49 19.12.2019
2375 Clear 3 1015 100 10000 0.5 0 06:28 19.12.2019
2376 Clear 3 1015 100 10000 1 0 05:55 19.12.2019
2377 Clear 3 1015 100 10000 0.5 0 05:33 19.12.2019
2378 Clear 4 1016 100 10000 1 0 04:48 19.12.2019
2379 Clear 4 1017 93 10000 1 260 02:54 19.12.2019
2380 Clouds 5 1017 93 10000 2.6 300 01:51 19.12.2019
2381 Clouds 6 1018 93 10000 2.1 290 01:22 19.12.2019
2382 Clouds 6 1018 100 10000 3.1 320 00:41 19.12.2019
2383 Clouds 6 1018 100 10000 3.1 320 00:22 19.12.2019
2384 Clouds 6 1018 100 10000 2.1 340 23:57 18.12.2019
2385 Clouds 6 1018 100 10000 1 0 23:38 18.12.2019
2386 Clouds 6 1018 100 10000 1 0 23:18 18.12.2019
2387 Fog 6 1018 100 10000 1 0 22:55 18.12.2019
2388 Fog 6 1018 100 10000 1 0 22:36 18.12.2019
2389 Fog 7 1018 100 10000 1 0 22:18 18.12.2019
2390 Fog 6 1019 100 10000 1 0 21:56 18.12.2019
2391 Fog 6 1019 100 10000 1 0 21:56 18.12.2019
2392 Fog 6 1019 100 10000 1 90 21:37 18.12.2019
2393 Fog 6 1019 100 10000 1 90 21:19 18.12.2019
2394 Clouds 7 1019 100 10000 0.5 0 20:55 18.12.2019
2395 Clouds 7 1019 100 10000 1 250 20:37 18.12.2019
2396 Clouds 7 1019 100 10000 1 250 20:18 18.12.2019
2397 Clouds 8 1019 100 10000 1 0 19:55 18.12.2019
2398 Clouds 8 1019 100 10000 1.5 290 19:37 18.12.2019
2399 Clouds 7 1019 100 10000 1 0 19:18 18.12.2019
2400 Clouds 8 1019 100 10000 1 0 18:44 18.12.2019
2401 Clouds 8 1019 93 10000 1 0 18:25 18.12.2019
2402 Clouds 8 1019 93 10000 1 0 18:25 18.12.2019
2403 Clouds 8 1019 93 10000 1.5 280 17:57 18.12.2019
2404 Clouds 9 1019 93 10000 1.5 0 17:39 18.12.2019
2405 Clouds 9 1019 93 10000 1.5 0 17:19 18.12.2019
2406 Clouds 10 1018 87 10000 1 0 16:56 18.12.2019
2407 Clouds 10 1018 87 10000 1 0 16:38 18.12.2019
2408 Clouds 10 1018 87 10000 1 40 16:20 18.12.2019
2409 Clouds 11 1018 81 10000 1 90 15:55 18.12.2019
2410 Clouds 11 1018 81 10000 1 90 15:37 18.12.2019
2411 Clouds 12 1018 81 10000 1 0 15:18 18.12.2019
2412 Clouds 12 1018 87 10000 1 80 14:42 18.12.2019
2413 Clouds 12 1018 87 10000 1 80 14:42 18.12.2019
2414 Rain 12 1018 87 10000 1 0 14:22 18.12.2019
2415 Rain 12 1018 87 10000 1 0 13:57 18.12.2019
2416 Rain 11 1018 87 10000 1 0 13:38 18.12.2019
2417 Rain 11 1018 87 10000 0.5 0 13:20 18.12.2019
2418 Rain 10 1018 93 10000 0.5 0 12:58 18.12.2019
2419 Rain 10 1018 93 10000 0.5 0 12:38 18.12.2019
2420 Clouds 10 1018 93 10000 1 0 12:20 18.12.2019
2421 Rain 10 1018 87 10000 1.5 0 11:56 18.12.2019
2422 Rain 10 1018 87 10000 1.5 0 11:38 18.12.2019
2423 Rain 9 1018 93 10000 1 0 11:19 18.12.2019
2424 Rain 9 1018 93 10000 1.5 70 10:56 18.12.2019
2425 Rain 9 1018 93 10000 1.5 70 10:38 18.12.2019
2426 Rain 8 1018 100 10000 1 0 10:20 18.12.2019
2427 Rain 8 1018 100 10000 0.5 0 09:50 18.12.2019
2428 Rain 8 1018 100 10000 1.5 90 09:19 18.12.2019
2429 Rain 8 1017 87 10000 1 0 08:42 18.12.2019
2430 Rain 7 1017 93 10000 0.5 0 08:24 18.12.2019
2431 Rain 7 1016 93 10000 0.5 0 07:55 18.12.2019
2432 Rain 7 1016 93 10000 0.5 0 07:37 18.12.2019
2433 Rain 7 1016 93 10000 1 0 07:19 18.12.2019
2434 Rain 7 1015 93 10000 1.5 310 06:50 18.12.2019
2435 Clouds 7 1015 93 10000 0.5 0 06:22 18.12.2019
2436 Clouds 7 1015 93 10000 0.5 0 05:30 18.12.2019
2437 Clouds 7 1014 93 10000 0.5 0 03:45 18.12.2019
2438 Clouds 8 1013 93 10000 1 0 02:43 18.12.2019
2439 Clouds 7 1013 93 10000 1 0 02:25 18.12.2019
2440 Clouds 7 1012 100 10000 1.5 330 01:43 18.12.2019
2441 Clouds 6 1011 100 10000 1 0 01:24 18.12.2019
2442 Clouds 6 1011 100 10000 0.5 0 00:42 18.12.2019
2443 Clouds 6 1011 93 10000 1.5 40 00:24 18.12.2019
2444 Clouds 7 1011 86 10000 1.5 360 23:58 17.12.2019
2445 Clouds 7 1011 86 10000 1.5 360 23:58 17.12.2019
2446 Clouds 7 1011 86 10000 1.5 360 23:39 17.12.2019
2447 Clouds 7 1010 93 10000 1 0 23:21 17.12.2019
2448 Clouds 6 1010 93 10000 1 0 22:57 17.12.2019
2449 Clouds 6 1010 93 10000 1 0 22:57 17.12.2019
2450 Clouds 7 1010 93 10000 1 0 22:39 17.12.2019
2451 Clouds 7 1009 81 10000 1 0 22:19 17.12.2019
2452 Clouds 7 1009 81 10000 1.5 220 21:57 17.12.2019
2453 Clouds 7 1009 81 10000 1.5 220 21:38 17.12.2019
2454 Clouds 7 1009 93 10000 3.1 280 21:20 17.12.2019
2455 Clouds 7 1009 93 10000 3.1 280 20:59 17.12.2019
2456 Clouds 7 1008 87 10000 1.5 280 20:39 17.12.2019
2457 Clouds 8 1008 87 10000 1.5 90 20:19 17.12.2019
2458 Clouds 8 1008 93 10000 2.1 80 19:57 17.12.2019
2459 Clouds 8 1008 93 10000 2.1 80 19:39 17.12.2019
2460 Clouds 8 1009 87 10000 0.5 0 19:19 17.12.2019
2461 Clouds 8 1009 87 10000 0.5 0 18:57 17.12.2019
2462 Clouds 8 1009 87 10000 1 0 18:38 17.12.2019
2463 Clouds 8 1009 93 10000 1.5 250 18:20 17.12.2019
2464 Clouds 8 1009 93 10000 0.5 90 17:55 17.12.2019
2465 Clouds 8 1009 93 10000 0.5 90 17:37 17.12.2019
2466 Clouds 9 1008 93 10000 1 0 17:18 17.12.2019
2467 Clouds 9 1008 87 10000 0.5 0 16:55 17.12.2019
2468 Clouds 10 1008 87 10000 0.5 0 16:36 17.12.2019
2469 Clouds 11 1008 81 10000 0.5 0 16:18 17.12.2019
2470 Clouds 11 1008 81 10000 0.5 0 16:18 17.12.2019
2471 Clouds 10 1008 81 10000 0.5 0 15:38 17.12.2019
2472 Clouds 11 1008 81 10000 1.5 80 15:20 17.12.2019
2473 Clouds 11 1008 81 10000 1.5 80 14:57 17.12.2019
2474 Clouds 11 1008 81 10000 0.5 0 14:38 17.12.2019
2475 Clouds 11 1007 81 10000 1.5 100 14:19 17.12.2019
2476 Clouds 11 1007 81 10000 1.5 100 13:59 17.12.2019
2477 Clouds 11 1007 76 10000 0.5 0 13:40 17.12.2019
2478 Clouds 11 1008 71 10000 1 0 13:19 17.12.2019
2479 Clouds 11 1008 76 10000 0.5 0 12:59 17.12.2019
2480 Clouds 11 1008 76 10000 0.5 0 12:39 17.12.2019
2481 Clouds 11 1008 76 10000 1.5 70 12:18 17.12.2019
2482 Clouds 10 1008 75 10000 0.5 0 11:57 17.12.2019
2483 Clouds 9 1008 81 10000 0.5 0 11:37 17.12.2019
2484 Clouds 9 1008 81 10000 0.5 0 11:18 17.12.2019
2485 Clouds 8 1008 81 10000 0.5 0 10:58 17.12.2019
2486 Clouds 8 1008 81 10000 0.5 0 10:39 17.12.2019
2487 Clouds 8 1008 86 10000 0.5 0 10:20 17.12.2019
2488 Clouds 6 1008 93 10000 0.5 0 09:58 17.12.2019
2489 Clouds 6 1008 93 10000 0.5 0 09:40 17.12.2019
2490 Clouds 5 1008 100 10000 2.1 340 09:19 17.12.2019
2491 Clouds 5 1007 100 10000 1 0 08:55 17.12.2019
2492 Clouds 5 1008 100 10000 2.1 340 08:55 17.12.2019
2493 Clouds 5 1007 100 10000 1 0 08:37 17.12.2019
2494 Clouds 5 1007 93 10000 1.5 70 08:19 17.12.2019
2495 Clouds 5 1007 93 10000 1 0 07:45 17.12.2019
2496 Clouds 5 1006 100 10000 0.5 0 07:24 17.12.2019
2497 Clouds 4 1006 100 10000 0.5 0 06:55 17.12.2019
2498 Clouds 4 1006 93 10000 0.5 0 06:32 17.12.2019
2499 Clouds 4 1005 93 10000 0.5 0 05:52 17.12.2019
2500 Clouds 4 1005 93 10000 0.5 0 05:34 17.12.2019
2501 Clouds 5 1005 100 10000 2.1 300 04:25 17.12.2019
2502 Clouds 6 1005 93 10000 0.5 0 02:33 17.12.2019
2503 Clouds 6 1005 93 10000 0.5 0 02:33 17.12.2019
2504 Clouds 6 1005 86 10000 0.5 0 01:54 17.12.2019
2505 Clouds 6 1005 93 10000 1 0 00:58 17.12.2019
2506 Clouds 6 1005 93 10000 0.5 0 00:37 17.12.2019
2507 Clouds 6 1006 100 10000 1.5 300 00:18 17.12.2019
2508 Clouds 6 1006 100 10000 0.5 0 23:41 16.12.2019
2509 Clouds 5 1006 100 10000 0.5 360 23:19 16.12.2019
2510 Clouds 5 1006 93 10000 0.5 0 22:56 16.12.2019
2511 Clouds 6 1006 93 10000 0.5 0 22:37 16.12.2019
2512 Clouds 5 1007 100 10000 1.5 270 22:19 16.12.2019
2513 Clouds 6 1007 100 10000 1.5 290 21:55 16.12.2019
2514 Clouds 6 1007 100 10000 1.5 290 21:37 16.12.2019
2515 Clouds 5 1007 100 10000 1.5 290 21:37 16.12.2019
2516 Clouds 6 1007 100 10000 0.5 310 21:18 16.12.2019
2517 Clouds 6 1007 100 10000 1.5 90 20:56 16.12.2019
2518 Clouds 6 1007 100 10000 1.5 90 20:56 16.12.2019
2519 Clouds 6 1007 100 10000 1.5 90 20:37 16.12.2019
2520 Clouds 6 1007 100 10000 1 60 20:19 16.12.2019
2521 Clouds 6 1008 100 10000 1 0 19:55 16.12.2019
2522 Clouds 6 1008 100 10000 1 0 19:37 16.12.2019
2523 Clouds 7 1008 100 10000 1 0 19:18 16.12.2019
2524 Clouds 6 1008 87 10000 1 0 18:56 16.12.2019
2525 Clouds 6 1008 87 10000 1 0 18:37 16.12.2019
2526 Clouds 7 1008 93 10000 1 0 18:19 16.12.2019
2527 Clouds 7 1008 93 10000 1 0 17:57 16.12.2019
2528 Clouds 7 1008 93 10000 1 0 17:38 16.12.2019
2529 Clouds 9 1008 87 10000 0.5 210 17:19 16.12.2019
2530 Clouds 9 1008 87 10000 1 180 16:56 16.12.2019
2531 Clouds 9 1008 87 10000 1 180 16:38 16.12.2019
2532 Clouds 10 1008 76 10000 1 100 16:19 16.12.2019
2533 Clouds 10 1008 76 10000 1 100 15:57 16.12.2019
2534 Clouds 9 1008 71 10000 1 80 15:38 16.12.2019
2535 Clouds 11 1008 71 10000 0.5 0 15:20 16.12.2019
2536 Clouds 11 1008 66 10000 0.5 0 14:55 16.12.2019
2537 Clouds 12 1008 66 10000 0.5 0 14:37 16.12.2019
2538 Clouds 11 1008 66 10000 0.5 0 14:37 16.12.2019
2539 Clouds 13 1008 71 10000 0.5 0 14:18 16.12.2019
2540 Clouds 13 1008 71 10000 0.5 0 14:18 16.12.2019
2541 Clouds 12 1009 71 10000 0.5 0 13:56 16.12.2019
2542 Clouds 12 1009 71 10000 0.5 0 13:37 16.12.2019
2543 Clouds 12 1009 66 10000 1 0 13:19 16.12.2019
2544 Clouds 12 1009 71 10000 1 0 12:56 16.12.2019
2545 Clouds 12 1009 71 10000 1 0 12:38 16.12.2019
2546 Clouds 11 1010 71 10000 1 0 12:18 16.12.2019
2547 Clouds 11 1010 81 10000 1.5 90 11:57 16.12.2019
2548 Clouds 10 1010 81 10000 1.5 90 11:39 16.12.2019
2549 Clouds 9 1010 87 10000 1 0 11:19 16.12.2019
2550 Clouds 8 1010 93 10000 1 0 10:54 16.12.2019
2551 Clouds 8 1010 93 10000 1 0 10:36 16.12.2019
2552 Clouds 7 1010 93 10000 0.5 0 10:18 16.12.2019
2553 Fog 6 1010 100 10000 1 90 09:44 16.12.2019
2554 Fog 6 1010 100 10000 1.5 70 09:26 16.12.2019
2555 Fog 6 1010 100 10000 1 0 08:41 16.12.2019
2556 Fog 6 1010 100 10000 1.5 110 08:20 16.12.2019
2557 Clouds 6 1010 93 10000 2.1 270 07:53 16.12.2019
2558 Clouds 6 1010 93 10000 2.1 270 07:31 16.12.2019
2559 Clouds 6 1010 93 10000 1.5 250 06:59 16.12.2019
2560 Clouds 6 1010 87 10000 1.5 280 06:40 16.12.2019
2561 Clouds 7 1010 87 10000 1 0 06:21 16.12.2019
2562 Clouds 7 1010 100 10000 1 0 05:41 16.12.2019
2563 Clouds 7 1010 100 10000 1 0 05:23 16.12.2019
2564 Fog 7 1010 93 10000 0.5 0 03:29 16.12.2019
2565 Clouds 7 1011 100 10000 1 0 01:52 16.12.2019
2566 Clouds 7 1011 100 10000 1 0 01:33 16.12.2019
2567 Rain 7 1011 93 10000 0.5 80 00:41 16.12.2019
2568 Rain 7 1011 100 10000 1 0 00:21 16.12.2019
2569 Clouds 7 1011 100 10000 1 0 23:57 15.12.2019
2570 Clouds 7 1011 100 10000 1 0 23:37 15.12.2019
2571 Clouds 7 1011 93 10000 0.5 0 23:19 15.12.2019
2572 Clouds 7 1011 93 10000 1 0 22:54 15.12.2019
2573 Clouds 7 1011 93 10000 1 0 22:36 15.12.2019
2574 Clouds 7 1011 93 10000 0.5 0 22:18 15.12.2019
2575 Clouds 7 1011 93 10000 1 0 21:55 15.12.2019
2576 Clouds 7 1011 93 10000 1 0 21:37 15.12.2019
2577 Clouds 7 1011 93 10000 1 0 21:18 15.12.2019
2578 Clouds 7 1011 93 10000 2.1 150 20:55 15.12.2019
2579 Clouds 7 1011 93 10000 2.1 150 20:36 15.12.2019
2580 Rain 7 1011 100 10000 1 100 20:18 15.12.2019
2581 Rain 7 1011 100 10000 1 100 20:18 15.12.2019
2582 Rain 7 1011 100 10000 1 0 19:55 15.12.2019
2583 Rain 7 1011 100 10000 1 0 19:37 15.12.2019
2584 Rain 7 1010 100 10000 1 0 19:18 15.12.2019
2585 Rain 7 1010 100 10000 1.5 170 18:55 15.12.2019
2586 Rain 7 1010 100 10000 1.5 170 18:37 15.12.2019
2587 Rain 8 1010 100 10000 1 0 18:18 15.12.2019
2588 Rain 8 1009 100 10000 1 0 17:55 15.12.2019
2589 Rain 8 1009 100 10000 1 0 17:36 15.12.2019
2590 Rain 8 1009 87 10000 1 0 17:18 15.12.2019
2591 Rain 8 1009 87 10000 1.5 250 16:43 15.12.2019
2592 Rain 8 1009 87 10000 2.1 280 16:23 15.12.2019
2593 Rain 8 1008 87 10000 3.1 280 15:57 15.12.2019
2594 Rain 8 1008 87 10000 3.1 280 15:39 15.12.2019
2595 Rain 8 1008 87 10000 6.2 290 15:20 15.12.2019
2596 Rain 9 1007 87 10000 8.7 290 14:56 15.12.2019
2597 Rain 10 1007 87 10000 8.7 290 14:38 15.12.2019
2598 Rain 10 1006 62 10000 7.7 240 14:19 15.12.2019
2599 Rain 10 1006 62 10000 7.7 240 13:59 15.12.2019
2600 Clouds 11 1005 62 10000 8.2 240 13:39 15.12.2019
2601 Clouds 12 1005 62 10000 7.2 240 13:20 15.12.2019
2602 Clouds 12 1005 66 10000 8.2 230 12:57 15.12.2019
2603 Clouds 12 1005 66 10000 8.2 230 12:39 15.12.2019
2604 Clouds 12 1005 66 10000 8.2 230 12:21 15.12.2019
2605 Clouds 12 1005 66 10000 8.2 230 11:59 15.12.2019
2606 Clouds 12 1005 62 10000 8.7 230 11:38 15.12.2019
2607 Clouds 12 1005 62 10000 8.7 230 11:38 15.12.2019
2608 Clouds 12 1005 62 10000 8.7 230 11:38 15.12.2019
2609 Clouds 12 1005 58 10000 8.2 230 11:19 15.12.2019
2610 Clouds 12 1004 58 10000 7.7 230 10:56 15.12.2019
2611 Clouds 11 1004 58 10000 7.7 230 10:38 15.12.2019
2612 Clouds 12 1004 58 10000 7.7 230 10:38 15.12.2019
2613 Clouds 12 1003 62 10000 6.7 230 10:19 15.12.2019
2614 Clouds 11 1003 62 10000 7.2 230 09:58 15.12.2019
2615 Clouds 11 1003 62 10000 7.2 230 09:37 15.12.2019
2616 Clouds 11 1003 66 10000 6.7 220 09:19 15.12.2019
2617 Clouds 11 1003 71 10000 7.2 230 08:55 15.12.2019
2618 Clouds 11 1003 71 10000 7.2 230 08:36 15.12.2019
2619 Clouds 11 1002 66 10000 6.7 220 08:18 15.12.2019
2620 Clouds 11 1002 66 10000 6.2 210 07:47 15.12.2019
2621 Clouds 10 1002 66 10000 6.2 210 07:28 15.12.2019
2622 Clouds 10 1001 76 10000 6.2 210 06:26 15.12.2019
2623 Clouds 9 1001 81 10000 4.6 210 05:42 15.12.2019
2624 Clouds 8 1002 81 10000 4.6 200 05:21 15.12.2019
2625 Rain 7 1002 87 10000 3.6 180 04:21 15.12.2019
2626 Rain 7 1004 87 10000 2.1 180 02:55 15.12.2019
2627 Rain 7 1004 87 10000 2.1 180 02:32 15.12.2019
2628 Rain 7 1004 87 10000 1.5 130 01:41 15.12.2019
2629 Clouds 7 1005 87 10000 2.1 150 01:19 15.12.2019
2630 Clouds 6 1005 93 10000 2.1 90 00:51 15.12.2019
2631 Clouds 6 1005 86 10000 1.5 80 00:32 15.12.2019
2632 Clouds 6 1005 87 10000 1 0 23:55 14.12.2019
2633 Clouds 7 1005 87 10000 1 0 23:37 14.12.2019
2634 Clouds 7 1005 93 10000 3.6 260 23:18 14.12.2019
2635 Clouds 7 1005 93 10000 3.6 260 23:18 14.12.2019
2636 Clouds 7 1005 81 10000 5.7 280 22:56 14.12.2019
2637 Clouds 7 1005 81 10000 5.7 280 22:37 14.12.2019
2638 Rain 7 1006 81 10000 6.7 270 22:18 14.12.2019
2639 Rain 7 1006 81 10000 4.1 250 21:55 14.12.2019
2640 Rain 7 1006 81 10000 4.1 250 21:36 14.12.2019
2641 Rain 7 1005 75 10000 4.6 260 21:18 14.12.2019
2642 Rain 8 1004 65 10000 2.6 220 20:42 14.12.2019
2643 Rain 8 1004 77 10000 3.1 220 20:20 14.12.2019
2644 Clouds 8 1003 77 10000 3.1 210 19:59 14.12.2019
2645 Clouds 7 1003 77 10000 3.1 210 19:39 14.12.2019
2646 Clouds 7 1003 52 10000 4.1 200 19:21 14.12.2019
2647 Clouds 7 1003 52 10000 4.6 210 18:57 14.12.2019
2648 Clouds 7 1003 52 10000 4.6 210 18:39 14.12.2019
2649 Clouds 7 1002 52 10000 5.1 210 18:21 14.12.2019
2650 Clouds 7 1002 56 10000 5.1 200 17:58 14.12.2019
2651 Clouds 7 1002 56 10000 5.1 200 17:40 14.12.2019
2652 Clear 7 1002 56 10000 6.7 190 17:21 14.12.2019
2653 Clear 7 1002 73 10000 5.1 200 16:41 14.12.2019
2654 Clear 7 1002 65 10000 4.6 200 16:19 14.12.2019
2655 Clear 7 1002 61 10000 5.1 210 15:56 14.12.2019
2656 Clear 7 1002 61 10000 5.1 210 15:38 14.12.2019
2657 Clouds 7 1002 61 10000 5.1 220 15:19 14.12.2019
2658 Clouds 7 1001 73 10000 8.7 240 14:56 14.12.2019
2659 Clouds 7 1001 73 10000 8.7 240 14:37 14.12.2019
2660 Clouds 7 1001 61 10000 9.8 240 14:18 14.12.2019
2661 Clouds 7 1000 70 10000 9.8 250 13:44 14.12.2019
2662 Clouds 7 999 75 10000 10.3 250 13:19 14.12.2019
2663 Rain 6 998 81 10000 4.6 220 12:58 14.12.2019
2664 Rain 6 998 81 10000 4.6 220 12:39 14.12.2019
2665 Rain 7 998 81 10000 6.7 240 12:20 14.12.2019
2666 Clouds 7 997 70 10000 8.2 250 11:58 14.12.2019
2667 Clouds 7 997 70 10000 8.2 250 11:39 14.12.2019
2668 Clouds 7 997 75 10000 8.2 250 11:19 14.12.2019
2669 Clouds 7 997 75 10000 8.2 250 10:57 14.12.2019
2670 Clouds 8 996 81 10000 10.8 250 10:39 14.12.2019
2671 Rain 7 995 75 10000 11.3 250 10:20 14.12.2019
2672 Rain 7 993 81 8000 9.8 240 09:55 14.12.2019
2673 Rain 7 995 75 10000 11.3 250 09:55 14.12.2019
2674 Rain 7 993 81 8000 9.8 240 09:36 14.12.2019
2675 Rain 7 992 81 10000 9.8 240 09:18 14.12.2019
2676 Rain 6 991 75 10000 8.2 240 08:41 14.12.2019
2677 Clouds 6 990 75 10000 6.7 240 08:19 14.12.2019
2678 Rain 5 989 81 10000 5.7 240 07:43 14.12.2019
2679 Rain 5 989 86 10000 4.1 210 07:23 14.12.2019
2680 Rain 5 988 86 10000 4.6 210 06:55 14.12.2019
2681 Rain 5 988 86 10000 4.6 210 06:36 14.12.2019
2682 Rain 4 988 80 10000 5.1 210 05:57 14.12.2019
2683 Rain 4 990 81 10000 6.7 190 04:42 14.12.2019
2684 Clouds 4 992 81 10000 3.6 210 02:31 14.12.2019
2685 Clouds 3 991 86 10000 3.1 190 01:49 14.12.2019
2686 Clouds 3 991 86 10000 3.1 190 01:31 14.12.2019
2687 Clouds 4 993 80 10000 4.1 200 00:45 14.12.2019
2688 Clouds 4 993 80 10000 4.1 200 00:27 14.12.2019
2689 Clouds 4 993 86 10000 3.6 200 23:54 13.12.2019
2690 Clouds 4 993 86 10000 3.6 200 23:36 13.12.2019
2691 Rain 4 993 86 10000 4.1 210 23:18 13.12.2019
2692 Rain 4 992 86 10000 4.1 220 22:40 13.12.2019
2693 Rain 4 992 86 10000 4.6 220 22:19 13.12.2019
2694 Rain 4 992 86 10000 4.6 220 21:56 13.12.2019
2695 Rain 4 991 86 10000 4.1 220 21:37 13.12.2019
2696 Rain 4 990 93 10000 4.1 210 21:19 13.12.2019
2697 Rain 4 990 93 10000 6.2 230 20:42 13.12.2019
2698 Rain 3 988 93 10000 5.7 210 20:23 13.12.2019
2699 Rain 3 988 93 10000 5.7 210 19:59 13.12.2019
2700 Rain 3 988 93 10000 6.2 210 19:41 13.12.2019
2701 Rain 4 988 93 10000 6.2 210 19:23 13.12.2019
2702 Rain 3 987 93 10000 5.7 210 18:59 13.12.2019
2703 Rain 4 986 93 10000 5.7 210 18:41 13.12.2019
2704 Rain 4 986 93 10000 5.7 210 18:19 13.12.2019
2705 Rain 4 986 86 10000 5.7 220 17:57 13.12.2019
2706 Rain 4 985 86 10000 5.7 210 17:38 13.12.2019
2707 Rain 4 985 86 10000 5.7 210 17:18 13.12.2019
2708 Rain 4 985 86 10000 4.6 220 16:54 13.12.2019
2709 Rain 4 984 80 10000 5.1 230 16:36 13.12.2019
2710 Rain 4 984 80 10000 5.1 230 16:18 13.12.2019
2711 Clouds 5 983 75 10000 4.6 220 15:40 13.12.2019
2712 Clouds 5 983 75 10000 4.6 220 15:20 13.12.2019
2713 Rain 5 982 75 10000 6.7 230 14:55 13.12.2019
2714 Clouds 5 982 75 10000 5.7 230 14:36 13.12.2019
2715 Clouds 5 982 75 10000 5.7 230 14:18 13.12.2019
2716 Clouds 5 981 81 10000 6.2 230 13:43 13.12.2019
2717 Clouds 5 981 81 10000 6.2 230 13:23 13.12.2019
2718 Clouds 4 981 80 10000 4.6 220 12:54 13.12.2019
2719 Rain 4 981 86 10000 5.1 210 12:36 13.12.2019
2720 Rain 4 980 86 10000 4.6 210 12:18 13.12.2019
2721 Rain 3 979 86 10000 5.1 210 11:42 13.12.2019
2722 Rain 3 979 86 10000 5.1 210 11:24 13.12.2019
2723 Rain 2 979 86 10000 2.1 220 10:56 13.12.2019
2724 Snow 2 978 93 10000 3.1 180 10:38 13.12.2019
2725 Snow 2 978 93 10000 3.1 180 10:19 13.12.2019
2726 Snow 2 978 93 9000 5.7 170 09:41 13.12.2019
2727 Snow 2 978 93 9000 4.6 170 09:20 13.12.2019
2728 Snow 2 979 95 10000 4.1 160 08:44 13.12.2019
2729 Snow 2 979 83 10000 4.1 160 08:26 13.12.2019
2730 Clouds 2 980 74 10000 5.1 170 07:48 13.12.2019
2731 Clouds 2 980 80 10000 5.1 170 07:25 13.12.2019
2732 Clouds 2 981 80 10000 5.1 170 06:55 13.12.2019
2733 Clouds 2 982 80 10000 4.1 180 06:29 13.12.2019
2734 Clouds 1 983 80 10000 2.6 190 05:51 13.12.2019
2735 Clouds 1 984 80 10000 3.6 170 05:30 13.12.2019
2736 Clouds 0 984 86 10000 2.1 130 04:53 13.12.2019
2737 Snow 0 986 83 3800 2.6 140 03:50 13.12.2019
2738 Clouds 1 989 83 10000 1.5 130 02:35 13.12.2019
2739 Clouds 0 990 86 10000 1.5 90 01:50 13.12.2019
2740 Clouds 0 990 86 10000 1.5 90 01:24 13.12.2019
2741 Clouds 0 991 73 10000 2.1 130 00:46 13.12.2019
2742 Clouds 0 992 73 10000 1.5 110 00:24 13.12.2019
2743 Clouds 0 993 86 10000 1.5 0 23:42 12.12.2019
2744 Clear 0 994 86 10000 2.1 100 23:24 12.12.2019
2745 Clear 0 994 92 10000 1 0 22:56 12.12.2019
2746 Clear 0 995 86 10000 1.5 100 22:38 12.12.2019
2747 Clear 0 995 86 10000 1.5 100 22:19 12.12.2019
2748 Clear 0 996 86 10000 1 0 21:55 12.12.2019
2749 Clear 0 997 81 10000 1.5 100 21:37 12.12.2019
2750 Clear 1 997 81 10000 1.5 100 21:19 12.12.2019
2751 Clouds 1 997 81 10000 2.1 130 20:58 12.12.2019
2752 Clouds 1 998 80 10000 3.1 150 20:40 12.12.2019
2753 Clouds 1 998 80 10000 3.1 150 20:21 12.12.2019
2754 Clouds 1 999 80 10000 2.1 150 19:56 12.12.2019
2755 Clouds 1 999 74 10000 2.1 150 19:37 12.12.2019
2756 Clouds 2 999 74 10000 2.1 150 19:18 12.12.2019
2757 Clouds 2 1000 69 10000 2.1 190 18:55 12.12.2019
2758 Clouds 2 1001 74 10000 2.1 200 18:37 12.12.2019
2759 Clouds 2 1001 83 10000 2.1 200 18:19 12.12.2019
2760 Clouds 2 1001 83 10000 2.1 200 17:56 12.12.2019
2761 Clouds 3 1001 83 10000 2.1 200 17:38 12.12.2019
2762 Clouds 3 1001 83 10000 2.1 200 17:38 12.12.2019
2763 Clouds 3 1001 89 10000 2.1 200 17:19 12.12.2019
2764 Clouds 3 1002 89 10000 1.5 190 16:54 12.12.2019
2765 Clouds 3 1002 89 10000 2.1 220 16:36 12.12.2019
2766 Clouds 3 1002 89 10000 2.1 220 16:18 12.12.2019
2767 Rain 4 1003 89 10000 3.6 240 15:42 12.12.2019
2768 Rain 4 1003 89 10000 3.6 240 15:20 12.12.2019
2769 Clouds 4 1003 75 10000 3.6 220 14:57 12.12.2019
2770 Clouds 4 1004 89 10000 4.6 240 14:38 12.12.2019
2771 Clouds 4 1004 92 10000 4.6 240 14:19 12.12.2019
2772 Rain 4 1004 75 10000 5.1 240 13:56 12.12.2019
2773 Rain 4 1004 75 10000 3.6 220 13:38 12.12.2019
2774 Rain 4 1004 75 10000 3.6 220 13:20 12.12.2019
2775 Clouds 4 1004 80 10000 2.6 220 12:56 12.12.2019
2776 Clouds 4 1005 80 10000 3.6 230 12:38 12.12.2019
2777 Clouds 4 1005 80 10000 3.6 230 12:19 12.12.2019
2778 Clouds 4 1005 86 10000 3.6 220 11:54 12.12.2019
2779 Clouds 3 1005 86 10000 3.1 210 11:36 12.12.2019
2780 Rain 3 1005 93 10000 2.6 200 11:18 12.12.2019
2781 Rain 3 1005 86 10000 2.6 200 10:41 12.12.2019
2782 Rain 3 1005 86 10000 2.6 200 10:23 12.12.2019
2783 Rain 3 1005 86 10000 2.6 200 10:23 12.12.2019
2784 Rain 3 1005 86 10000 1.5 200 09:59 12.12.2019
2785 Rain 2 1005 93 10000 2.1 200 09:41 12.12.2019
2786 Rain 2 1005 93 10000 2.1 200 09:23 12.12.2019
2787 Rain 2 1005 93 10000 1 0 08:56 12.12.2019
2788 Rain 2 1005 93 10000 0.5 90 08:38 12.12.2019
2789 Rain 2 1005 93 10000 0.5 90 08:38 12.12.2019
2790 Rain 2 1005 93 10000 1 0 08:19 12.12.2019
2791 Rain 2 1005 93 10000 1 0 07:42 12.12.2019
2792 Rain 2 1005 93 10000 1 0 07:24 12.12.2019
2793 Clouds 2 1005 93 10000 1.5 200 06:48 12.12.2019
2794 Clouds 2 1005 93 10000 0.5 0 06:30 12.12.2019
2795 Clouds 2 1005 88 10000 1.5 120 05:36 12.12.2019
2796 Clouds 2 1005 93 10000 0.5 0 04:51 12.12.2019
2797 Clouds 2 1005 93 10000 0.5 0 04:51 12.12.2019
2798 Clouds 2 1005 93 10000 0.5 0 04:51 12.12.2019
2799 Clouds 2 1006 93 10000 1 0 03:24 12.12.2019
2800 Clouds 2 1007 93 10000 2.1 210 02:38 12.12.2019
2801 Clouds 2 1007 93 10000 2.1 210 02:19 12.12.2019
2802 Clouds 2 1007 86 10000 2.1 210 01:37 12.12.2019
2803 Clouds 2 1007 86 10000 2.1 210 01:19 12.12.2019
2804 Clouds 2 1007 86 10000 3.1 210 00:46 12.12.2019
2805 Clouds 2 1007 86 10000 3.1 210 00:19 12.12.2019
2806 Rain 2 1008 86 10000 3.6 210 23:44 11.12.2019
2807 Snow 2 1008 93 10000 4.1 210 23:21 11.12.2019
2808 Snow 2 1008 86 10000 3.1 210 22:57 11.12.2019
2809 Snow 2 1008 86 10000 3.1 210 22:38 11.12.2019
2810 Snow 2 1008 86 10000 3.1 210 22:20 11.12.2019
2811 Snow 2 1008 93 10000 2.6 210 21:57 11.12.2019
2812 Snow 2 1008 93 10000 2.1 220 21:38 11.12.2019
2813 Snow 2 1008 93 10000 2.1 220 21:19 11.12.2019
2814 Snow 2 1008 93 10000 2.1 220 20:56 11.12.2019
2815 Snow 2 1008 93 10000 3.1 210 20:37 11.12.2019
2816 Snow 2 1008 93 10000 3.1 210 20:19 11.12.2019
2817 Snow 2 1008 93 10000 3.6 200 19:57 11.12.2019
2818 Rain 2 1008 86 9000 3.6 210 19:39 11.12.2019
2819 Rain 2 1008 86 9000 3.6 210 19:19 11.12.2019
2820 Rain 2 1007 86 10000 1.5 240 18:41 11.12.2019
2821 Rain 2 1007 86 10000 1.5 240 18:21 11.12.2019
2822 Rain 2 1008 93 10000 0.5 180 17:57 11.12.2019
2823 Rain 2 1008 93 10000 0.5 180 17:57 11.12.2019
2824 Rain 2 1008 93 9000 1 200 17:39 11.12.2019
2825 Rain 2 1008 81 10000 2.1 130 17:19 11.12.2019
2826 Rain 2 1008 81 10000 2.1 130 16:57 11.12.2019
2827 Rain 2 1008 81 10000 1 0 16:39 11.12.2019
2828 Rain 2 1008 81 10000 1 0 16:21 11.12.2019
2829 Rain 2 1008 74 10000 2.1 200 15:59 11.12.2019
2830 Rain 2 1008 74 10000 2.1 200 15:40 11.12.2019
2831 Rain 2 1008 69 10000 1 0 15:22 11.12.2019
2832 Clouds 2 1009 64 10000 1.5 110 14:56 11.12.2019
2833 Clouds 2 1009 74 10000 1.5 120 14:38 11.12.2019
2834 Clouds 2 1009 74 10000 1.5 120 14:19 11.12.2019
2835 Clouds 2 1010 69 10000 1.5 130 13:55 11.12.2019
2836 Clouds 2 1010 74 10000 1.5 180 13:36 11.12.2019
2837 Clouds 2 1010 74 10000 1.5 180 13:18 11.12.2019
2838 Rain 2 1011 74 10000 2.6 140 12:55 11.12.2019
2839 Clouds 2 1011 74 10000 1.5 170 12:37 11.12.2019
2840 Clouds 2 1012 74 10000 1.5 120 12:18 11.12.2019
2841 Clouds 2 1011 74 10000 1.5 170 12:18 11.12.2019
2842 Clouds 2 1012 74 10000 1.5 120 11:57 11.12.2019
2843 Clouds 2 1013 74 10000 1.5 100 11:38 11.12.2019
2844 Clouds 2 1013 74 10000 1.5 100 11:38 11.12.2019
2845 Clouds 1 1013 80 10000 1 0 11:18 11.12.2019
2846 Clouds 1 1013 80 10000 1 0 11:18 11.12.2019
2847 Clouds 1 1013 80 10000 1 0 10:44 11.12.2019
2848 Clouds 0 1013 80 10000 1 0 10:44 11.12.2019
2849 Clouds 0 1013 61 10000 1 0 10:26 11.12.2019
2850 Clouds 0 1013 86 10000 0.5 80 09:59 11.12.2019
2851 Clouds 0 1014 92 10000 1 0 09:39 11.12.2019
2852 Clouds 0 1014 92 10000 1 0 09:39 11.12.2019
2853 Clouds 0 1014 92 10000 1 0 09:39 11.12.2019
2854 Clouds -1 1014 92 10000 1 0 09:20 11.12.2019
2855 Clouds -1 1014 86 10000 1.5 100 08:57 11.12.2019
2856 Clouds 0 1014 86 10000 1.5 110 08:38 11.12.2019
2857 Clouds -2 1014 86 10000 1.5 110 08:19 11.12.2019
2858 Clouds -2 1015 70 10000 1.5 0 07:55 11.12.2019
2859 Clouds -2 1015 74 10000 1.5 220 07:37 11.12.2019
2860 Clouds -2 1015 86 10000 1 0 07:18 11.12.2019
2861 Clouds -2 1015 86 10000 1 100 06:43 11.12.2019
2862 Clouds -2 1015 86 10000 1 100 06:22 11.12.2019
2863 Clouds -2 1016 86 10000 0.5 0 05:41 11.12.2019
2864 Clouds -2 1016 86 10000 0.5 0 05:19 11.12.2019
2865 Clouds -2 1017 79 10000 1.5 220 04:27 11.12.2019
2866 Clouds -1 1019 86 10000 0.5 0 02:49 11.12.2019
2867 Clouds -1 1020 86 10000 0.5 0 01:25 11.12.2019
2868 Clouds -1 1021 92 10000 0.5 0 00:47 11.12.2019
2869 Clouds -1 1021 92 10000 1 0 00:22 11.12.2019
2870 Clouds -2 1022 100 10000 0.5 0 23:57 10.12.2019
2871 Clouds -2 1022 100 10000 0.5 0 23:39 10.12.2019
2872 Clouds -1 1022 86 10000 0.5 0 23:21 10.12.2019
2873 Clouds -2 1022 92 10000 0.5 0 22:40 10.12.2019
2874 Clouds -2 1023 86 10000 0.5 0 22:40 10.12.2019
2875 Clouds -1 1023 86 10000 0.5 0 22:22 10.12.2019
2876 Clouds -2 1023 92 10000 1 0 21:57 10.12.2019
2877 Clouds -2 1023 92 10000 1 0 21:39 10.12.2019
2878 Clouds -2 1023 86 10000 0.5 70 21:21 10.12.2019
2879 Clouds -2 1023 86 10000 0.5 70 21:21 10.12.2019
2880 Clouds -1 1023 80 10000 1 0 20:57 10.12.2019
2881 Clouds -1 1024 82 10000 0.5 0 20:38 10.12.2019
2882 Clear -1 1024 78 10000 0.5 0 20:19 10.12.2019
2883 Clear -1 1024 78 10000 0.5 0 20:19 10.12.2019
2884 Clear -1 1024 86 10000 0.5 0 19:55 10.12.2019
2885 Clear -1 1024 86 10000 0.5 0 19:37 10.12.2019
2886 Clear -1 1024 86 10000 0.5 0 19:19 10.12.2019
2887 Clear 0 1024 69 10000 1.5 200 18:42 10.12.2019
2888 Clear 0 1024 69 10000 1.5 200 18:21 10.12.2019
2889 Clear 1 1025 69 10000 2.1 200 17:58 10.12.2019
2890 Clouds 1 1025 64 10000 2.1 170 17:40 10.12.2019
2891 Clouds 2 1025 64 10000 2.1 170 17:22 10.12.2019
2892 Clouds 2 1025 64 10000 1.5 180 16:55 10.12.2019
2893 Clouds 3 1025 60 10000 2.6 180 16:36 10.12.2019
2894 Clouds 3 1025 60 10000 2.6 180 16:18 10.12.2019
2895 Clouds 4 1026 60 10000 3.1 220 15:39 10.12.2019
2896 Clouds 4 1026 60 10000 3.1 220 15:18 10.12.2019
2897 Clouds 4 1027 52 10000 1.5 240 14:56 10.12.2019
2898 Clouds 4 1027 60 10000 2.6 300 14:38 10.12.2019
2899 Clouds 5 1027 60 10000 2.6 300 14:20 10.12.2019
2900 Clouds 5 1027 60 10000 2.6 300 14:20 10.12.2019
2901 Clouds 5 1027 52 10000 2.6 200 13:58 10.12.2019
2902 Clouds 4 1027 60 10000 2.6 220 13:40 10.12.2019
2903 Clouds 4 1027 60 10000 2.6 220 13:20 10.12.2019
2904 Clouds 4 1027 65 10000 2.6 160 12:48 10.12.2019
2905 Clouds 4 1028 66 10000 3.1 180 12:28 10.12.2019
2906 Clouds 4 1028 80 10000 2.6 180 11:56 10.12.2019
2907 Clouds 4 1028 66 10000 3.1 180 11:38 10.12.2019
2908 Clouds 3 1028 83 10000 3.1 180 11:19 10.12.2019
2909 Clouds 3 1027 83 10000 2.6 190 10:43 10.12.2019
2910 Clouds 2 1027 83 10000 1 160 10:24 10.12.2019
2911 Clouds 2 1027 83 10000 1 0 09:57 10.12.2019
2912 Clouds 2 1027 83 10000 1 0 09:57 10.12.2019
2913 Clouds 2 1027 86 10000 3.6 270 09:39 10.12.2019
2914 Clouds 1 1027 86 10000 3.6 270 09:20 10.12.2019
2915 Rain 1 1026 83 10000 4.1 280 08:58 10.12.2019
2916 Clouds 1 1026 83 8000 5.1 280 08:39 10.12.2019
2917 Clouds 1 1026 91 8000 5.1 280 08:21 10.12.2019
2918 Clouds 1 1026 86 10000 4.1 270 07:45 10.12.2019
2919 Clouds 1 1025 80 10000 5.1 280 07:27 10.12.2019
2920 Clouds 1 1024 80 10000 4.6 280 06:56 10.12.2019
2921 Clouds 1 1024 86 10000 4.1 270 06:38 10.12.2019
2922 Clouds 1 1024 86 10000 4.1 270 06:19 10.12.2019
2923 Clouds 1 1023 80 10000 4.6 290 05:51 10.12.2019
2924 Clouds 2 1022 85 10000 5.1 290 04:35 10.12.2019
2925 Clouds 3 1021 85 10000 6.2 290 03:31 10.12.2019
2926 Clouds 3 1019 80 10000 8.2 300 02:36 10.12.2019
2927 Clouds 4 1018 86 10000 8.7 310 01:42 10.12.2019
2928 Rain 4 1017 93 10000 10.3 310 01:19 10.12.2019
2929 Rain 4 1016 86 10000 7.2 300 00:38 10.12.2019
2930 Rain 5 1015 86 9000 5.7 300 00:18 10.12.2019
2931 Rain 5 1014 93 9000 5.1 280 23:40 09.12.2019
2932 Rain 5 1014 93 9000 5.1 280 23:22 09.12.2019
2933 Rain 5 1013 86 10000 5.1 280 22:57 09.12.2019
2934 Rain 5 1013 86 10000 3.6 270 22:39 09.12.2019
2935 Rain 5 1013 86 10000 3.6 270 22:19 09.12.2019
2936 Clouds 5 1012 86 10000 4.1 260 21:56 09.12.2019
2937 Rain 5 1011 86 10000 3.1 250 21:38 09.12.2019
2938 Rain 5 1011 86 10000 3.1 250 21:18 09.12.2019
2939 Clouds 5 1010 86 10000 1.5 230 20:56 09.12.2019
2940 Rain 5 1009 86 10000 2.6 240 20:38 09.12.2019
2941 Rain 5 1009 86 10000 2.6 240 20:19 09.12.2019
2942 Clouds 5 1009 86 10000 4.1 260 19:55 09.12.2019
2943 Clouds 5 1009 86 10000 4.1 260 19:55 09.12.2019
2944 Clouds 5 1008 86 10000 4.6 270 19:37 09.12.2019
2945 Clouds 5 1008 86 10000 4.6 270 19:19 09.12.2019
2946 Rain 5 1007 86 10000 5.7 270 18:56 09.12.2019
2947 Rain 5 1006 81 10000 7.2 280 18:37 09.12.2019
2948 Rain 5 1006 81 10000 7.2 280 18:19 09.12.2019
2949 Rain 6 1005 87 10000 4.1 260 17:57 09.12.2019
2950 Rain 6 1005 75 10000 3.1 230 17:38 09.12.2019
2951 Rain 6 1005 75 10000 3.1 230 17:20 09.12.2019
2952 Rain 6 1004 75 10000 4.1 230 16:56 09.12.2019
2953 Rain 6 1004 75 10000 4.1 220 16:37 09.12.2019
2954 Rain 6 1004 75 10000 4.1 220 16:19 09.12.2019
2955 Rain 6 1004 75 10000 4.6 230 15:55 09.12.2019
2956 Rain 6 1004 75 10000 4.6 230 15:55 09.12.2019
2957 Rain 7 1004 75 10000 4.1 230 15:37 09.12.2019
2958 Rain 6 1004 75 10000 4.1 230 15:37 09.12.2019
2959 Rain 7 1004 75 10000 4.1 230 15:19 09.12.2019
2960 Clouds 7 1003 70 10000 3.6 220 14:42 09.12.2019
2961 Clouds 7 1003 70 10000 3.6 220 14:19 09.12.2019
2962 Rain 7 1003 75 10000 3.6 210 13:59 09.12.2019
2963 Rain 7 1003 81 10000 4.1 210 13:39 09.12.2019
2964 Rain 8 1003 81 10000 4.1 210 13:19 09.12.2019
2965 Rain 8 1003 75 10000 4.1 210 12:57 09.12.2019
2966 Rain 8 1004 75 10000 5.1 200 12:38 09.12.2019
2967 Rain 8 1004 75 10000 5.1 200 12:20 09.12.2019
2968 Rain 8 1004 75 10000 4.1 210 11:59 09.12.2019
2969 Rain 8 1004 75 10000 4.1 210 11:39 09.12.2019
2970 Rain 7 1004 75 10000 6.2 200 11:21 09.12.2019
2971 Clouds 7 1004 75 10000 6.7 210 10:56 09.12.2019
2972 Clouds 7 1004 75 10000 6.2 210 10:38 09.12.2019
2973 Rain 7 1004 81 10000 4.6 210 10:18 09.12.2019
2974 Rain 6 1004 81 10000 5.7 220 09:41 09.12.2019
2975 Rain 7 1004 81 10000 5.7 220 09:23 09.12.2019
2976 Rain 6 1004 70 10000 6.2 220 08:55 09.12.2019
2977 Rain 6 1004 70 10000 5.7 210 08:37 09.12.2019
2978 Rain 6 1004 70 10000 5.1 220 08:19 09.12.2019
2979 Rain 6 1004 70 10000 5.1 220 07:44 09.12.2019
2980 Rain 6 1004 75 10000 4.6 210 07:25 09.12.2019
2981 Clouds 6 1005 75 10000 3.6 220 06:55 09.12.2019
2982 Clouds 6 1005 81 10000 3.6 210 06:28 09.12.2019
2983 Rain 6 1005 81 10000 6.2 220 05:30 09.12.2019
2984 Clouds 6 1005 75 10000 5.1 220 04:54 09.12.2019
2985 Rain 6 1005 75 10000 4.6 220 04:25 09.12.2019
2986 Clouds 6 1006 81 10000 3.6 240 02:28 09.12.2019
2987 Clouds 6 1006 75 10000 3.1 230 01:46 09.12.2019
2988 Clouds 7 1006 81 10000 6.2 260 00:57 09.12.2019
2989 Rain 7 1006 87 10000 9.3 270 00:33 09.12.2019
2990 Rain 7 1006 87 10000 8.2 290 23:55 08.12.2019
2991 Rain 8 1005 93 10000 2.6 220 23:37 08.12.2019
2992 Rain 8 1005 93 10000 2.6 220 23:18 08.12.2019
2993 Rain 9 1005 87 10000 5.1 220 22:56 08.12.2019
2994 Rain 10 1005 81 10000 4.1 210 22:38 08.12.2019
2995 Rain 10 1005 81 10000 4.1 210 22:38 08.12.2019
2996 Rain 10 1005 81 10000 4.1 210 22:18 08.12.2019
2997 Clouds 10 1005 81 10000 4.6 210 21:55 08.12.2019
2998 Clouds 10 1006 81 10000 4.1 210 21:37 08.12.2019
2999 Clouds 10 1006 81 10000 4.1 210 21:19 08.12.2019
3000 Clouds 10 1006 87 10000 4.6 210 20:55 08.12.2019
3001 Rain 10 1006 81 10000 4.6 210 20:37 08.12.2019
3002 Rain 10 1006 81 10000 4.6 210 20:19 08.12.2019
3003 Rain 10 1006 76 10000 4.6 210 19:55 08.12.2019
3004 Rain 10 1007 76 10000 5.1 210 19:36 08.12.2019
3005 Clouds 10 1007 66 10000 5.1 220 19:18 08.12.2019
3006 Rain 10 1007 76 10000 5.1 210 19:18 08.12.2019
3007 Clouds 10 1007 66 10000 5.1 220 18:54 08.12.2019
3008 Clouds 10 1007 66 10000 4.6 210 18:36 08.12.2019
3009 Clouds 10 1007 66 10000 4.6 210 18:18 08.12.2019
3010 Clouds 10 1007 66 10000 4.6 210 17:54 08.12.2019
3011 Clouds 10 1007 71 10000 5.7 210 17:36 08.12.2019
3012 Clouds 10 1007 71 10000 5.7 210 17:18 08.12.2019
3013 Clouds 10 1007 71 10000 5.7 210 17:18 08.12.2019
3014 Rain 10 1007 66 10000 6.2 230 16:55 08.12.2019
3015 Rain 10 1007 66 10000 4.6 220 16:37 08.12.2019
3016 Clouds 10 1008 66 10000 4.6 210 16:18 08.12.2019
3017 Clouds 10 1008 66 10000 4.1 220 15:38 08.12.2019
3018 Clouds 10 1008 66 10000 4.1 220 15:19 08.12.2019
3019 Clouds 10 1009 66 10000 4.6 210 14:58 08.12.2019
3020 Clouds 11 1009 66 10000 6.2 220 14:38 08.12.2019
3021 Clouds 11 1009 66 10000 6.2 220 14:20 08.12.2019
3022 Clouds 11 1011 66 10000 6.2 230 13:42 08.12.2019
3023 Clouds 11 1011 66 10000 6.2 230 13:42 08.12.2019
3024 Clouds 10 1011 66 10000 6.2 230 13:23 08.12.2019
3025 Clouds 10 1011 66 10000 5.1 240 12:59 08.12.2019
3026 Clouds 10 1011 66 10000 5.1 240 12:41 08.12.2019
3027 Clouds 10 1012 66 10000 4.1 220 12:23 08.12.2019
3028 Clouds 10 1012 71 10000 4.1 200 11:59 08.12.2019
3029 Clouds 9 1013 66 10000 3.1 190 11:38 08.12.2019
3030 Clouds 9 1013 66 10000 3.1 190 11:19 08.12.2019
3031 Clouds 8 1013 70 10000 2.6 190 10:58 08.12.2019
3032 Clouds 8 1013 70 10000 1.5 180 10:38 08.12.2019
3033 Clouds 8 1013 70 10000 1.5 180 10:19 08.12.2019
3034 Clouds 7 1013 75 10000 1.5 150 09:56 08.12.2019
3035 Clouds 7 1014 75 10000 2.1 160 09:37 08.12.2019
3036 Clouds 7 1014 75 10000 2.1 160 09:19 08.12.2019
3037 Clouds 7 1014 70 10000 3.1 200 08:57 08.12.2019
3038 Clouds 7 1014 70 10000 3.1 200 08:57 08.12.2019
3039 Clouds 7 1014 70 10000 1.5 180 08:37 08.12.2019
3040 Clouds 6 1014 75 10000 3.1 180 08:18 08.12.2019
3041 Clouds 6 1014 75 10000 3.1 180 07:42 08.12.2019
3042 Clouds 6 1014 75 10000 2.1 190 07:19 08.12.2019
3043 Clouds 6 1015 75 10000 2.6 190 06:50 08.12.2019
3044 Clouds 6 1015 75 10000 2.6 190 06:22 08.12.2019
3045 Clouds 6 1015 75 10000 2.6 190 05:43 08.12.2019
3046 Clouds 6 1015 75 10000 2.6 210 05:18 08.12.2019
3047 Clouds 6 1016 75 10000 2.6 220 03:50 08.12.2019
3048 Clouds 6 1017 75 10000 2.1 240 03:22 08.12.2019
3049 Clouds 6 1017 81 10000 2.1 220 02:39 08.12.2019
3050 Clouds 6 1017 81 10000 3.1 210 01:55 08.12.2019
3051 Clouds 6 1018 81 10000 3.1 210 01:23 08.12.2019
3052 Clouds 6 1019 87 10000 1.5 230 00:40 08.12.2019
3053 Clouds 6 1019 87 10000 1.5 230 00:20 08.12.2019
3054 Clouds 6 1019 87 10000 1.5 230 00:20 08.12.2019
3055 Clouds 6 1019 87 10000 2.1 210 23:41 07.12.2019
3056 Clouds 6 1019 87 10000 2.1 210 23:21 07.12.2019
3057 Clouds 6 1019 87 10000 2.1 210 23:21 07.12.2019
3058 Clouds 6 1019 87 10000 3.6 200 22:58 07.12.2019
3059 Clouds 6 1019 93 10000 2.6 200 22:40 07.12.2019
3060 Clouds 6 1019 93 10000 2.6 200 22:21 07.12.2019
3061 Clouds 6 1019 93 10000 2.1 220 21:56 07.12.2019
3062 Rain 6 1019 93 10000 1.5 220 21:38 07.12.2019
3063 Rain 6 1019 93 10000 1.5 220 21:20 07.12.2019
3064 Rain 6 1019 87 10000 2.6 220 20:59 07.12.2019
3065 Rain 6 1019 87 10000 2.6 220 20:37 07.12.2019
3066 Rain 7 1019 87 10000 2.6 220 20:19 07.12.2019
3067 Rain 7 1019 87 10000 3.1 220 19:56 07.12.2019
3068 Rain 7 1019 87 10000 2.1 230 19:38 07.12.2019
3069 Rain 7 1019 87 10000 2.1 230 19:20 07.12.2019
3070 Clouds 6 1019 87 10000 1.5 220 18:55 07.12.2019
3071 Rain 7 1018 87 10000 1.5 210 18:36 07.12.2019
3072 Clouds 7 1018 87 10000 2.6 210 18:18 07.12.2019
3073 Rain 7 1018 87 10000 2.6 200 17:42 07.12.2019
3074 Rain 7 1018 87 10000 2.6 200 17:24 07.12.2019
3075 Rain 7 1018 87 10000 1.5 210 16:58 07.12.2019
3076 Rain 7 1018 87 10000 1.5 210 16:39 07.12.2019
3077 Clouds 7 1018 87 10000 3.1 230 16:21 07.12.2019
3078 Clouds 8 1017 87 10000 2.6 230 15:57 07.12.2019
3079 Clouds 8 1017 87 10000 2.6 230 15:57 07.12.2019
3080 Rain 8 1017 87 10000 2.6 230 15:38 07.12.2019
3081 Rain 8 1017 87 10000 2.6 230 15:20 07.12.2019
3082 Rain 8 1017 87 10000 2.6 230 15:20 07.12.2019
3083 Rain 8 1017 87 10000 3.1 230 14:42 07.12.2019
3084 Rain 8 1017 87 10000 4.1 230 14:19 07.12.2019
3085 Rain 8 1017 87 10000 4.1 230 13:58 07.12.2019
3086 Rain 8 1017 87 10000 4.1 230 13:58 07.12.2019
3087 Rain 8 1017 76 10000 3.1 220 13:39 07.12.2019
3088 Rain 8 1017 76 10000 3.1 220 13:39 07.12.2019
3089 Rain 8 1017 76 10000 3.1 220 13:19 07.12.2019
3090 Clouds 8 1017 87 10000 3.1 230 12:54 07.12.2019
3091 Rain 8 1017 87 10000 4.1 220 12:36 07.12.2019
3092 Rain 8 1017 87 10000 4.1 220 12:36 07.12.2019
3093 Rain 8 1017 87 10000 4.1 220 12:18 07.12.2019
3094 Rain 8 1017 81 10000 3.1 220 11:41 07.12.2019
3095 Rain 8 1017 81 10000 3.1 220 11:23 07.12.2019
3096 Clouds 7 1017 87 10000 3.6 220 10:55 07.12.2019
3097 Rain 7 1017 87 10000 3.6 220 10:36 07.12.2019
3098 Rain 7 1017 87 10000 3.6 220 10:18 07.12.2019
3099 Rain 7 1016 87 10000 3.6 230 09:39 07.12.2019
3100 Rain 7 1016 87 10000 3.6 230 09:21 07.12.2019
3101 Clouds 7 1016 81 10000 3.1 220 08:45 07.12.2019
3102 Clouds 7 1015 87 10000 3.6 210 08:24 07.12.2019
3103 Clouds 7 1015 87 10000 3.1 210 07:52 07.12.2019
3104 Clouds 7 1015 81 10000 4.1 200 07:29 07.12.2019
3105 Clouds 7 1014 81 10000 3.6 210 06:53 07.12.2019
3106 Clouds 7 1014 81 10000 4.6 230 06:27 07.12.2019
3107 Rain 7 1014 81 10000 4.6 230 05:49 07.12.2019
3108 Rain 8 1013 75 10000 5.7 230 04:48 07.12.2019
3109 Rain 7 1013 70 10000 4.1 230 03:51 07.12.2019
3110 Clouds 7 1013 70 10000 5.1 230 02:23 07.12.2019
3111 Clouds 7 1013 70 10000 5.1 230 01:51 07.12.2019
3112 Clouds 7 1013 70 10000 3.6 220 01:25 07.12.2019
3113 Clouds 7 1013 70 10000 3.6 220 01:25 07.12.2019
3114 Clouds 7 1013 70 10000 4.6 220 00:42 07.12.2019
3115 Rain 6 1013 70 10000 5.7 220 00:18 07.12.2019
3116 Rain 6 1013 66 10000 3.1 220 23:44 06.12.2019
3117 Rain 5 1014 65 10000 2.6 210 23:23 06.12.2019
3118 Clouds 5 1014 61 10000 3.6 200 22:57 06.12.2019
3119 Rain 5 1014 61 10000 3.1 200 22:36 06.12.2019
3120 Rain 5 1014 61 10000 3.1 200 22:18 06.12.2019
3121 Rain 5 1014 65 10000 2.1 230 21:41 06.12.2019
3122 Rain 5 1014 65 10000 2.1 230 21:21 06.12.2019
3123 Rain 4 1014 65 10000 3.1 210 20:59 06.12.2019
3124 Rain 4 1014 71 10000 1.5 190 20:41 06.12.2019
3125 Clouds 3 1014 73 10000 1.5 190 20:21 06.12.2019
3126 Clouds 3 1015 73 10000 1.5 170 19:57 06.12.2019
3127 Clouds 3 1015 73 10000 1.5 150 19:38 06.12.2019
3128 Clouds 3 1015 73 10000 1.5 150 19:20 06.12.2019
3129 Clouds 3 1015 73 10000 1 0 18:44 06.12.2019
3130 Clouds 3 1015 73 10000 1 0 18:23 06.12.2019
3131 Clouds 3 1015 73 10000 1 0 18:23 06.12.2019
3132 Clouds 3 1015 69 10000 1.5 110 17:58 06.12.2019
3133 Clouds 3 1015 69 10000 1.5 120 17:40 06.12.2019
3134 Clouds 3 1015 69 10000 1.5 120 17:22 06.12.2019
3135 Clouds 4 1015 61 10000 1 70 16:59 06.12.2019
3136 Clouds 4 1015 65 10000 1.5 90 16:40 06.12.2019
3137 Clouds 5 1015 65 10000 1.5 90 16:21 06.12.2019
3138 Clouds 6 1016 65 10000 1.5 110 15:42 06.12.2019
3139 Clouds 6 1016 65 10000 1.5 110 15:24 06.12.2019
3140 Clouds 6 1016 61 10000 1.5 80 14:59 06.12.2019
3141 Clouds 6 1016 61 10000 1.5 70 14:41 06.12.2019
3142 Clouds 6 1016 45 10000 1.5 70 14:20 06.12.2019
3143 Clouds 6 1017 56 10000 2.1 70 13:58 06.12.2019
3144 Clouds 6 1017 60 10000 2.1 120 13:40 06.12.2019
3145 Clouds 5 1017 60 10000 2.1 120 13:21 06.12.2019
3146 Clouds 5 1017 60 10000 2.1 120 13:21 06.12.2019
3147 Clouds 5 1018 65 10000 2.1 120 12:41 06.12.2019
3148 Clouds 5 1018 65 10000 2.1 120 12:22 06.12.2019
3149 Clouds 4 1019 69 10000 1.5 120 11:55 06.12.2019
3150 Clouds 3 1019 64 10000 1.5 120 11:37 06.12.2019
3151 Clear 4 1019 64 10000 1.5 120 11:19 06.12.2019
3152 Clear 3 1019 69 10000 1 0 10:42 06.12.2019
3153 Clear 2 1019 49 10000 1 0 10:21 06.12.2019
3154 Clear 1 1019 80 10000 0.5 0 09:57 06.12.2019
3155 Clear -1 1019 79 10000 1 0 09:37 06.12.2019
3156 Clear -1 1019 79 10000 1 0 09:19 06.12.2019
3157 Clear -1 1019 85 10000 0.5 0 08:45 06.12.2019
3158 Clear -1 1019 79 10000 0.5 0 08:26 06.12.2019
3159 Clear -2 1019 92 10000 1 50 07:44 06.12.2019
3160 Clear -2 1019 85 10000 1 0 07:23 06.12.2019
3161 Clear -2 1019 92 10000 0.5 0 06:58 06.12.2019
3162 Clear -3 1019 100 10000 1 70 06:26 06.12.2019
3163 Clear -2 1020 100 10000 1 0 05:52 06.12.2019
3164 Clear -2 1020 100 10000 0.5 0 04:52 06.12.2019
3165 Clear -2 1020 100 10000 0.5 0 04:52 06.12.2019
3166 Clear -2 1020 92 10000 1 90 01:49 06.12.2019
3167 Clear -2 1021 92 10000 1 0 01:22 06.12.2019
3168 Clear -1 1021 100 10000 0.5 360 00:39 06.12.2019
3169 Clear -2 1021 100 10000 0.5 360 00:20 06.12.2019
3170 Clear -1 1021 92 10000 0.5 80 23:41 05.12.2019
3171 Clear -1 1021 92 10000 0.5 0 23:18 05.12.2019
3172 Clear -1 1021 92 10000 0.5 0 22:56 05.12.2019
3173 Clear -1 1021 92 10000 1 0 22:37 05.12.2019
3174 Clear -1 1021 92 10000 1 0 22:18 05.12.2019
3175 Clear -1 1021 92 10000 1 0 22:18 05.12.2019
3176 Clear -2 1022 92 10000 1 0 21:43 05.12.2019
3177 Clear -2 1022 92 10000 1 0 21:25 05.12.2019
3178 Clear -1 1022 92 10000 1 50 20:59 05.12.2019
3179 Clear -1 1022 92 10000 1 50 20:40 05.12.2019
3180 Clear -1 1022 86 10000 1 0 20:20 05.12.2019
3181 Clear -1 1022 86 10000 1 0 20:20 05.12.2019
3182 Clear -1 1022 86 10000 1 0 20:20 05.12.2019
3183 Clear -1 1022 86 10000 1 0 20:20 05.12.2019
3184 Clear -1 1022 86 10000 1.39 192 19:57 05.12.2019
3185 Clear -1 1022 86 10000 1.39 192 19:39 05.12.2019
3186 Clear -1 1022 86 10000 0.5 0 19:20 05.12.2019
3187 Clear -1 1022 80 10000 1 0 18:57 05.12.2019
3188 Clear -1 1022 80 10000 1 0 18:37 05.12.2019
3189 Clear -1 1022 66 10000 0.5 0 18:19 05.12.2019
3190 Clear -1 1022 66 10000 0.5 0 18:19 05.12.2019
3191 Clear 0 1021 66 10000 0.5 160 17:39 05.12.2019
3192 Clear 1 1021 80 10000 0.5 180 17:20 05.12.2019
3193 Clear 1 1021 80 10000 0.5 180 16:57 05.12.2019
3194 Clear 2 1021 74 10000 0.5 0 16:39 05.12.2019
3195 Clear 2 1021 74 10000 0.5 0 16:21 05.12.2019
3196 Clear 1 1021 74 10000 1.5 100 15:56 05.12.2019
3197 Clear 1 1021 74 10000 1.5 100 15:38 05.12.2019
3198 Clear 1 1021 64 10000 1 0 15:19 05.12.2019
3199 Clear 2 1021 64 10000 0.5 0 14:55 05.12.2019
3200 Clear 2 1021 64 10000 0.5 0 14:37 05.12.2019
3201 Clear 4 1021 64 10000 1 0 14:18 05.12.2019
3202 Clear 4 1021 64 10000 1 0 13:56 05.12.2019
3203 Clear 4 1022 69 10000 0.5 0 13:38 05.12.2019
3204 Clear 3 1022 74 10000 1 0 13:19 05.12.2019
3205 Clear 3 1022 74 10000 1 0 13:19 05.12.2019
3206 Clear 4 1022 74 10000 1.5 120 12:55 05.12.2019
3207 Clear 5 1022 74 10000 1.5 120 12:37 05.12.2019
3208 Clear 2 1022 80 10000 1.5 100 12:19 05.12.2019
3209 Clear 0 1022 50 10000 1.5 100 11:39 05.12.2019
3210 Clear 0 1022 86 10000 0.5 0 11:20 05.12.2019
3211 Clear -1 1022 86 10000 0.5 0 10:58 05.12.2019
3212 Clear -1 1022 86 10000 0.5 0 10:40 05.12.2019
3213 Clear 0 1022 79 10000 0.5 0 10:19 05.12.2019
3214 Clear 1 1022 86 10000 1 0 09:55 05.12.2019
3215 Clear 0 1022 86 10000 1 0 09:36 05.12.2019
3216 Clear 0 1022 100 10000 0.5 50 09:18 05.12.2019
3217 Clear -3 1022 100 10000 0.5 0 08:39 05.12.2019
3218 Clear -4 1021 100 10000 0.5 60 08:20 05.12.2019
3219 Clear -4 1021 100 10000 0.5 60 08:20 05.12.2019
3220 Clear -3 1021 100 10000 0.5 60 07:57 05.12.2019
3221 Clear -3 1021 92 10000 1 0 07:38 05.12.2019
3222 Clear -3 1021 92 10000 1.5 100 07:20 05.12.2019
3223 Clear -4 1021 100 10000 1 0 06:45 05.12.2019
3224 Clear -4 1021 100 10000 1.5 70 06:23 05.12.2019
3225 Clear -4 1021 92 10000 0.5 60 05:48 05.12.2019
3226 Clear -3 1021 92 10000 1 60 05:24 05.12.2019
3227 Clear -4 1021 92 10000 0.5 110 04:27 05.12.2019
3228 Clear -4 1021 92 10000 0.5 110 04:27 05.12.2019
3229 Clear -3 1021 92 10000 0.5 0 03:31 05.12.2019
3230 Clear -3 1020 92 10000 0.5 0 02:40 05.12.2019
3231 Clear -3 1020 92 10000 1.5 240 02:21 05.12.2019
3232 Clear -3 1020 86 10000 1.5 240 01:49 05.12.2019
3233 Clear -3 1020 92 10000 1 250 01:21 05.12.2019
3234 Clear -3 1019 85 10000 1 280 00:38 05.12.2019
3235 Clear -3 1019 92 10000 0.5 0 00:19 05.12.2019
3236 Clear -2 1019 86 10000 0.5 240 23:45 04.12.2019
3237 Clear -2 1019 92 10000 0.5 200 23:22 04.12.2019
3238 Clear -2 1019 92 10000 0.5 200 22:57 04.12.2019
3239 Clear -2 1019 92 10000 0.5 0 22:37 04.12.2019
3240 Clear -2 1020 86 10000 0.5 0 22:19 04.12.2019
3241 Clear -2 1020 86 10000 0.5 0 21:56 04.12.2019
3242 Clear -1 1020 86 10000 0.5 0 21:37 04.12.2019
3243 Clear -1 1020 92 10000 2.1 260 21:18 04.12.2019
3244 Clear -1 1020 86 10000 1.5 210 20:56 04.12.2019
3245 Clear -1 1020 86 10000 1.5 210 20:38 04.12.2019
3246 Clear -1 1020 80 10000 1 180 20:19 04.12.2019
3247 Clear 0 1020 86 10000 1.5 180 19:42 04.12.2019
3248 Clear 0 1019 86 10000 1 0 19:24 04.12.2019
3249 Clear 0 1019 86 10000 1 0 18:59 04.12.2019
3250 Clear -1 1019 86 10000 1.5 140 18:41 04.12.2019
3251 Clear -1 1019 72 10000 1.5 110 18:22 04.12.2019
3252 Clear -1 1019 72 10000 1.5 110 18:22 04.12.2019
3253 Clear 0 1019 80 10000 1 80 17:58 04.12.2019
3254 Clear 0 1019 80 10000 1 80 17:58 04.12.2019
3255 Clear 0 1019 80 10000 1 80 17:39 04.12.2019
3256 Clear 2 1019 74 10000 3.6 90 17:19 04.12.2019
3257 Clear 2 1019 69 10000 4.1 80 16:56 04.12.2019
3258 Clear 2 1019 69 10000 4.1 80 16:38 04.12.2019
3259 Clear 2 1019 69 10000 4.1 80 16:38 04.12.2019
3260 Clear 3 1019 74 10000 3.1 100 16:18 04.12.2019
3261 Clear 1 1019 69 10000 3.1 90 15:54 04.12.2019
3262 Clear 1 1019 69 10000 3.1 90 15:36 04.12.2019
3263 Clear 2 1019 64 10000 3.6 80 15:18 04.12.2019
3264 Clear 2 1019 60 10000 4.1 80 14:41 04.12.2019
3265 Clear 5 1019 60 10000 3.6 70 14:23 04.12.2019
3266 Clear 5 1019 60 10000 3.6 70 13:57 04.12.2019
3267 Clear 4 1020 64 10000 3.1 70 13:37 04.12.2019
3268 Clear 4 1020 64 10000 1.5 70 13:19 04.12.2019
3269 Clear 5 1020 69 10000 1.5 130 12:44 04.12.2019
3270 Clear 5 1021 69 10000 1.5 120 12:24 04.12.2019
3271 Clear 3 1021 74 10000 2.1 70 11:55 04.12.2019
3272 Clear 3 1021 74 10000 2.1 70 11:36 04.12.2019
3273 Clear 2 1022 69 10000 1 0 11:18 04.12.2019
3274 Clear 0 1022 74 10000 0.5 0 10:42 04.12.2019
3275 Clear 0 1022 72 10000 0.5 160 10:22 04.12.2019
3276 Clear 0 1022 72 10000 0.5 160 09:55 04.12.2019
3277 Clear 1 1022 86 10000 1.5 350 09:37 04.12.2019
3278 Clear 1 1022 79 10000 1.5 270 09:18 04.12.2019
3279 Clear 0 1022 85 10000 1 0 08:39 04.12.2019
3280 Clear -3 1022 79 10000 1.5 320 08:20 04.12.2019
3281 Clear -2 1022 80 10000 1 0 07:48 04.12.2019
3282 Clear -3 1022 80 10000 1 0 07:30 04.12.2019
3283 Clear -3 1022 85 10000 1 280 06:36 04.12.2019
3284 Clear -3 1022 86 10000 1 0 05:48 04.12.2019
3285 Clear -3 1022 86 10000 1 0 05:29 04.12.2019
3286 Clear -2 1023 85 10000 1 310 04:25 04.12.2019
3287 Clear -2 1023 85 10000 1 270 02:55 04.12.2019
3288 Clear -2 1025 85 10000 1.5 270 00:53 04.12.2019
3289 Clear -2 1025 85 10000 1.5 290 00:28 04.12.2019
3290 Clear -2 1025 85 10000 1.5 290 23:59 03.12.2019
3291 Clear -2 1025 86 10000 0.5 0 23:41 03.12.2019
3292 Clear -2 1025 86 10000 0.5 0 23:19 03.12.2019
3293 Clear -1 1026 80 10000 0.5 0 22:41 03.12.2019
3294 Clear -1 1026 80 10000 0.5 0 22:41 03.12.2019
3295 Clear -1 1026 80 10000 1 80 22:19 03.12.2019
3296 Clear -1 1026 80 10000 1 80 21:59 03.12.2019
3297 Clear -1 1026 80 10000 1 0 21:39 03.12.2019
3298 Clear -1 1026 80 10000 1.5 70 21:19 03.12.2019
3299 Clear -1 1026 87 10000 2.1 80 20:58 03.12.2019
3300 Clear -1 1026 87 10000 2.1 80 20:40 03.12.2019
3301 Clear -1 1026 86 10000 0.5 110 20:19 03.12.2019
3302 Clear -1 1026 69 10000 0.5 0 19:55 03.12.2019
3303 Clear -1 1026 86 10000 0.5 110 19:55 03.12.2019
3304 Clear -1 1026 69 10000 0.5 0 19:37 03.12.2019
3305 Clear 0 1026 64 10000 1.5 50 19:19 03.12.2019
3306 Clear 0 1026 64 10000 1.5 50 18:57 03.12.2019
3307 Clear 0 1026 69 10000 1.5 30 18:39 03.12.2019
3308 Clear 0 1026 69 10000 1 70 18:21 03.12.2019
3309 Clear 0 1026 74 10000 1 0 17:56 03.12.2019
3310 Clear 1 1026 74 10000 1 0 17:38 03.12.2019
3311 -273 0 0 0 0 0 17:38 03.12.2019
3312 Clear 2 1026 69 10000 1 70 17:18 03.12.2019
3313 Clear 2 1026 69 10000 1 70 17:18 03.12.2019
3314 Clear 2 1026 69 10000 0.5 0 16:57 03.12.2019
3315 Clear 3 1026 69 10000 0.5 0 16:38 03.12.2019
3316 Clear 3 1026 65 10000 1 0 16:20 03.12.2019
3317 -273 0 0 0 0 0 15:55 03.12.2019
3318 Clear 5 1026 65 10000 2.1 90 15:36 03.12.2019
3319 Clear 5 1026 60 10000 1.5 80 15:18 03.12.2019
3320 Clouds 4 1026 65 10000 1 0 14:42 03.12.2019
3321 Clouds 5 1027 65 10000 1 0 14:20 03.12.2019
3322 Clear 5 1027 65 10000 1.5 60 13:56 03.12.2019
3323 Clear 5 1027 65 10000 1.5 60 13:37 03.12.2019
3324 Clear 5 1027 69 10000 1 0 13:18 03.12.2019
3325 Clear 5 1028 69 10000 1 0 12:41 03.12.2019
3326 Clear 4 1028 69 10000 1 0 12:19 03.12.2019
3327 Clear 4 1028 74 10000 1 0 11:58 03.12.2019
3328 Clear 3 1028 74 10000 1 0 11:39 03.12.2019
3329 Clouds 2 1029 80 10000 0.5 0 11:21 03.12.2019
3330 Clouds 1 1029 86 10000 0.5 0 10:59 03.12.2019
3331 Clouds 2 1029 86 10000 0.5 0 10:41 03.12.2019
3332 Clouds 1 1029 78 10000 1 0 10:20 03.12.2019
3333 Clouds 0 1029 92 10000 0.5 0 09:46 03.12.2019
3334 Clouds -1 1029 92 10000 0.5 0 09:26 03.12.2019
3335 Clouds -2 1029 92 10000 0.5 0 08:59 03.12.2019
3336 Clouds -2 1029 92 10000 0.5 0 08:40 03.12.2019
3337 Clouds -2 1028 92 10000 0.89 155 08:22 03.12.2019
3338 Clouds -2 1028 92 10000 0.5 130 07:54 03.12.2019
3339 Clouds -2 1028 92 10000 1.5 150 07:31 03.12.2019
3340 Clouds -2 1028 92 10000 1.5 150 06:59 03.12.2019
3341 Clouds -1 1028 92 10000 1 0 06:23 03.12.2019
3342 Clouds -1 1028 92 10000 1 0 05:58 03.12.2019
3343 Clouds -1 1027 92 10000 0.5 0 04:49 03.12.2019
3344 Clouds 0 1028 88 10000 1 0 03:39 03.12.2019
3345 Clouds 0 1028 88 10000 1 0 03:19 03.12.2019
3346 Clouds 0 1028 86 10000 1 0 02:47 03.12.2019
3347 Clouds 0 1028 86 10000 1 0 02:26 03.12.2019
3348 Clouds 0 1027 86 10000 0.5 0 01:42 03.12.2019
3349 Clouds 0 1028 86 10000 0.5 0 01:23 03.12.2019
3350 Snow 0 1028 86 10000 1 150 00:55 03.12.2019
3351 Snow 0 1028 86 10000 1 150 00:37 03.12.2019
3352 Snow 0 1028 80 10000 0.5 0 00:18 03.12.2019
3353 Snow 1 1028 80 10000 1 0 23:42 02.12.2019
3354 Clouds 1 1028 78 10000 0.5 0 23:19 02.12.2019
3355 Clouds 1 1028 78 10000 0.5 0 23:19 02.12.2019
3356 Clouds 1 1028 74 10000 0.5 0 22:41 02.12.2019
3357 Clouds 1 1027 74 10000 0.5 0 22:22 02.12.2019
3358 Clouds 0 1027 74 10000 0.5 0 21:58 02.12.2019
3359 Clouds 0 1027 74 10000 0.5 0 21:37 02.12.2019
3360 Clouds 0 1027 78 10000 1 0 21:19 02.12.2019
3361 Clouds 0 1027 78 10000 1 0 20:56 02.12.2019
3362 Clouds 0 1027 74 10000 1.5 0 20:38 02.12.2019
3363 Clouds 1 1027 74 10000 2.6 290 20:19 02.12.2019
3364 Clouds 1 1027 74 10000 0.5 0 19:43 02.12.2019
3365 Clouds 0 1026 79 10000 1 200 19:23 02.12.2019
3366 -273 0 0 0 0 0 19:23 02.12.2019
3367 Clouds 1 1026 79 10000 1 200 18:59 02.12.2019
3368 Clouds 0 1026 79 10000 1 200 18:59 02.12.2019
3369 Clouds 0 1026 69 10000 2.1 280 18:41 02.12.2019
3370 Clouds 0 1026 69 10000 2.1 320 18:19 02.12.2019
3371 Clouds 1 1026 69 10000 2.1 320 17:58 02.12.2019
3372 Clouds 1 1026 64 10000 1 340 17:40 02.12.2019
3373 Clouds 1 1026 64 10000 1.5 340 17:20 02.12.2019
3374 Clouds 2 1026 69 10000 2.6 360 16:42 02.12.2019
3375 Clouds 2 1026 64 10000 2.6 350 16:19 02.12.2019
3376 Clouds 2 1025 59 10000 2.6 360 15:59 02.12.2019
3377 Clouds 2 1025 59 10000 2.6 360 15:40 02.12.2019
3378 Clouds 2 1025 60 10000 2.6 10 15:22 02.12.2019
3379 Clouds 3 1025 60 10000 2.6 10 14:59 02.12.2019
3380 Clouds 3 1025 60 10000 2.6 20 14:39 02.12.2019
3381 Clouds 3 1025 60 10000 3.1 10 14:20 02.12.2019
3382 Clouds 3 1025 60 10000 3.1 10 14:20 02.12.2019
3383 Clouds 3 1025 60 10000 3.1 10 14:20 02.12.2019
3384 Clouds 3 1025 60 10000 3.1 10 13:58 02.12.2019
3385 Clouds 3 1025 60 10000 3.1 10 13:39 02.12.2019
3386 Clouds 3 1025 64 10000 2.6 30 13:20 02.12.2019
3387 Clouds 3 1025 64 10000 2.6 30 12:57 02.12.2019
3388 Clouds 3 1025 69 10000 2.6 20 12:37 02.12.2019
3389 Clouds 3 1025 69 10000 2.6 360 12:19 02.12.2019
3390 Clouds 2 1025 80 10000 2.1 360 11:56 02.12.2019
3391 Clouds 2 1025 80 10000 2.1 360 11:37 02.12.2019
3392 Clouds 1 1025 80 10000 1.5 360 11:18 02.12.2019
3393 Clouds 1 1025 80 10000 1.5 360 10:55 02.12.2019
3394 Clouds 1 1024 86 10000 1.5 330 10:36 02.12.2019
3395 Clouds 1 1024 80 10000 2.1 330 10:18 02.12.2019
3396 Clouds 0 1023 82 10000 1 0 09:40 02.12.2019
3397 Clouds 0 1023 92 10000 1 0 09:19 02.12.2019
3398 Clouds 0 1023 92 10000 2.6 310 08:56 02.12.2019
3399 Clouds 0 1023 92 10000 2.6 310 08:38 02.12.2019
3400 Clouds -1 1022 92 10000 2.6 310 08:20 02.12.2019
3401 Clouds 0 1021 87 10000 2.1 300 07:42 02.12.2019
3402 Clouds 0 1021 80 10000 2.1 310 07:21 02.12.2019
3403 Clouds 0 1021 80 10000 1.5 300 06:56 02.12.2019
3404 Clouds 0 1021 80 10000 1.5 300 06:37 02.12.2019
3405 Clouds 1 1020 80 10000 2.6 320 05:25 02.12.2019
3406 Clouds 1 1019 80 10000 2.6 320 04:21 02.12.2019
3407 Clouds 1 1018 86 10000 1.5 320 02:53 02.12.2019
3408 Clouds 1 1018 86 10000 1.5 320 02:26 02.12.2019
3409 Clouds 1 1018 86 10000 2.6 310 01:25 02.12.2019
3410 Clouds 1 1018 86 10000 2.6 310 00:57 02.12.2019
3411 Clouds 1 1018 86 10000 3.1 290 00:25 02.12.2019
3412 Clouds 1 1017 86 10000 2.6 300 23:54 01.12.2019
3413 Clouds 1 1017 86 10000 2.6 300 23:36 01.12.2019
3414 Clouds 1 1017 86 10000 1 0 23:18 01.12.2019
3415 Clouds 1 1016 86 10000 1.5 310 22:54 01.12.2019
3416 Clouds 1 1016 86 10000 1.5 310 22:36 01.12.2019
3417 Clouds 1 1016 86 10000 1.5 320 22:18 01.12.2019
3418 Clouds 1 1016 86 10000 1.5 300 21:54 01.12.2019
3419 Clouds 1 1016 86 10000 1.5 300 21:36 01.12.2019
3420 Clouds 1 1016 86 10000 0.5 0 21:18 01.12.2019
3421 Clouds 1 1016 80 10000 0.5 0 20:54 01.12.2019
3422 Clouds 1 1016 80 10000 0.5 0 20:36 01.12.2019
3423 Clouds 1 1015 86 10000 1 0 20:18 01.12.2019
3424 Clouds 2 1015 80 10000 1 0 19:40 01.12.2019
3425 Clouds 2 1015 80 10000 1.5 60 19:22 01.12.2019
3426 Clouds 2 1015 80 10000 1.5 50 18:58 01.12.2019
3427 Clouds 2 1015 80 10000 1.5 60 18:58 01.12.2019
3428 Clouds 2 1015 80 10000 1.5 50 18:39 01.12.2019
3429 Clouds 2 1015 80 10000 1.5 70 18:20 01.12.2019
3430 Clouds 2 1015 80 10000 1.5 70 18:00 01.12.2019
3431 Clouds 2 1015 80 10000 0.5 0 17:41 01.12.2019
3432 Clouds 2 1015 80 10000 1.5 80 17:23 01.12.2019
3433 Clouds 2 1015 80 10000 1.5 80 17:23 01.12.2019
3434 Clouds 2 1015 80 10000 1.5 80 17:23 01.12.2019
3435 Clouds 2 1015 80 10000 1.5 90 16:57 01.12.2019
3436 Clouds 2 1015 80 10000 1.5 90 16:39 01.12.2019
3437 Clouds 2 1015 80 10000 1.12 100 16:20 01.12.2019
3438 Clouds 3 1015 80 10000 1.5 80 15:50 01.12.2019
3439 Clouds 3 1015 80 10000 1.5 80 15:31 01.12.2019
3440 Clouds 3 1015 80 10000 2.6 70 14:44 01.12.2019
3441 Clouds 3 1015 80 10000 1.5 110 14:20 01.12.2019
3442 Clouds 3 1015 80 10000 2.6 70 13:59 01.12.2019
3443 Clouds 3 1015 80 10000 2.6 70 13:39 01.12.2019
3444 Clouds 2 1015 80 10000 2.6 80 13:20 01.12.2019
3445 Clouds 2 1015 80 10000 3.1 60 12:44 01.12.2019
3446 Clouds 2 1015 80 10000 3.1 70 11:59 01.12.2019
3447 Clouds 2 1015 86 10000 3.1 80 11:40 01.12.2019
3448 Clouds 1 1015 86 10000 2.1 80 11:22 01.12.2019
3449 Clouds 1 1015 80 10000 2.6 80 10:44 01.12.2019
3450 Clouds 1 1015 80 10000 2.1 90 10:22 01.12.2019
3451 Clouds 1 1015 80 10000 3.1 70 09:59 01.12.2019
3452 Clouds 1 1015 80 10000 3.1 70 09:40 01.12.2019
3453 Clouds 1 1015 80 10000 2.6 50 09:20 01.12.2019
3454 Clouds 1 1015 80 10000 2.6 80 08:48 01.12.2019
3455 Clouds 1 1015 74 10000 3.6 80 08:21 01.12.2019
3456 Clouds 1 1015 78 10000 3.6 80 07:52 01.12.2019
3457 Clouds 0 1015 78 10000 3.6 80 07:31 01.12.2019
3458 Clouds 0 1015 78 10000 1.5 70 06:57 01.12.2019
3459 Clouds 0 1016 78 10000 1 0 06:35 01.12.2019
3460 Clouds 0 1017 78 10000 2.1 60 05:49 01.12.2019
3461 Clouds 0 1017 86 10000 0.5 0 04:52 01.12.2019
3462 Clouds 0 1018 86 10000 1 0 03:39 01.12.2019
3463 Clouds 0 1018 86 10000 0.5 250 02:38 01.12.2019
3464 Clouds 0 1018 86 10000 1.5 50 02:19 01.12.2019
3465 Clouds 0 1019 86 10000 0.5 0 01:52 01.12.2019
3466 Clouds 0 1019 86 10000 0.5 0 01:26 01.12.2019
3467 Clouds 0 1019 79 10000 1 0 00:43 01.12.2019
3468 Clouds 0 1020 86 10000 1.5 120 00:24 01.12.2019
3469 Clouds 0 1019 86 10000 1.5 0 23:44 30.11.2019
3470 Clouds 0 1019 80 10000 2.1 70 23:24 30.11.2019
3471 Clouds 0 1019 80 10000 2.1 70 22:58 30.11.2019
3472 Clouds 0 1020 80 10000 1 0 22:39 30.11.2019
3473 Clouds 0 1021 81 10000 1 80 22:20 30.11.2019
3474 Clouds 0 1021 81 10000 1 0 21:47 30.11.2019
3475 Clouds 0 1021 81 10000 1 0 21:28 30.11.2019
3476 Clouds 0 1021 81 10000 1 0 20:58 30.11.2019
3477 Clear 0 1021 86 10000 2.1 70 20:39 30.11.2019
3478 Clear 0 1021 80 10000 0.5 0 20:19 30.11.2019
3479 Clear 0 1021 80 10000 2.6 80 19:56 30.11.2019
3480 Clear 0 1021 80 10000 2.6 80 19:38 30.11.2019
3481 Clear 1 1022 80 10000 2.1 90 19:20 30.11.2019
3482 Clear 1 1022 80 10000 2.1 90 18:58 30.11.2019
3483 Clear 1 1021 80 10000 2.6 90 18:38 30.11.2019
3484 Clouds 2 1021 86 10000 2.6 90 18:20 30.11.2019
3485 Clouds 2 1021 86 10000 2.6 90 17:58 30.11.2019
3486 Clouds 2 1021 80 10000 2.1 80 17:39 30.11.2019
3487 Clouds 2 1021 80 10000 2.1 90 17:21 30.11.2019
3488 Clouds 3 1021 80 10000 2.1 90 16:58 30.11.2019
3489 Clouds 3 1022 74 10000 2.1 90 16:40 30.11.2019
3490 Clouds 4 1021 72 10000 2.6 90 16:20 30.11.2019
3491 Clouds 5 1022 80 10000 2.1 90 15:42 30.11.2019
3492 Clouds 5 1022 80 10000 2.1 90 15:20 30.11.2019
3493 Clouds 5 1022 80 10000 2.1 90 14:58 30.11.2019
3494 Clouds 5 1022 75 10000 2.6 70 14:38 30.11.2019
3495 Clouds 5 1022 66 10000 1 0 14:20 30.11.2019
3496 Clouds 5 1022 66 10000 1 0 13:58 30.11.2019
3497 Clouds 5 1022 75 10000 1 0 13:40 30.11.2019
3498 Clouds 5 1023 75 10000 1 0 13:22 30.11.2019
3499 Clouds 5 1023 75 10000 1 0 12:47 30.11.2019
3500 Clouds 5 1023 80 10000 1 0 12:29 30.11.2019
3501 Clouds 5 1023 80 10000 1 0 11:59 30.11.2019
3502 Clouds 4 1023 75 10000 0.5 0 11:41 30.11.2019
3503 Clouds 4 1023 80 10000 0.5 0 11:19 30.11.2019
3504 Clouds 3 1023 86 10000 0.5 0 10:54 30.11.2019
3505 Clouds 3 1023 86 10000 0.5 0 10:36 30.11.2019
3506 Clouds 3 1023 86 10000 0.5 0 10:18 30.11.2019
3507 Clouds 3 1023 93 10000 0.5 0 09:42 30.11.2019
3508 Clouds 2 1023 93 10000 1 0 09:20 30.11.2019
3509 Clear 2 1022 79 10000 1.5 190 08:42 30.11.2019
3510 Clouds 2 1022 88 10000 0.5 110 08:19 30.11.2019
3511 Clouds 2 1022 88 10000 0.5 0 07:44 30.11.2019
3512 Clouds 2 1022 88 10000 1 0 07:26 30.11.2019
3513 Clouds 2 1022 93 10000 1 0 06:49 30.11.2019
3514 Clouds 2 1022 93 10000 1 0 06:28 30.11.2019
3515 Clouds 2 1022 93 10000 1 0 06:28 30.11.2019
3516 Clouds 2 1022 93 10000 1 150 05:40 30.11.2019
3517 Clouds 2 1021 85 10000 1.5 180 03:44 30.11.2019
3518 Clouds 2 1020 85 10000 1 0 02:39 30.11.2019
3519 Clouds 2 1020 81 10000 0.5 0 02:20 30.11.2019
3520 Clear 2 1020 84 10000 2.6 260 01:25 30.11.2019
3521 Clear 2 1020 84 10000 3.6 270 00:49 30.11.2019
3522 Clear 2 1019 86 10000 4.1 270 00:30 30.11.2019
3523 Clouds 2 1019 86 10000 3.1 260 23:59 29.11.2019
3524 Clouds 2 1019 86 10000 3.1 260 23:40 29.11.2019
3525 Clouds 2 1019 86 10000 2.6 260 23:21 29.11.2019
3526 Clouds 2 1018 93 10000 3.6 270 22:44 29.11.2019
3527 Clouds 3 1018 86 10000 3.6 270 22:25 29.11.2019
3528 Clouds 3 1018 86 10000 3.6 270 22:25 29.11.2019
3529 Clouds 3 1018 86 10000 3.6 280 21:44 29.11.2019
3530 Clouds 2 1017 80 10000 4.6 280 21:24 29.11.2019
3531 Clouds 3 1017 86 10000 3.6 280 20:58 29.11.2019
3532 Clouds 3 1017 86 10000 3.6 280 20:38 29.11.2019
3533 Clouds 3 1017 86 10000 3.6 260 20:19 29.11.2019
3534 Clouds 3 1016 86 10000 2.6 280 19:58 29.11.2019
3535 Clouds 3 1016 86 10000 2.6 280 19:39 29.11.2019
3536 Clouds 3 1016 86 10000 2.6 260 19:20 29.11.2019
3537 Clouds 3 1015 86 10000 3.6 260 18:58 29.11.2019
3538 Clouds 3 1015 86 10000 3.6 260 18:39 29.11.2019
3539 Clouds 3 1015 86 10000 2.6 260 18:20 29.11.2019
3540 Clouds 4 1014 86 10000 2.1 250 17:44 29.11.2019
3541 Clouds 4 1014 86 10000 3.1 270 17:25 29.11.2019
3542 Rain 4 1013 86 10000 4.1 290 16:58 29.11.2019
3543 Rain 4 1013 86 10000 4.1 290 16:39 29.11.2019
3544 Rain 4 1013 93 10000 4.1 310 16:19 29.11.2019
3545 Rain 5 1012 93 10000 3.6 320 15:41 29.11.2019
3546 Rain 5 1012 86 10000 5.7 340 15:23 29.11.2019
3547 Rain 5 1012 86 10000 5.7 340 15:23 29.11.2019
3548 Clouds 5 1011 93 10000 4.6 330 14:57 29.11.2019
3549 Clouds 5 1011 93 10000 4.6 330 14:38 29.11.2019
3550 Rain 6 1010 93 10000 4.1 310 14:20 29.11.2019
3551 Rain 6 1010 93 10000 5.7 320 13:55 29.11.2019
3552 Rain 6 1010 93 10000 5.7 320 13:36 29.11.2019
3553 Rain 6 1010 93 10000 7.2 320 13:18 29.11.2019
3554 Rain 6 1009 93 9000 8.7 300 12:40 29.11.2019
3555 Rain 7 1008 87 6000 5.7 340 12:22 29.11.2019
3556 Rain 7 1008 87 10000 2.6 210 11:55 29.11.2019
3557 Rain 8 1008 87 10000 2.6 210 11:36 29.11.2019
3558 Clouds 8 1008 87 10000 3.1 0 11:18 29.11.2019
3559 Clouds 8 1008 87 10000 3.1 0 10:56 29.11.2019
3560 Clouds 8 1008 81 10000 4.6 240 10:37 29.11.2019
3561 Clouds 8 1007 87 10000 4.1 230 10:19 29.11.2019
3562 Clouds 8 1007 87 10000 3.1 230 09:56 29.11.2019
3563 Clouds 8 1007 87 10000 3.1 230 09:37 29.11.2019
3564 Clouds 7 1006 87 10000 3.1 230 09:19 29.11.2019
3565 Rain 7 1006 93 10000 3.6 250 08:40 29.11.2019
3566 Rain 8 1006 93 10000 3.6 260 08:22 29.11.2019
3567 Rain 8 1006 93 10000 3.6 260 07:59 29.11.2019
3568 Rain 8 1005 93 10000 2.6 240 07:40 29.11.2019
3569 Rain 7 1005 93 10000 2.6 220 07:22 29.11.2019
3570 Clouds 8 1004 93 10000 4.1 210 06:43 29.11.2019
3571 Clouds 8 1004 93 10000 4.1 220 05:48 29.11.2019
3572 Clouds 8 1004 81 10000 4.1 220 05:26 29.11.2019
3573 Clouds 8 1004 81 10000 3.1 210 04:35 29.11.2019
3574 Clouds 8 1004 81 10000 2.6 210 03:23 29.11.2019
3575 Clouds 8 1003 81 10000 3.1 200 02:42 29.11.2019
3576 Clouds 8 1003 81 10000 2.1 210 02:20 29.11.2019
3577 Clouds 8 1003 81 10000 3.6 220 01:27 29.11.2019
3578 Clouds 8 1003 81 10000 3.1 210 00:51 29.11.2019
3579 Clouds 8 1003 81 10000 1.5 220 00:22 29.11.2019
3580 Clouds 8 1003 81 10000 1.5 220 23:58 28.11.2019
3581 Clouds 8 1003 87 10000 3.1 200 23:39 28.11.2019
3582 Clouds 8 1003 87 10000 3.6 200 23:20 28.11.2019
3583 Clouds 8 1003 87 10000 3.6 200 23:20 28.11.2019
3584 Clouds 8 1002 81 10000 4.1 200 22:56 28.11.2019
3585 Clouds 8 1002 81 10000 4.1 200 22:37 28.11.2019
3586 Clouds 8 1002 81 10000 5.1 210 22:18 28.11.2019
3587 Clouds 8 1002 81 10000 4.6 230 21:42 28.11.2019
3588 Clouds 8 1002 81 10000 3.6 210 21:21 28.11.2019
3589 Clouds 8 1001 81 10000 3.6 220 20:59 28.11.2019
3590 Clouds 8 1001 81 10000 3.6 220 20:41 28.11.2019
3591 Clouds 8 1002 76 10000 5.7 230 20:22 28.11.2019
3592 Clouds 8 1002 76 10000 5.7 230 19:57 28.11.2019
3593 Clouds 8 1001 76 10000 3.6 220 19:38 28.11.2019
3594 Clouds 8 1001 81 10000 4.1 210 19:19 28.11.2019
3595 Clouds 8 1001 81 10000 4.1 210 18:58 28.11.2019
3596 Clouds 8 1001 81 10000 4.6 210 18:39 28.11.2019
3597 Rain 9 1001 76 10000 4.1 210 18:18 28.11.2019
3598 Rain 9 1001 81 10000 4.1 200 17:59 28.11.2019
3599 Rain 9 1001 81 10000 4.1 200 17:40 28.11.2019
3600 Rain 9 1001 81 10000 3.1 230 17:21 28.11.2019
3601 Rain 9 1000 76 10000 4.1 230 16:55 28.11.2019
3602 Rain 9 1000 76 10000 4.1 230 16:37 28.11.2019
3603 Rain 9 1000 71 10000 4.1 220 16:18 28.11.2019
3604 Clouds 10 999 71 10000 5.7 230 15:41 28.11.2019
3605 Clouds 10 999 71 10000 4.6 230 15:20 28.11.2019
3606 Clouds 10 999 71 10000 4.6 230 14:58 28.11.2019
3607 Rain 10 999 76 10000 4.1 220 14:40 28.11.2019
3608 Rain 10 1000 76 10000 5.1 220 14:21 28.11.2019
3609 Rain 10 999 76 10000 6.2 210 13:56 28.11.2019
3610 Rain 10 999 76 10000 6.2 210 13:38 28.11.2019
3611 Rain 10 1000 76 10000 5.1 220 13:19 28.11.2019
3612 Rain 11 999 76 10000 5.1 210 12:42 28.11.2019
3613 Rain 10 1000 76 10000 4.6 200 12:23 28.11.2019
3614 Rain 10 1000 76 10000 4.6 210 11:57 28.11.2019
3615 Rain 10 1000 76 10000 4.6 200 11:57 28.11.2019
3616 Rain 10 1000 76 10000 4.6 210 11:39 28.11.2019
3617 Rain 10 1000 76 10000 5.1 210 11:20 28.11.2019
3618 Clouds 10 1000 76 10000 4.1 210 10:43 28.11.2019
3619 Clouds 9 999 71 10000 5.1 210 10:23 28.11.2019
3620 Clouds 9 999 76 10000 4.1 200 09:59 28.11.2019
3621 Clouds 9 999 76 10000 4.1 200 09:40 28.11.2019
3622 Clouds 9 999 81 10000 3.1 200 09:21 28.11.2019
3623 Clouds 9 999 81 10000 2.6 210 08:55 28.11.2019
3624 Clouds 9 999 81 10000 2.6 210 08:36 28.11.2019
3625 Rain 8 999 81 10000 3.1 200 08:18 28.11.2019
3626 Rain 8 999 81 10000 2.6 220 07:41 28.11.2019
3627 Rain 8 999 81 10000 2.6 220 07:41 28.11.2019
3628 Rain 8 999 93 10000 1.5 300 07:23 28.11.2019
3629 Rain 9 998 87 10000 1.5 210 06:44 28.11.2019
3630 Rain 9 998 87 10000 1.5 210 06:44 28.11.2019
3631 Rain 9 998 81 10000 3.1 190 06:22 28.11.2019
3632 Rain 9 998 76 10000 2.1 200 05:46 28.11.2019
3633 Clouds 9 998 71 10000 3.1 230 04:58 28.11.2019
3634 Clouds 10 998 71 10000 3.1 200 02:37 28.11.2019
3635 Clouds 9 998 71 10000 3.1 190 01:40 28.11.2019
3636 Clouds 9 998 71 10000 2.1 190 00:44 28.11.2019
3637 Clouds 10 999 71 10000 3.1 200 00:22 28.11.2019
3638 Clouds 10 999 81 10000 1.5 190 23:55 27.11.2019
3639 Clouds 10 999 81 10000 1.5 190 23:36 27.11.2019
3640 Clouds 10 999 76 10000 4.1 220 23:18 27.11.2019
3641 Clouds 10 998 66 10000 4.6 190 22:39 27.11.2019
3642 Rain 10 999 66 10000 4.1 190 22:20 27.11.2019
3643 Rain 10 999 66 10000 4.1 190 21:56 27.11.2019
3644 Clouds 10 998 76 10000 5.1 200 21:38 27.11.2019
3645 Clouds 10 998 66 10000 5.7 200 21:19 27.11.2019
3646 Clouds 10 998 66 10000 5.7 200 21:19 27.11.2019
3647 Clouds 10 998 66 10000 4.6 200 20:59 27.11.2019
3648 Clouds 10 998 66 10000 4.6 200 20:39 27.11.2019
3649 Rain 11 998 66 10000 5.1 200 20:21 27.11.2019
3650 Rain 11 998 71 10000 5.1 200 19:58 27.11.2019
3651 Rain 11 998 71 10000 5.1 200 19:39 27.11.2019
3652 Clouds 11 998 66 10000 5.1 200 19:21 27.11.2019
3653 Clouds 10 998 66 10000 5.1 200 18:59 27.11.2019
3654 Clouds 10 997 66 10000 6.2 190 18:37 27.11.2019
3655 Clouds 10 997 66 10000 5.1 190 18:19 27.11.2019
3656 Clouds 10 997 66 10000 4.6 200 17:58 27.11.2019
3657 Clouds 10 997 66 10000 4.6 200 17:40 27.11.2019
3658 Clouds 11 997 62 10000 5.1 200 17:20 27.11.2019
3659 Clouds 11 997 62 10000 4.6 200 16:56 27.11.2019
3660 Clouds 11 997 62 10000 4.6 200 16:38 27.11.2019
3661 Clear 12 997 62 10000 3.6 200 16:20 27.11.2019
3662 Clear 12 997 62 10000 3.6 200 16:20 27.11.2019
3663 Clear 11 997 62 10000 3.6 200 15:57 27.11.2019
3664 Clouds 12 997 66 10000 3.6 200 15:38 27.11.2019
3665 Clouds 12 997 62 10000 3.6 200 15:20 27.11.2019
3666 Clouds 12 997 62 10000 3.6 210 14:57 27.11.2019
3667 Clouds 12 997 62 10000 3.6 210 14:39 27.11.2019
3668 Clouds 12 997 58 10000 4.6 200 14:21 27.11.2019
3669 Clouds 12 997 58 10000 4.6 200 13:57 27.11.2019
3670 Clouds 11 997 62 10000 4.1 200 13:38 27.11.2019
3671 Clouds 11 998 62 10000 3.6 210 13:19 27.11.2019
3672 -273 0 0 0 0 0 12:56 27.11.2019
3673 Clouds 10 998 62 10000 4.1 200 12:38 27.11.2019
3674 Clouds 10 998 66 10000 5.7 200 12:19 27.11.2019
3675 Clouds 9 998 66 10000 3.1 190 11:38 27.11.2019
3676 Clouds 9 998 76 10000 3.6 190 11:19 27.11.2019
3677 Rain 9 999 76 10000 3.6 190 10:58 27.11.2019
3678 Rain 8 999 76 10000 3.6 190 10:40 27.11.2019
3679 Rain 8 999 81 10000 2.6 160 10:22 27.11.2019
3680 Rain 8 998 76 10000 2.1 170 09:44 27.11.2019
3681 Rain 8 998 76 10000 3.1 190 09:26 27.11.2019
3682 Rain 8 998 76 10000 3.1 190 08:57 27.11.2019
3683 Rain 8 998 66 10000 4.6 220 08:38 27.11.2019
3684 Rain 7 998 93 10000 1.5 100 08:19 27.11.2019
3685 Rain 6 998 76 10000 3.1 250 07:45 27.11.2019
3686 Rain 6 998 93 10000 0.5 0 07:27 27.11.2019
3687 Rain 6 997 93 10000 1.5 190 06:47 27.11.2019
3688 Rain 6 997 93 10000 3.1 260 06:29 27.11.2019
3689 Fog 6 997 100 10000 1.5 240 05:43 27.11.2019
3690 Fog 6 996 93 10000 0.5 0 05:19 27.11.2019
3691 Fog 6 997 93 10000 1 0 04:41 27.11.2019
3692 Fog 6 999 100 10000 1 0 03:55 27.11.2019
3693 Fog 6 999 100 10000 2.6 260 03:23 27.11.2019
3694 Clouds 6 999 93 8000 1.5 0 02:54 27.11.2019
3695 Clouds 6 1001 93 4600 2.6 100 01:41 27.11.2019
3696 Clouds 6 1002 93 4500 4.6 120 00:46 27.11.2019
3697 Fog 6 1002 93 5000 0.5 0 00:26 27.11.2019
3698 Fog 6 1003 100 10000 1.5 80 23:50 26.11.2019
3699 Fog 6 1003 100 8000 0.5 0 23:28 26.11.2019
3700 Fog 6 1003 100 8000 0.5 0 22:59 26.11.2019
3701 Fog 6 1003 100 8000 0.5 0 22:39 26.11.2019
3702 Fog 6 1004 100 10000 0.5 0 22:19 26.11.2019
3703 Fog 6 1005 100 10000 0.5 0 21:58 26.11.2019
3704 Fog 6 1005 100 10000 0.5 0 21:38 26.11.2019
3705 Clouds 6 1005 100 10000 1 0 21:19 26.11.2019
3706 Clouds 6 1005 100 10000 1 0 20:55 26.11.2019
3707 Clouds 7 1005 100 10000 1 0 20:37 26.11.2019
3708 Clouds 7 1005 100 10000 1.5 100 20:19 26.11.2019
3709 Clouds 7 1005 100 10000 0.5 0 19:55 26.11.2019
3710 Clouds 7 1005 100 10000 0.5 0 19:37 26.11.2019
3711 Clouds 7 1006 100 10000 1.5 70 19:18 26.11.2019
3712 Clouds 7 1006 93 10000 1.5 80 18:56 26.11.2019
3713 Clouds 7 1006 93 10000 1.5 80 18:56 26.11.2019
3714 Clouds 7 1006 93 10000 1.5 80 18:38 26.11.2019
3715 Clouds 8 1006 93 10000 1.5 90 18:20 26.11.2019
3716 Clouds 8 1006 93 10000 1.5 90 18:20 26.11.2019
3717 Clouds 8 1006 87 10000 1 0 17:56 26.11.2019
3718 Clouds 8 1006 87 10000 1 0 17:37 26.11.2019
3719 Clouds 9 1006 93 10000 0.5 0 17:19 26.11.2019
3720 Clouds 9 1006 87 10000 1 0 16:56 26.11.2019
3721 Clouds 9 1006 87 10000 1 0 16:37 26.11.2019
3722 Clouds 10 1006 76 10000 0.5 0 16:18 26.11.2019
3723 Clouds 10 1006 76 10000 0.5 0 15:57 26.11.2019
3724 Clouds 10 1007 66 10000 1 0 15:37 26.11.2019
3725 Clouds 10 1007 62 10000 1 0 15:19 26.11.2019
3726 Clouds 10 1007 71 10000 1 0 14:45 26.11.2019
3727 Clouds 11 1007 71 10000 1 0 14:24 26.11.2019
3728 Clouds 11 1007 76 10000 1.5 70 13:56 26.11.2019
3729 Clouds 11 1007 76 10000 1.5 70 13:37 26.11.2019
3730 Clouds 11 1008 87 10000 1.5 50 13:18 26.11.2019
3731 Clouds 11 1008 87 10000 1.5 100 12:38 26.11.2019
3732 Clouds 10 1008 81 10000 1 0 12:19 26.11.2019
3733 Clouds 10 1008 87 10000 1.5 150 11:56 26.11.2019
3734 Clouds 9 1008 87 10000 1.5 150 11:38 26.11.2019
3735 Clouds 9 1009 87 10000 1.5 90 11:19 26.11.2019
3736 Clouds 8 1009 93 10000 1 80 10:57 26.11.2019
3737 Clouds 8 1009 93 10000 1 80 10:39 26.11.2019
3738 Clouds 7 1009 93 10000 0.5 0 10:20 26.11.2019
3739 Fog 7 1009 100 10000 0.5 0 09:55 26.11.2019
3740 Fog 7 1009 100 10000 0.5 0 09:37 26.11.2019
3741 Fog 6 1009 100 10000 0.5 70 09:18 26.11.2019
3742 Fog 6 1009 100 10000 0.5 110 08:42 26.11.2019
3743 Fog 5 1009 100 8000 0.5 0 08:22 26.11.2019
3744 Fog 5 1009 100 9000 1.5 70 07:44 26.11.2019
3745 Fog 5 1009 100 7000 1.5 90 07:25 26.11.2019
3746 Fog 5 1009 100 2500 1 0 06:54 26.11.2019
3747 Mist 5 1010 100 1200 1 0 06:23 26.11.2019
3748 Mist 5 1010 100 2700 1.5 130 05:41 26.11.2019
3749 Fog 4 1010 100 250 1 80 03:59 26.11.2019
3750 Fog 5 1010 100 250 0.5 0 02:26 26.11.2019
3751 Fog 5 1010 100 200 1 0 01:32 26.11.2019
3752 Fog 5 1011 100 500 1 0 00:50 26.11.2019
3753 Fog 5 1011 100 600 0.5 0 00:25 26.11.2019
3754 Rain 5 1011 93 800 0.5 0 23:40 25.11.2019
3755 Rain 5 1011 100 1800 1 0 23:21 25.11.2019
3756 Rain 5 1011 100 1800 1 0 22:58 25.11.2019
3757 Rain 5 1011 100 2200 1 0 22:38 25.11.2019
3758 Rain 5 1011 100 2300 1 0 22:18 25.11.2019
3759 Rain 5 1011 100 2300 1 0 21:58 25.11.2019
3760 Rain 5 1011 93 5000 1 160 21:39 25.11.2019
3761 Mist 5 1011 93 5000 0.5 0 21:21 25.11.2019
3762 Mist 5 1011 100 5000 1 0 20:57 25.11.2019
3763 Mist 5 1011 100 5000 1 0 20:39 25.11.2019
3764 Fog 5 1011 100 800 1.5 180 20:19 25.11.2019
3765 Mist 5 1011 93 1300 2.1 180 19:56 25.11.2019
3766 Mist 5 1011 93 1300 2.1 180 19:37 25.11.2019
3767 Mist 5 1011 93 3800 2.6 190 19:18 25.11.2019
3768 Mist 5 1011 93 2800 2.6 190 18:57 25.11.2019
3769 Mist 6 1011 93 2800 2.6 190 18:39 25.11.2019
3770 Mist 6 1010 100 4000 1 0 18:21 25.11.2019
3771 Mist 6 1010 100 4500 2.1 160 17:57 25.11.2019
3772 Mist 6 1010 100 4500 2.1 160 17:38 25.11.2019
3773 Mist 6 1010 100 4500 2.1 150 17:20 25.11.2019
3774 Mist 6 1010 100 4500 1.5 150 16:57 25.11.2019
3775 Mist 6 1010 100 4500 1.5 150 16:39 25.11.2019
3776 Mist 6 1010 100 4500 1 0 16:20 25.11.2019
3777 Mist 6 1010 100 4500 1 0 15:55 25.11.2019
3778 Mist 6 1010 100 4500 2.1 150 15:36 25.11.2019
3779 Mist 6 1010 93 4500 2.1 130 15:18 25.11.2019
3780 Mist 6 1010 100 4500 2.1 140 14:42 25.11.2019
3781 Mist 6 1010 100 5000 1 0 14:22 25.11.2019
3782 Mist 6 1010 100 5000 1 0 13:55 25.11.2019
3783 Mist 6 1010 93 5000 1 0 13:36 25.11.2019
3784 Mist 6 1010 93 5000 0.5 0 13:18 25.11.2019
3785 Mist 7 1010 93 3700 0.5 0 12:54 25.11.2019
3786 Mist 7 1010 93 3700 0.5 0 12:36 25.11.2019
3787 Mist 6 1010 100 3300 2.1 170 12:18 25.11.2019
3788 Mist 6 1010 93 2600 2.1 190 11:40 25.11.2019
3789 Mist 5 1010 93 4400 0.5 0 11:21 25.11.2019
3790 Fog 5 1010 93 6000 0.5 0 10:57 25.11.2019
3791 Fog 5 1010 93 6000 0.5 0 10:38 25.11.2019
3792 Clouds 5 1010 93 6000 1 0 10:18 25.11.2019
3793 Clouds 4 1010 100 6000 0.5 150 09:42 25.11.2019
3794 Mist 4 1010 93 5000 1 0 09:23 25.11.2019
3795 Fog 4 1010 100 6000 1 0 08:42 25.11.2019
3796 Mist 4 1010 100 5000 0.5 0 08:23 25.11.2019
3797 Mist 4 1010 100 5000 1 90 07:47 25.11.2019
3798 Clouds 3 1010 100 7000 1 70 07:29 25.11.2019
3799 Clouds 3 1010 100 7000 1 70 06:59 25.11.2019
3800 Mist 3 1010 100 5000 0.39 217 06:24 25.11.2019
3801 Mist 3 1010 100 3200 0.5 0 05:57 25.11.2019
3802 Mist 3 1009 100 2200 0.5 90 05:32 25.11.2019
3803 Fog 3 1009 100 800 0.5 0 04:48 25.11.2019
3804 Fog 2 1009 92 600 0.5 0 02:36 25.11.2019
3805 Fog 2 1009 91 200 0.5 0 01:44 25.11.2019
3806 Fog 2 1009 92 50 0.5 0 01:24 25.11.2019
3807 Fog 2 1009 92 50 0.5 0 00:59 25.11.2019
3808 Fog 2 1009 92 5000 0.5 0 00:21 25.11.2019
3809 Fog 2 1009 92 6000 0.5 230 23:45 24.11.2019
3810 Fog 2 1009 94 7000 1 0 23:21 24.11.2019
3811 Fog 2 1009 94 7000 1 0 22:58 24.11.2019
3812 Fog 3 1009 100 8000 0.5 0 22:39 24.11.2019
3813 Fog 3 1009 100 10000 0.5 0 22:20 24.11.2019
3814 Fog 2 1009 100 10000 0.5 0 21:58 24.11.2019
3815 Clouds 2 1009 100 10000 0.5 0 21:40 24.11.2019
3816 Clouds 3 1009 93 10000 0.5 0 21:20 24.11.2019
3817 Clouds 3 1009 93 10000 0.5 0 20:58 24.11.2019
3818 Clouds 3 1009 93 8000 2.1 280 20:38 24.11.2019
3819 Clouds 3 1009 93 8000 2.1 260 20:19 24.11.2019
3820 Clouds 3 1009 93 8000 2.1 260 19:56 24.11.2019
3821 Clouds 3 1009 93 9000 0.5 0 19:38 24.11.2019
3822 Clouds 3 1009 100 9000 1 0 19:20 24.11.2019
3823 Clouds 4 1008 93 9000 0.5 270 18:58 24.11.2019
3824 Clouds 4 1008 93 9000 0.5 270 18:37 24.11.2019
3825 Clouds 4 1008 93 9000 0.73 263 18:19 24.11.2019
3826 Clouds 4 1008 93 9000 0.73 263 18:19 24.11.2019
3827 Clouds 4 1008 100 8000 1 60 17:56 24.11.2019
3828 Clouds 4 1008 100 8000 1 60 17:56 24.11.2019
3829 Clouds 5 1008 93 9000 1 0 17:38 24.11.2019
3830 Clouds 5 1008 93 9000 1 0 17:19 24.11.2019
3831 Clouds 5 1008 93 9000 1 0 17:19 24.11.2019
3832 Clouds 5 1008 93 10000 1 10 16:57 24.11.2019
3833 Clouds 6 1008 93 10000 1 10 16:39 24.11.2019
3834 Clouds 6 1008 93 10000 1 0 16:20 24.11.2019
3835 Clouds 7 1007 87 10000 0.5 0 15:45 24.11.2019
3836 Clouds 7 1007 87 10000 0.5 130 15:26 24.11.2019
3837 Clouds 7 1007 87 10000 0.5 130 14:58 24.11.2019
3838 Clouds 8 1007 87 10000 0.5 0 14:39 24.11.2019
3839 Clouds 8 1007 87 10000 1 0 14:19 24.11.2019
3840 Clouds 7 1007 87 9000 1 0 13:55 24.11.2019
3841 Clouds 7 1007 87 9000 1 0 13:36 24.11.2019
3842 Clouds 7 1007 93 10000 1 0 13:18 24.11.2019
3843 Clouds 7 1006 93 10000 0.5 0 12:42 24.11.2019
3844 Clouds 6 1006 93 10000 1.5 90 12:20 24.11.2019
3845 Clouds 6 1006 87 10000 1 0 11:58 24.11.2019
3846 Clouds 6 1006 87 10000 1 0 11:37 24.11.2019
3847 Clouds 5 1006 93 10000 0.5 0 11:19 24.11.2019
3848 Clouds 5 1006 93 10000 1.59 275 10:47 24.11.2019
3849 Clouds 4 1006 93 10000 1.59 275 10:29 24.11.2019
3850 Clouds 4 1006 93 10000 1.59 275 10:29 24.11.2019
3851 Clouds 4 1006 100 10000 0.5 0 09:59 24.11.2019
3852 Clouds 3 1005 100 10000 1.5 260 09:38 24.11.2019
3853 Clouds 3 1005 93 10000 1 0 09:19 24.11.2019
3854 Clouds 3 1004 93 6000 1 90 08:56 24.11.2019
3855 Clouds 3 1005 89 10000 1 0 08:37 24.11.2019
3856 Clouds 2 1004 100 10000 1 0 08:18 24.11.2019
3857 Clouds 3 1004 93 10000 1 20 07:47 24.11.2019
3858 Clouds 3 1004 100 10000 1 0 07:20 24.11.2019
3859 Clouds 3 1004 100 10000 1 0 07:20 24.11.2019
3860 Clouds 3 1003 100 10000 2.6 280 06:26 24.11.2019
3861 Clouds 4 1002 93 10000 0.5 0 04:54 24.11.2019
3862 Clouds 4 1002 93 10000 0.5 0 04:35 24.11.2019
3863 Clouds 5 1001 93 10000 1 260 02:36 24.11.2019
3864 Clouds 5 1001 93 10000 1 300 01:55 24.11.2019
3865 Clouds 5 1000 93 10000 1 290 01:32 24.11.2019
3866 Clouds 5 1000 93 10000 0.5 250 00:50 24.11.2019
3867 Clouds 5 1000 86 10000 0.5 0 00:25 24.11.2019
3868 Clouds 5 1000 93 10000 1.5 260 23:57 23.11.2019
3869 Clouds 5 1000 93 10000 1.5 260 23:38 23.11.2019
3870 Clouds 5 1000 86 10000 1.5 280 23:20 23.11.2019
3871 Clouds 5 1000 86 10000 1.5 270 22:55 23.11.2019
3872 Clouds 5 1000 86 10000 1.5 270 22:37 23.11.2019
3873 Clouds 5 999 86 10000 2.6 280 22:19 23.11.2019
3874 Clouds 6 999 86 10000 2.6 280 21:55 23.11.2019
3875 Clouds 6 999 86 10000 3.1 290 21:36 23.11.2019
3876 Clouds 6 998 80 10000 2.6 290 21:18 23.11.2019
3877 Clouds 6 998 86 10000 1.5 290 20:38 23.11.2019
3878 Clouds 7 998 86 10000 1 0 20:20 23.11.2019
3879 Clouds 7 998 86 10000 1.5 260 19:57 23.11.2019
3880 Clouds 7 998 86 10000 1.5 260 19:38 23.11.2019
3881 Clouds 7 998 80 10000 1.5 300 19:19 23.11.2019
3882 Clouds 7 998 80 10000 1.5 300 19:19 23.11.2019
3883 Clouds 7 998 80 10000 1.5 300 19:19 23.11.2019
3884 Clouds 7 997 80 10000 1 0 18:56 23.11.2019
3885 Clouds 7 997 80 10000 1 0 18:37 23.11.2019
3886 Clouds 7 997 75 10000 0.5 0 18:19 23.11.2019
3887 Clouds 7 997 75 10000 0.5 0 18:19 23.11.2019
3888 Clouds 7 997 81 10000 0.5 0 17:43 23.11.2019
3889 Clouds 8 996 70 10000 0.5 0 17:21 23.11.2019
3890 Clouds 9 996 75 10000 1.5 80 16:57 23.11.2019
3891 Clouds 9 996 75 10000 1.5 80 16:38 23.11.2019
3892 Clouds 9 996 70 10000 3.1 80 16:20 23.11.2019
3893 Clouds 9 996 76 10000 1.5 60 15:58 23.11.2019
3894 Clouds 9 996 76 10000 1.5 60 15:39 23.11.2019
3895 Clouds 10 996 76 10000 0.5 0 15:19 23.11.2019
3896 Clouds 10 996 76 10000 0.5 0 14:57 23.11.2019
3897 Clouds 10 996 70 10000 1.5 300 14:38 23.11.2019
3898 Clouds 10 996 70 10000 2.1 300 14:20 23.11.2019
3899 Clouds 10 996 76 10000 2.1 320 13:44 23.11.2019
3900 Clouds 9 996 75 10000 2.1 320 13:22 23.11.2019
3901 Clouds 9 996 75 10000 1.5 320 12:59 23.11.2019
3902 Clouds 9 996 75 10000 1.5 320 12:40 23.11.2019
3903 Clouds 9 996 70 10000 1.5 310 12:22 23.11.2019
3904 Clouds 8 996 70 10000 1.5 330 11:43 23.11.2019
3905 Clouds 7 997 75 10000 0.5 0 11:21 23.11.2019
3906 Clouds 6 997 80 10000 1.5 350 10:45 23.11.2019
3907 Clouds 5 997 80 10000 0.5 0 10:22 23.11.2019
3908 Clouds 4 997 86 10000 0.5 0 09:44 23.11.2019
3909 Clouds 4 997 75 10000 1 0 09:21 23.11.2019
3910 Clouds 3 997 75 10000 1.5 70 08:59 23.11.2019
3911 Clouds 3 997 73 10000 1.5 70 08:40 23.11.2019
3912 Clouds 2 998 86 10000 0.5 0 08:18 23.11.2019
3913 Clouds 2 998 86 10000 1 320 07:41 23.11.2019
3914 Clouds 2 998 86 10000 0.5 0 06:52 23.11.2019
3915 Clouds 2 998 86 10000 2.1 70 06:24 23.11.2019
3916 Clouds 2 998 86 10000 1 0 05:57 23.11.2019
3917 Clouds 2 1000 100 5000 4.1 90 05:31 23.11.2019
3918 Clouds 2 999 100 10000 1 0 04:54 23.11.2019
3919 Clouds 2 999 100 10000 1 0 04:32 23.11.2019
3920 Clouds 2 1001 93 6000 5.7 100 03:26 23.11.2019
3921 Clouds 2 1000 89 10000 0.5 0 02:37 23.11.2019
3922 Clouds 2 1001 100 10000 1 0 01:40 23.11.2019
3923 Clouds 2 1003 93 6000 5.7 110 00:48 23.11.2019
3924 Clouds 2 1002 91 10000 1 0 00:20 23.11.2019
3925 Clouds 2 1002 91 10000 1 0 23:56 22.11.2019
3926 Clouds 3 1002 91 10000 1 0 23:36 22.11.2019
3927 Clouds 3 1002 91 10000 1 0 23:36 22.11.2019
3928 Clouds 3 1003 87 10000 0.5 0 23:18 22.11.2019
3929 Clouds 3 1003 87 10000 2.1 100 22:55 22.11.2019
3930 Clouds 3 1003 87 10000 2.1 100 22:37 22.11.2019
3931 Clouds 3 1004 93 6000 5.1 110 22:18 22.11.2019
3932 Clouds 3 1004 93 6000 5.1 110 22:18 22.11.2019
3933 Clouds 3 1004 93 6000 5.1 110 22:18 22.11.2019
3934 Clouds 3 1004 100 10000 0.5 0 21:40 22.11.2019
3935 Clouds 3 1004 87 10000 2.1 80 21:21 22.11.2019
3936 Clouds 3 1004 87 10000 2.1 80 20:55 22.11.2019
3937 Clouds 3 1004 87 10000 1 0 20:37 22.11.2019
3938 Clouds 3 1004 100 10000 1.5 70 20:19 22.11.2019
3939 Clouds 3 1005 85 10000 2.6 80 19:40 22.11.2019
3940 Clouds 3 1005 85 10000 2.6 90 19:21 22.11.2019
3941 Clouds 3 1005 85 10000 2.6 90 18:59 22.11.2019
3942 Clouds 3 1005 85 10000 3.1 80 18:38 22.11.2019
3943 Clouds 3 1005 85 10000 4.1 80 18:20 22.11.2019
3944 Clouds 3 1005 85 10000 3.6 80 17:42 22.11.2019
3945 Clouds 4 1005 93 10000 3.6 80 17:23 22.11.2019
3946 Clouds 4 1006 86 10000 3.1 90 16:58 22.11.2019
3947 Clouds 4 1006 86 10000 3.1 90 16:40 22.11.2019
3948 Clouds 4 1006 80 10000 3.1 90 16:21 22.11.2019
3949 Clouds 5 1006 80 10000 3.1 90 15:40 22.11.2019
3950 Clouds 5 1006 80 10000 2.6 90 15:22 22.11.2019
3951 Clouds 6 1006 80 10000 2.6 90 14:55 22.11.2019
3952 Clouds 6 1006 81 10000 3.1 90 14:37 22.11.2019
3953 Clouds 7 1006 75 10000 3.1 90 14:19 22.11.2019
3954 Clouds 6 1007 81 10000 1.5 0 13:39 22.11.2019
3955 Clouds 6 1007 80 10000 1.5 60 13:20 22.11.2019
3956 Clouds 6 1007 80 10000 1.5 60 12:59 22.11.2019
3957 Clouds 6 1007 80 10000 1 0 12:40 22.11.2019
3958 Clouds 6 1007 80 10000 1 0 12:40 22.11.2019
3959 Clouds 6 1008 86 10000 1 0 12:20 22.11.2019
3960 Clouds 5 1008 80 10000 1 0 11:59 22.11.2019
3961 Clouds 5 1008 80 10000 1 0 11:38 22.11.2019
3962 Clouds 4 1009 93 8000 0.5 90 11:20 22.11.2019
3963 Clouds 4 1009 93 8000 0.5 90 10:58 22.11.2019
3964 Mist 3 1009 100 4000 0.5 0 10:39 22.11.2019
3965 Mist 3 1009 100 2800 1 0 10:21 22.11.2019
3966 Mist 2 1009 79 2500 1 0 09:55 22.11.2019
3967 Mist 2 1009 79 2500 1 0 09:37 22.11.2019
3968 Mist 2 1009 79 3000 1.5 120 09:18 22.11.2019
3969 Mist 2 1009 79 4800 1 0 08:44 22.11.2019
3970 Fog 2 1009 90 6000 1 250 08:25 22.11.2019
3971 Fog 1 1009 100 7000 1.5 310 07:45 22.11.2019
3972 Fog 1 1009 100 8000 0.5 250 07:23 22.11.2019
3973 Fog 1 1008 100 2500 0.5 0 06:49 22.11.2019
3974 Fog 1 1008 100 2500 0.5 0 06:30 22.11.2019
3975 Fog 1 1008 100 2000 0.5 0 05:49 22.11.2019
3976 Clouds 1 1008 93 5000 2.6 130 04:50 22.11.2019
3977 Fog 1 1008 100 900 1 290 02:53 22.11.2019
3978 Fog 1 1008 100 900 1 290 02:31 22.11.2019
3979 Fog 1 1007 100 6000 0.5 0 01:45 22.11.2019
3980 Fog 1 1007 100 8000 0.5 0 01:20 22.11.2019
3981 Clouds 1 1008 100 10000 0.5 0 00:51 22.11.2019
3982 Clouds 1 1008 87 10000 1 0 00:24 22.11.2019
3983 Clouds 1 1008 87 10000 0.5 290 23:49 21.11.2019
3984 Clouds 2 1008 87 10000 0.5 290 23:31 21.11.2019
3985 Clouds 2 1008 83 10000 1 0 22:59 21.11.2019
3986 Clouds 2 1009 92 10000 2.1 250 22:40 21.11.2019
3987 Clouds 1 1008 83 10000 0.5 0 22:22 21.11.2019
3988 Clouds 1 1008 83 10000 0.5 0 21:57 21.11.2019
3989 Clouds 2 1008 83 10000 0.5 0 21:38 21.11.2019
3990 Clouds 2 1008 86 10000 1.5 280 21:19 21.11.2019
3991 Clouds 2 1008 86 10000 1.5 270 20:59 21.11.2019
3992 Clouds 3 1008 86 10000 1.5 270 20:39 21.11.2019
3993 Clouds 3 1008 93 10000 1 0 20:19 21.11.2019
3994 Clouds 3 1008 93 10000 1 0 20:19 21.11.2019
3995 Clouds 3 1008 93 10000 1 0 20:19 21.11.2019
3996 Clouds 3 1008 93 10000 1 0 19:59 21.11.2019
3997 Clouds 3 1008 86 10000 1 290 19:41 21.11.2019
3998 Clouds 4 1008 86 10000 1 300 19:23 21.11.2019
3999 Clouds 4 1008 86 10000 0.5 230 18:58 21.11.2019
4000 Clouds 4 1008 86 10000 0.5 230 18:40 21.11.2019
4001 Clouds 4 1008 80 10000 0.5 0 18:19 21.11.2019
4002 Clouds 5 1008 80 10000 0.5 0 17:58 21.11.2019
4003 Clouds 5 1008 75 10000 1 0 17:39 21.11.2019
4004 Clouds 5 1008 75 10000 1 0 17:39 21.11.2019
4005 Clouds 5 1008 81 10000 0.5 60 17:19 21.11.2019
4006 Clouds 6 1008 81 10000 0.5 0 16:55 21.11.2019
4007 Clouds 6 1008 81 10000 0.5 0 16:37 21.11.2019
4008 Clouds 7 1008 70 10000 0.5 60 16:18 21.11.2019
4009 Clouds 7 1008 75 10000 0.5 90 15:42 21.11.2019
4010 Clouds 7 1008 70 10000 0.5 0 15:20 21.11.2019
4011 Clouds 7 1008 70 10000 0.5 0 14:57 21.11.2019
4012 Clouds 7 1008 65 10000 0.5 0 14:37 21.11.2019
4013 Clouds 7 1008 65 10000 1 0 14:19 21.11.2019
4014 Clouds 7 1008 65 10000 1 0 13:56 21.11.2019
4015 Clouds 7 1008 65 10000 1 0 13:36 21.11.2019
4016 Clouds 7 1008 75 10000 0.5 0 13:18 21.11.2019
4017 Clouds 7 1008 75 10000 0.5 0 13:18 21.11.2019
4018 Clouds 7 1008 75 10000 0.5 0 13:18 21.11.2019
4019 Clouds 6 1009 70 10000 0.5 0 12:40 21.11.2019
4020 Clouds 6 1009 80 10000 1 0 12:22 21.11.2019
4021 Clouds 6 1009 75 10000 1.5 180 11:55 21.11.2019
4022 Clouds 5 1009 75 10000 1.5 180 11:37 21.11.2019
4023 Clouds 5 1009 80 10000 1.5 150 11:19 21.11.2019
4024 Clouds 5 1009 80 10000 1 0 10:42 21.11.2019
4025 Clouds 4 1009 80 10000 1.5 140 10:24 21.11.2019
4026 Clouds 4 1009 86 10000 1 0 09:59 21.11.2019
4027 Clouds 4 1009 86 10000 1 0 09:40 21.11.2019
4028 Clouds 3 1009 93 10000 0.5 0 09:22 21.11.2019
4029 Clouds 3 1009 93 10000 0.5 0 08:46 21.11.2019
4030 Clouds 3 1009 93 10000 0.5 60 08:24 21.11.2019
4031 Clouds 3 1009 93 10000 0.5 60 07:59 21.11.2019
4032 Clouds 3 1010 93 10000 0.5 90 07:37 21.11.2019
4033 Clouds 3 1010 93 10000 1 100 07:18 21.11.2019
4034 Clouds 3 1010 93 10000 0.5 0 06:42 21.11.2019
4035 Clouds 3 1010 93 10000 0.5 70 06:24 21.11.2019
4036 Clouds 2 1010 93 10000 0.5 70 04:55 21.11.2019
4037 Clouds 3 1010 93 10000 1 100 02:53 21.11.2019
4038 Clouds 2 1010 86 10000 1 0 02:33 21.11.2019
4039 Clouds 2 1011 86 10000 1 0 01:52 21.11.2019
4040 Clouds 2 1011 86 10000 1 0 01:52 21.11.2019
4041 Clouds 2 1011 86 10000 1 0 01:21 21.11.2019
4042 Clouds 2 1011 86 10000 1 0 00:41 21.11.2019
4043 Clouds 3 1011 86 10000 1 0 00:20 21.11.2019
4044 Clouds 2 1012 93 10000 0.5 100 23:51 20.11.2019
4045 Clouds 3 1012 86 10000 1 0 23:23 20.11.2019
4046 Clouds 3 1012 86 10000 1 0 22:58 20.11.2019
4047 Clouds 3 1012 93 10000 1.5 70 22:40 20.11.2019
4048 Clouds 3 1012 93 10000 1.5 70 22:20 20.11.2019
4049 Clouds 3 1012 93 10000 1.5 70 21:59 20.11.2019
4050 Clouds 3 1012 93 10000 1.5 90 21:40 20.11.2019
4051 Clouds 3 1013 93 10000 2.1 80 21:21 20.11.2019
4052 Clouds 3 1013 93 10000 2.1 80 20:58 20.11.2019
4053 Clouds 3 1013 86 10000 2.6 80 20:40 20.11.2019
4054 Clouds 3 1013 93 10000 1.5 100 20:21 20.11.2019
4055 Clouds 3 1013 93 10000 1.5 70 19:58 20.11.2019
4056 Clouds 3 1013 93 10000 1.5 70 19:37 20.11.2019
4057 Clouds 3 1013 93 10000 0.5 0 19:19 20.11.2019
4058 Clouds 3 1013 93 10000 0.5 0 18:59 20.11.2019
4059 Clouds 3 1013 86 10000 1 0 18:40 20.11.2019
4060 Clouds 3 1013 86 10000 1 330 18:21 20.11.2019
4061 Clouds 3 1013 86 10000 1 0 17:57 20.11.2019
4062 Clouds 3 1013 86 10000 1 0 17:39 20.11.2019
4063 Clouds 4 1013 93 10000 1 330 17:20 20.11.2019
4064 Clouds 4 1013 93 10000 1 330 16:57 20.11.2019
4065 Clouds 4 1013 86 10000 1 0 16:39 20.11.2019
4066 Clouds 4 1013 86 10000 1.5 350 16:19 20.11.2019
4067 Clouds 4 1013 86 10000 1.5 350 15:56 20.11.2019
4068 Clouds 4 1013 86 10000 2.1 350 15:38 20.11.2019
4069 Clouds 4 1013 86 10000 2.1 350 15:38 20.11.2019
4070 Clouds 4 1013 93 10000 2.1 10 15:19 20.11.2019
4071 Clouds 4 1014 86 10000 1.5 10 14:41 20.11.2019
4072 Clouds 4 1014 86 10000 1.5 360 14:22 20.11.2019
4073 Clouds 4 1014 86 10000 1.5 360 14:22 20.11.2019
4074 Clouds 4 1014 86 10000 1.5 360 14:22 20.11.2019
4075 Clouds 4 1014 86 10000 1.5 360 13:59 20.11.2019
4076 Clouds 4 1014 86 10000 1.5 50 13:39 20.11.2019
4077 Clouds 4 1014 86 8000 1 0 13:20 20.11.2019
4078 Clouds 4 1014 86 8000 1 0 12:58 20.11.2019
4079 Clouds 3 1015 86 8000 1.5 40 12:37 20.11.2019
4080 Clouds 3 1015 93 8000 1 0 12:19 20.11.2019
4081 Clouds 3 1015 93 8000 1 0 12:19 20.11.2019
4082 Clouds 3 1015 93 8000 2.6 360 11:45 20.11.2019
4083 Clouds 2 1016 93 8000 2.6 360 11:23 20.11.2019
4084 Clouds 2 1016 93 8000 2.6 20 10:57 20.11.2019
4085 Clouds 2 1016 93 8000 2.6 20 10:57 20.11.2019
4086 Clouds 2 1016 93 8000 2.6 20 10:39 20.11.2019
4087 Clouds 2 1016 93 8000 2.1 30 10:20 20.11.2019
4088 Clouds 2 1016 100 8000 1.5 360 09:56 20.11.2019
4089 Clouds 2 1016 100 8000 1.5 360 09:37 20.11.2019
4090 Clouds 2 1016 100 8000 1.5 360 09:37 20.11.2019
4091 Clouds 1 1016 78 7000 2.1 350 09:19 20.11.2019
4092 Rain 1 1016 78 6000 2.1 350 08:42 20.11.2019
4093 Rain 1 1016 77 6000 2.1 350 08:24 20.11.2019
4094 Rain 1 1016 92 6000 2.1 360 07:50 20.11.2019
4095 Rain 1 1016 92 6000 2.1 360 07:30 20.11.2019
4096 Mist 1 1016 92 5000 1.5 10 06:58 20.11.2019
4097 Mist 1 1016 100 3800 1.5 10 06:38 20.11.2019
4098 Mist 1 1017 100 2400 1.5 360 06:18 20.11.2019
4099 Fog 1 1017 100 250 1.5 340 04:41 20.11.2019
4100 Mist 2 1017 100 1400 2.1 360 02:28 20.11.2019
4101 Mist 2 1018 93 4800 1.5 360 01:38 20.11.2019
4102 Clouds 2 1018 100 9000 2.1 310 00:50 20.11.2019
4103 Clouds 2 1018 93 10000 0.5 0 00:21 20.11.2019
4104 Clouds 2 1018 100 10000 1 0 23:41 19.11.2019
4105 Clouds 2 1018 93 10000 2.6 320 23:22 19.11.2019
4106 Clouds 3 1018 93 10000 2.6 320 22:56 19.11.2019
4107 Clouds 3 1018 93 10000 3.1 310 22:37 19.11.2019
4108 Clouds 3 1018 93 10000 2.1 290 22:18 19.11.2019
4109 Clouds 3 1018 93 10000 1 280 21:55 19.11.2019
4110 Clouds 3 1018 93 10000 1 280 21:36 19.11.2019
4111 Clouds 3 1018 93 10000 1 280 21:18 19.11.2019
4112 Clouds 3 1018 86 10000 0.5 0 20:54 19.11.2019
4113 Clouds 3 1018 86 10000 0.5 0 20:36 19.11.2019
4114 Clouds 3 1018 93 10000 2.1 280 20:18 19.11.2019
4115 Clouds 4 1018 86 10000 1.5 270 19:41 19.11.2019
4116 Clouds 4 1018 86 10000 1.5 290 19:20 19.11.2019
4117 Clouds 4 1018 86 10000 1.5 290 18:58 19.11.2019
4118 Clouds 4 1018 86 10000 2.1 310 18:40 19.11.2019
4119 Clouds 4 1017 93 10000 3.1 310 18:21 19.11.2019
4120 Clouds 4 1017 93 10000 3.1 310 17:58 19.11.2019
4121 Rain 5 1017 86 10000 2.6 300 17:40 19.11.2019
4122 Rain 5 1017 93 10000 2.6 320 17:20 19.11.2019
4123 Rain 5 1017 93 10000 2.6 320 16:59 19.11.2019
4124 Rain 5 1017 86 10000 3.6 330 16:40 19.11.2019
4125 Clouds 5 1017 86 10000 4.6 330 16:20 19.11.2019
4126 Clouds 5 1016 86 10000 4.6 330 15:47 19.11.2019
4127 Clouds 5 1016 86 10000 4.6 330 15:27 19.11.2019
4128 Clouds 6 1016 86 10000 4.6 330 15:27 19.11.2019
4129 Clouds 6 1016 81 10000 3.1 360 14:58 19.11.2019
4130 Clouds 6 1016 70 10000 1.5 250 14:39 19.11.2019
4131 Clouds 6 1016 70 10000 1.5 260 14:21 19.11.2019
4132 Clouds 6 1016 70 10000 1 0 13:57 19.11.2019
4133 Clouds 6 1016 70 10000 1 0 13:38 19.11.2019
4134 Clouds 6 1016 70 10000 1.5 260 13:18 19.11.2019
4135 Clouds 6 1016 70 10000 1.5 220 12:39 19.11.2019
4136 Clouds 6 1016 75 10000 0.5 0 12:21 19.11.2019
4137 Clouds 6 1016 75 10000 0.5 0 11:56 19.11.2019
4138 Clouds 6 1016 75 10000 0.5 0 11:37 19.11.2019
4139 Clouds 6 1016 75 10000 0.5 0 11:37 19.11.2019
4140 Clouds 5 1016 80 10000 0.5 0 11:19 19.11.2019
4141 Clouds 5 1016 80 10000 1 80 10:44 19.11.2019
4142 Clouds 5 1016 80 10000 1 0 10:21 19.11.2019
4143 Clouds 4 1016 86 10000 1.5 140 09:45 19.11.2019
4144 Clouds 4 1016 80 10000 1 0 09:22 19.11.2019
4145 Clouds 4 1016 80 10000 1 0 08:59 19.11.2019
4146 Clouds 4 1016 80 10000 1 0 08:40 19.11.2019
4147 Clouds 4 1016 80 10000 1 0 08:22 19.11.2019
4148 Clouds 4 1016 80 10000 1 0 07:56 19.11.2019
4149 Clouds 4 1015 84 10000 1.5 220 07:37 19.11.2019
4150 Clouds 4 1015 80 10000 1 0 07:19 19.11.2019
4151 Clouds 4 1015 86 10000 1 0 06:44 19.11.2019
4152 Clouds 4 1015 86 10000 1 0 06:24 19.11.2019
4153 Clouds 4 1015 80 10000 1.5 210 05:20 19.11.2019
4154 Clouds 3 1015 88 10000 1 0 03:45 19.11.2019
4155 Clouds 3 1015 88 10000 1 0 03:22 19.11.2019
4156 Clouds 3 1015 88 10000 1.5 210 02:51 19.11.2019
4157 Clouds 4 1014 85 10000 2.1 180 01:58 19.11.2019
4158 Clouds 4 1014 83 10000 2.6 220 00:59 19.11.2019
4159 Clouds 4 1014 83 10000 3.6 210 00:21 19.11.2019
4160 Clouds 4 1014 83 10000 3.6 210 23:56 18.11.2019
4161 Clouds 4 1014 83 10000 3.6 210 23:37 18.11.2019
4162 Clouds 4 1014 87 10000 4.1 200 23:18 18.11.2019
4163 Clouds 4 1014 87 10000 4.1 190 22:42 18.11.2019
4164 Clouds 4 1013 87 10000 4.1 200 22:23 18.11.2019
4165 Clouds 4 1013 87 10000 4.1 200 21:55 18.11.2019
4166 Clouds 4 1013 87 10000 3.6 200 21:37 18.11.2019
4167 Clouds 4 1013 87 10000 4.1 200 21:19 18.11.2019
4168 Clouds 4 1013 87 10000 3.6 200 20:56 18.11.2019
4169 Clouds 4 1013 87 10000 3.6 200 20:37 18.11.2019
4170 Clouds 4 1013 87 10000 3.6 200 20:18 18.11.2019
4171 Clouds 3 1012 87 10000 2.6 200 19:54 18.11.2019
4172 Clouds 4 1012 87 10000 2.6 200 19:36 18.11.2019
4173 Clouds 4 1012 87 10000 1.5 220 19:18 18.11.2019
4174 Clouds 4 1012 87 10000 2.6 220 18:54 18.11.2019
4175 Clouds 4 1012 87 10000 2.6 220 18:36 18.11.2019
4176 Clouds 4 1011 87 10000 2.1 240 18:18 18.11.2019
4177 Clouds 4 1011 87 10000 3.1 230 17:38 18.11.2019
4178 Clouds 4 1011 81 10000 4.1 230 17:19 18.11.2019
4179 Clouds 4 1010 81 10000 4.1 230 16:54 18.11.2019
4180 Clouds 4 1011 81 10000 4.1 230 16:54 18.11.2019
4181 Clouds 5 1010 81 10000 4.1 230 16:36 18.11.2019
4182 Clouds 5 1010 81 10000 3.6 240 16:18 18.11.2019
4183 Clouds 5 1010 81 10000 3.6 240 15:55 18.11.2019
4184 Clouds 6 1010 81 10000 5.1 240 15:36 18.11.2019
4185 Clouds 6 1009 81 10000 5.1 230 15:18 18.11.2019
4186 Clouds 6 1009 81 10000 4.1 220 14:41 18.11.2019
4187 Clouds 6 1009 75 0 5.7 220 14:23 18.11.2019
4188 Clouds 6 1009 73 10000 5.1 230 13:48 18.11.2019
4189 Clouds 6 1009 73 10000 5.1 230 13:48 18.11.2019
4190 Clouds 6 1008 75 10000 5.7 250 13:28 18.11.2019
4191 Clouds 6 1008 70 10000 5.7 210 12:58 18.11.2019
4192 Clouds 6 1008 70 10000 5.7 210 12:38 18.11.2019
4193 Clouds 5 1008 73 10000 5.7 220 12:19 18.11.2019
4194 Clouds 5 1008 75 10000 4.1 220 11:44 18.11.2019
4195 Clouds 5 1008 82 10000 5.1 210 11:25 18.11.2019
4196 Clouds 5 1007 75 10000 4.1 200 10:56 18.11.2019
4197 Clouds 5 1007 75 10000 4.1 200 10:56 18.11.2019
4198 Clouds 5 1007 75 10000 4.1 200 10:38 18.11.2019
4199 Clouds 4 1007 75 10000 2.6 200 10:18 18.11.2019
4200 Clouds 4 1007 80 10000 2.6 170 09:55 18.11.2019
4201 Clouds 4 1007 80 10000 2.6 170 09:37 18.11.2019
4202 Clouds 3 1007 82 10000 1 0 09:18 18.11.2019
4203 Clouds 3 1006 100 10000 1 0 08:44 18.11.2019
4204 Clouds 3 1006 93 10000 1 0 08:21 18.11.2019
4205 Clouds 3 1006 93 10000 1.5 200 07:48 18.11.2019
4206 Clouds 3 1006 93 10000 1.5 200 07:29 18.11.2019
4207 Clouds 3 1005 93 10000 1 0 06:56 18.11.2019
4208 Clouds 3 1005 93 10000 1 0 06:37 18.11.2019
4209 Clouds 3 1005 93 10000 1 0 06:18 18.11.2019
4210 Clouds 3 1005 93 10000 1.5 190 04:58 18.11.2019
4211 Clouds 3 1004 93 10000 0.5 0 02:59 18.11.2019
4212 Clouds 4 1004 93 10000 1 0 01:31 18.11.2019
4213 Clouds 4 1004 93 10000 2.1 230 00:39 18.11.2019
4214 Clouds 4 1004 93 10000 2.1 190 23:56 17.11.2019
4215 Clouds 3 1003 93 10000 3.1 200 23:38 17.11.2019
4216 Clouds 4 1003 93 10000 2.6 210 23:18 17.11.2019
4217 Clouds 4 1003 93 10000 2.6 190 22:41 17.11.2019
4218 -273 0 0 0 0 0 22:23 17.11.2019
4219 Clouds 4 1003 93 10000 2.1 220 21:59 17.11.2019
4220 Clouds 4 1003 93 10000 2.6 200 21:41 17.11.2019
4221 Clouds 4 1003 93 9000 2.1 210 21:19 17.11.2019
4222 Clouds 4 1003 93 7000 1.5 210 20:57 17.11.2019
4223 Clouds 4 1003 93 7000 1.5 210 20:39 17.11.2019
4224 Clouds 4 1003 93 7000 2.1 200 20:20 17.11.2019
4225 Clouds 4 1003 93 7000 2.1 200 19:57 17.11.2019
4226 Clouds 4 1003 93 7000 1.5 220 19:38 17.11.2019
4227 Mist 4 1003 93 4500 2.1 230 19:20 17.11.2019
4228 Mist 4 1003 93 4500 2.1 230 18:56 17.11.2019
4229 Mist 4 1003 93 4500 2.1 230 18:56 17.11.2019
4230 Mist 4 1003 93 4500 2.1 230 18:56 17.11.2019
4231 Mist 4 1002 93 3000 1.5 230 18:38 17.11.2019
4232 Mist 4 1002 93 1400 1 0 18:19 17.11.2019
4233 Mist 4 1002 93 1400 1 0 17:58 17.11.2019
4234 Mist 4 1002 93 1400 1 0 17:40 17.11.2019
4235 Mist 4 1002 93 2000 0.5 0 17:20 17.11.2019
4236 Mist 4 1002 93 2500 1 0 16:59 17.11.2019
4237 Mist 4 1002 93 2500 1 0 16:41 17.11.2019
4238 Mist 4 1002 93 2500 2.1 340 16:21 17.11.2019
4239 Mist 4 1002 93 2500 2.1 340 15:56 17.11.2019
4240 Mist 4 1002 93 2500 2.1 330 15:38 17.11.2019
4241 Mist 4 1002 100 2500 3.1 310 15:19 17.11.2019
4242 Mist 4 1002 100 2500 3.1 310 14:57 17.11.2019
4243 Mist 4 1002 100 2500 3.6 330 14:38 17.11.2019
4244 Mist 4 1002 100 2500 3.6 330 14:38 17.11.2019
4245 Mist 4 1003 100 3500 2.6 320 14:20 17.11.2019
4246 Mist 4 1003 100 3500 2.6 320 13:58 17.11.2019
4247 Mist 4 1003 100 3500 3.1 320 13:39 17.11.2019
4248 Mist 4 1003 93 3500 3.1 320 13:19 17.11.2019
4249 Mist 4 1004 100 3000 2.6 340 12:45 17.11.2019
4250 Fog 4 1004 100 2000 3.1 20 12:23 17.11.2019
4251 Fog 3 1004 100 2000 3.1 20 11:58 17.11.2019
4252 Fog 3 1004 93 1400 3.1 330 11:40 17.11.2019
4253 Fog 3 1004 93 1400 3.1 330 11:40 17.11.2019
4254 Fog 3 1006 93 1200 2.1 330 11:20 17.11.2019
4255 Rain 3 1006 93 1700 3.1 360 10:55 17.11.2019
4256 Rain 3 1006 93 1700 3.1 360 10:36 17.11.2019
4257 Rain 3 1006 93 3500 2.1 20 10:18 17.11.2019
4258 Rain 3 1007 93 3500 4.1 350 09:41 17.11.2019
4259 Rain 3 1007 93 3500 3.1 360 09:23 17.11.2019
4260 Rain 3 1007 93 3500 2.1 330 08:44 17.11.2019
4261 Rain 3 1008 93 4000 4.1 330 08:24 17.11.2019
4262 Rain 3 1008 93 4500 2.6 300 07:57 17.11.2019
4263 Rain 3 1008 93 4500 2.6 300 07:39 17.11.2019
4264 Mist 3 1008 93 5000 1 0 07:19 17.11.2019
4265 Mist 2 1008 93 5000 1.5 10 06:51 17.11.2019
4266 Mist 3 1008 93 5000 1.5 10 06:29 17.11.2019
4267 Mist 3 1008 93 5000 1.5 10 06:29 17.11.2019
4268 Mist 3 1008 93 5000 1.5 10 06:29 17.11.2019
4269 Mist 2 1009 100 2800 0.5 0 04:57 17.11.2019
4270 Clouds 2 1009 100 6000 0.5 0 03:59 17.11.2019
4271 Clouds 2 1009 100 7000 0.5 300 03:37 17.11.2019
4272 Clouds 2 1010 100 8000 1 270 03:19 17.11.2019
4273 Clouds 2 1011 100 10000 2.6 300 01:54 17.11.2019
4274 Clouds 2 1011 93 10000 3.1 270 01:21 17.11.2019
4275 Clouds 2 1012 100 8000 0.5 280 00:41 17.11.2019
4276 Clouds 2 1011 100 8000 1.5 320 00:21 17.11.2019
4277 Fog 2 1011 93 9000 0.5 0 23:42 16.11.2019
4278 Fog 2 1011 94 8000 0.5 0 23:19 16.11.2019
4279 Fog 2 1011 100 8000 1.5 60 22:54 16.11.2019
4280 Fog 2 1011 100 8000 1.5 60 22:36 16.11.2019
4281 Fog 3 1011 100 8000 1 0 22:18 16.11.2019
4282 Fog 3 1012 100 2500 1 70 21:41 16.11.2019
4283 Fog 3 1012 100 8000 1 0 21:23 16.11.2019
4284 Fog 3 1012 100 8000 0.5 0 20:58 16.11.2019
4285 Fog 3 1012 100 8000 1 0 20:58 16.11.2019
4286 Fog 3 1012 100 8000 0.5 0 20:39 16.11.2019
4287 Fog 3 1012 100 8000 1 0 20:19 16.11.2019
4288 Fog 3 1012 100 8000 1 0 19:56 16.11.2019
4289 Clouds 3 1011 93 10000 1 0 19:37 16.11.2019
4290 Clouds 4 1011 93 10000 1 310 19:19 16.11.2019
4291 Clouds 4 1011 93 9000 1.5 320 18:43 16.11.2019
4292 Clouds 5 1011 87 10000 0.5 330 18:25 16.11.2019
4293 Clouds 5 1011 93 10000 0.5 160 17:56 16.11.2019
4294 Clouds 5 1011 93 10000 0.5 160 17:37 16.11.2019
4295 Clouds 6 1011 93 10000 1 0 17:18 16.11.2019
4296 Clouds 6 1011 93 10000 2.1 120 16:46 16.11.2019
4297 Clouds 6 1011 93 10000 2.1 120 16:28 16.11.2019
4298 Clouds 7 1010 87 10000 1.5 120 15:56 16.11.2019
4299 Clouds 7 1010 81 10000 1.5 100 15:38 16.11.2019
4300 Clouds 7 1009 76 10000 0.5 0 15:19 16.11.2019
4301 Clouds 7 1009 87 10000 1.5 260 14:41 16.11.2019
4302 Clouds 7 1010 87 10000 1.5 190 14:22 16.11.2019
4303 Clouds 7 1010 87 10000 1.5 190 14:22 16.11.2019
4304 Clouds 7 1010 87 10000 1.5 190 13:57 16.11.2019
4305 Clouds 7 1010 87 10000 1.5 180 13:39 16.11.2019
4306 Clouds 6 1009 87 10000 1.5 0 13:19 16.11.2019
4307 Clouds 6 1009 87 8000 1 0 12:59 16.11.2019
4308 Clouds 6 1009 87 8000 1 0 12:41 16.11.2019
4309 Drizzle 6 1009 93 4000 1 0 12:20 16.11.2019
4310 Clouds 5 1009 93 7000 0.5 80 11:46 16.11.2019
4311 Clouds 5 1009 86 6000 0.5 0 11:28 16.11.2019
4312 Rain 5 1008 93 5000 1 0 10:59 16.11.2019
4313 Rain 4 1008 93 5000 1 0 10:41 16.11.2019
4314 Rain 4 1008 93 4500 0.5 0 10:22 16.11.2019
4315 Rain 4 1008 93 4500 0.5 0 09:56 16.11.2019
4316 Rain 3 1008 100 4500 0.5 0 09:36 16.11.2019
4317 Rain 3 1008 93 3500 1.5 230 09:18 16.11.2019
4318 Rain 3 1007 100 2000 1 0 08:40 16.11.2019
4319 Fog 2 1007 100 600 0.5 0 08:20 16.11.2019
4320 Fog 2 1006 100 400 0.5 0 07:43 16.11.2019
4321 Fog 2 1006 100 400 0.5 0 07:43 16.11.2019
4322 Fog 2 1006 100 200 1 0 07:22 16.11.2019
4323 Fog 2 1005 100 150 0.5 0 06:57 16.11.2019
4324 Fog 2 1005 100 150 0.5 0 06:39 16.11.2019
4325 Fog 2 1005 100 200 0.5 0 06:19 16.11.2019
4326 Clouds 2 1004 100 6000 1 0 04:21 16.11.2019
4327 Clouds 3 1003 93 9000 0.5 0 03:26 16.11.2019
4328 Rain 4 1003 100 9000 0.5 0 02:36 16.11.2019
4329 Rain 4 1003 93 9000 1 260 01:32 16.11.2019
4330 Rain 4 1003 86 10000 0.5 220 00:48 16.11.2019
4331 Rain 4 1003 86 10000 0.5 220 00:28 16.11.2019
4332 Rain 4 1003 86 10000 0.94 252 23:44 15.11.2019
4333 Rain 4 1003 86 10000 0.94 252 23:25 15.11.2019
4334 Rain 4 1003 86 10000 0.46 332 23:25 15.11.2019
4335 Clouds 4 1003 86 10000 1 0 22:59 15.11.2019
4336 Clouds 4 1003 86 10000 1 0 22:39 15.11.2019
4337 Clouds 4 1003 86 10000 1.5 300 22:19 15.11.2019
4338 Clouds 4 1003 86 10000 1.5 300 21:56 15.11.2019
4339 Clouds 4 1003 86 10000 3.6 290 21:38 15.11.2019
4340 Clouds 4 1003 86 10000 2.1 300 21:19 15.11.2019
4341 Clouds 4 1003 86 10000 2.1 300 20:56 15.11.2019
4342 Rain 4 1002 86 10000 1.5 320 20:38 15.11.2019
4343 Clouds 4 1003 93 10000 0.5 0 20:19 15.11.2019
4344 Clouds 4 1003 93 10000 0.5 0 19:57 15.11.2019
4345 Clouds 4 1002 86 10000 1.5 300 19:38 15.11.2019
4346 Clouds 4 1002 86 10000 1 0 19:19 15.11.2019
4347 Clouds 4 1002 86 10000 2.1 320 18:43 15.11.2019
4348 Clouds 4 1002 86 10000 1.5 320 18:24 15.11.2019
4349 Clouds 4 1002 86 10000 1.5 30 17:59 15.11.2019
4350 Clouds 4 1002 86 10000 1.5 30 17:40 15.11.2019
4351 Rain 4 1001 86 10000 2.6 360 17:22 15.11.2019
4352 Rain 5 1002 86 10000 1.5 30 16:55 15.11.2019
4353 Rain 5 1002 86 10000 1.5 30 16:37 15.11.2019
4354 Rain 5 1001 80 10000 2.1 60 16:18 15.11.2019
4355 Rain 5 1001 80 10000 1.5 70 15:38 15.11.2019
4356 Rain 5 1001 80 10000 1.5 70 15:38 15.11.2019
4357 Rain 6 1001 80 10000 1 0 15:19 15.11.2019
4358 Rain 6 1001 80 10000 1 0 14:56 15.11.2019
4359 Rain 6 1001 80 10000 1.5 80 14:38 15.11.2019
4360 Clouds 6 1000 80 10000 2.1 70 14:19 15.11.2019
4361 Clouds 6 1000 80 10000 2.1 70 14:19 15.11.2019
4362 Clouds 5 1000 80 10000 2.1 70 13:57 15.11.2019
4363 Clouds 5 1001 80 10000 1.5 60 13:39 15.11.2019
4364 Clouds 5 1001 80 10000 1.5 130 13:20 15.11.2019
4365 Clouds 5 1000 86 10000 1 0 12:57 15.11.2019
4366 Clouds 5 1000 86 10000 1 0 12:57 15.11.2019
4367 Clouds 5 1000 86 10000 1 0 12:39 15.11.2019
4368 Clouds 5 1000 86 10000 1 0 12:19 15.11.2019
4369 Clouds 4 1000 86 10000 1.5 110 11:56 15.11.2019
4370 Clouds 4 1000 86 10000 1.5 110 11:37 15.11.2019
4371 Clouds 4 1000 86 10000 1.5 110 11:37 15.11.2019
4372 Clouds 4 999 80 10000 1 0 11:19 15.11.2019
4373 Clouds 4 998 86 10000 1 0 10:41 15.11.2019
4374 Clouds 3 998 72 10000 2.6 0 10:22 15.11.2019
4375 Clouds 3 997 72 10000 4.6 240 09:58 15.11.2019
4376 Clouds 3 997 72 10000 4.6 240 09:40 15.11.2019
4377 Clouds 2 996 72 10000 1.5 220 09:19 15.11.2019
4378 Clouds 2 995 72 10000 1.5 240 08:44 15.11.2019
4379 Clouds 2 994 80 10000 2.6 280 08:22 15.11.2019
4380 Clouds 2 994 86 10000 2.6 300 07:48 15.11.2019
4381 Clouds 2 993 80 10000 2.6 320 07:28 15.11.2019
4382 Clouds 2 994 80 10000 1.5 290 06:44 15.11.2019
4383 Clouds 2 994 80 10000 1.5 290 06:25 15.11.2019
4384 Clouds 2 994 80 10000 3.1 340 05:40 15.11.2019
4385 Clouds 1 994 90 10000 2.6 360 05:22 15.11.2019
4386 Clouds 2 996 90 0 2.6 340 03:50 15.11.2019
4387 Clouds 2 996 90 10000 2.6 340 03:22 15.11.2019
4388 Clouds 2 997 92 10000 1.5 350 02:19 15.11.2019
4389 Clouds 2 997 92 10000 1.5 340 01:33 15.11.2019
4390 Clouds 3 998 89 10000 1.5 360 00:54 15.11.2019
4391 Clouds 3 998 89 10000 1.5 40 00:33 15.11.2019
4392 Clouds 3 998 86 10000 1.5 20 23:53 14.11.2019
4393 Clouds 3 998 86 10000 2.6 60 23:28 14.11.2019
4394 Clouds 3 998 86 10000 2.6 60 22:59 14.11.2019
4395 Clouds 4 998 80 10000 3.6 70 22:39 14.11.2019
4396 Clouds 4 998 80 10000 4.6 60 22:21 14.11.2019
4397 Clouds 4 998 80 10000 4.6 60 21:56 14.11.2019
4398 Clouds 3 998 80 10000 5.1 60 21:38 14.11.2019
4399 Clouds 4 998 80 10000 4.6 60 21:19 14.11.2019
4400 Clouds 4 999 80 10000 4.6 60 20:42 14.11.2019
4401 Clouds 4 999 80 10000 4.6 60 20:24 14.11.2019
4402 Clouds 4 999 82 10000 4.1 80 19:59 14.11.2019
4403 Clouds 4 999 82 10000 4.1 80 19:41 14.11.2019
4404 Clouds 4 999 82 10000 3.6 80 19:18 14.11.2019
4405 Clouds 4 999 82 10000 4.1 60 18:56 14.11.2019
4406 Clouds 4 999 82 10000 4.1 60 18:38 14.11.2019
4407 Clouds 4 1000 82 10000 4.1 80 18:20 14.11.2019
4408 Clouds 4 1000 82 10000 4.1 80 18:20 14.11.2019
4409 Clouds 4 1000 82 10000 4.1 80 17:55 14.11.2019
4410 Clouds 5 1000 82 10000 3.6 80 17:37 14.11.2019
4411 Clouds 5 1000 62 10000 3.6 80 17:19 14.11.2019
4412 Clouds 6 1000 62 10000 4.6 80 16:57 14.11.2019
4413 Clouds 6 1000 62 10000 4.6 80 16:36 14.11.2019
4414 Clouds 6 1001 70 10000 2.6 80 16:18 14.11.2019
4415 Clouds 7 1001 61 10000 1.5 110 15:56 14.11.2019
4416 Clouds 6 1001 61 10000 1.5 110 15:37 14.11.2019
4417 Clouds 8 1001 62 10000 3.1 70 15:19 14.11.2019
4418 Clouds 8 1001 62 10000 3.1 70 14:44 14.11.2019
4419 Clouds 8 1001 49 10000 3.1 70 14:22 14.11.2019
4420 Clouds 8 1002 53 10000 2.1 20 13:57 14.11.2019
4421 Clouds 8 1002 51 10000 2.1 20 13:38 14.11.2019
4422 Clouds 7 1002 51 10000 1 0 13:19 14.11.2019
4423 Clouds 7 1002 51 10000 2.6 60 12:55 14.11.2019
4424 Clouds 8 1002 51 10000 2.6 60 12:36 14.11.2019
4425 Clouds 6 1002 51 10000 2.6 70 12:18 14.11.2019
4426 Clouds 6 1002 51 10000 3.1 80 11:39 14.11.2019
4427 Clouds 5 1003 61 10000 1 0 11:20 14.11.2019
4428 Clouds 5 1003 61 10000 1 0 11:20 14.11.2019
4429 Clouds 5 1003 61 10000 1 0 11:20 14.11.2019
4430 Clouds 4 1003 80 10000 1 0 10:58 14.11.2019
4431 Clouds 3 1003 80 10000 1 0 10:40 14.11.2019
4432 Clouds 3 1002 74 10000 4.3 124 10:20 14.11.2019
4433 Clouds 3 1002 74 10000 4.3 124 09:56 14.11.2019
4434 Clouds 2 1002 80 10000 0.5 0 09:38 14.11.2019
4435 Clouds -2 1003 92 10000 0.5 0 09:19 14.11.2019
4436 Clouds -2 1003 92 10000 0.5 0 08:47 14.11.2019
4437 Clouds -2 1003 92 10000 0.5 0 08:25 14.11.2019
4438 Clouds -2 1002 86 10000 0.5 0 07:57 14.11.2019
4439 Clouds -1 1002 92 10000 0.5 0 07:37 14.11.2019
4440 Clouds -2 1002 92 10000 1 80 07:19 14.11.2019
4441 Clouds -2 1002 92 10000 0.5 0 06:42 14.11.2019
4442 Clouds -2 1002 92 10000 1 0 06:18 14.11.2019
4443 Clouds -1 1002 92 10000 2.24 132 04:42 14.11.2019
4444 Clouds 0 1003 89 10000 0.5 40 04:22 14.11.2019
4445 Clouds -1 1003 92 10000 0.5 0 02:47 14.11.2019
4446 Clouds -1 1003 92 10000 0.5 0 02:25 14.11.2019
4447 Clouds 0 1004 90 10000 1.5 100 01:33 14.11.2019
4448 Clouds 0 1004 88 10000 1 120 00:53 14.11.2019
4449 Clouds 0 1004 88 10000 1 120 00:30 14.11.2019
4450 Clouds 3 1004 88 10000 0.5 0 23:44 13.11.2019
4451 Clouds 2 1004 88 10000 0.5 0 23:25 13.11.2019
4452 Clouds 2 1004 80 10000 1 0 22:59 13.11.2019
4453 Clouds 2 1005 80 10000 1.5 190 22:41 13.11.2019
4454 Clouds 4 1005 80 10000 2.1 200 22:22 13.11.2019
4455 Clouds 4 1005 80 10000 2.1 200 21:56 13.11.2019
4456 Clouds 5 1005 80 10000 2.1 200 21:38 13.11.2019
4457 Clouds 5 1005 75 10000 2.1 200 21:20 13.11.2019
4458 Clouds 5 1005 75 10000 1.5 190 20:57 13.11.2019
4459 Clouds 5 1005 75 10000 1.5 190 20:57 13.11.2019
4460 Clouds 4 1005 75 10000 1.5 190 20:38 13.11.2019
4461 Clouds 4 1005 75 10000 2.1 190 20:19 13.11.2019
4462 Clouds 4 1005 75 10000 1 0 19:58 13.11.2019
4463 Clouds 4 1005 75 10000 1 0 19:40 13.11.2019
4464 Clouds 5 1005 75 10000 1 0 19:18 13.11.2019
4465 Clouds 5 1005 75 10000 1.5 220 18:55 13.11.2019
4466 Clouds 5 1005 75 10000 2.1 230 18:37 13.11.2019
4467 Clouds 5 1005 75 10000 2.1 230 18:18 13.11.2019
4468 Clouds 5 1005 75 10000 2.1 230 17:56 13.11.2019
4469 Clouds 5 1005 75 10000 2.1 230 17:37 13.11.2019
4470 Clouds 5 1005 80 10000 2.6 230 17:19 13.11.2019
4471 Clouds 5 1005 77 10000 3.1 230 16:56 13.11.2019
4472 Clouds 5 1005 77 10000 3.1 230 16:37 13.11.2019
4473 Clouds 5 1004 70 10000 3.1 0 16:18 13.11.2019
4474 Clouds 6 1004 70 10000 3.1 0 15:56 13.11.2019
4475 Clouds 6 1004 70 10000 3.1 0 15:56 13.11.2019
4476 Clouds 6 1004 70 10000 2.6 230 15:37 13.11.2019
4477 Clouds 6 1004 80 10000 3.6 240 15:18 13.11.2019
4478 Clouds 6 1004 77 10000 4.6 250 14:41 13.11.2019
4479 Clouds 6 1004 56 10000 4.1 250 14:21 13.11.2019
4480 Clouds 7 1004 68 10000 4.1 240 13:39 13.11.2019
4481 Clouds 7 1004 56 10000 5.7 250 13:20 13.11.2019
4482 Clouds 7 1004 56 10000 5.7 250 12:59 13.11.2019
4483 Clouds 6 1004 67 10000 5.1 260 12:41 13.11.2019
4484 Clouds 7 1004 67 10000 5.7 260 12:23 13.11.2019
4485 Clouds 6 1004 67 10000 3.6 240 11:55 13.11.2019
4486 Clouds 6 1004 67 10000 3.6 240 11:37 13.11.2019
4487 Clouds 6 1004 70 10000 3.1 250 11:18 13.11.2019
4488 Clouds 5 1004 75 10000 3.1 230 10:55 13.11.2019
4489 Clouds 5 1004 75 10000 3.1 230 10:37 13.11.2019
4490 Clouds 4 1004 75 10000 3.1 230 10:19 13.11.2019
4491 Clouds 3 1004 80 10000 3.1 240 09:43 13.11.2019
4492 Clouds 2 1003 86 0 2.1 250 09:21 13.11.2019
4493 Clouds 2 1003 86 10000 1.5 280 08:44 13.11.2019
4494 Clouds 2 1003 100 10000 1 0 08:25 13.11.2019
4495 Clouds 1 1003 86 10000 1 0 07:59 13.11.2019
4496 Clouds 1 1003 86 10000 1 0 07:40 13.11.2019
4497 Clouds 2 1003 93 10000 0.5 100 07:19 13.11.2019
4498 Clouds 2 1003 86 10000 0.5 0 06:42 13.11.2019
4499 Clouds 2 1003 93 10000 0.5 0 06:19 13.11.2019
4500 Clouds 2 1003 93 10000 1 0 05:48 13.11.2019
4501 Clouds 2 1003 100 10000 1 0 05:29 13.11.2019
4502 Clouds 2 1003 93 10000 0.5 0 04:19 13.11.2019
4503 Clouds 3 1003 93 10000 1.5 270 01:54 13.11.2019
4504 Clouds 3 1003 93 10000 1.5 270 01:35 13.11.2019
4505 Clouds 4 1003 86 10000 5.1 250 00:43 13.11.2019
4506 Clouds 4 1003 80 10000 1 0 23:58 12.11.2019
4507 Clouds 4 1003 80 10000 1 0 23:40 12.11.2019
4508 Rain 4 1004 80 10000 0.5 0 23:21 12.11.2019
4509 Rain 4 1004 86 10000 0.5 0 22:43 12.11.2019
4510 Rain 4 1004 86 10000 1.5 180 22:20 12.11.2019
4511 Rain 4 1004 86 10000 1.5 70 21:58 12.11.2019
4512 Rain 4 1004 86 10000 1.5 70 21:40 12.11.2019
4513 Rain 4 1004 86 10000 0.5 0 21:22 12.11.2019
4514 Rain 4 1004 86 10000 0.5 0 20:56 12.11.2019
4515 Rain 4 1004 86 10000 1 0 20:37 12.11.2019
4516 Clouds 4 1004 84 10000 1 0 20:18 12.11.2019
4517 Clouds 4 1004 84 10000 1 0 20:18 12.11.2019
4518 Clouds 4 1004 84 10000 1 0 19:57 12.11.2019
4519 Clouds 4 1004 84 10000 1 0 19:38 12.11.2019
4520 Clouds 5 1004 84 10000 2.1 200 19:19 12.11.2019
4521 Clouds 5 1004 84 10000 2.1 200 18:58 12.11.2019
4522 Clouds 4 1004 84 10000 1.5 210 18:39 12.11.2019
4523 Clouds 5 1004 84 10000 2.6 210 18:21 12.11.2019
4524 Clouds 5 1004 84 10000 1.5 190 17:57 12.11.2019
4525 Clouds 5 1004 84 10000 2.6 210 17:57 12.11.2019
4526 Clouds 6 1004 84 10000 1.5 190 17:39 12.11.2019
4527 Clouds 6 1005 71 10000 2.6 200 17:20 12.11.2019
4528 Clouds 6 1005 56 10000 2.6 200 16:56 12.11.2019
4529 Clouds 7 1005 56 10000 2.6 200 16:38 12.11.2019
4530 Clouds 7 1005 56 10000 3.6 200 16:20 12.11.2019
4531 Clouds 7 1005 56 10000 3.6 240 15:41 12.11.2019
4532 Clouds 7 1005 71 10000 4.1 240 15:21 12.11.2019
4533 Clouds 7 1005 71 10000 4.1 240 14:56 12.11.2019
4534 Clouds 7 1005 56 10000 4.6 240 14:37 12.11.2019
4535 Clouds 7 1006 55 10000 4.1 240 14:18 12.11.2019
4536 Clouds 7 1006 55 10000 4.1 240 13:56 12.11.2019
4537 Clouds 7 1006 57 10000 4.1 230 13:37 12.11.2019
4538 Clouds 7 1005 57 10000 4.1 210 13:18 12.11.2019
4539 Clouds 7 1006 55 10000 3.6 200 12:42 12.11.2019
4540 Clouds 7 1006 55 10000 3.6 200 12:42 12.11.2019
4541 Clouds 7 1006 55 10000 3.1 0 12:19 12.11.2019
4542 Clouds 7 1006 55 10000 3.1 0 11:58 12.11.2019
4543 Clouds 7 1007 57 10000 3.6 200 11:40 12.11.2019
4544 Clouds 6 1007 65 10000 3.6 180 11:21 12.11.2019
4545 Clouds 6 1007 70 10000 4.1 160 10:56 12.11.2019
4546 Clouds 6 1007 70 10000 4.1 160 10:37 12.11.2019
4547 Clouds 6 1007 70 10000 2.1 150 10:19 12.11.2019
4548 Clouds 5 1008 80 10000 1 0 09:42 12.11.2019
4549 Clouds 4 1008 93 10000 1.5 170 09:21 12.11.2019
4550 Clouds 4 1008 86 10000 1 0 08:54 12.11.2019
4551 Clouds 3 1008 86 10000 1 0 08:36 12.11.2019
4552 Clouds 4 1008 86 10000 1.5 180 08:18 12.11.2019
4553 Clouds 3 1008 86 10000 1.5 200 07:40 12.11.2019
4554 Clouds 4 1008 80 10000 2.1 160 07:20 12.11.2019
4555 Clouds 3 1008 86 10000 2.6 170 06:42 12.11.2019
4556 Clouds 3 1008 80 10000 1.5 190 06:22 12.11.2019
4557 Clouds 4 1008 80 10000 2.6 200 05:46 12.11.2019
4558 Clouds 4 1008 86 10000 2.1 190 04:44 12.11.2019
4559 Clouds 4 1008 86 10000 1.5 170 03:40 12.11.2019
4560 Clouds 4 1007 86 10000 2.1 260 01:47 12.11.2019
4561 Clouds 4 1007 86 10000 1.5 240 01:22 12.11.2019
4562 Clouds 4 1007 86 10000 1 0 00:47 12.11.2019
4563 Clouds 4 1007 86 10000 1 0 00:24 12.11.2019
4564 Rain 3 1007 86 10000 1.5 180 23:44 11.11.2019
4565 Clouds 3 1006 86 10000 1 0 23:23 11.11.2019
4566 Clouds 3 1006 86 10000 1 0 23:23 11.11.2019
4567 Clouds 3 1006 86 10000 1 0 22:57 11.11.2019
4568 Rain 3 1006 86 10000 0.5 0 22:36 11.11.2019
4569 Clouds 3 1006 80 10000 1.5 200 22:18 11.11.2019
4570 Clouds 3 1006 86 10000 1.5 160 21:57 11.11.2019
4571 Clouds 3 1006 86 10000 1.5 160 21:38 11.11.2019
4572 Clouds 3 1006 86 10000 0.5 0 21:19 11.11.2019
4573 Clouds 3 1006 86 10000 1.5 160 20:43 11.11.2019
4574 Clouds 3 1006 86 10000 1.5 140 20:21 11.11.2019
4575 Clouds 3 1006 86 10000 1.5 140 19:59 11.11.2019
4576 Clouds 3 1007 80 10000 1 0 19:41 11.11.2019
4577 Clouds 3 1007 80 10000 1 0 19:19 11.11.2019
4578 Clouds 3 1007 80 10000 1 0 18:57 11.11.2019
4579 Clouds 3 1007 80 10000 1.5 160 18:38 11.11.2019
4580 Clouds 2 1007 80 10000 2.1 130 18:19 11.11.2019
4581 Clouds 3 1007 86 10000 2.1 140 17:43 11.11.2019
4582 Clouds 3 1007 80 10000 1.5 160 17:24 11.11.2019
4583 Clouds 3 1007 80 10000 2.1 150 16:54 11.11.2019
4584 Clouds 3 1007 80 10000 2.1 150 16:36 11.11.2019
4585 Clouds 3 1007 68 10000 2.6 150 16:18 11.11.2019
4586 Clouds 4 1007 68 10000 3.1 160 15:41 11.11.2019
4587 Clouds 4 1007 68 10000 1.5 0 15:20 11.11.2019
4588 Clouds 4 1007 68 10000 1.5 0 14:54 11.11.2019
4589 Clouds 4 1007 68 10000 1.5 0 14:54 11.11.2019
4590 Clouds 4 1008 75 10000 1 0 14:36 11.11.2019
4591 Clouds 4 1008 80 10000 2.1 290 14:18 11.11.2019
4592 Clouds 4 1008 80 10000 2.1 280 13:39 11.11.2019
4593 Clouds 3 1009 56 10000 2.6 290 13:21 11.11.2019
4594 Clouds 4 1009 56 10000 2.6 290 12:58 11.11.2019
4595 -273 0 0 0 0 0 12:58 11.11.2019
4596 Clouds 4 1009 80 10000 1.5 230 12:40 11.11.2019
4597 Clouds 4 1010 80 10000 2.6 250 12:22 11.11.2019
4598 Clouds 4 1010 80 10000 2.6 250 11:57 11.11.2019
4599 Clouds 3 1011 80 10000 2.1 200 11:39 11.11.2019
4600 Clouds 2 1011 80 10000 2.1 200 11:21 11.11.2019
4601 Clouds 1 1011 86 6000 2.1 180 10:43 11.11.2019
4602 Mist 1 1012 68 4500 2.6 160 10:19 11.11.2019
4603 Mist 0 1012 68 4500 2.6 160 09:58 11.11.2019
4604 Mist 0 1012 68 4500 2.6 160 09:58 11.11.2019
4605 Mist 0 1012 68 4500 2.6 160 09:58 11.11.2019
4606 Mist 0 1012 100 3500 2.6 150 09:39 11.11.2019
4607 Mist 0 1013 100 1200 3.1 150 09:19 11.11.2019
4608 Mist 0 1013 100 1200 2.1 150 08:41 11.11.2019
4609 Mist 0 1013 100 1200 2.1 230 08:22 11.11.2019
4610 Mist 0 1013 100 1200 2.1 150 08:22 11.11.2019
4611 Mist 0 1013 100 1600 1.5 170 07:57 11.11.2019
4612 Mist 0 1013 100 1600 1.5 170 07:37 11.11.2019
4613 Mist 0 1013 100 1600 2.6 160 07:19 11.11.2019
4614 Mist 0 1013 100 1000 2.1 180 06:48 11.11.2019
4615 Fog 0 1014 88 600 2.6 170 06:24 11.11.2019
4616 Mist 0 1014 88 1300 1.5 120 05:51 11.11.2019
4617 Mist 0 1014 87 1800 1.5 260 04:50 11.11.2019
4618 Mist 0 1014 100 3200 1.5 130 03:25 11.11.2019
4619 Mist 1 1014 100 1300 1.5 140 02:30 11.11.2019
4620 Fog 1 1015 100 500 0.5 0 01:57 11.11.2019
4621 Fog 1 1015 100 500 0.5 0 01:36 11.11.2019
4622 Mist 1 1015 100 1100 1.5 210 00:53 11.11.2019
4623 Mist 1 1015 100 1100 1.5 210 00:33 11.11.2019
4624 Mist 1 1015 88 1200 1.5 180 23:57 10.11.2019
4625 Fog 1 1015 100 650 1 0 23:37 10.11.2019
4626 Fog 1 1015 100 350 1 0 23:19 10.11.2019
4627 Fog 1 1015 100 600 0.5 0 22:55 10.11.2019
4628 Fog 1 1015 100 600 0.5 0 22:55 10.11.2019
4629 Fog 1 1015 100 600 0.5 0 22:37 10.11.2019
4630 Fog 2 1015 100 300 1.5 130 22:18 10.11.2019
4631 Fog 2 1015 100 200 2.1 170 21:55 10.11.2019
4632 Fog 2 1015 100 200 2.1 170 21:36 10.11.2019
4633 Fog 2 1015 100 200 1.5 170 21:18 10.11.2019
4634 Fog 2 1015 100 250 1.5 140 20:41 10.11.2019
4635 Fog 2 1015 100 400 1 0 20:22 10.11.2019
4636 Fog 2 1015 100 400 1 0 20:22 10.11.2019
4637 Fog 2 1015 100 800 1.5 100 19:56 10.11.2019
4638 Fog 2 1015 100 400 1 0 19:56 10.11.2019
4639 Fog 2 1015 100 800 1.5 100 19:37 10.11.2019
4640 Mist 2 1015 100 2900 1.5 90 19:19 10.11.2019
4641 Mist 2 1015 100 2900 1.5 90 18:58 10.11.2019
4642 Mist 2 1015 100 4700 1 0 18:39 10.11.2019
4643 Mist 2 1015 93 5000 2.1 150 18:19 10.11.2019
4644 Mist 2 1015 93 5000 2.1 150 18:19 10.11.2019
4645 Mist 2 1015 93 5000 2.1 150 17:56 10.11.2019
4646 Clouds 3 1014 93 7000 1 0 17:38 10.11.2019
4647 Clouds 3 1014 93 7000 1 0 17:38 10.11.2019
4648 Clouds 3 1014 93 9000 1.5 150 17:20 10.11.2019
4649 Clouds 4 1013 93 10000 1.5 130 16:58 10.11.2019
4650 Clouds 4 1013 93 10000 1.5 130 16:39 10.11.2019
4651 Clouds 4 1013 93 10000 1.5 130 16:39 10.11.2019
4652 Clouds 4 1013 93 10000 1.5 90 16:20 10.11.2019
4653 Clouds 5 1013 93 10000 1.5 90 15:56 10.11.2019
4654 Clouds 5 1012 93 10000 1 0 15:36 10.11.2019
4655 Clouds 5 1012 93 10000 0.5 0 15:18 10.11.2019
4656 Clouds 5 1012 93 10000 1.5 210 14:55 10.11.2019
4657 Clouds 5 1012 93 10000 1.5 210 14:36 10.11.2019
4658 Clouds 5 1012 86 10000 1 0 14:18 10.11.2019
4659 Mist 5 1012 93 5000 1.5 170 13:41 10.11.2019
4660 Mist 5 1012 93 5000 0.5 230 13:20 10.11.2019
4661 Mist 5 1011 100 4000 1 0 12:55 10.11.2019
4662 Mist 5 1011 100 4000 1 0 12:37 10.11.2019
4663 Fog 5 1012 100 1500 1.5 160 12:18 10.11.2019
4664 Clear 5 1012 80 10000 3.1 80 11:54 10.11.2019
4665 Fog 4 1011 60 900 1 0 11:36 10.11.2019
4666 Fog 2 1011 76 650 1 0 11:18 10.11.2019
4667 Fog 1 1011 100 400 1.5 180 10:41 10.11.2019
4668 Fog 1 1011 100 250 1 0 10:20 10.11.2019
4669 Fog 0 1010 92 200 1.5 0 09:45 10.11.2019
4670 Fog 0 1010 92 200 1.5 0 09:27 10.11.2019
4671 Fog 0 1010 100 200 0.5 0 08:59 10.11.2019
4672 Fog 0 1010 100 150 1 0 08:38 10.11.2019
4673 Fog -1 1009 100 150 1 0 08:19 10.11.2019
4674 Fog -1 1009 100 150 1 0 08:19 10.11.2019
4675 Fog -1 1009 100 150 1 0 07:44 10.11.2019
4676 Fog -1 1009 100 150 1 0 07:25 10.11.2019
4677 Fog -1 1009 100 250 1 0 06:38 10.11.2019
4678 Fog -1 1009 100 250 1 0 06:38 10.11.2019
4679 Fog -1 1009 100 150 0.5 0 05:44 10.11.2019
4680 Fog -1 1008 100 9000 0.5 0 03:28 10.11.2019
4681 Fog 0 1008 100 10000 1 310 02:20 10.11.2019
4682 Fog 0 1008 100 10000 1 0 01:20 10.11.2019
4683 Fog 1 1008 100 10000 1 90 00:45 10.11.2019
4684 Clear 1 1009 90 10000 1 280 23:59 09.11.2019
4685 Clear 1 1009 90 10000 1 280 23:40 09.11.2019
4686 Clear 1 1009 89 10000 1 0 23:19 09.11.2019
4687 Clear 1 1009 89 10000 1 60 22:42 09.11.2019
4688 Clear 1 1009 89 10000 1.5 80 22:22 09.11.2019
4689 Clear 2 1009 89 10000 1.5 80 21:58 09.11.2019
4690 Clear 2 1009 89 10000 0.5 0 21:39 09.11.2019
4691 Clear 2 1009 89 10000 1 60 21:20 09.11.2019
4692 Clear 2 1009 93 10000 1.27 153 20:56 09.11.2019
4693 Clear 3 1009 93 10000 1.27 153 20:37 09.11.2019
4694 Clear 3 1009 93 10000 0.5 0 20:18 09.11.2019
4695 Clear 3 1009 93 10000 0.5 0 19:41 09.11.2019
4696 Clear 3 1010 93 10000 0.5 0 19:22 09.11.2019
4697 Clear 4 1010 86 10000 0.5 0 18:58 09.11.2019
4698 Clear 4 1010 86 10000 0.5 0 18:39 09.11.2019
4699 Clear 4 1010 86 10000 1 0 18:18 09.11.2019
4700 Clear 5 1010 80 10000 1 0 17:43 09.11.2019
4701 Rain 5 1010 75 10000 1.5 190 17:23 09.11.2019
4702 Clouds 6 1010 70 10000 2.6 200 16:59 09.11.2019
4703 Clouds 7 1010 70 10000 2.6 200 16:40 09.11.2019
4704 Clouds 7 1010 75 10000 3.1 200 16:20 09.11.2019
4705 Clouds 7 1010 75 10000 2.6 210 15:42 09.11.2019
4706 Rain 7 1010 75 10000 2.1 230 15:24 09.11.2019
4707 Rain 7 1010 75 10000 2.1 230 14:59 09.11.2019
4708 Clouds 8 1010 70 10000 1.5 210 14:40 09.11.2019
4709 Clouds 8 1010 70 10000 2.6 220 14:18 09.11.2019
4710 Clouds 8 1010 70 10000 2.6 220 13:56 09.11.2019
4711 Clouds 8 1010 70 10000 3.1 230 13:36 09.11.2019
4712 Clouds 8 1010 70 10000 2.6 260 13:18 09.11.2019
4713 Clouds 8 1010 70 10000 2.6 260 13:18 09.11.2019
4714 Clouds 7 1010 81 10000 2.1 220 12:44 09.11.2019
4715 Clouds 7 1010 81 10000 2.1 220 12:25 09.11.2019
4716 Rain 7 1011 87 10000 2.1 230 11:56 09.11.2019
4717 Clouds 6 1011 87 10000 2.6 220 11:38 09.11.2019
4718 Clouds 6 1011 81 10000 1.5 230 11:18 09.11.2019
4719 Clouds 6 1011 86 10000 1.5 210 10:41 09.11.2019
4720 Clouds 5 1011 86 10000 1 0 10:19 09.11.2019
4721 Clouds 5 1011 93 10000 1.5 230 09:57 09.11.2019
4722 Clouds 5 1011 93 10000 1.5 230 09:57 09.11.2019
4723 Clouds 5 1011 93 10000 1.5 230 09:38 09.11.2019
4724 Clouds 5 1011 86 10000 1.5 210 09:18 09.11.2019
4725 Clouds 4 1010 86 10000 1 0 08:43 09.11.2019
4726 Clouds 4 1010 86 10000 2.1 210 08:24 09.11.2019
4727 Clouds 4 1010 93 10000 1 0 07:48 09.11.2019
4728 Clouds 4 1009 93 10000 1 0 07:24 09.11.2019
4729 Clouds 4 1009 93 10000 1 0 06:57 09.11.2019
4730 Clouds 4 1009 93 10000 1 0 06:39 09.11.2019
4731 Clouds 4 1009 93 10000 1 0 06:20 09.11.2019
4732 Clouds 4 1009 93 10000 1 0 05:38 09.11.2019
4733 Drizzle 4 1009 93 10000 1.5 230 03:57 09.11.2019
4734 Drizzle 4 1009 93 10000 1.5 230 03:57 09.11.2019
4735 Drizzle 4 1009 93 10000 3.1 250 02:46 09.11.2019
4736 Drizzle 4 1009 93 10000 1.5 240 02:24 09.11.2019
4737 Drizzle 4 1009 93 10000 1.5 240 02:24 09.11.2019
4738 Drizzle 4 1008 93 10000 2.1 250 01:18 09.11.2019
4739 Drizzle 4 1008 93 10000 3.1 240 00:39 09.11.2019
4740 Drizzle 4 1008 93 10000 4.1 260 00:21 09.11.2019
4741 Drizzle 4 1008 93 10000 4.1 270 23:40 08.11.2019
4742 Drizzle 4 1008 93 10000 4.6 270 23:22 08.11.2019
4743 Drizzle 4 1008 86 10000 4.6 270 22:56 08.11.2019
4744 Drizzle 4 1008 86 10000 4.6 270 22:56 08.11.2019
4745 Drizzle 4 1008 86 10000 4.6 270 22:38 08.11.2019
4746 Drizzle 4 1007 86 10000 3.6 290 22:19 08.11.2019
4747 Drizzle 4 1007 86 10000 3.1 280 21:41 08.11.2019
4748 Drizzle 4 1006 86 10000 4.6 300 21:23 08.11.2019
4749 Drizzle 4 1006 93 10000 4.1 270 20:57 08.11.2019
4750 Drizzle 4 1006 93 10000 4.1 270 20:39 08.11.2019
4751 Drizzle 4 1006 93 8000 4.6 280 20:19 08.11.2019
4752 Rain 5 1006 86 10000 3.6 270 19:54 08.11.2019
4753 Rain 5 1006 86 10000 3.6 270 19:36 08.11.2019
4754 Rain 5 1005 86 10000 5.1 280 19:18 08.11.2019
4755 Rain 5 1005 93 10000 4.6 280 18:54 08.11.2019
4756 Rain 5 1005 93 10000 4.6 280 18:36 08.11.2019
4757 Rain 5 1005 93 10000 3.1 260 18:18 08.11.2019
4758 Rain 5 1005 93 10000 3.1 260 18:18 08.11.2019
4759 Rain 5 1005 93 10000 4.6 280 17:54 08.11.2019
4760 Rain 5 1005 93 10000 4.6 280 17:36 08.11.2019
4761 Rain 5 1005 93 10000 4.6 280 17:36 08.11.2019
4762 Rain 5 1004 93 10000 4.6 290 17:18 08.11.2019
4763 Rain 5 1004 86 9000 5.7 280 16:57 08.11.2019
4764 Rain 5 1004 86 9000 5.7 280 16:57 08.11.2019
4765 Rain 5 1004 86 9000 5.7 280 16:38 08.11.2019
4766 Rain 6 1004 86 9000 5.1 280 16:18 08.11.2019
4767 Rain 6 1003 93 10000 5.1 290 15:41 08.11.2019
4768 Rain 6 1003 93 10000 5.1 290 15:23 08.11.2019
4769 Rain 6 1003 93 10000 5.1 290 14:58 08.11.2019
4770 Rain 6 1003 93 10000 5.1 290 14:58 08.11.2019
4771 Rain 6 1003 93 9000 3.1 340 14:39 08.11.2019
4772 Rain 6 1003 93 9000 5.1 310 14:20 08.11.2019
4773 Rain 6 1003 93 9000 5.1 310 13:59 08.11.2019
4774 Rain 6 1003 93 9000 5.1 300 13:41 08.11.2019
4775 Rain 6 1003 87 8000 5.1 310 13:22 08.11.2019
4776 Rain 6 1003 87 7000 4.6 320 12:49 08.11.2019
4777 Rain 6 1003 87 7000 4.6 320 12:29 08.11.2019
4778 Rain 6 1003 93 8000 4.1 320 11:59 08.11.2019
4779 Rain 6 1003 93 8000 3.6 310 11:59 08.11.2019
4780 Rain 6 1003 93 8000 4.1 320 11:41 08.11.2019
4781 Rain 6 1004 100 8000 3.1 320 11:22 08.11.2019
4782 Rain 6 1004 100 8000 3.1 320 10:59 08.11.2019
4783 Rain 6 1004 100 8000 2.6 290 10:41 08.11.2019
4784 Rain 5 1004 93 9000 2.1 320 10:22 08.11.2019
4785 Rain 6 1004 93 9000 2.1 320 09:58 08.11.2019
4786 Clouds 6 1004 93 10000 2.6 300 09:38 08.11.2019
4787 Clouds 5 1004 93 10000 2.6 300 09:19 08.11.2019
4788 Rain 5 1004 93 9000 3.1 300 08:45 08.11.2019
4789 Rain 5 1004 93 10000 2.6 300 08:23 08.11.2019
4790 Rain 5 1004 93 10000 2.1 300 07:56 08.11.2019
4791 Rain 5 1004 93 10000 2.1 300 07:37 08.11.2019
4792 Rain 5 1004 86 10000 1 0 07:19 08.11.2019
4793 Clouds 5 1004 86 10000 1 260 06:38 08.11.2019
4794 Rain 5 1004 93 10000 1 0 06:19 08.11.2019
4795 Rain 5 1004 93 10000 1 0 05:38 08.11.2019
4796 Rain 5 1005 100 10000 2.1 100 04:30 08.11.2019
4797 Rain 6 1005 93 10000 0.5 0 03:43 08.11.2019
4798 Rain 6 1005 87 10000 0.5 50 03:19 08.11.2019
4799 Clouds 6 1005 87 10000 0.63 176 02:24 08.11.2019
4800 Clouds 6 1005 87 10000 1 0 01:42 08.11.2019
4801 Clouds 6 1006 87 10000 0.5 0 00:59 08.11.2019
4802 Clouds 6 1005 87 10000 1 0 00:24 08.11.2019
4803 Clouds 6 1005 87 10000 1 0 23:55 07.11.2019
4804 Clouds 6 1006 87 10000 1 0 23:36 07.11.2019
4805 Clouds 7 1006 75 10000 1 230 23:18 07.11.2019
4806 Clouds 7 1005 75 10000 2.1 250 22:41 07.11.2019
4807 Clouds 7 1005 75 10000 2.1 270 22:21 07.11.2019
4808 Clouds 7 1005 75 10000 1.5 250 21:55 07.11.2019
4809 Clouds 7 1005 75 10000 1.5 250 21:37 07.11.2019
4810 Clouds 7 1005 81 10000 3.1 250 21:18 07.11.2019
4811 Clouds 7 1005 81 10000 3.1 250 20:55 07.11.2019
4812 Clouds 7 1005 81 10000 2.1 250 20:37 07.11.2019
4813 Clouds 7 1005 81 10000 2.1 250 20:37 07.11.2019
4814 Clouds 8 1005 75 10000 2.1 200 20:18 07.11.2019
4815 Clouds 8 1004 75 10000 2.1 210 19:41 07.11.2019
4816 Clouds 8 1004 75 10000 3.1 220 19:23 07.11.2019
4817 Clouds 7 1004 75 10000 3.1 220 18:58 07.11.2019
4818 Clouds 8 1004 75 10000 2.6 220 18:40 07.11.2019
4819 Clouds 8 1004 70 10000 1.5 190 18:20 07.11.2019
4820 Clouds 8 1004 70 10000 1.5 190 17:59 07.11.2019
4821 Clouds 8 1003 66 10000 3.1 200 17:39 07.11.2019
4822 Clouds 9 1003 66 10000 3.1 200 17:20 07.11.2019
4823 Clouds 9 1003 70 10000 3.1 200 16:58 07.11.2019
4824 Clouds 9 1002 66 10000 4.1 200 16:39 07.11.2019
4825 Clouds 9 1002 66 10000 4.1 200 16:19 07.11.2019
4826 Clouds 9 1002 66 10000 4.1 190 15:56 07.11.2019
4827 Clouds 9 1002 66 10000 5.1 200 15:37 07.11.2019
4828 -273 0 0 0 0 0 15:18 07.11.2019
4829 Clouds 9 1002 66 10000 4.6 190 14:44 07.11.2019
4830 Clouds 9 1002 66 10000 4.1 180 14:26 07.11.2019
4831 Clouds 9 1002 76 10000 3.6 170 13:57 07.11.2019
4832 Rain 9 1002 70 10000 3.6 180 13:38 07.11.2019
4833 Rain 9 1002 70 10000 3.6 180 13:20 07.11.2019
4834 Rain 9 1002 66 10000 3.6 180 12:58 07.11.2019
4835 Rain 9 1002 76 10000 1 0 12:39 07.11.2019
4836 Rain 9 1002 76 10000 1 0 12:21 07.11.2019
4837 Clouds 9 1002 81 10000 2.1 80 11:58 07.11.2019
4838 Clouds 9 1002 75 10000 2.6 70 11:39 07.11.2019
4839 Clear 9 1002 75 10000 2.6 70 11:20 07.11.2019
4840 Clear 8 1002 87 10000 1.5 110 10:40 07.11.2019
4841 Clear 8 1002 87 10000 1.5 110 10:19 07.11.2019
4842 Clear 7 1002 86 10000 0.5 0 09:43 07.11.2019
4843 Clear 6 1002 86 10000 0.5 0 09:22 07.11.2019
4844 Fog 6 1002 86 10000 0.5 0 08:57 07.11.2019
4845 Fog 5 1002 86 10000 2.1 70 08:38 07.11.2019
4846 Fog 5 1002 86 10000 2.1 70 08:20 07.11.2019
4847 Clouds 4 1002 93 10000 1 0 07:42 07.11.2019
4848 Clouds 4 1002 93 10000 1 0 07:23 07.11.2019
4849 Clouds 4 1002 93 10000 1 0 07:21 07.11.2019
4850 Clouds 4 1003 93 10000 0.5 0 06:47 07.11.2019
4851 Fog 4 1003 93 10000 1 0 06:27 07.11.2019
4852 Fog 4 1003 93 10000 1 0 06:27 07.11.2019
4853 Fog 5 1003 93 10000 1.5 190 05:51 07.11.2019
4854 Clouds 5 1003 93 10000 1 0 05:33 07.11.2019
4855 -273 0 0 0 0 0 04:53 07.11.2019
4856 Clouds 5 1003 93 10000 0.5 0 04:52 07.11.2019
4857 Clouds 6 1003 86 10000 0.5 0 04:31 07.11.2019
4858 Clouds 7 1004 81 10000 1.5 220 01:51 07.11.2019
4859 Clouds 7 1004 81 10000 1.5 220 01:49 07.11.2019
4860 Rain 7 1005 81 10000 2.1 200 00:46 07.11.2019
4861 Rain 7 1005 81 10000 2.6 190 00:19 07.11.2019
4862 Clouds 7 1005 75 10000 2.6 200 23:47 06.11.2019
4863 Clouds 8 1005 81 10000 2.1 200 23:21 06.11.2019
4864 Rain 8 1005 81 10000 2.1 210 22:55 06.11.2019
4865 Rain 8 1005 81 10000 1.5 230 22:37 06.11.2019
4866 Rain 8 1005 81 10000 1.5 230 22:18 06.11.2019
4867 Clouds 8 1005 75 10000 2.1 200 21:42 06.11.2019
4868 Clouds 8 1005 70 10000 2.6 210 21:20 06.11.2019
4869 Clouds 8 1005 70 10000 2.6 210 20:58 06.11.2019
4870 Clouds 8 1005 76 10000 2.6 220 20:40 06.11.2019
4871 Clouds 8 1005 76 10000 2.6 220 20:21 06.11.2019
4872 Clouds 8 1005 76 10000 2.6 210 19:58 06.11.2019
4873 Clouds 8 1005 76 10000 2.6 200 19:39 06.11.2019
4874 Clouds 8 1005 76 10000 2.6 200 19:21 06.11.2019
4875 Clouds 8 1005 76 10000 2.6 200 19:21 06.11.2019
4876 Clouds 8 1005 76 10000 2.6 200 18:58 06.11.2019
4877 Clouds 8 1005 76 10000 2.1 220 18:38 06.11.2019
4878 Clouds 8 1005 76 0 1.5 240 18:19 06.11.2019
4879 Clouds 8 1005 76 10000 3.1 280 17:56 06.11.2019
4880 Clouds 8 1005 76 10000 3.1 280 17:56 06.11.2019
4881 Clouds 8 1005 76 10000 3.1 280 17:37 06.11.2019
4882 Clouds 9 1005 70 10000 3.1 260 17:18 06.11.2019
4883 Clouds 9 1004 66 10000 3.6 260 16:55 06.11.2019
4884 Clouds 9 1004 66 10000 3.6 260 16:37 06.11.2019
4885 Clouds 9 1004 66 10000 3.6 260 16:37 06.11.2019
4886 Clouds 9 1004 66 10000 3.1 260 16:18 06.11.2019
4887 Clouds 9 1004 66 10000 4.1 260 15:54 06.11.2019
4888 Clouds 9 1004 66 10000 4.1 260 15:36 06.11.2019
4889 Clouds 10 1004 61 10000 3.6 250 15:18 06.11.2019
4890 Clouds 10 1004 61 10000 3.6 250 14:55 06.11.2019
4891 Clouds 10 1004 57 10000 3.1 230 14:37 06.11.2019
4892 Clouds 10 1004 57 10000 3.1 230 14:37 06.11.2019
4893 Clouds 10 1004 62 10000 2.6 240 14:19 06.11.2019
4894 Rain 10 1004 71 10000 2.6 240 13:40 06.11.2019
4895 Rain 10 1004 76 10000 3.6 250 13:22 06.11.2019
4896 Rain 9 1004 76 10000 3.6 250 12:58 06.11.2019
4897 Rain 9 1004 71 10000 2.6 230 12:39 06.11.2019
4898 Clouds 9 1004 71 10000 3.1 250 12:21 06.11.2019
4899 Clouds 9 1004 71 10000 3.1 250 11:58 06.11.2019
4900 Rain 9 1004 81 10000 1 0 11:38 06.11.2019
4901 Rain 9 1004 81 10000 3.1 250 11:18 06.11.2019
4902 Rain 8 1004 87 10000 2.6 240 10:56 06.11.2019
4903 Rain 8 1004 87 10000 2.6 240 10:38 06.11.2019
4904 Rain 8 1004 87 10000 1.5 220 10:20 06.11.2019
4905 Rain 8 1004 87 10000 1.5 220 10:20 06.11.2019
4906 Rain 8 1004 87 10000 1.5 220 09:56 06.11.2019
4907 Rain 7 1003 81 10000 1.5 210 09:36 06.11.2019
4908 Rain 7 1003 81 10000 1.5 240 09:18 06.11.2019
4909 Rain 7 1003 87 10000 1 0 08:54 06.11.2019
4910 Rain 7 1003 87 10000 1 0 08:36 06.11.2019
4911 Rain 7 1003 87 10000 1 0 08:18 06.11.2019
4912 Rain 6 1002 93 10000 1.5 220 07:40 06.11.2019
4913 Rain 6 1002 87 10000 1.5 230 07:21 06.11.2019
4914 Clouds 6 1002 93 10000 1 0 06:47 06.11.2019
4915 Clouds 6 1001 93 10000 1 70 06:27 06.11.2019
4916 Clouds 6 1001 87 10000 1 0 04:52 06.11.2019
4917 Clouds 6 1001 93 10000 2.1 270 02:28 06.11.2019
4918 Clear 6 1000 87 10000 1 0 01:39 06.11.2019
4919 Clouds 6 1000 100 10000 0.5 0 00:46 06.11.2019
4920 Clouds 6 1000 100 10000 0.5 0 00:46 06.11.2019
4921 Clouds 7 1000 100 10000 1.5 260 23:58 05.11.2019
4922 Clouds 7 1000 100 10000 1.5 260 23:39 05.11.2019
4923 Clouds 7 1000 87 10000 1 0 23:21 05.11.2019
4924 Rain 7 1000 87 10000 1 0 22:55 05.11.2019
4925 Rain 7 1000 87 10000 1 0 22:37 05.11.2019
4926 Rain 7 1000 87 10000 1 0 22:18 05.11.2019
4927 Rain 7 1000 81 10000 1 0 21:42 05.11.2019
4928 Clouds 7 999 87 10000 1.5 280 21:21 05.11.2019
4929 Clouds 7 999 87 10000 1.5 280 20:59 05.11.2019
4930 Clouds 7 999 87 10000 1 0 20:39 05.11.2019
4931 Clouds 7 999 81 10000 0.5 0 20:21 05.11.2019
4932 Clouds 8 999 81 10000 0.5 0 19:58 05.11.2019
4933 Rain 8 999 87 10000 0.5 0 19:38 05.11.2019
4934 Rain 8 999 87 10000 1 0 19:20 05.11.2019
4935 Rain 8 999 87 10000 1 0 18:58 05.11.2019
4936 Clouds 8 999 87 10000 1 120 18:39 05.11.2019
4937 Clouds 8 999 87 10000 1 120 18:39 05.11.2019
4938 Clouds 8 998 81 10000 0.5 90 18:20 05.11.2019
4939 Clouds 9 998 81 10000 1 70 17:58 05.11.2019
4940 Clouds 9 998 81 10000 1 70 17:39 05.11.2019
4941 Clouds 10 998 81 10000 1 100 17:19 05.11.2019
4942 Clouds 10 998 81 10000 1 100 16:56 05.11.2019
4943 Rain 10 998 66 10000 1 70 16:38 05.11.2019
4944 Rain 11 998 71 10000 1.5 70 16:19 05.11.2019
4945 Clouds 11 998 71 10000 2.6 70 15:38 05.11.2019
4946 Rain 11 998 58 10000 1.5 0 15:20 05.11.2019
4947 Rain 11 998 58 10000 1 0 14:58 05.11.2019
4948 Rain 11 998 58 10000 1 0 14:40 05.11.2019
4949 Clouds 11 998 58 10000 2.1 240 14:21 05.11.2019
4950 Clouds 12 998 58 10000 1 0 13:56 05.11.2019
4951 Clouds 11 998 58 10000 1 0 13:38 05.11.2019
4952 Clouds 12 998 62 10000 1 0 13:20 05.11.2019
4953 Clouds 11 998 58 10000 3.1 230 12:39 05.11.2019
4954 Clouds 11 999 62 10000 2.6 260 12:21 05.11.2019
4955 Clouds 11 999 62 10000 1.5 220 11:56 05.11.2019
4956 Clouds 11 999 62 10000 1.5 220 11:37 05.11.2019
4957 Clouds 10 999 62 10000 2.1 220 11:19 05.11.2019
4958 Clouds 10 999 62 10000 2.6 200 10:45 05.11.2019
4959 Clouds 9 999 66 10000 2.1 200 10:27 05.11.2019
4960 Clouds 9 999 66 10000 2.1 200 09:59 05.11.2019
4961 Clouds 9 999 76 10000 1 0 09:41 05.11.2019
4962 Clouds 8 999 76 10000 1.5 210 09:20 05.11.2019
4963 Clouds 7 999 81 10000 2.1 190 08:56 05.11.2019
4964 Clouds 7 999 81 10000 2.1 190 08:37 05.11.2019
4965 Clouds 6 998 81 10000 1.5 170 08:18 05.11.2019
4966 Clouds 6 998 93 10000 1 0 07:45 05.11.2019
4967 Clouds 6 998 93 10000 1 0 07:26 05.11.2019
4968 Clouds 6 998 100 10000 1 0 06:52 05.11.2019
4969 Clouds 6 998 100 10000 1 0 06:30 05.11.2019
4970 Clouds 6 997 100 10000 1.5 110 05:44 05.11.2019
4971 Clouds 6 997 100 10000 1 60 05:20 05.11.2019
4972 Clouds 6 998 93 10000 1.5 90 04:22 05.11.2019
4973 Clouds 7 997 87 10000 0.5 0 03:31 05.11.2019
4974 Clouds 7 998 93 10000 1 0 02:43 05.11.2019
4975 Clouds 8 998 81 10000 1.5 220 01:55 05.11.2019
4976 Clouds 9 997 81 10000 1.5 240 00:48 05.11.2019
4977 Clouds 9 997 81 10000 3.6 240 00:27 05.11.2019
4978 Clouds 10 997 81 10000 4.6 260 23:43 04.11.2019
4979 Clouds 10 996 81 10000 3.1 200 23:19 04.11.2019
4980 Clouds 10 996 81 10000 3.1 200 22:57 04.11.2019
4981 Rain 10 996 81 10000 2.1 180 22:39 04.11.2019
4982 Rain 10 995 81 10000 2.1 180 22:20 04.11.2019
4983 Clouds 10 995 87 10000 1.5 140 21:55 04.11.2019
4984 Clouds 10 995 87 10000 1.5 140 21:37 04.11.2019
4985 Rain 10 995 81 10000 1 0 21:18 04.11.2019
4986 Rain 10 995 81 10000 1 0 21:18 04.11.2019
4987 Rain 10 995 81 10000 1 0 20:56 04.11.2019
4988 Rain 10 995 87 10000 1.5 210 20:56 04.11.2019
4989 Rain 10 995 87 10000 1.5 210 20:37 04.11.2019
4990 Rain 10 995 81 10000 2.1 190 20:19 04.11.2019
4991 Rain 10 995 81 10000 2.1 190 19:57 04.11.2019
4992 Rain 10 995 87 10000 2.6 190 19:38 04.11.2019
4993 Rain 10 995 87 10000 2.1 190 19:20 04.11.2019
4994 Rain 10 995 81 10000 2.6 200 18:55 04.11.2019
4995 Rain 10 995 81 10000 2.6 200 18:37 04.11.2019
4996 Rain 10 995 87 10000 3.1 200 18:18 04.11.2019
4997 Rain 11 994 81 10000 2.6 190 17:39 04.11.2019
4998 Clouds 11 994 76 10000 3.1 190 17:21 04.11.2019
4999 Clouds 11 994 71 10000 3.1 200 16:57 04.11.2019
5000 Clouds 12 994 71 10000 3.1 200 16:39 04.11.2019
5001 Clouds 12 994 71 10000 3.1 220 16:20 04.11.2019
5002 Clouds 12 993 66 10000 3.6 220 15:54 04.11.2019
5003 Clouds 12 993 66 10000 3.6 220 15:36 04.11.2019
5004 Clouds 13 993 66 10000 4.6 240 15:18 04.11.2019
5005 Clouds 13 993 71 10000 4.6 230 14:41 04.11.2019
5006 Rain 13 993 76 10000 4.6 210 14:21 04.11.2019
5007 Rain 12 993 76 10000 4.6 210 13:59 04.11.2019
5008 Rain 12 993 87 10000 3.1 220 13:40 04.11.2019
5009 Rain 12 993 81 10000 4.1 210 13:21 04.11.2019
5010 Rain 12 993 81 10000 4.1 210 13:21 04.11.2019
5011 Rain 12 992 76 10000 5.7 230 12:58 04.11.2019
5012 Rain 12 992 76 10000 5.7 230 12:40 04.11.2019
5013 Clouds 12 992 66 10000 4.6 210 12:21 04.11.2019
5014 Clouds 12 993 66 10000 4.1 190 11:56 04.11.2019
5015 Clouds 11 993 66 10000 4.1 190 11:38 04.11.2019
5016 Clouds 11 993 66 10000 3.1 190 11:19 04.11.2019
5017 Clouds 10 993 71 10000 3.1 190 10:42 04.11.2019
5018 Rain 10 993 76 10000 2.1 180 10:24 04.11.2019
5019 Rain 10 994 76 10000 1.5 160 09:47 04.11.2019
5020 Rain 10 994 76 10000 1.5 160 09:28 04.11.2019
5021 Clouds 10 994 76 10000 2.1 190 08:59 04.11.2019
5022 Clouds 9 994 76 10000 2.1 190 08:40 04.11.2019
5023 Clouds 9 994 81 10000 2.6 190 08:21 04.11.2019
5024 Clouds 9 994 81 10000 3.6 200 07:45 04.11.2019
5025 Clouds 9 994 81 10000 3.6 200 07:24 04.11.2019
5026 Clouds 9 994 81 10000 3.6 200 07:24 04.11.2019
5027 Clouds 9 994 87 10000 3.6 220 06:58 04.11.2019
5028 Clouds 9 994 87 10000 3.6 220 06:35 04.11.2019
5029 Clouds 9 994 87 10000 2.6 200 05:57 04.11.2019
5030 Clouds 9 994 87 10000 2.1 220 04:45 04.11.2019
5031 Clouds 9 994 87 10000 2.6 210 04:23 04.11.2019
5032 Clouds 9 994 87 10000 3.6 210 02:44 04.11.2019
5033 Rain 9 993 81 10000 2.6 210 01:22 04.11.2019
5034 Rain 10 993 81 10000 4.1 220 00:49 04.11.2019
5035 Clouds 10 993 87 10000 4.6 220 00:21 04.11.2019
5036 Clouds 10 992 87 10000 4.1 200 23:56 03.11.2019
5037 Clouds 10 992 87 10000 4.1 200 23:36 03.11.2019
5038 Clouds 10 992 87 10000 3.6 210 23:18 03.11.2019
5039 Clouds 10 991 87 10000 4.1 200 22:54 03.11.2019
5040 Clouds 10 991 87 10000 4.1 200 22:36 03.11.2019
5041 Clouds 10 991 87 10000 3.1 200 22:18 03.11.2019
5042 Rain 10 990 87 10000 2.6 200 21:42 03.11.2019
5043 Rain 10 990 87 10000 2.1 160 21:21 03.11.2019
5044 Rain 10 990 87 10000 1.5 160 20:57 03.11.2019
5045 Rain 10 990 87 10000 1.5 160 20:37 03.11.2019
5046 Rain 10 989 93 10000 1 0 20:19 03.11.2019
5047 Rain 10 989 93 10000 1 0 19:57 03.11.2019
5048 Rain 10 989 93 10000 1 0 19:38 03.11.2019
5049 Rain 10 989 93 10000 2.1 190 19:20 03.11.2019
5050 Rain 11 989 87 10000 2.6 220 18:54 03.11.2019
5051 Rain 11 989 87 10000 2.6 220 18:36 03.11.2019
5052 Rain 11 989 93 10000 3.1 210 18:18 03.11.2019
5053 Rain 11 989 87 10000 2.1 220 17:42 03.11.2019
5054 Rain 12 988 87 10000 0.5 0 17:20 03.11.2019
5055 Rain 12 988 93 10000 1 0 16:56 03.11.2019
5056 Rain 12 988 93 10000 1 0 16:56 03.11.2019
5057 Rain 12 988 93 10000 1 0 16:38 03.11.2019
5058 Rain 12 988 82 10000 1.5 110 16:20 03.11.2019
5059 Rain 12 988 82 10000 1.5 110 15:57 03.11.2019
5060 Rain 12 988 87 10000 1.5 80 15:39 03.11.2019
5061 Clouds 12 987 87 10000 2.1 90 15:21 03.11.2019
5062 Clouds 12 987 87 10000 3.1 80 14:42 03.11.2019
5063 Rain 13 987 87 10000 1.5 110 14:19 03.11.2019
5064 Rain 12 988 87 10000 2.6 90 13:58 03.11.2019
5065 Rain 12 988 87 10000 2.6 90 13:40 03.11.2019
5066 Rain 12 988 87 10000 2.6 90 13:18 03.11.2019
5067 Rain 12 988 93 10000 2.6 70 12:39 03.11.2019
5068 Rain 12 989 93 10000 2.1 80 12:20 03.11.2019
5069 Rain 12 989 93 10000 2.1 80 12:20 03.11.2019
5070 Rain 12 989 87 10000 1.5 110 11:59 03.11.2019
5071 Rain 12 989 87 10000 1.5 110 11:41 03.11.2019
5072 Rain 12 989 87 10000 1.5 110 11:41 03.11.2019
5073 Rain 12 989 87 10000 2.1 150 11:20 03.11.2019
5074 Rain 12 989 93 10000 2.6 100 10:55 03.11.2019
5075 Rain 11 989 93 10000 2.6 100 10:37 03.11.2019
5076 Rain 11 989 93 10000 2.1 80 10:18 03.11.2019
5077 Rain 11 989 93 10000 2.1 80 10:18 03.11.2019
5078 Rain 11 990 93 10000 1 0 09:42 03.11.2019
5079 Rain 11 990 93 10000 0.5 0 09:24 03.11.2019
5080 Rain 11 990 93 10000 0.5 0 08:56 03.11.2019
5081 Rain 11 990 93 10000 0.5 0 08:56 03.11.2019
5082 Rain 11 990 93 10000 1 0 08:36 03.11.2019
5083 Rain 11 990 93 10000 1 0 08:18 03.11.2019
5084 Rain 11 990 93 10000 0.5 0 07:44 03.11.2019
5085 Rain 11 990 93 10000 1 0 07:21 03.11.2019
5086 Rain 10 990 93 10000 1 0 06:39 03.11.2019
5087 Rain 11 991 93 10000 1 0 05:54 03.11.2019
5088 Rain 11 991 93 10000 1 0 05:34 03.11.2019
5089 Clouds 11 992 87 10000 2.6 170 04:52 03.11.2019
5090 Rain 11 992 87 10000 2.6 180 03:59 03.11.2019
5091 Rain 11 993 87 10000 3.1 0 03:21 03.11.2019
5092 Rain 11 994 81 10000 4.6 210 02:23 03.11.2019
5093 Rain 11 994 87 10000 3.1 230 01:55 03.11.2019
5094 Rain 12 994 87 10000 3.1 230 01:36 03.11.2019
5095 Rain 12 994 76 10000 3.1 230 01:18 03.11.2019
5096 Rain 12 994 87 10000 1 0 00:38 03.11.2019
5097 Rain 12 994 81 10000 1.5 170 00:20 03.11.2019
5098 Rain 12 994 81 10000 2.6 160 23:55 02.11.2019
5099 Rain 12 994 81 10000 2.6 160 23:36 02.11.2019
5100 Rain 12 994 81 10000 2.6 170 23:18 02.11.2019
5101 Clouds 12 995 81 10000 3.1 190 22:54 02.11.2019
5102 Clouds 12 995 81 10000 3.1 190 22:36 02.11.2019
5103 Clouds 13 995 76 10000 3.1 190 22:18 02.11.2019
5104 Rain 12 996 76 10000 3.1 190 21:55 02.11.2019
5105 Rain 12 996 76 10000 3.1 190 21:36 02.11.2019
5106 Rain 13 996 76 10000 2.6 220 21:18 02.11.2019
5107 Rain 13 996 76 10000 2.6 220 21:18 02.11.2019
5108 Rain 13 996 76 10000 2.6 190 20:42 02.11.2019
5109 Rain 13 996 76 10000 2.6 180 20:22 02.11.2019
5110 Rain 13 996 76 10000 2.6 180 20:22 02.11.2019
5111 Rain 13 996 71 10000 3.1 190 19:59 02.11.2019
5112 Rain 13 996 71 10000 3.1 190 19:38 02.11.2019
5113 Rain 13 996 71 10000 3.6 190 19:20 02.11.2019
5114 Rain 13 997 76 10000 1 180 18:55 02.11.2019
5115 Rain 14 997 76 10000 1 180 18:36 02.11.2019
5116 Clouds 14 997 76 10000 1.5 170 18:18 02.11.2019
5117 Clouds 14 997 76 10000 1.5 170 17:55 02.11.2019
5118 Clouds 14 997 72 10000 2.1 190 17:37 02.11.2019
5119 Clouds 14 997 72 10000 2.1 190 17:37 02.11.2019
5120 Clouds 15 997 72 10000 3.1 200 17:18 02.11.2019
5121 Clouds 16 997 72 10000 3.1 190 16:40 02.11.2019
5122 Clouds 16 997 72 10000 3.1 200 16:21 02.11.2019
5123 Clouds 16 997 67 10000 4.1 200 15:56 02.11.2019
5124 Clouds 16 997 67 10000 4.1 200 15:37 02.11.2019
5125 Clouds 17 997 67 10000 3.1 210 15:19 02.11.2019
5126 Clouds 17 997 59 10000 3.6 220 14:42 02.11.2019
5127 Clouds 17 997 63 10000 4.6 220 14:22 02.11.2019
5128 Clouds 17 997 63 10000 4.6 220 13:56 02.11.2019
5129 Clouds 17 997 68 10000 4.6 230 13:37 02.11.2019
5130 Clouds 17 998 67 10000 4.6 240 13:18 02.11.2019
5131 Clouds 17 998 68 10000 4.1 230 12:41 02.11.2019
5132 Clouds 17 998 72 10000 4.1 210 12:22 02.11.2019
5133 Clouds 16 998 72 10000 4.1 210 11:57 02.11.2019
5134 Clouds 16 998 72 10000 4.6 210 11:39 02.11.2019
5135 Clouds 15 998 72 10000 3.6 210 11:20 02.11.2019
5136 Clouds 15 998 72 10000 4.6 200 10:46 02.11.2019
5137 Clouds 15 998 72 10000 5.1 200 10:27 02.11.2019
5138 Clouds 15 998 72 10000 5.1 200 10:27 02.11.2019
5139 Clouds 14 998 72 10000 5.1 200 09:57 02.11.2019
5140 Clouds 14 998 77 10000 4.6 200 09:39 02.11.2019
5141 Clouds 13 998 82 10000 3.6 210 09:19 02.11.2019
5142 Clouds 13 998 82 10000 4.1 200 08:44 02.11.2019
5143 Clouds 13 998 82 10000 4.6 200 08:22 02.11.2019
5144 Clouds 13 998 82 10000 4.6 200 07:48 02.11.2019
5145 Clouds 13 998 82 10000 4.6 200 07:29 02.11.2019
5146 Clouds 12 999 87 10000 3.1 210 06:55 02.11.2019
5147 Clouds 12 999 87 10000 3.1 210 06:30 02.11.2019
5148 Rain 12 999 87 10000 3.6 200 05:56 02.11.2019
5149 Rain 12 999 87 10000 2.6 200 05:20 02.11.2019
5150 Clouds 12 1000 82 10000 1 0 04:21 02.11.2019
5151 Clouds 12 1000 82 10000 2.1 210 03:49 02.11.2019
5152 Clouds 12 1001 82 10000 3.6 200 02:42 02.11.2019
5153 Rain 11 1001 87 10000 3.6 210 01:44 02.11.2019
5154 Clouds 11 1002 87 10000 4.6 200 01:23 02.11.2019
5155 Rain 11 1002 87 10000 3.1 210 00:51 02.11.2019
5156 Rain 11 1002 87 10000 3.1 200 00:26 02.11.2019
5157 Rain 11 1002 87 10000 2.1 0 23:48 01.11.2019
5158 Clouds 11 1003 81 10000 2.1 200 23:23 01.11.2019
5159 Clouds 11 1003 81 10000 2.1 200 22:58 01.11.2019
5160 Clouds 11 1003 87 10000 1 0 22:39 01.11.2019
5161 Clouds 11 1004 87 10000 1.5 190 22:20 01.11.2019
5162 Clouds 11 1004 87 10000 1.5 190 22:20 01.11.2019
5163 Clouds 11 1004 87 10000 2.1 180 21:42 01.11.2019
5164 Clouds 10 1004 87 10000 1.5 160 21:23 01.11.2019
5165 Clouds 11 1004 87 10000 1.5 160 20:58 01.11.2019
5166 Clouds 11 1005 87 10000 1.5 190 20:40 01.11.2019
5167 Rain 10 1005 87 10000 1 0 20:20 01.11.2019
5168 Clouds 10 1005 93 10000 1.5 160 19:56 01.11.2019
5169 Clouds 10 1005 93 10000 1.5 160 19:38 01.11.2019
5170 Clouds 10 1006 100 10000 1.5 140 19:20 01.11.2019
5171 Rain 10 1006 100 10000 2.1 100 18:40 01.11.2019
5172 Clouds 10 1007 100 10000 1 0 18:21 01.11.2019
5173 Clouds 10 1007 100 10000 1 0 17:56 01.11.2019
5174 Rain 10 1007 100 10000 1.5 100 17:56 01.11.2019
5175 Rain 10 1007 100 10000 1.5 100 17:38 01.11.2019
5176 Rain 10 1007 93 10000 1 0 17:19 01.11.2019
5177 Rain 11 1008 93 10000 1 0 16:39 01.11.2019
5178 Rain 11 1008 93 10000 2.1 200 16:20 01.11.2019
5179 Rain 11 1008 93 10000 2.1 200 15:56 01.11.2019
5180 Rain 11 1009 87 10000 2.1 190 15:38 01.11.2019
5181 Rain 11 1009 81 10000 2.1 190 15:19 01.11.2019
5182 Rain 12 1009 76 10000 2.6 190 14:43 01.11.2019
5183 Clouds 11 1010 76 10000 2.6 180 14:24 01.11.2019
5184 Clouds 12 1010 71 10000 2.6 200 13:58 01.11.2019
5185 Clouds 12 1010 71 10000 2.6 200 13:39 01.11.2019
5186 Clouds 11 1011 76 10000 2.1 150 13:21 01.11.2019
5187 Clouds 11 1011 76 10000 1.5 160 12:55 01.11.2019
5188 Clouds 11 1011 76 10000 1.5 160 12:37 01.11.2019
5189 Clouds 10 1012 76 10000 2.1 120 12:18 01.11.2019
5190 Clouds 10 1013 76 10000 2.1 140 11:41 01.11.2019
5191 Clouds 9 1013 81 10000 2.6 150 11:23 01.11.2019
5192 Clouds 8 1013 81 10000 2.6 160 10:44 01.11.2019
5193 Clouds 8 1013 81 10000 2.6 160 10:25 01.11.2019
5194 Clouds 7 1014 87 10000 1 0 09:59 01.11.2019
5195 Clouds 7 1014 87 10000 1 0 09:59 01.11.2019
5196 Clouds 7 1014 87 10000 0.5 0 09:41 01.11.2019
5197 Clouds 7 1014 93 10000 1 90 09:21 01.11.2019
5198 Clouds 6 1015 93 10000 0.5 0 08:54 01.11.2019
5199 Clouds 6 1015 93 10000 0.5 0 08:36 01.11.2019
5200 Clouds 6 1015 87 10000 0.5 0 08:18 01.11.2019
5201 Clouds 6 1015 93 10000 0.5 0 07:44 01.11.2019
5202 Clouds 5 1015 93 10000 1 80 07:22 01.11.2019
5203 Clouds 5 1015 100 10000 0.5 0 06:53 01.11.2019
5204 Clouds 5 1015 100 10000 1.5 90 06:22 01.11.2019
5205 Clouds 5 1016 93 10000 0.5 0 05:44 01.11.2019
5206 Clouds 5 1016 93 10000 1 90 04:55 01.11.2019
5207 Clouds 5 1017 93 10000 1 0 03:32 01.11.2019
5208 Clouds 5 1018 93 10000 3.1 100 01:48 01.11.2019
5209 Clouds 5 1018 93 10000 2.1 90 00:58 01.11.2019
5210 Clouds 5 1019 93 10000 2.6 80 00:20 01.11.2019
5211 Clouds 5 1019 93 10000 2.6 90 23:45 31.10.2019
5212 Clouds 5 1019 86 10000 3.1 80 23:24 31.10.2019
5213 Clouds 5 1019 87 10000 2.6 60 22:58 31.10.2019
5214 Clouds 5 1019 87 10000 2.6 60 22:40 31.10.2019
5215 Clouds 5 1019 87 10000 2.1 90 22:22 31.10.2019
5216 Clouds 5 1020 87 10000 2.1 110 21:56 31.10.2019
5217 Clouds 5 1020 87 10000 2.1 110 21:37 31.10.2019
5218 Clouds 5 1020 87 10000 1.5 90 21:18 31.10.2019
5219 Clouds 5 1020 93 10000 1.5 140 20:41 31.10.2019
5220 Clouds 5 1020 93 10000 2.6 150 20:22 31.10.2019
5221 Clouds 5 1020 93 10000 2.6 150 20:22 31.10.2019
5222 Clouds 5 1020 86 10000 1.5 150 19:56 31.10.2019
5223 Clouds 5 1020 86 10000 1.5 150 19:38 31.10.2019
5224 Clouds 5 1020 86 10000 1 0 19:18 31.10.2019
5225 Clouds 6 1020 93 10000 1 0 18:43 31.10.2019
5226 Clouds 6 1020 93 10000 2.6 90 18:25 31.10.2019
5227 Clouds 7 1020 81 10000 2.1 100 17:58 31.10.2019
5228 Clouds 7 1020 81 10000 2.1 100 17:39 31.10.2019
5229 Clouds 8 1019 81 10000 2.1 100 17:19 31.10.2019
5230 Clouds 9 1019 75 10000 2.6 90 16:54 31.10.2019
5231 Clouds 8 1019 75 10000 2.6 90 16:36 31.10.2019
5232 Clouds 9 1019 70 10000 2.6 90 16:18 31.10.2019
5233 Clouds 9 1019 66 10000 3.6 80 15:40 31.10.2019
5234 Clouds 9 1019 70 10000 3.1 80 15:21 31.10.2019
5235 Clouds 9 1019 70 10000 3.1 80 14:58 31.10.2019
5236 Clouds 10 1020 70 10000 3.1 70 14:40 31.10.2019
5237 Clear 10 1020 70 10000 2.6 80 14:22 31.10.2019
5238 Clear 10 1020 70 10000 2.6 80 14:22 31.10.2019
5239 Clouds 9 1020 70 10000 3.1 90 13:59 31.10.2019
5240 Clouds 9 1020 70 10000 3.1 90 13:38 31.10.2019
5241 Clouds 9 1020 70 10000 3.6 70 13:19 31.10.2019
5242 Clouds 9 1020 70 10000 3.6 70 13:19 31.10.2019
5243 Clouds 9 1020 70 10000 3.6 70 12:55 31.10.2019
5244 Clouds 9 1020 70 10000 3.6 70 12:37 31.10.2019
5245 Clouds 9 1021 70 10000 3.1 70 12:18 31.10.2019
5246 Clouds 7 1021 75 10000 3.1 80 11:45 31.10.2019
5247 Clouds 7 1021 75 10000 2.6 70 11:20 31.10.2019
5248 Clouds 6 1021 75 10000 2.6 70 10:58 31.10.2019
5249 Clouds 6 1021 75 10000 2.6 70 10:58 31.10.2019
5250 Clouds 6 1021 81 10000 2.1 90 10:39 31.10.2019
5251 Clouds 6 1021 81 10000 2.1 90 10:20 31.10.2019
5252 Clouds 4 1021 80 10000 2.6 70 09:46 31.10.2019
5253 Clouds 3 1021 80 10000 1 0 09:20 31.10.2019
5254 Clouds 3 1021 80 10000 1 0 09:20 31.10.2019
5255 Clouds 3 1021 86 10000 1 0 08:58 31.10.2019
5256 Clouds 3 1021 86 10000 1 0 08:39 31.10.2019
5257 Clouds 2 1021 84 10000 1.5 70 08:21 31.10.2019
5258 Clouds 2 1021 84 10000 0.5 0 07:46 31.10.2019
5259 Clouds 2 1021 84 10000 1 0 07:26 31.10.2019
5260 Clouds 2 1021 84 10000 1 0 06:53 31.10.2019
5261 Clouds 2 1021 84 10000 1 0 06:32 31.10.2019
5262 Clear 2 1021 93 10000 1.5 80 05:20 31.10.2019
5263 Clouds 4 1022 86 10000 3.1 60 02:50 31.10.2019
5264 Clouds 4 1022 86 10000 2.1 80 02:27 31.10.2019
5265 Clouds 4 1022 86 10000 2.1 90 01:21 31.10.2019
5266 Clouds 5 1023 75 10000 3.1 80 00:26 31.10.2019
5267 Clouds 5 1023 75 10000 3.1 70 23:52 30.10.2019
5268 Clouds 5 1023 75 10000 3.1 70 23:27 30.10.2019
5269 Clouds 6 1023 81 10000 3.6 60 22:43 30.10.2019
5270 Rain 6 1023 81 10000 2.6 60 22:20 30.10.2019
5271 Rain 6 1023 81 10000 2.6 60 22:20 30.10.2019
5272 Clouds 6 1023 81 10000 2.1 90 21:55 30.10.2019
5273 Clouds 6 1023 81 10000 2.1 90 21:37 30.10.2019
5274 Clouds 6 1023 81 10000 2.1 90 21:37 30.10.2019
5275 Clouds 6 1023 81 10000 2.1 90 21:37 30.10.2019
5276 Clouds 6 1023 81 10000 2.1 90 21:37 30.10.2019
5277 Clouds 6 1023 81 10000 1.5 100 21:18 30.10.2019
5278 Clouds 6 1023 75 10000 3.1 100 20:58 30.10.2019
5279 Clouds 7 1023 75 10000 3.1 100 20:39 30.10.2019
5280 Clouds 7 1023 75 10000 3.1 100 20:39 30.10.2019
5281 Clouds 7 1023 75 10000 4.1 70 20:21 30.10.2019
5282 Clouds 7 1023 75 10000 3.6 80 19:57 30.10.2019
5283 Clouds 7 1023 75 10000 3.6 80 19:37 30.10.2019
5284 Clouds 7 1023 75 10000 3.6 80 19:19 30.10.2019
5285 Clouds 7 1023 81 10000 3.6 90 18:39 30.10.2019
5286 Clouds 7 1023 81 10000 4.1 80 18:20 30.10.2019
5287 Clouds 7 1023 70 10000 4.1 80 17:58 30.10.2019
5288 Clouds 8 1023 70 10000 4.1 80 17:40 30.10.2019
5289 Clouds 8 1023 75 10000 3.6 80 17:19 30.10.2019
5290 Clouds 8 1023 75 10000 4.1 80 16:55 30.10.2019
5291 Clouds 8 1023 75 10000 4.1 80 16:37 30.10.2019
5292 Clouds 8 1023 75 10000 3.1 80 16:19 30.10.2019
5293 Clouds 8 1023 75 10000 3.1 80 15:56 30.10.2019
5294 Clouds 9 1023 75 10000 3.6 90 15:37 30.10.2019
5295 Clouds 9 1023 70 10000 4.6 90 15:19 30.10.2019
5296 Clouds 9 1023 75 10000 3.6 90 14:42 30.10.2019
5297 Clouds 9 1023 75 10000 3.6 90 14:22 30.10.2019
5298 Clouds 9 1023 75 10000 3.6 90 13:59 30.10.2019
5299 Clouds 9 1024 70 10000 4.6 90 13:40 30.10.2019
5300 Clouds 9 1024 70 10000 5.1 90 13:20 30.10.2019
5301 Clouds 8 1024 70 10000 5.1 90 12:58 30.10.2019
5302 Clouds 8 1024 75 10000 5.7 70 12:40 30.10.2019
5303 Clouds 8 1024 70 10000 5.1 80 12:22 30.10.2019
5304 Clouds 8 1025 75 10000 5.1 70 11:43 30.10.2019
5305 Clouds 8 1025 75 10000 4.1 80 11:25 30.10.2019
5306 Clouds 7 1025 81 10000 3.6 80 10:58 30.10.2019
5307 Clouds 7 1025 81 10000 3.6 80 10:39 30.10.2019
5308 Clouds 7 1025 81 10000 3.1 80 10:20 30.10.2019
5309 Clouds 6 1025 87 10000 3.1 80 09:40 30.10.2019
5310 Clouds 5 1025 87 10000 1.5 80 09:22 30.10.2019
5311 Clouds 5 1025 86 10000 1.5 60 08:55 30.10.2019
5312 Clouds 4 1025 86 10000 1.5 60 08:37 30.10.2019
5313 Clouds 4 1024 93 10000 1.5 50 08:18 30.10.2019
5314 Clouds 3 1024 93 10000 2.1 50 07:43 30.10.2019
5315 Clouds 3 1024 86 10000 2.6 60 06:59 30.10.2019
5316 Clouds 4 1023 93 10000 2.1 50 06:40 30.10.2019
5317 Clouds 4 1024 93 10000 2.6 40 05:56 30.10.2019
5318 Clouds 4 1024 93 10000 2.6 40 05:56 30.10.2019
5319 Clouds 4 1024 93 10000 2.6 40 05:56 30.10.2019
5320 Clouds 4 1024 93 10000 2.1 40 05:56 30.10.2019
5321 Clouds 5 1024 93 10000 2.1 40 05:38 30.10.2019
5322 Clouds 5 1024 93 10000 2.1 30 03:54 30.10.2019
5323 Clouds 5 1024 93 10000 3.1 40 03:23 30.10.2019
5324 Clouds 6 1024 87 10000 2.6 40 02:49 30.10.2019
5325 Clouds 6 1024 87 10000 2.1 50 01:49 30.10.2019
5326 Clouds 6 1024 81 10000 2.6 40 00:43 30.10.2019
5327 Clouds 6 1024 81 10000 2.6 40 00:25 30.10.2019
5328 Clouds 7 1024 81 10000 3.6 50 23:41 29.10.2019
5329 Rain 6 1024 87 10000 2.6 50 23:22 29.10.2019
5330 Rain 7 1024 81 10000 2.6 40 22:45 29.10.2019
5331 Clouds 7 1024 87 10000 3.1 50 22:20 29.10.2019
5332 Clouds 7 1024 87 10000 3.1 50 21:56 29.10.2019
5333 Clouds 7 1024 81 10000 2.1 40 21:38 29.10.2019
5334 Clouds 7 1023 87 10000 2.1 60 21:20 29.10.2019
5335 Rain 7 1023 87 10000 2.6 80 20:54 29.10.2019
5336 Rain 7 1023 87 10000 2.6 80 20:36 29.10.2019
5337 Clouds 7 1023 87 10000 2.6 60 20:18 29.10.2019
5338 Rain 7 1023 87 10000 2.6 60 19:55 29.10.2019
5339 Rain 7 1023 87 10000 2.6 60 19:36 29.10.2019
5340 Rain 7 1023 81 10000 2.6 50 19:18 29.10.2019
5341 Rain 7 1023 87 10000 3.1 50 18:54 29.10.2019
5342 Rain 7 1023 87 10000 3.1 50 18:36 29.10.2019
5343 Rain 8 1023 81 10000 2.6 50 18:18 29.10.2019
5344 Rain 8 1022 75 10000 3.1 50 17:40 29.10.2019
5345 Rain 8 1022 75 10000 3.1 50 17:21 29.10.2019
5346 Rain 8 1022 75 10000 3.1 50 16:58 29.10.2019
5347 Rain 8 1022 81 10000 3.6 60 16:38 29.10.2019
5348 Clouds 8 1022 81 10000 3.1 60 16:19 29.10.2019
5349 Clouds 8 1021 81 10000 2.6 20 15:55 29.10.2019
5350 Clouds 8 1021 81 10000 2.6 20 15:36 29.10.2019
5351 Clouds 8 1021 81 10000 2.6 20 15:36 29.10.2019
5352 Rain 9 1021 81 10000 2.6 20 15:18 29.10.2019
5353 Rain 8 1022 87 10000 2.6 360 14:54 29.10.2019
5354 Rain 8 1022 87 10000 2.6 360 14:36 29.10.2019
5355 Rain 8 1022 81 10000 2.6 350 14:18 29.10.2019
5356 Rain 9 1021 87 10000 1.5 10 13:40 29.10.2019
5357 Rain 8 1021 87 10000 2.1 350 13:21 29.10.2019
5358 Rain 8 1021 87 10000 2.1 340 12:45 29.10.2019
5359 Rain 8 1021 87 10000 2.1 20 12:25 29.10.2019
5360 Rain 8 1021 87 10000 2.1 20 12:25 29.10.2019
5361 Clouds 8 1021 87 10000 2.6 20 11:58 29.10.2019
5362 Clouds 8 1021 87 10000 2.6 20 11:40 29.10.2019
5363 Clouds 8 1021 87 10000 2.6 30 11:19 29.10.2019
5364 Rain 7 1020 87 10000 2.1 10 10:57 29.10.2019
5365 Rain 7 1020 87 10000 2.1 10 10:38 29.10.2019
5366 Rain 7 1020 93 10000 3.1 350 10:20 29.10.2019
5367 Rain 6 1020 93 10000 3.1 360 09:54 29.10.2019
5368 Rain 6 1020 93 10000 3.1 360 09:36 29.10.2019
5369 Rain 6 1020 87 10000 2.1 360 09:18 29.10.2019
5370 Rain 6 1020 93 10000 1.5 340 08:43 29.10.2019
5371 Rain 6 1020 93 10000 2.6 350 08:23 29.10.2019
5372 Rain 6 1019 87 10000 2.1 10 07:54 29.10.2019
5373 Rain 6 1019 87 10000 2.1 10 07:36 29.10.2019
5374 Rain 6 1019 87 10000 2.6 350 07:18 29.10.2019
5375 Rain 6 1019 81 10000 2.6 350 06:42 29.10.2019
5376 Rain 6 1018 93 10000 2.6 360 06:20 29.10.2019
5377 Clouds 6 1018 81 10000 2.6 20 05:50 29.10.2019
5378 Clouds 6 1018 81 10000 2.6 20 05:50 29.10.2019
5379 Clouds 6 1018 81 10000 2.6 10 05:19 29.10.2019
5380 Clouds 6 1018 81 10000 1.5 20 03:55 29.10.2019
5381 Clouds 6 1019 81 10000 1.5 50 02:32 29.10.2019
5382 Clouds 6 1019 81 10000 2.6 50 01:46 29.10.2019
5383 Clouds 7 1019 81 10000 2.1 40 01:18 29.10.2019
5384 Clouds 7 1019 75 10000 2.1 40 00:31 29.10.2019
5385 Clouds 7 1019 75 10000 2.1 50 23:43 28.10.2019
5386 Clouds 7 1019 75 10000 2.6 60 23:20 28.10.2019
5387 Clouds 7 1019 75 10000 3.1 40 22:58 28.10.2019
5388 Clouds 7 1019 75 10000 3.1 40 22:37 28.10.2019
5389 Clouds 7 1020 75 10000 3.1 40 22:18 28.10.2019
5390 Clouds 7 1020 81 10000 2.6 50 21:56 28.10.2019
5391 Clouds 7 1020 81 10000 2.6 50 21:38 28.10.2019
5392 Clouds 8 1020 81 10000 2.6 40 21:19 28.10.2019
5393 Clouds 8 1020 81 10000 2.6 50 20:45 28.10.2019
5394 Clouds 8 1020 81 10000 2.6 50 20:25 28.10.2019
5395 Clouds 8 1020 81 10000 1.5 70 19:59 28.10.2019
5396 Clouds 8 1020 81 10000 1.5 70 19:39 28.10.2019
5397 Clouds 8 1020 81 10000 2.6 60 19:21 28.10.2019
5398 Clouds 8 1020 81 10000 2.6 60 18:59 28.10.2019
5399 Clouds 8 1020 81 10000 2.6 60 18:59 28.10.2019
5400 Clouds 8 1020 76 10000 2.6 50 18:40 28.10.2019
5401 Clouds 8 1020 76 10000 2.6 50 18:21 28.10.2019
5402 Clouds 9 1020 81 10000 3.1 40 17:56 28.10.2019
5403 Clouds 9 1020 81 10000 3.1 40 17:38 28.10.2019
5404 Clouds 9 1020 76 10000 2.6 50 17:19 28.10.2019
5405 Clouds 9 1020 76 10000 2.6 50 16:57 28.10.2019
5406 Clouds 9 1020 81 10000 2.6 60 16:39 28.10.2019
5407 Clouds 9 1020 81 10000 2.6 50 16:20 28.10.2019
5408 Clouds 9 1020 81 10000 2.6 50 15:58 28.10.2019
5409 Clouds 9 1020 81 10000 1.5 50 15:39 28.10.2019
5410 Clouds 9 1020 81 10000 2.6 50 15:20 28.10.2019
5411 Clouds 9 1021 81 10000 2.6 40 14:57 28.10.2019
5412 Clouds 9 1021 81 10000 2.6 40 14:38 28.10.2019
5413 Clouds 9 1021 81 10000 2.1 60 14:18 28.10.2019
5414 Clouds 9 1021 76 10000 2.6 80 13:55 28.10.2019
5415 Clouds 9 1021 76 10000 2.6 80 13:37 28.10.2019
5416 Clouds 9 1021 81 10000 2.6 50 13:18 28.10.2019
5417 Clouds 9 1021 87 10000 1.5 80 12:42 28.10.2019
5418 Clouds 9 1022 87 10000 2.1 60 12:20 28.10.2019
5419 Clouds 8 1022 87 10000 2.1 80 11:40 28.10.2019
5420 Drizzle 8 1022 87 10000 2.6 80 11:22 28.10.2019
5421 Drizzle 8 1022 87 10000 2.6 80 10:58 28.10.2019
5422 Drizzle 7 1022 87 10000 2.1 60 10:39 28.10.2019
5423 Drizzle 7 1022 87 10000 2.6 60 10:20 28.10.2019
5424 Clouds 7 1022 93 10000 2.1 30 09:57 28.10.2019
5425 Clouds 7 1022 93 10000 2.1 30 09:38 28.10.2019
5426 Clouds 7 1022 93 10000 2.1 30 09:19 28.10.2019
5427 Clouds 7 1022 93 10000 1.5 350 08:57 28.10.2019
5428 Clouds 7 1022 93 10000 1.5 350 08:38 28.10.2019
5429 Clouds 7 1022 93 10000 1.5 350 08:38 28.10.2019
5430 Clouds 7 1022 93 10000 1.5 20 08:19 28.10.2019
5431 Clouds 7 1022 93 10000 1.5 20 07:55 28.10.2019
5432 Clouds 7 1022 93 10000 1.5 350 07:36 28.10.2019
5433 Clouds 7 1022 93 10000 3.1 360 07:18 28.10.2019
5434 Clouds 6 1022 93 10000 2.6 10 06:39 28.10.2019
5435 Drizzle 7 1022 100 5000 3.1 10 05:34 28.10.2019
5436 Drizzle 7 1022 100 7000 3.6 340 03:45 28.10.2019
5437 Drizzle 7 1022 93 8000 4.1 340 02:46 28.10.2019
5438 Drizzle 8 1022 100 8000 4.1 360 01:52 28.10.2019
5439 Drizzle 8 1022 100 8000 4.1 360 01:52 28.10.2019
5440 Drizzle 9 1021 93 10000 5.1 330 00:53 28.10.2019
5441 Drizzle 9 1021 93 10000 5.1 330 00:31 28.10.2019
5442 Drizzle 9 1021 93 7000 4.1 330 23:47 27.10.2019
5443 Rain 10 1021 100 7000 5.1 330 23:23 27.10.2019
5444 Rain 10 1021 93 9000 5.7 320 22:57 27.10.2019
5445 Rain 10 1021 93 9000 5.7 320 22:39 27.10.2019
5446 Rain 11 1021 93 7000 4.6 360 22:21 27.10.2019
5447 Rain 11 1021 93 7000 4.6 360 21:57 27.10.2019
5448 Rain 11 1021 100 7000 2.1 50 21:39 27.10.2019
5449 Rain 11 1021 100 10000 1.5 320 21:20 27.10.2019
5450 Rain 12 1021 100 10000 1.5 320 20:56 27.10.2019
5451 Rain 12 1021 93 8000 1 0 20:37 27.10.2019
5452 Rain 13 1021 93 10000 0.5 0 20:19 27.10.2019
5453 Rain 13 1020 93 10000 0.5 30 19:54 27.10.2019
5454 Rain 13 1020 93 10000 0.5 30 19:36 27.10.2019
5455 Rain 14 1020 87 10000 2.6 300 19:18 27.10.2019
5456 Rain 14 1020 82 10000 2.1 340 18:54 27.10.2019
5457 Rain 14 1020 82 10000 2.1 340 18:36 27.10.2019
5458 Rain 15 1020 77 10000 0.5 0 18:18 27.10.2019
5459 Rain 15 1020 77 10000 2.1 320 17:40 27.10.2019
5460 Clouds 15 1019 77 10000 2.6 340 17:19 27.10.2019
5461 Clouds 15 1019 77 10000 2.6 340 17:19 27.10.2019
5462 Clouds 16 1019 77 10000 2.6 340 16:58 27.10.2019
5463 Clouds 16 1019 72 10000 2.6 10 16:39 27.10.2019
5464 Clouds 16 1019 67 10000 2.1 250 16:21 27.10.2019
5465 Clouds 17 1019 67 10000 2.1 250 15:56 27.10.2019
5466 Clouds 17 1019 63 10000 4.1 270 15:37 27.10.2019
5467 Clouds 17 1019 72 10000 4.6 290 15:19 27.10.2019
5468 Clouds 18 1019 55 10000 5.1 280 14:42 27.10.2019
5469 Clouds 18 1019 59 10000 3.1 270 14:21 27.10.2019
5470 Clouds 19 1019 60 10000 2.1 260 13:58 27.10.2019
5471 Clouds 19 1019 60 10000 2.1 260 13:39 27.10.2019
5472 Clouds 19 1020 56 10000 3.1 250 13:20 27.10.2019
5473 Clouds 19 1020 56 10000 3.1 250 12:57 27.10.2019
5474 Clouds 18 1020 59 10000 3.1 220 12:38 27.10.2019
5475 Clouds 19 1020 59 10000 4.1 240 12:19 27.10.2019
5476 Clouds 18 1020 59 10000 2.6 230 11:41 27.10.2019
5477 Clouds 17 1020 63 10000 3.1 230 11:21 27.10.2019
5478 Clouds 17 1020 63 10000 2.6 210 10:45 27.10.2019
5479 Clouds 16 1020 63 10000 1.5 160 10:26 27.10.2019
5480 Clouds 16 1020 63 10000 1.5 160 09:58 27.10.2019
5481 Clouds 15 1020 72 10000 0.5 0 09:39 27.10.2019
5482 Clouds 14 1020 82 10000 1 0 09:19 27.10.2019
5483 Clouds 13 1020 82 10000 1 0 08:56 27.10.2019
5484 Clouds 12 1020 87 10000 0.5 0 08:37 27.10.2019
5485 Clouds 10 1020 93 10000 1.5 90 08:18 27.10.2019
5486 Clouds 10 1020 93 10000 1 40 07:45 27.10.2019
5487 Clouds 10 1020 93 10000 1 40 07:25 27.10.2019
5488 Clouds 9 1019 93 10000 1 0 06:52 27.10.2019
5489 Clouds 10 1019 93 10000 1 0 06:29 27.10.2019
5490 Clouds 10 1019 87 10000 1 160 05:45 27.10.2019
5491 Clouds 10 1019 87 10000 1 160 05:45 27.10.2019
5492 Clouds 9 1019 93 10000 0.5 0 04:56 27.10.2019
5493 Clouds 9 1019 93 10000 1 0 03:34 27.10.2019
5494 Clouds 10 1020 81 10000 1 0 02:25 27.10.2019
5495 Clouds 11 1020 66 10000 0.5 0 01:24 27.10.2019
5496 Clouds 11 1020 76 10000 1 0 00:52 27.10.2019
5497 Clouds 11 1020 76 10000 1 0 00:52 27.10.2019
5498 Clouds 11 1020 71 10000 1 0 00:32 27.10.2019
5499 Clouds 11 1020 66 10000 1 0 23:57 26.10.2019
5500 Clouds 11 1020 66 10000 1 0 23:39 26.10.2019
5501 Clouds 11 1020 76 10000 1.5 240 23:21 26.10.2019
5502 Clouds 11 1020 76 10000 1.5 240 22:57 26.10.2019
5503 Clouds 12 1020 71 10000 1.5 250 22:38 26.10.2019
5504 Clouds 12 1020 76 10000 1.5 250 22:19 26.10.2019
5505 Clouds 11 1020 76 10000 1.5 250 21:55 26.10.2019
5506 Clouds 12 1020 71 10000 1.5 230 21:37 26.10.2019
5507 Clear 13 1019 71 10000 1.5 220 21:19 26.10.2019
5508 Clear 13 1019 59 10000 2.1 220 20:42 26.10.2019
5509 Clear 13 1019 59 10000 2.1 220 20:19 26.10.2019
5510 Clear 14 1019 59 10000 2.1 210 19:44 26.10.2019
5511 Clear 14 1019 71 10000 1.5 200 19:21 26.10.2019
5512 Clear 15 1019 71 10000 1.5 200 18:59 26.10.2019
5513 Clear 15 1019 63 10000 1 0 18:40 26.10.2019
5514 Clear 17 1019 52 10000 1 0 18:20 26.10.2019
5515 Clear 17 1019 52 10000 1 0 17:59 26.10.2019
5516 Clear 18 1019 46 10000 2.1 210 17:39 26.10.2019
5517 Clear 18 1019 49 10000 2.1 210 17:20 26.10.2019
5518 Clear 19 1019 49 10000 2.1 230 16:58 26.10.2019
5519 Clear 19 1019 49 10000 2.1 230 16:40 26.10.2019
5520 Clear 19 1019 46 10000 3.1 240 16:20 26.10.2019
5521 Clear 20 1019 46 10000 2.1 220 15:40 26.10.2019
5522 Clouds 19 1019 43 10000 1.5 150 15:19 26.10.2019
5523 Clouds 19 1019 43 10000 1.5 150 15:19 26.10.2019
5524 Clouds 19 1019 52 10000 2.1 0 14:40 26.10.2019
5525 Clouds 19 1019 52 10000 2.1 0 14:40 26.10.2019
5526 Clouds 19 1019 52 10000 2.1 0 14:40 26.10.2019
5527 Clouds 19 1020 59 10000 2.1 150 14:21 26.10.2019
5528 Clouds 18 1020 59 10000 2.1 150 13:59 26.10.2019
5529 Clouds 19 1019 55 0 1.08 231 13:40 26.10.2019
5530 Clouds 17 1021 67 10000 1 0 13:20 26.10.2019
5531 Clouds 14 1020 85 0 1.79 130 12:46 26.10.2019
5532 Clouds 15 1022 81 10000 1 0 12:23 26.10.2019
5533 Clouds 13 1021 87 10000 0.5 0 11:48 26.10.2019
5534 Clouds 13 1021 87 10000 0.5 0 11:28 26.10.2019
5535 Clouds 13 1021 87 10000 0.5 0 11:28 26.10.2019
5536 Clouds 13 1021 87 10000 0.5 0 11:28 26.10.2019
5537 Fog 11 1021 87 10000 0.5 0 10:54 26.10.2019
5538 Fog 11 1021 87 10000 0.5 0 10:36 26.10.2019
5539 Fog 9 1022 87 10000 0.5 90 10:18 26.10.2019
5540 Fog 7 1022 93 10000 1 0 09:41 26.10.2019
5541 Fog 6 1021 100 2500 1.5 20 09:23 26.10.2019
5542 Fog 5 1021 93 2000 0.5 0 08:43 26.10.2019
5543 Fog 4 1021 93 1400 0.5 0 08:25 26.10.2019
5544 Fog 4 1021 100 1000 1 0 07:54 26.10.2019
5545 Fog 4 1021 100 1000 1 0 07:28 26.10.2019
5546 Fog 5 1021 100 3000 1.97 158 06:45 26.10.2019
5547 Fog 5 1021 100 3000 1.97 158 06:26 26.10.2019
5548 Fog 5 1022 100 700 0.5 0 05:21 26.10.2019
5549 Fog 4 1022 100 1400 1 310 04:24 26.10.2019
5550 Clouds 8 1022 100 10000 1.04 186 02:49 26.10.2019
5551 Clouds 8 1022 100 10000 0.5 40 01:56 26.10.2019
5552 Clouds 9 1022 100 10000 0.5 0 01:29 26.10.2019
5553 Clouds 9 1022 100 10000 0.5 0 00:25 26.10.2019
5554 Clouds 10 1023 100 10000 1 0 23:44 25.10.2019
5555 Clouds 10 1023 100 10000 0.5 0 23:21 25.10.2019
5556 Clouds 10 1023 93 10000 0.5 0 22:41 25.10.2019
5557 Clouds 10 1023 93 10000 1 0 22:23 25.10.2019
5558 Clouds 10 1023 87 10000 0.5 250 21:58 25.10.2019
5559 Clouds 10 1023 87 10000 0.5 250 21:40 25.10.2019
5560 Clouds 10 1023 87 10000 1.5 300 21:21 25.10.2019
5561 Clouds 11 1023 81 10000 2.1 300 20:57 25.10.2019
5562 Clouds 11 1023 81 10000 2.1 300 20:39 25.10.2019
5563 Clouds 11 1023 82 10000 1 0 20:19 25.10.2019
5564 Clouds 12 1023 76 10000 1.5 350 19:45 25.10.2019
5565 Clouds 12 1023 76 10000 1.5 350 19:26 25.10.2019
5566 Clouds 12 1023 76 10000 1.5 350 19:26 25.10.2019
5567 Clouds 14 1023 82 10000 1.5 80 18:46 25.10.2019
5568 Clouds 15 1023 72 10000 2.1 10 18:24 25.10.2019
5569 Clouds 15 1023 67 10000 2.6 350 17:54 25.10.2019
5570 Clouds 16 1023 67 10000 2.6 350 17:36 25.10.2019
5571 Clouds 16 1023 63 10000 3.1 350 17:18 25.10.2019
5572 Clouds 17 1023 55 10000 2.1 290 16:42 25.10.2019
5573 Clouds 17 1023 55 10000 2.1 240 16:21 25.10.2019
5574 Clouds 17 1022 55 10000 1.5 210 15:41 25.10.2019
5575 Clouds 17 1023 63 10000 2.1 230 15:23 25.10.2019
5576 Clouds 17 1023 59 10000 2.6 260 14:59 25.10.2019
5577 Clouds 17 1023 59 10000 2.6 260 14:41 25.10.2019
5578 Clouds 17 1023 63 10000 3.6 280 14:22 25.10.2019
5579 Clouds 17 1023 63 10000 3.1 260 13:44 25.10.2019
5580 Clouds 17 1024 59 10000 3.6 0 13:25 25.10.2019
5581 Clouds 16 1024 59 10000 3.6 0 12:59 25.10.2019
5582 Clouds 16 1023 55 10000 3.1 250 12:41 25.10.2019
5583 Clouds 16 1024 63 10000 2.1 230 12:20 25.10.2019
5584 Clouds 16 1024 67 10000 1.5 230 11:57 25.10.2019
5585 Clouds 15 1024 67 10000 1.5 230 11:38 25.10.2019
5586 Clouds 15 1024 67 10000 2.6 230 11:18 25.10.2019
5587 Clouds 14 1023 71 10000 2.6 250 10:40 25.10.2019
5588 Clouds 14 1023 71 10000 0.5 0 10:22 25.10.2019
5589 Clouds 13 1023 76 10000 0.5 0 09:57 25.10.2019
5590 Clouds 12 1023 76 10000 0.5 0 09:38 25.10.2019
5591 Clouds 11 1022 87 10000 0.5 0 09:19 25.10.2019
5592 Clouds 11 1022 87 10000 2.6 250 08:50 25.10.2019
5593 Clouds 11 1021 87 10000 2.6 250 08:32 25.10.2019
5594 Clouds 11 1021 87 10000 3.1 250 07:56 25.10.2019
5595 Clouds 11 1021 87 10000 3.1 250 07:34 25.10.2019
5596 Clouds 12 1020 81 10000 3.6 260 06:42 25.10.2019
5597 Clouds 13 1020 71 10000 2.1 230 05:57 25.10.2019
5598 Clouds 13 1020 71 10000 1.5 230 05:37 25.10.2019
5599 Clouds 13 1019 71 10000 1 0 04:53 25.10.2019
5600 Clouds 13 1019 76 10000 1 250 03:39 25.10.2019
5601 Rain 14 1017 67 10000 1 0 01:54 25.10.2019
5602 Rain 14 1017 67 10000 2.1 0 01:27 25.10.2019
5603 Clouds 14 1017 87 10000 1 180 00:22 25.10.2019
5604 Clouds 14 1016 77 10000 1 0 23:41 24.10.2019
5605 Clouds 14 1016 87 10000 1 0 23:23 24.10.2019
5606 Clouds 14 1015 87 10000 1 0 22:56 24.10.2019
5607 Clouds 14 1015 87 10000 1 0 22:37 24.10.2019
5608 Clouds 14 1015 82 10000 1 0 22:18 24.10.2019
5609 Clouds 14 1015 87 10000 1 0 21:56 24.10.2019
5610 Clouds 14 1015 87 10000 1 0 21:38 24.10.2019
5611 Clouds 14 1015 82 10000 1 0 21:19 24.10.2019
5612 Clouds 14 1015 82 10000 1 0 20:57 24.10.2019
5613 Clouds 14 1015 87 10000 1 0 20:38 24.10.2019
5614 Clouds 14 1014 87 10000 0.5 0 20:20 24.10.2019
5615 Clouds 14 1014 82 10000 1 140 19:54 24.10.2019
5616 Clouds 14 1014 82 10000 1 140 19:36 24.10.2019
5617 Clouds 15 1014 87 10000 0.5 0 19:18 24.10.2019
5618 Clouds 15 1014 87 10000 0.5 0 19:18 24.10.2019
5619 Clouds 15 1014 82 10000 0.5 120 18:40 24.10.2019
5620 Clouds 16 1013 77 10000 0.5 0 18:22 24.10.2019
5621 Clouds 16 1013 77 10000 0.5 0 17:59 24.10.2019
5622 Clouds 17 1013 77 10000 1 0 17:39 24.10.2019
5623 Clouds 17 1013 77 10000 1 0 17:20 24.10.2019
5624 Clouds 17 1013 77 10000 1 0 17:20 24.10.2019
5625 Clouds 17 1013 77 10000 1 0 16:55 24.10.2019
5626 Clouds 17 1013 77 10000 1 0 16:37 24.10.2019
5627 Clouds 17 1012 67 10000 1.5 130 16:19 24.10.2019
5628 Clouds 17 1013 72 10000 2.1 80 15:55 24.10.2019
5629 Clouds 17 1013 72 10000 2.1 80 15:37 24.10.2019
5630 Clouds 17 1012 77 10000 2.6 10 15:19 24.10.2019
5631 Clouds 17 1012 77 10000 1.5 0 14:55 24.10.2019
5632 Clouds 17 1012 77 10000 1.5 0 14:36 24.10.2019
5633 Clouds 17 1012 77 10000 1.5 50 14:18 24.10.2019
5634 Clouds 17 1013 82 10000 1.5 110 13:40 24.10.2019
5635 Clouds 16 1012 82 10000 1 0 13:19 24.10.2019
5636 Clouds 15 1012 82 10000 1 0 12:57 24.10.2019
5637 Clouds 15 1012 82 10000 1 0 12:38 24.10.2019
5638 Clouds 14 1012 87 10000 1 0 12:19 24.10.2019
5639 Clouds 14 1012 87 10000 1 0 12:19 24.10.2019
5640 Fog 14 1011 93 10000 0.5 0 11:56 24.10.2019
5641 Fog 13 1011 93 10000 0.5 0 11:37 24.10.2019
5642 Fog 13 1011 93 10000 0.5 0 11:37 24.10.2019
5643 Fog 13 1011 93 10000 0.5 0 11:19 24.10.2019
5644 Fog 12 1011 93 10000 1 0 10:55 24.10.2019
5645 Fog 12 1011 93 10000 1 0 10:36 24.10.2019
5646 Fog 12 1011 100 6000 1 0 10:18 24.10.2019
5647 Fog 11 1011 100 2000 0.5 0 09:37 24.10.2019
5648 Fog 11 1011 100 1200 0.5 0 09:18 24.10.2019
5649 Fog 11 1011 100 250 0.5 0 08:44 24.10.2019
5650 Fog 11 1011 100 350 1 0 08:20 24.10.2019
5651 Fog 11 1011 100 350 1 0 08:20 24.10.2019
5652 Fog 10 1011 100 350 1 0 07:56 24.10.2019
5653 Fog 10 1012 93 400 1 0 07:38 24.10.2019
5654 Fog 10 1011 100 10000 1 0 07:20 24.10.2019
5655 Clouds 10 1011 100 10000 1 0 06:39 24.10.2019
5656 Clouds 10 1011 100 10000 0.5 350 05:57 24.10.2019
5657 Clouds 10 1011 100 10000 0.5 350 05:39 24.10.2019
5658 Clouds 10 1010 100 10000 1.5 310 04:49 24.10.2019
5659 Clouds 10 1010 100 10000 1.5 300 03:36 24.10.2019
5660 Clouds 10 1010 93 10000 1 0 02:55 24.10.2019
5661 Clouds 11 1010 93 10000 1 0 02:24 24.10.2019
5662 Clouds 11 1010 100 10000 1.5 270 01:34 24.10.2019
5663 Clouds 11 1010 93 10000 1 0 00:57 24.10.2019
5664 Clouds 11 1010 93 10000 1 0 00:38 24.10.2019
5665 Clouds 11 1010 93 10000 0.5 160 00:18 24.10.2019
5666 Clouds 11 1011 93 10000 1 0 23:42 23.10.2019
5667 Clouds 11 1011 93 10000 0.5 0 23:23 23.10.2019
5668 Clouds 12 1011 93 10000 1 0 22:57 23.10.2019
5669 Clouds 12 1011 93 10000 1 0 22:57 23.10.2019
5670 Clouds 11 1011 93 10000 1 0 22:38 23.10.2019
5671 Clouds 11 1011 93 10000 1 0 22:18 23.10.2019
5672 Clouds 12 1011 93 10000 1 0 21:57 23.10.2019
5673 Clouds 12 1011 93 10000 1 0 21:38 23.10.2019
5674 Clouds 12 1012 100 10000 0.5 0 21:19 23.10.2019
5675 Clouds 11 1012 100 10000 0.5 0 20:56 23.10.2019
5676 Clouds 12 1012 93 10000 1 0 20:38 23.10.2019
5677 Clouds 12 1012 93 10000 2.1 70 20:20 23.10.2019
5678 Clouds 12 1013 93 10000 3.1 80 19:57 23.10.2019
5679 Clouds 12 1013 93 10000 3.1 80 19:38 23.10.2019
5680 Clouds 12 1013 93 10000 2.1 90 19:18 23.10.2019
5681 Clouds 13 1013 82 10000 2.6 80 18:55 23.10.2019
5682 Clouds 13 1013 82 10000 2.6 80 18:36 23.10.2019
5683 Clouds 14 1013 82 10000 2.6 90 18:18 23.10.2019
5684 Clouds 15 1013 82 10000 2.6 90 17:43 23.10.2019
5685 Clouds 16 1013 77 10000 2.6 90 17:20 23.10.2019
5686 Clouds 16 1013 77 10000 2.6 90 16:56 23.10.2019
5687 Clouds 16 1013 72 10000 3.6 90 16:37 23.10.2019
5688 Clouds 17 1013 67 10000 3.1 100 16:19 23.10.2019
5689 Clouds 17 1014 72 10000 3.1 90 15:41 23.10.2019
5690 Clouds 17 1014 72 10000 3.1 70 15:22 23.10.2019
5691 Clouds 17 1015 67 10000 2.6 90 14:58 23.10.2019
5692 Clouds 17 1015 67 10000 2.6 90 14:38 23.10.2019
5693 Clouds 16 1015 72 10000 2.6 80 14:19 23.10.2019
5694 Clouds 17 1015 77 10000 2.6 80 13:57 23.10.2019
5695 Clouds 17 1015 77 10000 2.6 80 13:39 23.10.2019
5696 Clouds 16 1016 77 10000 2.1 90 13:21 23.10.2019
5697 Clouds 15 1016 77 10000 2.1 90 12:55 23.10.2019
5698 Clouds 15 1016 77 0 2.1 110 12:37 23.10.2019
5699 Clouds 14 1016 87 10000 2.1 80 12:18 23.10.2019
5700 Clouds 13 1016 93 8000 2.6 90 11:56 23.10.2019
5701 Clouds 13 1016 93 8000 2.6 90 11:56 23.10.2019
5702 Clouds 13 1016 93 8000 2.6 90 11:37 23.10.2019
5703 Fog 13 1016 100 4500 1 0 11:19 23.10.2019
5704 Fog 12 1017 93 2000 1 0 10:45 23.10.2019
5705 Fog 12 1017 93 2000 1 0 10:25 23.10.2019
5706 Fog 12 1017 100 4500 0.5 0 09:55 23.10.2019
5707 Fog 12 1017 100 4500 0.5 0 09:36 23.10.2019
5708 Mist 12 1018 100 5000 5.1 110 09:18 23.10.2019
5709 Fog 11 1017 100 3000 1 0 08:41 23.10.2019
5710 Mist 11 1018 93 4900 4.6 110 08:23 23.10.2019
5711 Fog 11 1017 100 200 0.5 0 07:46 23.10.2019
5712 Fog 11 1017 100 150 0.5 0 07:22 23.10.2019
5713 Fog 11 1018 100 200 0.5 0 06:47 23.10.2019
5714 Clouds 11 1017 97 0 1.32 88 06:22 23.10.2019
5715 Clouds 11 1017 97 0 1.32 88 05:47 23.10.2019
5716 Clouds 11 1017 97 0 1.32 88 04:57 23.10.2019
5717 Fog 11 1019 100 150 1 300 03:35 23.10.2019
5718 Fog 10 1020 100 100 1 290 02:41 23.10.2019
5719 Mist 10 1020 100 4800 0.5 0 01:33 23.10.2019
5720 Fog 10 1021 100 9000 1.16 64 00:56 23.10.2019
5721 Fog 10 1022 100 10000 1.5 280 00:28 23.10.2019
5722 Fog 11 1022 100 10000 1.5 330 23:40 22.10.2019
5723 Clouds 11 1022 93 10000 1.5 310 23:19 22.10.2019
5724 Clouds 11 1022 93 10000 1.5 310 22:57 22.10.2019
5725 Clouds 11 1022 100 10000 1.5 300 22:39 22.10.2019
5726 Clouds 11 1022 100 10000 1 290 22:21 22.10.2019
5727 Clouds 11 1022 93 10000 2.04 119 21:56 22.10.2019
5728 Clouds 11 1022 93 10000 1.86 119 21:37 22.10.2019
5729 Clouds 11 1022 93 10000 0.5 240 21:18 22.10.2019
5730 Clouds 12 1022 87 10000 0.5 0 20:57 22.10.2019
5731 Clouds 12 1022 87 10000 0.5 0 20:39 22.10.2019
5732 Clouds 12 1023 93 10000 2.6 330 20:20 22.10.2019
5733 Clouds 12 1023 93 10000 2.6 330 19:55 22.10.2019
5734 Clouds 12 1023 87 10000 2.1 340 19:37 22.10.2019
5735 Clouds 13 1023 82 10000 2.1 360 19:19 22.10.2019
5736 Clouds 14 1022 82 10000 1.5 360 18:41 22.10.2019
5737 Clouds 15 1022 77 10000 1.5 350 18:22 22.10.2019
5738 Clouds 15 1022 77 10000 1.5 350 17:59 22.10.2019
5739 Clouds 16 1023 77 10000 0.5 0 17:39 22.10.2019
5740 Clouds 16 1023 77 10000 0.5 0 17:20 22.10.2019
5741 Clouds 16 1023 77 10000 0.5 0 17:20 22.10.2019
5742 Clouds 16 1023 77 10000 0.5 0 16:58 22.10.2019
5743 Clouds 16 1023 82 10000 1 0 16:39 22.10.2019
5744 Clouds 16 1023 82 10000 1 0 16:20 22.10.2019
5745 Clouds 16 1023 82 10000 1 0 15:58 22.10.2019
5746 Clouds 16 1023 82 10000 1.5 70 15:40 22.10.2019
5747 Clouds 16 1024 82 10000 1.5 80 15:18 22.10.2019
5748 Clouds 15 1024 87 9000 2.6 60 14:44 22.10.2019
5749 Clouds 15 1024 82 8000 2.1 20 14:21 22.10.2019
5750 Clouds 15 1024 82 8000 2.1 20 13:54 22.10.2019
5751 Fog 15 1025 93 6000 2.6 340 13:36 22.10.2019
5752 Fog 15 1025 87 4500 2.6 360 13:18 22.10.2019
5753 Fog 14 1025 100 4000 2.1 10 12:41 22.10.2019
5754 Fog 13 1025 93 200 1 0 12:22 22.10.2019
5755 Fog 13 1025 93 200 1 0 11:59 22.10.2019
5756 Fog 13 1024 100 300 1 0 11:39 22.10.2019
5757 Fog 13 1024 93 6000 1 0 11:21 22.10.2019
5758 Fog 13 1024 93 6000 1 0 11:21 22.10.2019
5759 Fog 13 1024 93 6000 1 0 10:58 22.10.2019
5760 Fog 13 1024 93 7000 0.5 0 10:37 22.10.2019
5761 Fog 12 1024 100 800 0.5 0 10:19 22.10.2019
5762 Fog 11 1024 100 800 0.5 0 09:56 22.10.2019
5763 Fog 11 1024 100 2000 0.5 0 09:37 22.10.2019
5764 Fog 11 1024 100 2000 0.5 0 09:37 22.10.2019
5765 Fog 11 1024 100 2000 0.5 0 09:19 22.10.2019
5766 Fog 11 1023 93 4500 1 0 08:43 22.10.2019
5767 Fog 11 1023 100 6000 0.5 0 08:22 22.10.2019
5768 Fog 10 1023 100 6000 0.5 0 07:55 22.10.2019
5769 Fog 11 1023 100 10000 1 0 07:37 22.10.2019
5770 Clouds 10 1023 100 10000 1.5 140 07:18 22.10.2019
5771 Clouds 11 1023 100 10000 1 0 06:36 22.10.2019
5772 Clouds 11 1023 93 10000 2.6 310 06:18 22.10.2019
5773 Clouds 11 1023 100 10000 1.5 320 05:27 22.10.2019
5774 Clouds 11 1023 93 10000 1.5 340 03:38 22.10.2019
5775 Clouds 12 1023 93 10000 1 330 02:29 22.10.2019
5776 Rain 12 1023 93 10000 0.5 0 01:36 22.10.2019
5777 Clouds 12 1023 93 10000 1 0 01:18 22.10.2019
5778 Rain 12 1023 93 10000 1 300 00:41 22.10.2019
5779 Clouds 12 1023 87 10000 0.52 247 00:22 22.10.2019
5780 Clouds 13 1023 87 10000 0.52 247 23:58 21.10.2019
5781 Clouds 13 1023 93 10000 0.5 0 23:37 21.10.2019
5782 Rain 13 1023 93 10000 1 0 23:19 21.10.2019
5783 Rain 13 1023 93 10000 1 0 23:19 21.10.2019
5784 Rain 13 1023 93 10000 1 0 22:57 21.10.2019
5785 Rain 13 1023 87 10000 1.5 270 22:38 21.10.2019
5786 Rain 13 1023 87 10000 1.5 280 22:19 21.10.2019
5787 Rain 13 1023 87 10000 1.5 280 21:56 21.10.2019
5788 Rain 13 1022 82 10000 1 0 21:37 21.10.2019
5789 Rain 14 1022 82 10000 0.5 0 21:19 21.10.2019
5790 Rain 14 1022 82 10000 2.1 330 20:56 21.10.2019
5791 Rain 14 1022 82 10000 2.1 330 20:37 21.10.2019
5792 Rain 14 1022 87 10000 1.5 300 20:19 21.10.2019
5793 Rain 14 1022 87 10000 1.5 300 20:19 21.10.2019
5794 Rain 14 1022 87 10000 1.5 300 19:55 21.10.2019
5795 Rain 14 1022 87 10000 1.5 300 19:55 21.10.2019
5796 Rain 14 1022 82 10000 1.5 360 19:36 21.10.2019
5797 Clouds 14 1021 77 10000 2.1 350 19:18 21.10.2019
5798 Clouds 15 1021 82 10000 3.1 360 18:54 21.10.2019
5799 Clouds 15 1021 82 10000 3.1 360 18:36 21.10.2019
5800 Clouds 15 1021 82 10000 3.1 360 18:36 21.10.2019
5801 Clouds 15 1021 82 10000 4.1 350 18:18 21.10.2019
5802 Clouds 15 1021 82 10000 4.1 350 18:18 21.10.2019
5803 Clouds 16 1020 82 10000 3.6 350 17:39 21.10.2019
5804 Clouds 16 1020 77 10000 3.6 360 17:19 21.10.2019
5805 Clouds 17 1020 77 10000 3.6 360 16:58 21.10.2019
5806 Clouds 17 1020 72 10000 2.6 10 16:40 21.10.2019
5807 Clouds 17 1020 72 10000 2.6 10 16:21 21.10.2019
5808 Clouds 17 1020 72 10000 2.6 10 15:58 21.10.2019
5809 Clouds 17 1020 72 10000 3.1 340 15:39 21.10.2019
5810 Clouds 18 1020 68 10000 3.6 260 15:19 21.10.2019
5811 Clouds 18 1020 63 10000 3.6 250 14:40 21.10.2019
5812 Clouds 18 1020 63 10000 1 0 14:22 21.10.2019
5813 Clouds 18 1020 63 10000 1 0 13:59 21.10.2019
5814 Clouds 18 1019 59 10000 1.5 70 13:41 21.10.2019
5815 Clouds 18 1020 77 10000 2.1 130 13:20 21.10.2019
5816 Clouds 18 1020 77 10000 2.1 130 12:58 21.10.2019
5817 Clouds 17 1019 72 10000 2.1 140 12:40 21.10.2019
5818 Clouds 17 1019 82 10000 2.6 100 12:20 21.10.2019
5819 Clouds 15 1018 87 10000 1.5 120 11:54 21.10.2019
5820 Clouds 16 1019 82 10000 2.6 100 11:54 21.10.2019
5821 Clouds 15 1018 87 10000 1.5 120 11:54 21.10.2019
5822 Clouds 15 1018 87 10000 1.5 120 11:36 21.10.2019
5823 Clouds 15 1018 87 10000 1 0 11:18 21.10.2019
5824 -273 0 0 0 0 0 10:54 21.10.2019
5825 Clouds 14 1018 100 10000 1.5 100 10:54 21.10.2019
5826 Clouds 13 1018 100 10000 1.5 100 10:36 21.10.2019
5827 Clouds 13 1018 93 10000 0.5 110 10:18 21.10.2019
5828 Clouds 12 1018 93 10000 0.5 250 09:39 21.10.2019
5829 Mist 12 1017 100 10000 1.5 50 09:21 21.10.2019
5830 Rain 12 1017 93 10000 0.5 0 08:42 21.10.2019
5831 Rain 12 1016 93 10000 1 0 08:23 21.10.2019
5832 Rain 12 1016 93 10000 1 0 07:56 21.10.2019
5833 Fog 12 1017 93 9000 1 0 07:37 21.10.2019
5834 Fog 12 1016 93 9000 0.5 290 07:18 21.10.2019
5835 Clear 11 1015 93 10000 1.5 250 06:44 21.10.2019
5836 Clear 12 1015 93 10000 1.5 250 06:25 21.10.2019
5837 Clouds 12 1015 93 10000 1 0 05:41 21.10.2019
5838 Clouds 12 1013 100 10000 0.5 0 03:42 21.10.2019
5839 Clouds 12 1013 93 10000 2.1 310 02:41 21.10.2019
5840 Clouds 13 1013 93 10000 1 0 02:20 21.10.2019
5841 Clouds 13 1012 93 10000 0.5 80 01:49 21.10.2019
5842 Clouds 13 1012 87 10000 1.5 110 01:20 21.10.2019
5843 Clear 13 1012 87 10000 5.1 270 00:41 21.10.2019
5844 Clear 13 1010 93 10000 1 0 00:22 21.10.2019
5845 Clear 13 1010 93 10000 1 0 23:40 20.10.2019
5846 Clear 13 1010 93 10000 0.5 0 23:21 20.10.2019
5847 Clear 13 1009 87 10000 0.5 0 22:55 20.10.2019
5848 Clear 13 1009 87 10000 0.5 0 22:36 20.10.2019
5849 Clear 13 1009 87 10000 1.5 30 22:18 20.10.2019
5850 Clear 13 1009 87 10000 1.5 30 21:56 20.10.2019
5851 Clear 13 1009 87 10000 1.5 60 21:38 20.10.2019
5852 Clear 14 1009 82 10000 1 0 21:19 20.10.2019
5853 Clear 15 1009 93 10000 1.5 100 20:39 20.10.2019
5854 Clear 15 1009 87 10000 1.5 90 20:18 20.10.2019
5855 Clear 15 1009 87 10000 1.5 90 19:56 20.10.2019
5856 Clear 15 1009 87 10000 1.5 90 19:56 20.10.2019
5857 Clear 15 1009 82 10000 1.5 340 19:37 20.10.2019
5858 Clear 16 1008 77 10000 1.5 340 19:19 20.10.2019
5859 Clear 17 1008 77 10000 2.1 320 18:42 20.10.2019
5860 Clear 18 1007 77 10000 2.1 80 18:24 20.10.2019
5861 Clear 18 1007 64 10000 2.1 40 17:59 20.10.2019
5862 Clear 18 1007 77 10000 2.1 80 17:59 20.10.2019
5863 Clear 19 1007 64 10000 2.1 40 17:41 20.10.2019
5864 Clear 19 1007 56 10000 1.5 40 17:22 20.10.2019
5865 Clear 20 1007 56 10000 1.5 40 16:56 20.10.2019
5866 Clear 20 1007 56 10000 1 0 16:38 20.10.2019
5867 Clear 20 1007 60 10000 1 0 16:19 20.10.2019
5868 Clear 21 1007 60 10000 1 0 15:55 20.10.2019
5869 Clear 21 1007 64 10000 1.5 50 15:36 20.10.2019
5870 Clear 20 1007 68 10000 2.1 70 15:18 20.10.2019
5871 Clear 20 1007 68 10000 2.1 70 14:55 20.10.2019
5872 Clear 20 1007 68 10000 1.5 70 14:37 20.10.2019
5873 Clear 19 1007 60 10000 1.5 0 14:18 20.10.2019
5874 Clear 19 1007 72 10000 0.5 0 13:54 20.10.2019
5875 Clear 19 1007 72 10000 0.5 0 13:36 20.10.2019
5876 Clear 18 1008 72 10000 2.1 140 13:18 20.10.2019
5877 Clear 18 1008 72 10000 2.1 140 12:54 20.10.2019
5878 Clear 17 1008 77 10000 2.6 90 12:36 20.10.2019
5879 Clear 16 1009 77 10000 1 0 12:18 20.10.2019
5880 Clouds 15 1009 87 10000 1.5 90 11:41 20.10.2019
5881 Clouds 14 1009 87 10000 1 0 11:22 20.10.2019
5882 Clouds 14 1009 87 10000 1 0 10:58 20.10.2019
5883 Clouds 13 1009 93 10000 1 0 10:39 20.10.2019
5884 Clouds 13 1009 93 10000 1 0 10:39 20.10.2019
5885 Fog 13 1009 82 10000 1 0 10:21 20.10.2019
5886 Fog 13 1009 82 10000 1 0 10:21 20.10.2019
5887 Fog 12 1009 93 10000 1 0 09:56 20.10.2019
5888 Fog 12 1009 93 10000 1 0 09:37 20.10.2019
5889 Fog 11 1009 100 10000 1.5 110 09:19 20.10.2019
5890 Fog 11 1009 100 10000 2.79 146.942 08:40 20.10.2019
5891 Fog 11 1009 100 10000 1 0 08:21 20.10.2019
5892 Fog 11 1009 100 10000 0.5 0 07:48 20.10.2019
5893 Fog 11 1009 100 10000 0.5 0 07:28 20.10.2019
5894 Clear 11 1009 93 10000 2.6 290 06:31 20.10.2019
5895 Clear 12 1008 93 10000 1 0 04:34 20.10.2019
5896 Clear 12 1009 93 10000 1.5 280 03:52 20.10.2019
5897 Clear 12 1009 100 10000 1.5 0 03:22 20.10.2019
5898 Clear 12 1009 93 10000 1 0 02:49 20.10.2019
5899 Clouds 12 1009 93 10000 2.1 100 02:26 20.10.2019
5900 Rain 12 1010 93 10000 1.5 100 01:53 20.10.2019
5901 Clear 12 1010 93 10000 1 0 01:22 20.10.2019
5902 Rain 12 1010 93 10000 1 0 00:53 20.10.2019
5903 Rain 12 1010 100 10000 1 0 00:21 20.10.2019
5904 Rain 12 1010 100 10000 1 0 23:55 19.10.2019
5905 Clear 12 1010 100 10000 0.5 350 23:37 19.10.2019
5906 Rain 13 1010 100 10000 0.5 0 23:19 19.10.2019
5907 Rain 12 1011 100 10000 1.03 82.516 22:41 19.10.2019
5908 Clouds 13 1010 93 10000 0.5 0 22:23 19.10.2019
5909 Clouds 13 1010 93 10000 0.5 0 21:58 19.10.2019
5910 Rain 13 1010 100 10000 0.5 0 21:40 19.10.2019
5911 Rain 13 1010 100 10000 0.5 0 21:40 19.10.2019
5912 Rain 13 1010 100 10000 0.5 0 21:20 19.10.2019
5913 Rain 13 1010 87 10000 0.5 0 20:43 19.10.2019
5914 Clouds 13 1010 87 10000 0.5 350 20:21 19.10.2019
5915 Clouds 13 1010 87 10000 0.5 350 19:56 19.10.2019
5916 Clear 13 1010 100 10000 1 0 19:37 19.10.2019
5917 Rain 13 1009 100 10000 1.5 90 19:19 19.10.2019
5918 Rain 13 1009 87 10000 1 0 18:41 19.10.2019
5919 Rain 13 1010 93 10000 1 0 18:22 19.10.2019
5920 Rain 13 1010 93 10000 2.1 150 17:42 19.10.2019
5921 Rain 14 1009 87 10000 2.6 150 17:23 19.10.2019
5922 Rain 14 1009 87 10000 2.6 150 16:59 19.10.2019
5923 Rain 14 1009 87 10000 1.5 130 16:38 19.10.2019
5924 Rain 14 1010 87 10000 2.6 150 16:19 19.10.2019
5925 Rain 14 1010 77 10000 3.1 150 15:44 19.10.2019
5926 Clouds 14 1010 82 10000 3.1 160 15:26 19.10.2019
5927 Rain 14 1010 77 10000 3.1 150 15:26 19.10.2019
5928 Clouds 14 1010 82 10000 3.1 160 14:55 19.10.2019
5929 Rain 14 1010 82 10000 3.1 170 14:37 19.10.2019
5930 Rain 14 1010 82 10000 3.1 170 14:19 19.10.2019
5931 Rain 14 1010 82 10000 3.1 170 13:54 19.10.2019
5932 Clouds 14 1010 82 10000 3.6 160 13:36 19.10.2019
5933 Rain 13 1011 82 10000 4.1 160 13:18 19.10.2019
5934 Rain 13 1011 87 10000 3.6 170 12:39 19.10.2019
5935 Rain 12 1011 87 10000 4.1 170 12:21 19.10.2019
5936 Rain 12 1012 87 10000 1.5 190 11:56 19.10.2019
5937 Rain 12 1012 87 10000 1.5 190 11:36 19.10.2019
5938 Rain 12 1011 87 10000 2.1 180 11:18 19.10.2019
5939 Rain 12 1011 87 10000 2.6 190 10:40 19.10.2019
5940 Rain 12 1011 87 10000 2.6 190 10:22 19.10.2019
5941 Rain 12 1011 87 10000 3.6 150 09:58 19.10.2019
5942 Rain 12 1012 100 10000 2.1 150 09:39 19.10.2019
5943 Rain 11 1012 100 10000 2.1 150 09:21 19.10.2019
5944 Rain 11 1011 93 10000 1.5 80 08:41 19.10.2019
5945 Rain 11 1011 93 10000 1.5 80 08:22 19.10.2019
5946 Rain 11 1011 93 10000 1 0 07:59 19.10.2019
5947 Rain 11 1011 93 10000 1 0 07:41 19.10.2019
5948 Rain 11 1011 93 10000 1 0 07:23 19.10.2019
5949 Rain 11 1011 93 0 0.5 0 06:35 19.10.2019
5950 Rain 11 1011 93 10000 1.5 170 05:51 19.10.2019
5951 Rain 11 1012 93 10000 0.5 0 04:26 19.10.2019
5952 Clouds 11 1012 93 10000 0.5 0 03:18 19.10.2019
5953 Clear 12 1013 87 10000 1 0 02:21 19.10.2019
5954 Clear 12 1013 87 10000 1 160 01:49 19.10.2019
5955 Rain 12 1013 93 10000 1.5 180 00:52 19.10.2019
5956 Rain 12 1013 93 10000 0.5 0 00:29 19.10.2019
5957 Rain 12 1013 93 10000 0.5 0 23:59 18.10.2019
5958 Rain 12 1013 93 10000 0.5 0 23:38 18.10.2019
5959 Rain 12 1013 93 10000 1 0 23:20 18.10.2019
5960 Rain 12 1013 93 10000 1.5 170 22:55 18.10.2019
5961 Rain 12 1013 93 10000 1.5 170 22:37 18.10.2019
5962 Rain 12 1013 93 10000 1.5 170 22:37 18.10.2019
5963 Rain 12 1013 93 10000 1 0 22:18 18.10.2019
5964 Rain 12 1013 93 10000 1 0 21:55 18.10.2019
5965 Rain 12 1013 87 10000 1.5 200 21:36 18.10.2019
5966 Rain 12 1013 87 10000 1.5 180 21:18 18.10.2019
5967 Rain 12 1013 87 10000 1.5 190 20:43 18.10.2019
5968 Clouds 12 1013 82 10000 1 0 20:24 18.10.2019
5969 Clouds 12 1013 82 10000 1 0 19:59 18.10.2019
5970 Clouds 12 1013 82 10000 1 0 19:40 18.10.2019
5971 Clouds 13 1013 82 10000 1.5 0 19:22 18.10.2019
5972 Clouds 13 1013 82 10000 1.5 0 18:59 18.10.2019
5973 Clouds 13 1012 82 10000 2.6 190 18:41 18.10.2019
5974 Clouds 14 1013 82 10000 3.6 200 18:23 18.10.2019
5975 Clouds 14 1013 82 10000 4.1 200 17:57 18.10.2019
5976 Clouds 14 1013 82 10000 4.1 200 17:37 18.10.2019
5977 Clouds 14 1013 87 10000 3.6 190 17:19 18.10.2019
5978 Rain 14 1013 87 10000 3.6 190 16:44 18.10.2019
5979 Rain 14 1012 93 8000 2.6 200 16:22 18.10.2019
5980 Rain 14 1012 93 8000 2.6 200 15:59 18.10.2019
5981 Rain 14 1012 87 8000 6.2 250 15:40 18.10.2019
5982 Thunderstorm 16 1011 72 8000 11.3 270 15:21 18.10.2019
5983 Thunderstorm 17 1011 72 8000 11.3 270 14:58 18.10.2019
5984 Clouds 17 1011 59 10000 6.2 190 14:39 18.10.2019
5985 Clouds 17 1011 63 10000 6.2 190 14:21 18.10.2019
5986 Clouds 18 1011 63 10000 6.2 190 13:59 18.10.2019
5987 Clouds 17 1011 68 10000 4.1 180 13:40 18.10.2019
5988 Clouds 17 1012 72 10000 3.6 170 13:22 18.10.2019
5989 Clouds 17 1012 72 10000 3.6 170 13:22 18.10.2019
5990 Clouds 16 1012 82 10000 1.5 150 12:56 18.10.2019
5991 Clouds 16 1012 82 10000 1.5 150 12:38 18.10.2019
5992 Clouds 16 1012 77 10000 1.5 160 12:20 18.10.2019
5993 Clouds 16 1013 82 10000 1 0 11:55 18.10.2019
5994 Clouds 16 1013 82 10000 1 0 11:37 18.10.2019
5995 Clouds 15 1013 82 10000 0.5 0 11:18 18.10.2019
5996 Clouds 14 1013 82 10000 1.5 170 10:42 18.10.2019
5997 Clouds 14 1013 87 10000 1.5 140 10:22 18.10.2019
5998 Clouds 14 1013 87 10000 1.5 140 09:59 18.10.2019
5999 Clouds 13 1013 93 10000 1.5 150 09:40 18.10.2019
6000 Clouds 13 1013 87 10000 0.5 0 09:21 18.10.2019
6001 Fog 12 1013 87 10000 1.5 340 08:58 18.10.2019
6002 Fog 12 1013 87 10000 1.5 340 08:40 18.10.2019
6003 Fog 12 1013 87 10000 1 0 08:21 18.10.2019
6004 Fog 12 1013 93 10000 1 0 07:42 18.10.2019
6005 Clouds 12 1013 93 10000 0.5 0 07:21 18.10.2019
6006 Rain 12 1013 93 10000 1 0 06:39 18.10.2019
6007 Clouds 13 1013 93 10000 0.5 0 06:21 18.10.2019
6008 Clouds 13 1013 93 10000 0.5 0 05:56 18.10.2019
6009 Clouds 13 1014 93 10000 1 130 05:23 18.10.2019
6010 Clouds 13 1014 93 10000 1.5 160 04:41 18.10.2019
6011 Clouds 13 1014 93 10000 1 90 03:32 18.10.2019
6012 Clouds 13 1014 87 10000 0.5 0 02:33 18.10.2019
6013 Clear 13 1015 93 10000 1 0 01:46 18.10.2019
6014 Clear 13 1015 93 10000 1 0 01:28 18.10.2019
6015 Clear 13 1015 93 10000 1 0 01:28 18.10.2019
6016 Clouds 13 1015 87 10000 1.5 160 00:46 18.10.2019
6017 Clouds 13 1015 93 10000 1.5 170 00:21 18.10.2019
6018 Clouds 13 1015 93 10000 1.5 170 23:57 17.10.2019
6019 Rain 13 1015 93 10000 1 0 23:38 17.10.2019
6020 Rain 13 1015 93 10000 1.5 180 23:19 17.10.2019
6021 Rain 13 1015 93 10000 2.1 170 22:55 17.10.2019
6022 Rain 13 1015 93 10000 2.1 170 22:37 17.10.2019
6023 Rain 13 1015 93 10000 2.1 180 22:18 17.10.2019
6024 Rain 14 1015 93 10000 2.1 180 21:56 17.10.2019
6025 Rain 14 1015 87 10000 2.1 180 21:37 17.10.2019
6026 Rain 14 1015 87 10000 2.1 180 21:37 17.10.2019
6027 Rain 14 1015 87 10000 1.5 180 21:19 17.10.2019
6028 -273 0 0 0 0 0 20:56 17.10.2019
6029 Rain 14 1015 87 10000 1 0 20:38 17.10.2019
6030 Rain 14 1015 87 10000 1.5 230 20:18 17.10.2019
6031 Rain 14 1015 87 10000 1.5 230 19:55 17.10.2019
6032 Rain 15 1015 77 10000 2.6 230 19:36 17.10.2019
6033 Rain 15 1015 72 10000 4.6 250 19:18 17.10.2019
6034 Clouds 16 1014 63 10000 4.6 260 18:39 17.10.2019
6035 Rain 17 1014 59 10000 1.5 230 18:21 17.10.2019
6036 Clear 17 1014 55 10000 1.5 240 17:55 17.10.2019
6037 Clouds 18 1014 55 10000 1.5 240 17:55 17.10.2019
6038 Clouds 18 1014 55 10000 1.5 240 17:37 17.10.2019
6039 Clouds 18 1014 55 10000 2.6 240 17:19 17.10.2019
6040 Clouds 19 1014 52 10000 2.1 0 16:42 17.10.2019
6041 Clouds 19 1014 52 10000 2.1 0 16:42 17.10.2019
6042 Clouds 19 1014 49 10000 1.5 0 16:19 17.10.2019
6043 Clouds 19 1014 49 10000 1.5 0 15:59 17.10.2019
6044 Clouds 19 1014 55 10000 2.1 230 15:41 17.10.2019
6045 Clouds 19 1014 52 10000 2.1 210 15:20 17.10.2019
6046 Clouds 19 1014 52 10000 2.1 210 14:58 17.10.2019
6047 Clouds 18 1014 52 10000 2.6 250 14:39 17.10.2019
6048 Clouds 18 1015 59 10000 2.6 210 14:21 17.10.2019
6049 Clouds 18 1015 55 10000 2.6 220 13:42 17.10.2019
6050 Clouds 18 1015 59 10000 2.1 200 13:21 17.10.2019
6051 Clouds 17 1015 59 10000 2.1 200 12:59 17.10.2019
6052 Clouds 17 1015 59 10000 2.1 180 12:40 17.10.2019
6053 Rain 16 1015 63 10000 2.6 210 12:20 17.10.2019
6054 Rain 16 1016 67 10000 2.6 150 11:57 17.10.2019
6055 Rain 15 1016 67 10000 2.6 150 11:39 17.10.2019
6056 Rain 14 1016 76 10000 1 0 11:19 17.10.2019
6057 Rain 14 1016 76 10000 1 0 10:54 17.10.2019
6058 -273 0 0 0 0 0 10:54 17.10.2019
6059 Rain 14 1016 82 10000 1 0 10:54 17.10.2019
6060 Rain 13 1016 82 10000 1 0 10:36 17.10.2019
6061 Rain 13 1016 87 10000 0.5 0 10:18 17.10.2019
6062 Rain 12 1016 87 10000 0.5 0 10:18 17.10.2019
6063 Rain 13 1016 87 10000 0.5 0 10:18 17.10.2019
6064 Rain 11 1016 93 10000 1 0 09:41 17.10.2019
6065 Rain 11 1016 93 10000 1 0 09:22 17.10.2019
6066 -273 0 0 0 0 0 08:58 17.10.2019
6067 Rain 11 1016 93 10000 1 0 08:58 17.10.2019
6068 Rain 11 1015 87 10000 1.5 70 08:39 17.10.2019
6069 Rain 11 1015 93 10000 0.5 180 08:21 17.10.2019
6070 Rain 11 1015 93 10000 0.5 180 07:55 17.10.2019
6071 Rain 11 1015 93 10000 0.5 0 07:36 17.10.2019
6072 Rain 11 1015 93 10000 1.5 70 07:18 17.10.2019
6073 Rain 11 1015 93 10000 1.5 90 06:39 17.10.2019
6074 Rain 11 1015 76 10000 1 0 06:20 17.10.2019
6075 Rain 11 1015 81 10000 0.5 80 05:51 17.10.2019
6076 Rain 11 1015 81 10000 0.5 80 05:31 17.10.2019
6077 Clouds 10 1015 93 10000 0.5 0 04:52 17.10.2019
6078 Clouds 10 1015 100 10000 1 50 03:55 17.10.2019
6079 Clouds 10 1015 93 10000 0.5 0 02:36 17.10.2019
6080 Clouds 9 1015 81 10000 0.5 0 01:27 17.10.2019
6081 Clouds 9 1015 87 10000 0.5 0 00:38 17.10.2019
6082 Clouds 10 1015 87 10000 0.5 0 00:19 17.10.2019
6083 Clouds 10 1015 81 10000 0.5 0 23:42 16.10.2019
6084 Clouds 11 1015 81 10000 0.5 0 23:21 16.10.2019
6085 Clouds 10 1015 81 10000 0.5 0 22:56 16.10.2019
6086 Clouds 10 1015 81 10000 0.5 0 22:56 16.10.2019
6087 Clouds 11 1014 76 10000 0.5 0 22:37 16.10.2019
6088 Clouds 11 1015 76 10000 0.5 300 22:19 16.10.2019
6089 Clouds 11 1015 76 10000 0.5 300 21:57 16.10.2019
6090 Clear 11 1014 76 10000 1.5 190 21:37 16.10.2019
6091 Clouds 12 1015 76 10000 3.1 200 21:19 16.10.2019
6092 Clouds 12 1014 71 10000 2.6 170 20:58 16.10.2019
6093 Clouds 12 1014 71 10000 2.6 170 20:39 16.10.2019
6094 Clouds 12 1015 76 10000 1 0 20:21 16.10.2019
6095 Clouds 12 1014 71 10000 1 0 19:59 16.10.2019
6096 Clouds 13 1014 71 10000 1 0 19:39 16.10.2019
6097 Clouds 13 1014 62 10000 1 0 19:20 16.10.2019
6098 -273 0 0 0 0 0 18:54 16.10.2019
6099 -273 0 0 0 0 0 18:54 16.10.2019
6100 Clouds 15 1014 62 10000 0.5 0 18:36 16.10.2019
6101 Clouds 15 1014 59 10000 2.1 200 18:18 16.10.2019
6102 Clouds 16 1014 55 10000 2.1 200 17:54 16.10.2019
6103 -273 0 0 0 0 0 17:36 16.10.2019
6104 Clouds 17 1014 51 10000 2.1 190 17:18 16.10.2019
6105 Clouds 17 1014 55 10000 3.1 210 16:42 16.10.2019
6106 Clouds 17 1015 55 10000 3.6 200 16:21 16.10.2019
6107 Clouds 16 1015 55 10000 3.6 230 15:58 16.10.2019
6108 Clouds 16 1015 55 10000 3.6 230 15:39 16.10.2019
6109 Clouds 16 1015 55 10000 3.6 230 15:39 16.10.2019
6110 Clouds 16 1015 55 10000 3.6 230 15:39 16.10.2019
6111 Clouds 16 1015 59 10000 4.6 0 15:19 16.10.2019
6112 Clouds 16 1015 59 10000 4.6 0 14:58 16.10.2019
6113 Clouds 16 1015 59 10000 4.6 0 14:39 16.10.2019
6114 Clouds 16 1015 59 10000 4.6 200 14:19 16.10.2019
6115 Clouds 16 1015 59 10000 4.6 200 13:57 16.10.2019
6116 Clouds 16 1015 62 10000 4.1 200 13:38 16.10.2019
6117 Clouds 15 1016 58 10000 4.6 210 13:20 16.10.2019
6118 Clouds 15 1016 62 10000 3.6 200 12:42 16.10.2019
6119 Clouds 14 1016 62 10000 3.6 190 12:20 16.10.2019
6120 Clouds 14 1016 67 10000 4.1 200 11:55 16.10.2019
6121 Clouds 13 1016 67 10000 4.1 200 11:36 16.10.2019
6122 Clouds 13 1016 66 10000 3.1 180 11:18 16.10.2019
6123 Clouds 12 1016 71 10000 3.6 180 10:36 16.10.2019
6124 Clouds 12 1016 71 10000 3.6 180 10:36 16.10.2019
6125 Clouds 12 1016 76 10000 2.6 180 10:18 16.10.2019
6126 Clouds 11 1016 76 10000 2.6 200 09:40 16.10.2019
6127 Clouds 10 1016 81 10000 2.6 200 09:22 16.10.2019
6128 Clouds 10 1016 81 10000 2.6 200 08:57 16.10.2019
6129 Clouds 10 1016 87 10000 2.1 210 08:38 16.10.2019
6130 Clouds 10 1016 87 10000 2.6 190 08:19 16.10.2019
6131 Clouds 9 1015 87 10000 2.6 200 07:42 16.10.2019
6132 Clouds 9 1015 87 10000 2.6 200 07:23 16.10.2019
6133 Clouds 9 1015 81 10000 3.6 220 06:51 16.10.2019
6134 Clouds 10 1015 87 10000 3.1 210 06:30 16.10.2019
6135 Clouds 10 1015 87 10000 2.6 210 04:48 16.10.2019
6136 Clouds 10 1014 87 10000 2.1 220 02:51 16.10.2019
6137 Rain 11 1014 87 10000 4.1 250 01:38 16.10.2019
6138 Rain 11 1013 93 10000 4.1 250 01:18 16.10.2019
6139 Rain 11 1013 87 10000 3.6 240 00:42 16.10.2019
6140 Rain 12 1013 93 7000 4.1 220 23:59 15.10.2019
6141 Rain 12 1012 93 10000 3.6 200 23:39 15.10.2019
6142 Rain 13 1012 93 10000 3.1 220 23:21 15.10.2019
6143 Rain 12 1011 93 10000 3.1 0 22:55 15.10.2019
6144 Rain 12 1011 93 10000 3.1 0 22:37 15.10.2019
6145 Rain 12 1011 93 10000 2.1 0 22:19 15.10.2019
6146 Rain 12 1011 93 10000 2.1 0 21:55 15.10.2019
6147 Rain 13 1011 93 10000 2.1 210 21:37 15.10.2019
6148 Rain 13 1011 100 10000 2.1 210 21:19 15.10.2019
6149 Rain 13 1011 100 10000 2.1 210 20:56 15.10.2019
6150 Rain 13 1010 93 9000 3.1 210 20:38 15.10.2019
6151 Rain 13 1010 93 9000 2.1 220 20:19 15.10.2019
6152 Rain 14 1010 93 9000 2.1 220 19:56 15.10.2019
6153 Rain 14 1010 93 9000 2.1 220 19:56 15.10.2019
6154 Rain 14 1009 93 10000 4.1 240 19:38 15.10.2019
6155 Clouds 14 1009 82 10000 2.6 280 19:19 15.10.2019
6156 Clouds 14 1009 82 10000 2.6 280 19:19 15.10.2019
6157 Clouds 14 1008 82 10000 3.1 300 18:47 15.10.2019
6158 Clouds 15 1008 82 10000 3.1 300 18:28 15.10.2019
6159 Rain 16 1008 77 10000 3.1 330 17:58 15.10.2019
6160 Rain 16 1008 77 10000 2.6 300 17:39 15.10.2019
6161 Rain 16 1008 72 10000 3.6 280 17:20 15.10.2019
6162 Rain 17 1007 72 10000 5.7 290 16:55 15.10.2019
6163 Rain 17 1007 72 10000 5.7 290 16:37 15.10.2019
6164 Rain 17 1007 72 10000 5.1 290 16:19 15.10.2019
6165 Clouds 18 1007 68 10000 5.7 290 15:41 15.10.2019
6166 Clouds 18 1007 68 10000 5.7 290 15:41 15.10.2019
6167 Clouds 19 1007 63 10000 4.6 280 15:20 15.10.2019
6168 Clouds 19 1007 63 10000 4.6 280 14:58 15.10.2019
6169 Clouds 19 1007 63 10000 4.1 330 14:38 15.10.2019
6170 Clouds 19 1006 59 10000 3.1 280 14:19 15.10.2019
6171 Clouds 20 1007 63 10000 4.6 260 13:55 15.10.2019
6172 Clouds 20 1007 63 10000 4.6 260 13:37 15.10.2019
6173 Clouds 20 1007 60 10000 1 0 13:18 15.10.2019
6174 Clouds 20 1007 56 10000 0.5 0 12:41 15.10.2019
6175 Clouds 20 1007 60 10000 1 0 12:21 15.10.2019
6176 Clouds 20 1007 60 10000 1 0 11:56 15.10.2019
6177 Clouds 19 1007 72 10000 2.6 90 11:37 15.10.2019
6178 Clouds 18 1007 72 10000 2.1 90 11:19 15.10.2019
6179 Clear 17 1007 77 10000 1.5 90 10:44 15.10.2019
6180 -273 0 0 0 0 0 10:44 15.10.2019
6181 Clear 16 1007 82 10000 1.5 0 10:21 15.10.2019
6182 Clear 15 1007 87 10000 1 0 09:58 15.10.2019
6183 Clear 14 1007 87 10000 1 0 09:38 15.10.2019
6184 Clear 12 1008 93 10000 1 0 09:19 15.10.2019
6185 Clear 11 1007 93 10000 1.5 110 08:54 15.10.2019
6186 Clear 11 1007 93 10000 1.5 110 08:36 15.10.2019
6187 Clear 11 1008 100 10000 1 0 08:18 15.10.2019
6188 Fog 11 1008 100 9000 1 270 07:41 15.10.2019
6189 Fog 10 1009 100 7000 0.5 0 07:21 15.10.2019
6190 Fog 10 1009 100 6000 0.5 0 06:45 15.10.2019
6191 Fog 11 1009 100 6000 0.5 0 06:27 15.10.2019
6192 Fog 11 1009 100 3000 0.5 0 05:44 15.10.2019
6193 Fog 12 1010 100 10000 0.5 0 05:24 15.10.2019
6194 Clear 12 1010 100 10000 1 30 04:39 15.10.2019
6195 Clear 12 1010 100 10000 1.5 70 03:38 15.10.2019
6196 Clear 13 1011 100 10000 0.5 0 02:51 15.10.2019
6197 Clear 13 1011 87 10000 0.5 0 01:49 15.10.2019
6198 Clear 13 1011 87 10000 1.5 150 01:23 15.10.2019
6199 Clear 13 1011 87 10000 1 260 00:50 15.10.2019
6200 Clear 14 1011 82 10000 1.5 250 00:22 15.10.2019
6201 Clear 14 1011 82 10000 1 220 23:46 14.10.2019
6202 Clear 15 1012 87 10000 0.5 0 23:21 14.10.2019
6203 Clear 15 1012 87 10000 0.5 0 22:59 14.10.2019
6204 Clear 15 1012 82 10000 1.5 250 22:39 14.10.2019
6205 Clear 15 1011 82 10000 0.5 0 22:19 14.10.2019
6206 Clear 16 1011 87 10000 1 0 21:56 14.10.2019
6207 Clear 17 1011 87 10000 1 0 21:38 14.10.2019
6208 Clear 18 1011 77 10000 1 0 21:20 14.10.2019
6209 Clear 18 1011 77 10000 1 0 21:20 14.10.2019
6210 Clear 18 1011 77 10000 1.5 170 20:56 14.10.2019
6211 Clear 18 1011 77 10000 1.5 170 20:37 14.10.2019
6212 Clear 18 1012 72 10000 1.5 130 20:18 14.10.2019
6213 Clear 18 1012 60 10000 2.1 110 19:43 14.10.2019
6214 Clear 19 1012 60 10000 2.1 110 19:25 14.10.2019
6215 Clear 19 1012 60 10000 2.1 110 19:25 14.10.2019
6216 Clear 20 1012 68 10000 2.6 110 18:59 14.10.2019
6217 Clear 21 1012 64 10000 2.6 80 18:59 14.10.2019
6218 Clear 22 1012 64 10000 2.6 80 18:40 14.10.2019
6219 Clear 22 1012 60 10000 2.1 110 18:20 14.10.2019
6220 Clear 23 1012 53 10000 2.1 100 17:58 14.10.2019
6221 Clear 23 1012 53 10000 2.1 100 17:40 14.10.2019
6222 Clear 23 1012 53 10000 2.1 100 17:22 14.10.2019
6223 Clear 24 1013 50 10000 2.1 100 16:44 14.10.2019
6224 Clear 24 1013 44 10000 1.5 110 16:22 14.10.2019
6225 Clear 25 1013 44 10000 1.5 110 15:58 14.10.2019
6226 Clear 24 1014 41 10000 1.5 0 15:38 14.10.2019
6227 Clear 24 1014 41 10000 1.5 0 15:20 14.10.2019
6228 Clear 24 1014 44 10000 2.1 50 14:43 14.10.2019
6229 Clear 24 1014 41 10000 1.5 40 14:24 14.10.2019
6230 Clear 24 1015 41 10000 1.5 350 13:57 14.10.2019
6231 Clear 24 1015 41 10000 1.5 350 13:39 14.10.2019
6232 Clear 23 1015 44 10000 1.5 360 13:20 14.10.2019
6233 Clear 22 1016 56 10000 0.5 0 12:41 14.10.2019
6234 Clear 21 1016 60 10000 0.5 0 12:20 14.10.2019
6235 -273 0 0 0 0 0 11:54 14.10.2019
6236 Clear 19 1016 68 10000 0.5 0 11:36 14.10.2019
6237 Clear 18 1016 68 10000 1 0 11:18 14.10.2019
6238 Clear 18 1016 72 10000 0.5 0 10:43 14.10.2019
6239 Clear 17 1016 77 10000 1 0 10:21 14.10.2019
6240 Clear 17 1016 77 10000 1 0 10:21 14.10.2019
6241 Clear 16 1017 82 10000 1 0 09:57 14.10.2019
6242 Clear 14 1017 82 10000 1 0 09:38 14.10.2019
6243 Clear 12 1016 93 10000 1 0 09:19 14.10.2019
6244 Clear 11 1016 93 10000 1.5 60 08:47 14.10.2019
6245 Clear 11 1016 100 10000 1.5 60 08:23 14.10.2019
6246 Clear 11 1016 100 10000 1.5 70 07:44 14.10.2019
6247 Clear 11 1016 93 10000 1 80 07:21 14.10.2019
6248 Clear 11 1016 82 10000 1.5 240 06:55 14.10.2019
6249 Clear 12 1016 82 10000 1.5 240 06:27 14.10.2019
6250 Clear 12 1016 93 10000 2.1 230 05:52 14.10.2019
6251 Clear 12 1016 100 10000 0.5 0 04:51 14.10.2019
6252 Clear 13 1016 100 10000 0.5 0 03:49 14.10.2019
6253 Clear 14 1016 100 10000 1 0 03:22 14.10.2019
6254 Clear 14 1016 93 10000 1 0 01:52 14.10.2019
6255 Clear 14 1017 87 10000 1 0 01:18 14.10.2019
6256 Clear 14 1017 87 10000 0.5 0 00:40 14.10.2019
6257 Clear 15 1016 82 10000 0.5 0 00:18 14.10.2019
6258 Clear 15 1016 82 10000 0.5 0 23:40 13.10.2019
6259 Clear 15 1016 72 10000 1 0 23:19 13.10.2019
6260 Clear 15 1016 72 10000 1 0 22:55 13.10.2019
6261 Clear 16 1016 72 10000 1 0 22:37 13.10.2019
6262 Clear 16 1016 72 10000 1.5 240 22:19 13.10.2019
6263 Clear 16 1016 77 10000 0.5 0 21:55 13.10.2019
6264 Clear 17 1016 77 10000 0.5 0 21:36 13.10.2019
6265 Clear 17 1015 72 10000 1 0 21:18 13.10.2019
6266 Clear 17 1015 72 10000 1 0 21:18 13.10.2019
6267 Clear 18 1015 68 10000 2.1 220 20:55 13.10.2019
6268 Clear 18 1015 68 10000 2.1 220 20:37 13.10.2019
6269 Clear 18 1015 64 10000 2.1 190 20:18 13.10.2019
6270 Clear 18 1015 64 10000 1.5 190 19:54 13.10.2019
6271 -273 0 0 0 0 0 19:36 13.10.2019
6272 Clear 19 1015 64 10000 1.5 190 19:36 13.10.2019
6273 Clear 20 1015 60 10000 2.1 170 19:18 13.10.2019
6274 -273 0 0 0 0 0 18:40 13.10.2019
6275 -273 0 0 0 0 0 18:40 13.10.2019
6276 Clear 23 1014 50 10000 2.1 190 18:21 13.10.2019
6277 Clear 23 1014 50 10000 2.1 190 17:59 13.10.2019
6278 Clear 24 1014 41 10000 2.1 220 17:41 13.10.2019
6279 Clear 24 1014 39 10000 3.1 0 17:23 13.10.2019
6280 Clear 24 1014 39 10000 3.6 190 16:43 13.10.2019
6281 Clear 25 1014 50 10000 2.1 180 16:20 13.10.2019
6282 Clear 25 1014 50 10000 2.1 180 15:58 13.10.2019
6283 Clear 25 1014 50 10000 2.6 160 15:39 13.10.2019
6284 Clear 25 1015 53 10000 2.6 170 15:20 13.10.2019
6285 Clear 25 1015 53 10000 2.6 170 14:58 13.10.2019
6286 Clear 25 1015 60 10000 3.6 140 14:39 13.10.2019
6287 Clear 25 1015 60 10000 3.6 140 14:39 13.10.2019
6288 Clear 24 1015 53 10000 2.6 120 14:21 13.10.2019
6289 Clear 24 1015 53 10000 2.6 120 13:56 13.10.2019
6290 Clear 24 1015 57 10000 2.6 140 13:37 13.10.2019
6291 Clear 23 1016 56 10000 2.1 140 13:19 13.10.2019
6292 Clear 23 1016 56 10000 2.1 150 12:56 13.10.2019
6293 Clear 22 1016 56 10000 2.1 150 12:37 13.10.2019
6294 Clear 21 1016 60 10000 1.5 160 12:18 13.10.2019
6295 Clear 20 1016 64 10000 2.1 170 11:55 13.10.2019
6296 Clear 20 1016 64 10000 2.1 170 11:37 13.10.2019
6297 Clear 19 1016 68 10000 1 0 11:18 13.10.2019
6298 Clear 19 1016 68 10000 1 0 11:18 13.10.2019
6299 Clear 18 1016 72 10000 1.5 0 10:41 13.10.2019
6300 Clear 18 1016 72 10000 1.5 0 10:41 13.10.2019
6301 Clear 17 1016 77 10000 1 0 10:23 13.10.2019
6302 Clear 17 1016 77 10000 1 0 10:23 13.10.2019
6303 Clear 15 1016 87 10000 1 0 09:41 13.10.2019
6304 Clear 14 1016 93 10000 0.5 0 09:22 13.10.2019
6305 Clear 14 1016 93 10000 0.5 0 09:22 13.10.2019
6306 Clear 13 1016 87 10000 1 0 08:59 13.10.2019
6307 Clear 13 1016 87 10000 1 0 08:40 13.10.2019
6308 Clear 12 1016 87 10000 0.5 140 08:21 13.10.2019
6309 Clear 13 1016 93 10000 0.5 0 07:46 13.10.2019
6310 Clear 13 1016 82 10000 0.5 0 07:21 13.10.2019
6311 Clear 13 1016 93 10000 1 0 06:42 13.10.2019
6312 Clear 13 1016 87 10000 0.5 0 05:49 13.10.2019
6313 Clear 13 1016 77 10000 1 0 04:52 13.10.2019
6314 Clear 13 1016 82 10000 1 0 04:32 13.10.2019
6315 Clear 14 1016 87 10000 1.5 160 02:42 13.10.2019
6316 Clear 14 1016 87 10000 1.5 160 02:42 13.10.2019
6317 Clear 14 1016 93 10000 1 0 02:18 13.10.2019
6318 Clear 14 1016 87 10000 1.5 100 01:31 13.10.2019
6319 Clear 15 1016 87 10000 1 0 00:50 13.10.2019
6320 Clear 15 1016 82 10000 1.5 10 00:22 13.10.2019
6321 Clear 15 1016 82 10000 1.5 10 23:58 12.10.2019
6322 Clear 16 1016 82 10000 2.57 175.695 23:39 12.10.2019
6323 Clear 16 1016 77 10000 1 0 23:21 12.10.2019
6324 Clear 16 1016 77 10000 1 0 22:58 12.10.2019
6325 Clear 16 1016 77 10000 1 0 22:38 12.10.2019
6326 Clear 16 1016 77 10000 3.1 200 22:20 12.10.2019
6327 Clear 16 1016 77 10000 1.5 180 21:55 12.10.2019
6328 Clear 16 1016 77 10000 1.5 180 21:37 12.10.2019
6329 Clear 17 1016 77 10000 1 0 21:19 12.10.2019
6330 Clear 17 1016 77 10000 1 0 21:19 12.10.2019
6331 Rain 17 1016 77 10000 1 0 20:43 12.10.2019
6332 Rain 17 1016 68 10000 1 0 20:25 12.10.2019
6333 Rain 17 1016 68 10000 1.5 170 19:40 12.10.2019
6334 Clear 17 1016 60 10000 2.1 240 19:22 12.10.2019
6335 Clear 18 1016 60 10000 2.1 240 19:22 12.10.2019
6336 Clear 18 1016 56 10000 2.1 220 18:59 12.10.2019
6337 Clear 19 1016 56 10000 2.1 220 18:41 12.10.2019
6338 Clear 20 1015 56 10000 0.5 0 18:23 12.10.2019
6339 Clear 20 1016 49 10000 2.1 200 17:45 12.10.2019
6340 Clear 21 1016 53 10000 2.6 210 17:20 12.10.2019
6341 Clear 21 1016 53 10000 2.6 210 16:56 12.10.2019
6342 Clear 21 1016 49 10000 2.6 200 16:38 12.10.2019
6343 Clear 21 1016 53 10000 2.6 200 16:18 12.10.2019
6344 Clear 22 1016 46 10000 3.6 200 15:44 12.10.2019
6345 Clear 22 1016 46 10000 3.6 200 15:25 12.10.2019
6346 Clear 22 1016 46 10000 3.6 200 15:25 12.10.2019
6347 Clear 22 1016 46 10000 3.6 200 14:57 12.10.2019
6348 Clear 21 1016 49 10000 3.6 220 14:38 12.10.2019
6349 Clear 21 1016 52 10000 4.1 220 14:19 12.10.2019
6350 Clear 21 1016 52 10000 2.1 210 13:44 12.10.2019
6351 Clear 20 1017 56 10000 3.6 220 13:26 12.10.2019
6352 Clear 20 1017 52 10000 2.1 0 12:40 12.10.2019
6353 Clear 19 1017 55 10000 2.1 140 12:22 12.10.2019
6354 Clear 19 1017 55 10000 2.1 140 12:22 12.10.2019
6355 Clear 19 1017 55 10000 2.1 140 12:22 12.10.2019
6356 Clear 18 1017 55 10000 2.1 140 11:59 12.10.2019
6357 Clear 18 1017 55 10000 1.5 140 11:40 12.10.2019
6358 Clear 17 1017 63 10000 1.5 170 11:22 12.10.2019
6359 -273 0 0 0 0 0 10:56 12.10.2019
6360 Clear 16 1017 72 10000 1 0 10:37 12.10.2019
6361 Clear 15 1017 82 10000 0.5 0 10:19 12.10.2019
6362 Clear 13 1017 81 10000 1 0 09:56 12.10.2019
6363 Clear 13 1017 81 10000 1 0 09:55 12.10.2019
6364 Clear 13 1017 81 10000 1 0 09:37 12.10.2019
6365 Clear 10 1017 87 10000 1 0 09:19 12.10.2019
6366 Clear 10 1016 81 10000 0.5 0 08:42 12.10.2019
6367 Clouds 9 1016 81 10000 1 0 08:22 12.10.2019
6368 Clouds 9 1016 93 10000 1 0 07:40 12.10.2019
6369 Clear 8 1016 93 10000 0.5 190 07:22 12.10.2019
6370 Clear 9 1016 93 10000 0.5 0 05:54 12.10.2019
6371 Clear 9 1016 93 10000 0.5 0 05:25 12.10.2019
6372 Clear 9 1016 87 10000 0.5 0 04:31 12.10.2019
6373 Clear 9 1016 81 10000 0.5 0 03:46 12.10.2019
6374 Clear 9 1016 87 10000 0.5 0 02:37 12.10.2019
6375 Clear 10 1017 87 10000 0.5 360 01:31 12.10.2019
6376 Clear 10 1017 81 10000 0.5 0 00:54 12.10.2019
6377 Clear 10 1017 81 10000 0.5 0 00:35 12.10.2019
6378 Clear 10 1017 81 10000 1 0 23:54 11.10.2019
6379 Clear 10 1017 81 10000 1.5 210 23:36 11.10.2019
6380 Clear 10 1017 81 10000 1.5 210 23:36 11.10.2019
6381 Clear 10 1016 93 10000 0.5 0 23:18 11.10.2019
6382 Clear 11 1016 81 10000 1 0 22:37 11.10.2019
6383 Clear 11 1016 87 10000 1.5 260 22:19 11.10.2019
6384 Clear 11 1016 82 10000 0.5 0 21:42 11.10.2019
6385 Clear 12 1016 81 10000 1 0 21:21 11.10.2019
6386 Clear 12 1016 81 10000 1.5 140 20:57 11.10.2019
6387 Clear 12 1016 81 10000 1.5 140 20:38 11.10.2019
6388 Clear 12 1016 81 10000 1.5 140 20:20 11.10.2019
6389 Clear 13 1016 71 10000 1 0 19:55 11.10.2019
6390 Clear 14 1016 71 10000 1 0 19:37 11.10.2019
6391 Clear 14 1016 67 10000 1.5 220 19:18 11.10.2019
6392 Clear 14 1016 67 10000 1.5 220 19:18 11.10.2019
6393 Clear 14 1016 67 10000 1.5 220 19:18 11.10.2019
6394 Clear 16 1016 59 10000 1 0 18:56 11.10.2019
6395 Clear 17 1016 59 10000 1 0 18:37 11.10.2019
6396 Clear 17 1017 55 10000 0.5 0 18:18 11.10.2019
6397 Clear 18 1017 59 10000 1.5 0 17:55 11.10.2019
6398 Clear 18 1017 59 10000 1.5 0 17:36 11.10.2019
6399 Clouds 18 1017 55 10000 3.1 240 17:18 11.10.2019
6400 Clouds 19 1017 55 10000 2.6 220 16:40 11.10.2019
6401 Clouds 19 1017 59 10000 2.6 220 16:20 11.10.2019
6402 Clouds 19 1017 59 10000 2.6 220 16:20 11.10.2019
6403 Clouds 19 1017 59 10000 2.6 220 15:58 11.10.2019
6404 Clouds 19 1018 55 10000 2.6 0 15:38 11.10.2019
6405 Clouds 19 1018 55 10000 4.6 200 15:19 11.10.2019
6406 Clouds 18 1018 59 10000 3.6 220 14:47 11.10.2019
6407 Clouds 18 1018 59 10000 3.6 220 14:29 11.10.2019
6408 Clouds 18 1019 59 10000 4.6 220 13:56 11.10.2019
6409 Clouds 17 1019 59 10000 4.6 220 13:37 11.10.2019
6410 Clouds 17 1020 59 10000 3.6 200 13:19 11.10.2019
6411 Clouds 16 1020 63 10000 3.1 210 12:56 11.10.2019
6412 Clouds 16 1020 63 10000 3.1 210 12:38 11.10.2019
6413 Clouds 16 1020 67 10000 2.1 200 12:18 11.10.2019
6414 Clouds 14 1021 67 10000 2.1 190 11:41 11.10.2019
6415 Clouds 14 1021 71 10000 2.1 200 11:22 11.10.2019
6416 Clouds 14 1021 71 10000 2.1 200 11:22 11.10.2019
6417 Clouds 13 1020 71 10000 3.1 190 10:58 11.10.2019
6418 Clouds 12 1020 71 10000 3.1 190 10:40 11.10.2019
6419 Clouds 11 1020 81 10000 2.6 190 10:22 11.10.2019
6420 Clouds 10 1020 81 10000 1 0 09:56 11.10.2019
6421 Clouds 10 1020 81 10000 1 0 09:37 11.10.2019
6422 Clouds 9 1021 87 10000 0.5 310 09:19 11.10.2019
6423 Clouds 8 1021 87 10000 1.5 250 08:55 11.10.2019
6424 Clouds 7 1021 93 10000 1 0 08:36 11.10.2019
6425 Clouds 7 1021 93 10000 1 0 08:18 11.10.2019
6426 Fog 7 1021 87 10000 1.5 240 07:44 11.10.2019
6427 Fog 7 1020 93 10000 2.1 260 07:25 11.10.2019
6428 Clear 7 1020 100 10000 0.5 0 06:48 11.10.2019
6429 Clear 8 1020 93 10000 1 0 06:23 11.10.2019
6430 Clear 8 1021 93 10000 1 0 05:39 11.10.2019
6431 Clear 8 1021 93 10000 1 0 04:59 11.10.2019
6432 Clear 7 1022 93 10000 0.5 0 04:25 11.10.2019
6433 Clouds 8 1022 93 10000 0.5 0 02:40 11.10.2019
6434 Clear 9 1022 87 10000 2.6 200 00:51 11.10.2019
6435 Clear 8 1021 93 10000 2.1 220 00:29 11.10.2019
6436 Clear 9 1022 93 10000 2.1 230 23:46 10.10.2019
6437 Clear 9 1022 87 10000 2.1 210 23:23 10.10.2019
6438 Clear 9 1021 81 10000 3.1 210 22:58 10.10.2019
6439 Clear 9 1021 81 10000 3.1 210 22:39 10.10.2019
6440 Clear 10 1021 87 10000 2.1 200 22:21 10.10.2019
6441 Clear 9 1021 87 10000 2.1 200 21:58 10.10.2019
6442 Clouds 10 1021 81 10000 1.5 230 21:40 10.10.2019
6443 Clouds 10 1021 87 10000 2.1 220 21:21 10.10.2019
6444 Clouds 10 1021 87 10000 2.1 210 20:57 10.10.2019
6445 Clouds 10 1021 87 10000 2.1 210 20:38 10.10.2019
6446 Clouds 10 1020 81 10000 2.1 190 20:18 10.10.2019
6447 -273 0 0 0 0 0 19:54 10.10.2019
6448 Rain 11 1020 81 10000 1.5 230 19:36 10.10.2019
6449 Rain 11 1020 81 10000 2.1 200 19:18 10.10.2019
6450 Rain 11 1019 76 10000 2.6 230 18:41 10.10.2019
6451 Rain 12 1019 66 10000 3.1 0 18:20 10.10.2019
6452 Clouds 13 1019 71 10000 3.6 240 17:55 10.10.2019
6453 Clouds 13 1019 71 10000 3.6 240 17:37 10.10.2019
6454 Rain 13 1019 76 10000 3.6 260 17:18 10.10.2019
6455 Rain 13 1019 81 10000 3.6 250 16:47 10.10.2019
6456 Rain 14 1019 81 10000 5.1 250 16:26 10.10.2019
6457 Rain 14 1019 81 10000 5.1 250 16:26 10.10.2019
6458 Rain 13 1019 81 10000 5.1 250 15:58 10.10.2019
6459 Rain 13 1019 71 10000 6.2 280 15:38 10.10.2019
6460 Rain 13 1018 67 10000 7.2 270 15:20 10.10.2019
6461 Rain 13 1018 67 10000 7.2 260 14:55 10.10.2019
6462 Rain 13 1018 67 10000 7.2 260 14:36 10.10.2019
6463 Clouds 13 1018 71 10000 4.6 250 14:18 10.10.2019
6464 Rain 12 1018 76 10000 5.1 250 13:46 10.10.2019
6465 Clouds 12 1018 76 10000 5.1 260 13:27 10.10.2019
6466 Clouds 12 1018 76 10000 3.1 240 12:58 10.10.2019
6467 Clouds 11 1018 76 10000 3.1 240 12:40 10.10.2019
6468 Clouds 11 1018 87 10000 2.6 260 12:20 10.10.2019
6469 Rain 11 1018 93 10000 2.6 250 11:58 10.10.2019
6470 Rain 10 1018 93 10000 2.6 250 11:38 10.10.2019
6471 Clouds 10 1017 87 10000 3.6 260 11:19 10.10.2019
6472 Rain 10 1017 93 8000 6.2 280 10:45 10.10.2019
6473 Rain 9 1017 93 8000 6.2 280 10:26 10.10.2019
6474 Rain 9 1015 87 10000 3.1 220 09:58 10.10.2019
6475 Rain 9 1015 87 10000 3.1 220 09:39 10.10.2019
6476 Rain 9 1015 87 10000 4.1 250 09:21 10.10.2019
6477 Rain 9 1015 87 10000 4.1 250 08:57 10.10.2019
6478 Rain 10 1014 87 10000 2.1 240 08:38 10.10.2019
6479 Rain 10 1014 87 10000 2.6 210 08:19 10.10.2019
6480 Clouds 9 1013 87 10000 3.1 0 07:45 10.10.2019
6481 Rain 9 1013 93 10000 3.6 190 07:23 10.10.2019
6482 Clouds 9 1013 93 10000 2.6 200 06:49 10.10.2019
6483 Clouds 9 1013 93 10000 2.6 200 06:49 10.10.2019
6484 Clouds 9 1014 100 10000 1 0 06:29 10.10.2019
6485 Clouds 9 1014 100 10000 1.5 140 05:28 10.10.2019
6486 Rain 9 1014 93 10000 0.5 0 04:55 10.10.2019
6487 Clouds 9 1014 93 10000 1.5 150 04:33 10.10.2019
6488 Rain 9 1014 87 10000 3.1 220 02:19 10.10.2019
6489 Rain 9 1014 87 10000 3.1 220 02:19 10.10.2019
6490 Rain 9 1014 87 10000 4.6 250 01:36 10.10.2019
6491 Rain 9 1014 87 10000 4.6 250 01:36 10.10.2019
6492 Rain 9 1014 93 10000 2.6 230 01:18 10.10.2019
6493 Clear 9 1014 87 10000 2.1 190 00:25 10.10.2019
6494 Clear 9 1014 87 10000 3.1 200 23:42 09.10.2019
6495 Clear 9 1013 87 10000 2.6 0 23:23 09.10.2019
6496 Clear 9 1013 87 10000 2.6 0 22:59 09.10.2019
6497 Clear 10 1014 87 10000 3.1 210 22:41 09.10.2019
6498 Clear 10 1014 81 10000 3.6 230 22:22 09.10.2019
6499 Clear 10 1014 81 10000 3.6 230 21:56 09.10.2019
6500 Clouds 10 1013 87 10000 4.6 200 21:38 09.10.2019
6501 Clouds 10 1013 87 10000 5.1 210 21:19 09.10.2019
6502 Rain 10 1014 93 10000 3.6 210 20:55 09.10.2019
6503 Rain 10 1014 93 10000 3.6 210 20:36 09.10.2019
6504 Rain 11 1013 81 10000 3.6 210 20:18 09.10.2019
6505 Rain 11 1013 81 10000 3.6 210 20:18 09.10.2019
6506 Rain 11 1013 81 10000 3.6 210 20:18 09.10.2019
6507 Rain 11 1013 81 10000 3.1 210 19:43 09.10.2019
6508 Clouds 11 1012 81 10000 4.1 0 19:23 09.10.2019
6509 Clouds 11 1012 76 10000 4.1 0 18:40 09.10.2019
6510 Clouds 12 1012 76 10000 4.1 210 18:21 09.10.2019
6511 Clouds 12 1012 81 10000 4.6 210 17:59 09.10.2019
6512 Clouds 12 1012 81 10000 4.6 210 17:40 09.10.2019
6513 Clouds 12 1012 81 10000 4.6 210 17:40 09.10.2019
6514 Rain 12 1012 81 10000 4.6 210 17:22 09.10.2019
6515 Rain 12 1012 81 10000 4.6 210 16:58 09.10.2019
6516 Rain 12 1012 81 10000 4.6 230 16:40 09.10.2019
6517 Rain 12 1012 71 10000 5.1 230 16:21 09.10.2019
6518 Rain 12 1012 71 10000 5.1 230 15:57 09.10.2019
6519 Clouds 12 1012 71 10000 5.1 220 15:38 09.10.2019
6520 Clouds 12 1012 71 10000 5.1 220 15:38 09.10.2019
6521 Clouds 13 1011 76 10000 2.6 220 15:19 09.10.2019
6522 Clouds 12 1012 76 10000 2.1 200 14:55 09.10.2019
6523 Clouds 12 1012 76 10000 2.1 200 14:37 09.10.2019
6524 Clouds 13 1012 87 10000 2.1 0 14:18 09.10.2019
6525 Clouds 13 1012 87 10000 1.5 220 13:39 09.10.2019
6526 Clouds 13 1012 87 10000 1.5 220 13:39 09.10.2019
6527 Rain 12 1013 87 10000 1.5 230 13:20 09.10.2019
6528 Rain 12 1012 87 10000 2.1 250 12:57 09.10.2019
6529 Rain 13 1012 87 10000 2.1 250 12:38 09.10.2019
6530 Rain 13 1012 87 10000 2.6 190 12:20 09.10.2019
6531 Clouds 12 1013 82 10000 2.1 210 11:55 09.10.2019
6532 Clouds 12 1013 82 10000 2.1 210 11:55 09.10.2019
6533 Clouds 12 1013 82 10000 2.1 210 11:36 09.10.2019
6534 Clear 12 1013 82 10000 2.1 0 11:18 09.10.2019
6535 Clear 12 1013 81 10000 2.1 200 10:43 09.10.2019
6536 Clear 11 1013 81 10000 1.5 200 10:20 09.10.2019
6537 Clear 11 1013 81 10000 2.1 220 09:57 09.10.2019
6538 Clear 11 1013 81 10000 2.1 220 09:38 09.10.2019
6539 Clear 11 1013 81 10000 2.1 220 09:38 09.10.2019
6540 Clear 10 1014 81 10000 2.1 210 09:18 09.10.2019
6541 Clear 10 1014 87 10000 1.5 200 08:39 09.10.2019
6542 Clear 10 1014 87 10000 1 0 08:21 09.10.2019
6543 Clouds 10 1014 87 10000 1.5 230 07:54 09.10.2019
6544 Clouds 10 1014 87 10000 1.5 230 07:36 09.10.2019
6545 Clouds 10 1014 87 10000 1.5 240 07:18 09.10.2019
6546 Clouds 10 1014 93 10000 1.5 220 06:47 09.10.2019
6547 Clouds 11 1014 93 10000 1.5 280 05:55 09.10.2019
6548 Clouds 11 1013 87 10000 2.6 260 05:23 09.10.2019
6549 Clouds 11 1013 81 10000 2.1 260 04:20 09.10.2019
6550 Clouds 12 1013 87 10000 6.7 290 02:50 09.10.2019
6551 Rain 13 1012 87 10000 7.2 290 01:43 09.10.2019
6552 Rain 13 1011 87 10000 7.7 300 01:20 09.10.2019
6553 Rain 14 1010 87 10000 4.1 290 00:56 09.10.2019
6554 Rain 14 1010 87 10000 4.1 290 00:38 09.10.2019
6555 Rain 15 1010 93 5000 4.1 260 00:19 09.10.2019
6556 Rain 15 1009 93 10000 2.6 220 23:39 08.10.2019
6557 Rain 15 1009 93 10000 2.6 230 23:19 08.10.2019
6558 Clouds 15 1010 87 10000 3.6 210 22:56 08.10.2019
6559 Clouds 15 1010 87 10000 3.6 210 22:38 08.10.2019
6560 Clouds 15 1010 87 10000 3.6 210 22:19 08.10.2019
6561 Clouds 15 1010 87 10000 3.1 230 21:57 08.10.2019
6562 Clouds 15 1010 87 10000 3.1 230 21:39 08.10.2019
6563 Rain 15 1010 87 10000 3.1 240 21:19 08.10.2019
6564 Rain 15 1010 87 10000 3.1 240 20:56 08.10.2019
6565 Rain 15 1010 87 10000 2.6 210 20:37 08.10.2019
6566 Rain 15 1010 93 5000 3.1 220 20:19 08.10.2019
6567 Clouds 15 1010 87 10000 3.1 220 19:57 08.10.2019
6568 Clouds 15 1010 87 10000 3.1 220 19:38 08.10.2019
6569 Rain 15 1010 87 10000 3.1 0 19:20 08.10.2019
6570 Rain 15 1010 82 10000 3.1 0 18:46 08.10.2019
6571 Rain 15 1010 82 10000 3.1 0 18:28 08.10.2019
6572 Drizzle 15 1010 82 10000 4.1 240 17:59 08.10.2019
6573 Drizzle 15 1010 82 10000 4.1 240 17:40 08.10.2019
6574 Drizzle 15 1010 82 10000 4.1 240 17:40 08.10.2019
6575 Drizzle 15 1011 77 10000 3.1 240 17:20 08.10.2019
6576 Drizzle 15 1011 77 10000 3.1 240 16:58 08.10.2019
6577 Drizzle 15 1011 77 10000 3.1 240 16:38 08.10.2019
6578 Drizzle 15 1011 82 10000 3.6 260 16:20 08.10.2019
6579 Rain 15 1011 72 10000 4.1 250 15:41 08.10.2019
6580 -273 0 0 0 0 0 15:41 08.10.2019
6581 Rain 15 1011 72 10000 4.1 250 15:21 08.10.2019
6582 Rain 15 1011 72 10000 4.1 250 14:58 08.10.2019
6583 Rain 15 1012 72 10000 3.6 240 14:39 08.10.2019
6584 Clouds 15 1012 72 10000 3.6 230 14:20 08.10.2019
6585 Clouds 14 1012 67 10000 4.1 220 13:57 08.10.2019
6586 Clouds 14 1012 67 10000 4.1 220 13:38 08.10.2019
6587 Clouds 14 1013 67 10000 2.6 0 13:19 08.10.2019
6588 Clouds 14 1013 67 10000 2.6 0 13:19 08.10.2019
6589 Clouds 14 1013 67 10000 2.6 0 12:58 08.10.2019
6590 Clouds 14 1013 67 10000 3.1 210 12:37 08.10.2019
6591 Rain 13 1013 62 10000 2.6 200 12:18 08.10.2019
6592 Rain 13 1013 67 10000 3.1 200 11:42 08.10.2019
6593 Rain 13 1014 67 10000 3.1 210 11:24 08.10.2019
6594 Rain 13 1014 67 10000 3.1 210 10:58 08.10.2019
6595 Clouds 12 1014 71 10000 3.6 200 10:37 08.10.2019
6596 Clouds 12 1014 76 10000 2.6 200 10:19 08.10.2019
6597 Clouds 11 1014 76 10000 2.6 190 09:55 08.10.2019
6598 Clouds 11 1014 76 10000 2.6 190 09:37 08.10.2019
6599 Clouds 11 1014 81 10000 2.1 190 09:19 08.10.2019
6600 Clear 11 1015 76 10000 2.1 190 08:42 08.10.2019
6601 Clear 11 1015 76 10000 2.6 190 08:23 08.10.2019
6602 Clear 10 1015 76 10000 2.1 200 07:44 08.10.2019
6603 Rain 10 1015 76 10000 2.1 190 07:21 08.10.2019
6604 Rain 10 1016 81 10000 1.5 220 06:51 08.10.2019
6605 Clouds 10 1016 87 10000 2.1 200 06:28 08.10.2019
6606 Clouds 10 1016 81 10000 2.6 200 05:46 08.10.2019
6607 Clouds 10 1017 81 10000 2.1 200 05:26 08.10.2019
6608 Clouds 10 1017 87 10000 2.6 210 04:31 08.10.2019
6609 Clouds 10 1018 87 10000 1.5 220 03:28 08.10.2019
6610 Clouds 10 1018 87 10000 1.5 230 02:37 08.10.2019
6611 Clouds 10 1018 81 10000 2.6 230 01:47 08.10.2019
6612 Clouds 10 1018 87 10000 1.5 0 01:28 08.10.2019
6613 Clouds 10 1018 87 10000 0.5 0 00:48 08.10.2019
6614 Clouds 10 1019 87 10000 0.5 0 00:21 08.10.2019
6615 Clouds 10 1019 87 10000 0.5 140 23:41 07.10.2019
6616 Clouds 10 1019 93 10000 0.5 0 23:20 07.10.2019
6617 Clouds 10 1019 93 10000 0.5 0 23:20 07.10.2019
6618 Clouds 10 1019 93 10000 0.5 0 22:57 07.10.2019
6619 Clouds 10 1019 93 10000 0.5 0 22:39 07.10.2019
6620 Clouds 10 1019 87 10000 0.5 0 22:20 07.10.2019
6621 Clouds 10 1019 87 10000 0.5 0 21:57 07.10.2019
6622 Clouds 10 1019 87 10000 0.5 0 21:38 07.10.2019
6623 Clouds 10 1019 87 10000 0.5 0 21:20 07.10.2019
6624 Clear 11 1018 81 10000 0.5 0 20:58 07.10.2019
6625 Clear 11 1018 81 10000 0.5 0 20:39 07.10.2019
6626 Clear 11 1018 87 10000 0.5 0 20:20 07.10.2019
6627 Clear 11 1018 76 10000 1 340 19:58 07.10.2019
6628 Clear 11 1018 76 10000 1 340 19:40 07.10.2019
6629 Clear 12 1018 76 10000 2.1 320 19:19 07.10.2019
6630 Clouds 12 1018 71 10000 1.5 340 18:57 07.10.2019
6631 Clouds 13 1018 76 10000 1 0 18:38 07.10.2019
6632 Clouds 13 1018 76 10000 1 0 18:18 07.10.2019
6633 Clouds 13 1018 76 10000 1 0 18:18 07.10.2019
6634 Clouds 13 1018 76 10000 2.1 360 17:43 07.10.2019
6635 Clouds 13 1018 71 10000 3.1 10 17:20 07.10.2019
6636 Clouds 14 1018 62 10000 1.5 70 16:58 07.10.2019
6637 Clouds 14 1018 62 10000 1.5 70 16:39 07.10.2019
6638 Clouds 14 1018 62 10000 1 0 16:20 07.10.2019
6639 Clouds 13 1018 62 10000 0.5 0 15:45 07.10.2019
6640 Clouds 14 1018 62 10000 0.5 0 15:26 07.10.2019
6641 Clouds 13 1018 62 10000 1.5 0 14:56 07.10.2019
6642 Clouds 13 1018 62 10000 1.5 0 14:38 07.10.2019
6643 Clouds 13 1018 67 10000 2.1 0 14:20 07.10.2019
6644 Clouds 12 1019 81 10000 2.1 40 13:43 07.10.2019
6645 Rain 12 1019 81 10000 2.6 20 13:21 07.10.2019
6646 Rain 12 1019 81 10000 2.6 20 12:57 07.10.2019
6647 Rain 11 1019 87 10000 3.1 20 12:39 07.10.2019
6648 Drizzle 10 1019 87 10000 2.6 30 12:19 07.10.2019
6649 Clouds 10 1019 81 10000 1 0 11:57 07.10.2019
6650 Clouds 10 1019 81 10000 1 0 11:38 07.10.2019
6651 Clouds 10 1018 81 10000 2.1 200 11:20 07.10.2019
6652 Clouds 9 1018 93 10000 2.1 80 10:42 07.10.2019
6653 Clouds 9 1018 87 10000 0.5 0 10:21 07.10.2019
6654 -273 0 0 0 0 0 09:54 07.10.2019
6655 Clouds 8 1017 93 10000 1.5 280 09:36 07.10.2019
6656 Rain 8 1017 93 10000 1.5 320 09:18 07.10.2019
6657 Rain 8 1017 93 10000 2.6 310 08:41 07.10.2019
6658 Clouds 8 1016 93 10000 2.6 270 08:20 07.10.2019
6659 Clouds 8 1016 93 8000 3.1 320 07:44 07.10.2019
6660 Drizzle 8 1015 93 7000 3.1 320 07:25 07.10.2019
6661 Rain 8 1016 93 10000 3.1 330 06:56 07.10.2019
6662 Rain 8 1016 93 10000 3.1 330 06:37 07.10.2019
6663 Mist 9 1014 93 10000 2.6 320 05:54 07.10.2019
6664 Mist 9 1014 93 10000 2.6 320 05:25 07.10.2019
6665 Clouds 9 1014 93 10000 1.5 320 04:44 07.10.2019
6666 Rain 9 1013 93 10000 3.1 250 03:45 07.10.2019
6667 Rain 9 1013 93 10000 3.1 250 03:45 07.10.2019
6668 Rain 9 1013 93 10000 1.5 0 03:23 07.10.2019
6669 Rain 9 1012 93 10000 1.5 250 02:23 07.10.2019
6670 Rain 9 1012 93 10000 1.5 250 02:23 07.10.2019
6671 Rain 9 1012 93 10000 1.5 250 01:58 07.10.2019
6672 Rain 10 1012 93 10000 3.6 250 01:23 07.10.2019
6673 Rain 10 1011 87 10000 4.1 250 00:49 07.10.2019
6674 Rain 10 1011 87 10000 4.6 270 00:23 07.10.2019
6675 Rain 10 1010 81 10000 5.7 280 23:59 06.10.2019
6676 Rain 10 1010 81 10000 5.7 280 23:40 06.10.2019
6677 Rain 10 1009 87 10000 5.1 280 23:19 06.10.2019
6678 Drizzle 11 1009 93 5000 3.6 260 22:55 06.10.2019
6679 Drizzle 11 1009 93 5000 3.6 260 22:55 06.10.2019
6680 Drizzle 11 1009 93 5000 3.6 260 22:37 06.10.2019
6681 Drizzle 10 1009 93 8000 0.5 0 22:18 06.10.2019
6682 Drizzle 11 1009 100 9000 0.5 0 21:55 06.10.2019
6683 Drizzle 10 1009 100 9000 0.5 0 21:55 06.10.2019
6684 Drizzle 10 1009 100 9000 0.5 0 21:36 06.10.2019
6685 Fog 10 1009 100 10000 0.5 110 21:18 06.10.2019
6686 Rain 10 1009 100 10000 1.5 80 20:54 06.10.2019
6687 Rain 10 1009 100 10000 1.5 80 20:36 06.10.2019
6688 Rain 10 1009 100 10000 1.5 80 20:36 06.10.2019
6689 Rain 10 1009 100 10000 1.5 80 20:36 06.10.2019
6690 Rain 10 1010 100 8000 1 90 20:18 06.10.2019
6691 Rain 10 1010 100 8000 1 90 19:55 06.10.2019
6692 Rain 10 1010 100 8000 1 90 19:55 06.10.2019
6693 Rain 10 1010 100 7000 1 80 19:36 06.10.2019
6694 Rain 10 1010 93 10000 1 80 19:18 06.10.2019
6695 Rain 10 1010 93 10000 1 80 19:18 06.10.2019
6696 Rain 10 1011 93 10000 1.5 90 18:55 06.10.2019
6697 Rain 10 1011 93 10000 1.5 90 18:55 06.10.2019
6698 Rain 11 1011 93 10000 1.5 90 18:36 06.10.2019
6699 Rain 11 1011 93 10000 1.5 90 18:18 06.10.2019
6700 Rain 11 1011 87 10000 1.5 160 17:42 06.10.2019
6701 -273 0 0 0 0 0 17:20 06.10.2019
6702 Rain 11 1011 93 10000 1.5 170 17:20 06.10.2019
6703 Rain 11 1011 93 10000 1.5 170 17:20 06.10.2019
6704 Rain 11 1012 93 10000 2.1 160 16:55 06.10.2019
6705 Rain 11 1012 93 10000 2.1 160 16:37 06.10.2019
6706 Rain 10 1012 87 7000 2.1 150 16:18 06.10.2019
6707 Rain 10 1013 87 10000 1.5 100 15:43 06.10.2019
6708 Rain 10 1013 93 8000 1.5 100 15:22 06.10.2019
6709 Rain 10 1013 87 10000 1.5 80 14:56 06.10.2019
6710 Rain 10 1013 87 10000 1.5 80 14:38 06.10.2019
6711 Rain 10 1014 87 10000 2.1 80 14:19 06.10.2019
6712 Rain 10 1014 87 10000 2.1 100 13:42 06.10.2019
6713 Rain 10 1014 87 10000 2.1 100 13:42 06.10.2019
6714 Rain 10 1015 87 10000 2.1 110 13:24 06.10.2019
6715 Rain 9 1015 100 10000 2.6 100 12:59 06.10.2019
6716 Rain 9 1015 100 10000 2.6 100 12:41 06.10.2019
6717 Drizzle 10 1016 93 9000 2.6 130 12:21 06.10.2019
6718 Drizzle 9 1016 93 6000 2.6 0 11:59 06.10.2019
6719 Drizzle 9 1016 93 6000 2.6 0 11:41 06.10.2019
6720 Drizzle 9 1016 87 4500 2.1 130 11:23 06.10.2019
6721 Rain 9 1016 93 10000 1 0 10:56 06.10.2019
6722 Rain 9 1016 93 10000 1 0 10:37 06.10.2019
6723 Rain 8 1016 93 10000 1.5 90 10:19 06.10.2019
6724 Rain 8 1016 93 10000 1.5 90 10:19 06.10.2019
6725 Clouds 8 1017 93 10000 2.1 70 09:41 06.10.2019
6726 Clouds 8 1016 93 10000 1 0 09:20 06.10.2019
6727 Clouds 8 1016 93 10000 1 0 09:20 06.10.2019
6728 Clouds 7 1017 93 10000 1.5 70 08:49 06.10.2019
6729 Clouds 7 1017 93 10000 1 0 08:24 06.10.2019
6730 Clouds 7 1017 93 10000 1 0 07:59 06.10.2019
6731 Clouds 7 1017 93 10000 1 0 07:59 06.10.2019
6732 Clouds 7 1017 93 10000 1 0 07:40 06.10.2019
6733 Clouds 7 1017 93 10000 1.5 90 06:53 06.10.2019
6734 Clouds 7 1017 93 10000 1 0 05:41 06.10.2019
6735 Clouds 7 1017 93 10000 1 0 05:41 06.10.2019
6736 Clouds 7 1017 93 10000 1 0 04:40 06.10.2019
6737 Clouds 7 1018 93 10000 2.1 80 02:56 06.10.2019
6738 Clouds 7 1018 100 10000 2.6 70 02:34 06.10.2019
6739 Clouds 7 1018 100 10000 1.5 80 01:50 06.10.2019
6740 Clouds 7 1018 100 10000 1.5 80 01:31 06.10.2019
6741 Clouds 7 1018 100 10000 1.5 80 01:31 06.10.2019
6742 Clouds 8 1018 93 10000 1.5 70 00:59 06.10.2019
6743 Clouds 8 1018 93 10000 1.5 70 00:59 06.10.2019
6744 Clouds 8 1019 93 10000 1 0 00:40 06.10.2019
6745 Clouds 8 1018 93 10000 0.5 0 00:20 06.10.2019
6746 Clouds 8 1019 93 10000 0.5 0 23:42 05.10.2019
6747 Clouds 8 1019 93 10000 1 350 23:21 05.10.2019
6748 Clear 8 1018 93 10000 0.5 50 22:56 05.10.2019
6749 Clear 8 1018 93 10000 0.5 50 22:38 05.10.2019
6750 Clear 8 1018 87 10000 0.5 0 22:19 05.10.2019
6751 Clouds 9 1018 87 10000 1 40 21:42 05.10.2019
6752 Clouds 9 1018 87 10000 1 40